<?xml version='1.0' encoding='UTF-8'?><gpx version="1.1" creator="JPX - https://github.com/jenetics/jpx" xmlns="http://www.topografix.com/GPX/1/1"><trk><trkseg><trkpt lat="36.92397894903365" lon="15.156958088849237"><ele>21.0</ele><time>2026-04-17T07:01:45.999Z</time></trkpt><trkpt lat="36.924048089151114" lon="15.156910275691459"><ele>21.0</ele><time>2026-04-17T07:01:57.999Z</time></trkpt><trkpt lat="36.92404763508626" lon="15.156766815851183"><ele>21.0</ele><time>2026-04-17T07:02:10.999Z</time></trkpt><trkpt lat="36.92400898116079" lon="15.156692679313613"><ele>21.0</ele><time>2026-04-17T07:02:11.999Z</time></trkpt><trkpt lat="36.92392940394279" lon="15.15657223428266"><ele>21.0</ele><time>2026-04-17T07:02:13.999Z</time></trkpt><trkpt lat="36.92389401082315" lon="15.156503354687558"><ele>21.166666666666668</ele><time>2026-04-17T07:02:14.999Z</time></trkpt><trkpt lat="36.92386172000666" lon="15.156429852659647"><ele>21.333333333333332</ele><time>2026-04-17T07:02:15.999Z</time></trkpt><trkpt lat="36.92379483002842" lon="15.156301238680559"><ele>21.5</ele><time>2026-04-17T07:02:17.999Z</time></trkpt><trkpt lat="36.92376014765198" lon="15.156235114176557"><ele>21.666666666666664</ele><time>2026-04-17T07:02:18.999Z</time></trkpt><trkpt lat="36.92368696704054" lon="15.156111053396888"><ele>21.833333333333332</ele><time>2026-04-17T07:02:20.999Z</time></trkpt><trkpt lat="36.92364414420213" lon="15.156037553547737"><ele>22.0</ele><time>2026-04-17T07:02:21.999Z</time></trkpt><trkpt lat="36.92359624468843" lon="15.155956053053965"><ele>22.0</ele><time>2026-04-17T07:02:22.999Z</time></trkpt><trkpt lat="36.923558950745594" lon="15.15589102124936"><ele>22.0</ele><time>2026-04-17T07:02:23.999Z</time></trkpt><trkpt lat="36.923494617164216" lon="15.155787491276358"><ele>22.0</ele><time>2026-04-17T07:02:25.999Z</time></trkpt><trkpt lat="36.92345387583879" lon="15.155724749836288"><ele>22.0</ele><time>2026-04-17T07:02:26.999Z</time></trkpt><trkpt lat="36.92340757735933" lon="15.155653315465337"><ele>22.0</ele><time>2026-04-17T07:02:27.999Z</time></trkpt><trkpt lat="36.923355833615055" lon="15.155567802963626"><ele>22.0</ele><time>2026-04-17T07:02:28.999Z</time></trkpt><trkpt lat="36.92330709997263" lon="15.155471636168135"><ele>21.400000000000002</ele><time>2026-04-17T07:02:29.999Z</time></trkpt><trkpt lat="36.92324601130054" lon="15.155370588452868"><ele>20.8</ele><time>2026-04-17T07:02:30.999Z</time></trkpt><trkpt lat="36.923185260134495" lon="15.155259945797557"><ele>20.2</ele><time>2026-04-17T07:02:31.999Z</time></trkpt><trkpt lat="36.923123223963415" lon="15.155140221163746"><ele>19.6</ele><time>2026-04-17T07:02:32.999Z</time></trkpt><trkpt lat="36.92306055996804" lon="15.155030302704441"><ele>19.0</ele><time>2026-04-17T07:02:33.999Z</time></trkpt><trkpt lat="36.92299688284222" lon="15.15492192393177"><ele>19.2</ele><time>2026-04-17T07:02:34.999Z</time></trkpt><trkpt lat="36.92293409905143" lon="15.154814413684985"><ele>19.4</ele><time>2026-04-17T07:02:35.999Z</time></trkpt><trkpt lat="36.92287529060737" lon="15.154704017388514"><ele>19.6</ele><time>2026-04-17T07:02:36.999Z</time></trkpt><trkpt lat="36.922815898958575" lon="15.154591461120265"><ele>19.8</ele><time>2026-04-17T07:02:37.999Z</time></trkpt><trkpt lat="36.92275104315614" lon="15.154475337181692"><ele>20.0</ele><time>2026-04-17T07:02:38.999Z</time></trkpt><trkpt lat="36.92268921328772" lon="15.154355406975462"><ele>20.0</ele><time>2026-04-17T07:02:39.999Z</time></trkpt><trkpt lat="36.9226274587805" lon="15.154232997150077"><ele>20.0</ele><time>2026-04-17T07:02:40.999Z</time></trkpt><trkpt lat="36.92256789790422" lon="15.154108213750668"><ele>20.0</ele><time>2026-04-17T07:02:41.999Z</time></trkpt><trkpt lat="36.92250849251591" lon="15.153983813207342"><ele>20.0</ele><time>2026-04-17T07:02:42.999Z</time></trkpt><trkpt lat="36.922441601075114" lon="15.153870403532016"><ele>19.75</ele><time>2026-04-17T07:02:43.999Z</time></trkpt><trkpt lat="36.922381425832135" lon="15.15374678652008"><ele>19.5</ele><time>2026-04-17T07:02:44.999Z</time></trkpt><trkpt lat="36.922317681535006" lon="15.153620786934837"><ele>19.25</ele><time>2026-04-17T07:02:45.999Z</time></trkpt><trkpt lat="36.92225300859606" lon="15.153493756181236"><ele>19.0</ele><time>2026-04-17T07:02:46.999Z</time></trkpt><trkpt lat="36.92219123262407" lon="15.153371433244681"><ele>19.0</ele><time>2026-04-17T07:02:47.999Z</time></trkpt><trkpt lat="36.922125154704204" lon="15.153241359234382"><ele>19.0</ele><time>2026-04-17T07:02:48.999Z</time></trkpt><trkpt lat="36.92205701212814" lon="15.15311136252638"><ele>19.0</ele><time>2026-04-17T07:02:49.999Z</time></trkpt><trkpt lat="36.92198836522302" lon="15.152976822654287"><ele>19.0</ele><time>2026-04-17T07:02:50.999Z</time></trkpt><trkpt lat="36.92192214537639" lon="15.152837315369784"><ele>19.25</ele><time>2026-04-17T07:02:51.999Z</time></trkpt><trkpt lat="36.921854774210004" lon="15.152699179058022"><ele>19.5</ele><time>2026-04-17T07:02:52.999Z</time></trkpt><trkpt lat="36.921793343922324" lon="15.152560135823283"><ele>19.75</ele><time>2026-04-17T07:02:53.999Z</time></trkpt><trkpt lat="36.921735697449726" lon="15.152415599682621"><ele>20.0</ele><time>2026-04-17T07:02:54.999Z</time></trkpt><trkpt lat="36.92168109349811" lon="15.152271335690136"><ele>20.75</ele><time>2026-04-17T07:02:55.999Z</time></trkpt><trkpt lat="36.921625212700185" lon="15.152130620232239"><ele>21.5</ele><time>2026-04-17T07:02:56.999Z</time></trkpt><trkpt lat="36.92156790689634" lon="15.151991285884996"><ele>22.25</ele><time>2026-04-17T07:02:57.999Z</time></trkpt><trkpt lat="36.92150679158538" lon="15.15185038241151"><ele>23.0</ele><time>2026-04-17T07:02:58.999Z</time></trkpt><trkpt lat="36.92145250167698" lon="15.151709354706886"><ele>23.0</ele><time>2026-04-17T07:02:59.999Z</time></trkpt><trkpt lat="36.92139607107085" lon="15.151570114816426"><ele>23.0</ele><time>2026-04-17T07:03:00.999Z</time></trkpt><trkpt lat="36.921341309399665" lon="15.151429681917342"><ele>23.0</ele><time>2026-04-17T07:03:01.999Z</time></trkpt><trkpt lat="36.92129057652546" lon="15.151291840506776"><ele>23.0</ele><time>2026-04-17T07:03:02.999Z</time></trkpt><trkpt lat="36.92123974464543" lon="15.151156939479998"><ele>23.5</ele><time>2026-04-17T07:03:03.999Z</time></trkpt><trkpt lat="36.92118468710029" lon="15.151028705025903"><ele>24.0</ele><time>2026-04-17T07:03:04.999Z</time></trkpt><trkpt lat="36.92112772771818" lon="15.150900985489699"><ele>24.5</ele><time>2026-04-17T07:03:05.999Z</time></trkpt><trkpt lat="36.92107050856528" lon="15.15076956883349"><ele>25.0</ele><time>2026-04-17T07:03:06.999Z</time></trkpt><trkpt lat="36.92102034849763" lon="15.150633342465028"><ele>25.25</ele><time>2026-04-17T07:03:07.999Z</time></trkpt><trkpt lat="36.920966903486104" lon="15.150497414892337"><ele>25.5</ele><time>2026-04-17T07:03:08.999Z</time></trkpt><trkpt lat="36.92090691013487" lon="15.150361872010741"><ele>25.75</ele><time>2026-04-17T07:03:09.999Z</time></trkpt><trkpt lat="36.92084719801752" lon="15.150227740227544"><ele>26.0</ele><time>2026-04-17T07:03:10.999Z</time></trkpt><trkpt lat="36.920789392699476" lon="15.150085448613718"><ele>26.0</ele><time>2026-04-17T07:03:11.999Z</time></trkpt><trkpt lat="36.92073620366526" lon="15.149941535316437"><ele>26.0</ele><time>2026-04-17T07:03:12.999Z</time></trkpt><trkpt lat="36.92067703174037" lon="15.149795537961191"><ele>26.0</ele><time>2026-04-17T07:03:13.999Z</time></trkpt><trkpt lat="36.92061081043475" lon="15.149651185536554"><ele>26.0</ele><time>2026-04-17T07:03:14.999Z</time></trkpt><trkpt lat="36.92054874068112" lon="15.149496950081843"><ele>26.0</ele><time>2026-04-17T07:03:15.999Z</time></trkpt><trkpt lat="36.92048998689791" lon="15.149349430300873"><ele>26.0</ele><time>2026-04-17T07:03:16.999Z</time></trkpt><trkpt lat="36.92043144022927" lon="15.149204582660332"><ele>26.0</ele><time>2026-04-17T07:03:17.999Z</time></trkpt><trkpt lat="36.920371352440874" lon="15.149057496379069"><ele>26.0</ele><time>2026-04-17T07:03:18.999Z</time></trkpt><trkpt lat="36.92031104864442" lon="15.148917961357048"><ele>26.0</ele><time>2026-04-17T07:03:19.999Z</time></trkpt><trkpt lat="36.920251177213025" lon="15.14877309411748"><ele>26.0</ele><time>2026-04-17T07:03:20.999Z</time></trkpt><trkpt lat="36.92019087156449" lon="15.148625267428987"><ele>26.0</ele><time>2026-04-17T07:03:21.999Z</time></trkpt><trkpt lat="36.9201290164658" lon="15.148476309932688"><ele>26.0</ele><time>2026-04-17T07:03:22.999Z</time></trkpt><trkpt lat="36.920066552874204" lon="15.1483279314565"><ele>25.75</ele><time>2026-04-17T07:03:23.999Z</time></trkpt><trkpt lat="36.92000868975564" lon="15.148184983517194"><ele>25.5</ele><time>2026-04-17T07:03:24.999Z</time></trkpt><trkpt lat="36.91995967806408" lon="15.148046867547944"><ele>25.25</ele><time>2026-04-17T07:03:25.999Z</time></trkpt><trkpt lat="36.919919915860866" lon="15.147913332681679"><ele>25.0</ele><time>2026-04-17T07:03:26.999Z</time></trkpt><trkpt lat="36.91991484850863" lon="15.147790084101386"><ele>25.0</ele><time>2026-04-17T07:03:27.998Z</time></trkpt><trkpt lat="36.919950345565596" lon="15.147668150757887"><ele>25.0</ele><time>2026-04-17T07:03:28.998Z</time></trkpt><trkpt lat="36.92000724188207" lon="15.147566451259276"><ele>25.0</ele><time>2026-04-17T07:03:29.998Z</time></trkpt><trkpt lat="36.920080558592176" lon="15.147442498135586"><ele>25.0</ele><time>2026-04-17T07:03:30.998Z</time></trkpt><trkpt lat="36.92013247615089" lon="15.147302512004432"><ele>25.75</ele><time>2026-04-17T07:03:31.998Z</time></trkpt><trkpt lat="36.92016281203954" lon="15.147151825694891"><ele>26.5</ele><time>2026-04-17T07:03:32.998Z</time></trkpt><trkpt lat="36.92015773952827" lon="15.146993722703463"><ele>27.25</ele><time>2026-04-17T07:03:33.998Z</time></trkpt><trkpt lat="36.92014654557137" lon="15.146844570564797"><ele>28.0</ele><time>2026-04-17T07:03:34.998Z</time></trkpt><trkpt lat="36.92015379549877" lon="15.146715532874266"><ele>28.0</ele><time>2026-04-17T07:03:35.998Z</time></trkpt><trkpt lat="36.920145801246186" lon="15.146600802503102"><ele>27.999999999999996</ele><time>2026-04-17T07:03:36.998Z</time></trkpt><trkpt lat="36.92021814971079" lon="15.146473232700286"><ele>27.999999999999996</ele><time>2026-04-17T07:03:37.998Z</time></trkpt><trkpt lat="36.92025181662442" lon="15.146347000358185"><ele>28.0</ele><time>2026-04-17T07:03:38.998Z</time></trkpt><trkpt lat="36.92028300708248" lon="15.146222806025676"><ele>28.0</ele><time>2026-04-17T07:03:39.998Z</time></trkpt><trkpt lat="36.92031742558724" lon="15.146092724464713"><ele>28.4</ele><time>2026-04-17T07:03:40.998Z</time></trkpt><trkpt lat="36.92034925267887" lon="15.145962408306769"><ele>28.799999999999997</ele><time>2026-04-17T07:03:41.998Z</time></trkpt><trkpt lat="36.920380726055015" lon="15.145831333858178"><ele>29.2</ele><time>2026-04-17T07:03:42.998Z</time></trkpt><trkpt lat="36.92041385666032" lon="15.145703493267973"><ele>29.6</ele><time>2026-04-17T07:03:44Z</time></trkpt><trkpt lat="36.920443179938594" lon="15.145580350193999"><ele>30.0</ele><time>2026-04-17T07:03:45Z</time></trkpt><trkpt lat="36.92047258540302" lon="15.145460060500994"><ele>30.166666666666668</ele><time>2026-04-17T07:03:46Z</time></trkpt><trkpt lat="36.92049916068788" lon="15.14535140846764"><ele>30.333333333333336</ele><time>2026-04-17T07:03:47Z</time></trkpt><trkpt lat="36.92051992509984" lon="15.145251589218352"><ele>30.5</ele><time>2026-04-17T07:03:48Z</time></trkpt><trkpt lat="36.92053831903987" lon="15.14515306254931"><ele>30.666666666666668</ele><time>2026-04-17T07:03:49Z</time></trkpt><trkpt lat="36.92055758539455" lon="15.14505783206787"><ele>30.833333333333336</ele><time>2026-04-17T07:03:50Z</time></trkpt><trkpt lat="36.92059354454525" lon="15.144966968796092"><ele>31.0</ele><time>2026-04-17T07:03:52Z</time></trkpt><trkpt lat="36.92064445358822" lon="15.144882036133755"><ele>31.0</ele><time>2026-04-17T07:03:56Z</time></trkpt><trkpt lat="36.920675558700154" lon="15.144734724067138"><ele>31.0</ele><time>2026-04-17T07:03:58Z</time></trkpt><trkpt lat="36.92070730621144" lon="15.144627872264975"><ele>31.0</ele><time>2026-04-17T07:04:00Z</time></trkpt><trkpt lat="36.92071332180472" lon="15.144546467111109"><ele>31.0</ele><time>2026-04-17T07:04:03Z</time></trkpt><trkpt lat="36.92073216375945" lon="15.144449898888071"><ele>31.0</ele><time>2026-04-17T07:04:05Z</time></trkpt><trkpt lat="36.92075594979137" lon="15.144327991426977"><ele>31.000000000000004</ele><time>2026-04-17T07:04:08Z</time></trkpt><trkpt lat="36.92077325544107" lon="15.144239297188463"><ele>31.0</ele><time>2026-04-17T07:04:10Z</time></trkpt><trkpt lat="36.92088821118956" lon="15.144230247238893"><ele>31.0</ele><time>2026-04-17T07:04:11Z</time></trkpt><trkpt lat="36.92087468410122" lon="15.144111697314415"><ele>31.0</ele><time>2026-04-17T07:04:14Z</time></trkpt><trkpt lat="36.92091747960331" lon="15.144043842511287"><ele>31.000000000000004</ele><time>2026-04-17T07:04:15.999Z</time></trkpt><trkpt lat="36.920935201812505" lon="15.143929351859413"><ele>31.0</ele><time>2026-04-17T07:04:18.999Z</time></trkpt><trkpt lat="36.92094645310595" lon="15.143843795516894"><ele>31.200000000000003</ele><time>2026-04-17T07:05:12.999Z</time></trkpt><trkpt lat="36.92086207630557" lon="15.143715706391323"><ele>31.400000000000002</ele><time>2026-04-17T07:05:14.999Z</time></trkpt><trkpt lat="36.92087808722927" lon="15.143608845276772"><ele>31.6</ele><time>2026-04-17T07:05:16.999Z</time></trkpt><trkpt lat="36.9208972057654" lon="15.143462632017211"><ele>31.8</ele><time>2026-04-17T07:05:18.999Z</time></trkpt><trkpt lat="36.92091389096218" lon="15.14333601027796"><ele>32.0</ele><time>2026-04-17T07:05:20.999Z</time></trkpt><trkpt lat="36.920930895350104" lon="15.143201176619641"><ele>32.6</ele><time>2026-04-17T07:05:22.999Z</time></trkpt><trkpt lat="36.92094434993719" lon="15.143089219524464"><ele>33.2</ele><time>2026-04-17T07:05:24.999Z</time></trkpt><trkpt lat="36.92095619001937" lon="15.142992417014566"><ele>33.8</ele><time>2026-04-17T07:05:26.999Z</time></trkpt><trkpt lat="36.92096552768786" lon="15.142910145552753"><ele>34.4</ele><time>2026-04-17T07:05:28.999Z</time></trkpt><trkpt lat="36.92097834835968" lon="15.142784399152813"><ele>35.0</ele><time>2026-04-17T07:05:31.998Z</time></trkpt><trkpt lat="36.92111744198635" lon="15.142769768961688"><ele>35.0</ele><time>2026-04-17T07:05:32.998Z</time></trkpt><trkpt lat="36.92114526719504" lon="15.142693862823398"><ele>35.0</ele><time>2026-04-17T07:05:34.998Z</time></trkpt><trkpt lat="36.92116644035079" lon="15.142604816617482"><ele>35.0</ele><time>2026-04-17T07:05:36.998Z</time></trkpt><trkpt lat="36.921173113152385" lon="15.142522509315873"><ele>35.0</ele><time>2026-04-17T07:06:00.999Z</time></trkpt><trkpt lat="36.92127581876565" lon="15.142440532529298"><ele>35.0</ele><time>2026-04-17T07:06:02.999Z</time></trkpt><trkpt lat="36.921340135468" lon="15.142427709012326"><ele>35.0</ele><time>2026-04-17T07:06:05Z</time></trkpt><trkpt lat="36.92131095082134" lon="15.142509945228861"><ele>35.0</ele><time>2026-04-17T07:06:09Z</time></trkpt><trkpt lat="36.92128127940477" lon="15.142604968743266"><ele>35.0</ele><time>2026-04-17T07:06:36.999Z</time></trkpt><trkpt lat="36.921297461198066" lon="15.142734099038691"><ele>35.0</ele><time>2026-04-17T07:06:38.999Z</time></trkpt><trkpt lat="36.921418285122954" lon="15.142828794018444"><ele>35.0</ele><time>2026-04-17T07:06:40.999Z</time></trkpt><trkpt lat="36.921486983970105" lon="15.142881248695666"><ele>35.0</ele><time>2026-04-17T07:06:41.999Z</time></trkpt><trkpt lat="36.921561397381204" lon="15.142925551650633"><ele>35.0</ele><time>2026-04-17T07:06:42.999Z</time></trkpt><trkpt lat="36.92163865455305" lon="15.14297326660032"><ele>35.0</ele><time>2026-04-17T07:06:43.999Z</time></trkpt><trkpt lat="36.92163278827123" lon="15.143232103190917"><ele>35.0</ele><time>2026-04-17T07:06:44.999Z</time></trkpt><trkpt lat="36.92170323053215" lon="15.143271486112013"><ele>35.0</ele><time>2026-04-17T07:06:45.999Z</time></trkpt><trkpt lat="36.92176749790503" lon="15.14331106903447"><ele>35.0</ele><time>2026-04-17T07:06:46.999Z</time></trkpt><trkpt lat="36.9218285940863" lon="15.143348670141165"><ele>35.25</ele><time>2026-04-17T07:06:47.999Z</time></trkpt><trkpt lat="36.92192454699125" lon="15.14340293474338"><ele>35.5</ele><time>2026-04-17T07:06:49.999Z</time></trkpt><trkpt lat="36.92198782119642" lon="15.143428949373654"><ele>35.75</ele><time>2026-04-17T07:06:53.999Z</time></trkpt><trkpt lat="36.922079130968854" lon="15.143436751806453"><ele>36.0</ele><time>2026-04-17T07:06:57.999Z</time></trkpt><trkpt lat="36.92219330331725" lon="15.143189076977302"><ele>36.333333333333336</ele><time>2026-04-17T07:06:58.999Z</time></trkpt><trkpt lat="36.92223798203803" lon="15.143089389008193"><ele>36.666666666666664</ele><time>2026-04-17T07:07:02.999Z</time></trkpt><trkpt lat="36.92227959536203" lon="15.143002559999742"><ele>37.0</ele><time>2026-04-17T07:07:04.999Z</time></trkpt><trkpt lat="36.92222144381619" lon="15.142867149226772"><ele>37.33333333333333</ele><time>2026-04-17T07:07:06.999Z</time></trkpt><trkpt lat="36.92225831924278" lon="15.142784150114814"><ele>37.666666666666664</ele><time>2026-04-17T07:07:08.999Z</time></trkpt><trkpt lat="36.92229628899523" lon="15.14272089320352"><ele>38.0</ele><time>2026-04-17T07:07:10.999Z</time></trkpt><trkpt lat="36.92232177640629" lon="15.142622691686297"><ele>38.0</ele><time>2026-04-17T07:07:12.999Z</time></trkpt><trkpt lat="36.92236948384906" lon="15.142537129846987"><ele>38.0</ele><time>2026-04-17T07:07:14.999Z</time></trkpt><trkpt lat="36.922436340022216" lon="15.142495789527588"><ele>38.0</ele><time>2026-04-17T07:07:17.999Z</time></trkpt><trkpt lat="36.92248083446644" lon="15.142578404302881"><ele>38.0</ele><time>2026-04-17T07:07:21.999Z</time></trkpt><trkpt lat="36.922404762717974" lon="15.142705779360252"><ele>38.0</ele><time>2026-04-17T07:07:23.999Z</time></trkpt><trkpt lat="36.92236387723426" lon="15.142770133409096"><ele>38.0</ele><time>2026-04-17T07:07:24.999Z</time></trkpt><trkpt lat="36.922325334661416" lon="15.142847694947955"><ele>38.0</ele><time>2026-04-17T07:07:25.999Z</time></trkpt><trkpt lat="36.922293627207345" lon="15.142934370984399"><ele>38.0</ele><time>2026-04-17T07:07:26.999Z</time></trkpt><trkpt lat="36.92226542174256" lon="15.14300911218386"><ele>38.0</ele><time>2026-04-17T07:07:27.999Z</time></trkpt><trkpt lat="36.92223632077216" lon="15.143081887400175"><ele>38.0</ele><time>2026-04-17T07:07:28.999Z</time></trkpt><trkpt lat="36.92218959479113" lon="15.143191768776283"><ele>38.0</ele><time>2026-04-17T07:07:30.999Z</time></trkpt><trkpt lat="36.922133001958485" lon="15.143240981381156"><ele>38.0</ele><time>2026-04-17T07:07:33.999Z</time></trkpt><trkpt lat="36.922053453777814" lon="15.14338179763324"><ele>37.6</ele><time>2026-04-17T07:07:35.999Z</time></trkpt><trkpt lat="36.921998931814244" lon="15.143448867633706"><ele>37.199999999999996</ele><time>2026-04-17T07:07:36.999Z</time></trkpt><trkpt lat="36.92202971960572" lon="15.143547604284791"><ele>36.8</ele><time>2026-04-17T07:07:37.999Z</time></trkpt><trkpt lat="36.92198700272593" lon="15.143456397604297"><ele>36.4</ele><time>2026-04-17T07:07:41.999Z</time></trkpt><trkpt lat="36.92210161868399" lon="15.143322466445538"><ele>36.0</ele><time>2026-04-17T07:07:43.999Z</time></trkpt><trkpt lat="36.92215503396152" lon="15.143242559189856"><ele>36.4</ele><time>2026-04-17T07:07:44.999Z</time></trkpt><trkpt lat="36.922220274845856" lon="15.143112802303378"><ele>36.8</ele><time>2026-04-17T07:07:45.999Z</time></trkpt><trkpt lat="36.92227988999607" lon="15.142994256943476"><ele>37.199999999999996</ele><time>2026-04-17T07:07:46.999Z</time></trkpt><trkpt lat="36.92232876562712" lon="15.142891787551852"><ele>37.6</ele><time>2026-04-17T07:07:47.998Z</time></trkpt><trkpt lat="36.92237700962227" lon="15.142797219103024"><ele>38.0</ele><time>2026-04-17T07:07:48.998Z</time></trkpt><trkpt lat="36.922418277001654" lon="15.14271930387699"><ele>38.0</ele><time>2026-04-17T07:07:49.998Z</time></trkpt><trkpt lat="36.922449051099534" lon="15.142649700272928"><ele>38.0</ele><time>2026-04-17T07:07:50.998Z</time></trkpt><trkpt lat="36.922504814740726" lon="15.142541181563942"><ele>38.0</ele><time>2026-04-17T07:07:52.998Z</time></trkpt><trkpt lat="36.922533259415864" lon="15.142470578920195"><ele>38.0</ele><time>2026-04-17T07:07:55.999Z</time></trkpt><trkpt lat="36.92257959690697" lon="15.142357209947413"><ele>38.0</ele><time>2026-04-17T07:08:00Z</time></trkpt><trkpt lat="36.92264155464962" lon="15.142238733294617"><ele>38.0</ele><time>2026-04-17T07:08:02Z</time></trkpt><trkpt lat="36.92271362343117" lon="15.142130027771916"><ele>38.75</ele><time>2026-04-17T07:08:04Z</time></trkpt><trkpt lat="36.92280517068639" lon="15.142163676797914"><ele>39.5</ele><time>2026-04-17T07:08:06Z</time></trkpt><trkpt lat="36.92284542861347" lon="15.14232482566742"><ele>40.25</ele><time>2026-04-17T07:08:08Z</time></trkpt><trkpt lat="36.92288767525764" lon="15.142448999880164"><ele>41.0</ele><time>2026-04-17T07:08:09Z</time></trkpt><trkpt lat="36.92293661085601" lon="15.142604856460165"><ele>41.0</ele><time>2026-04-17T07:08:10Z</time></trkpt><trkpt lat="36.92297218862872" lon="15.142745561646345"><ele>41.0</ele><time>2026-04-17T07:08:11Z</time></trkpt><trkpt lat="36.923011124298455" lon="15.142906587558665"><ele>41.0</ele><time>2026-04-17T07:08:12Z</time></trkpt><trkpt lat="36.92305314553754" lon="15.143074606075588"><ele>41.0</ele><time>2026-04-17T07:08:13Z</time></trkpt><trkpt lat="36.92310667629728" lon="15.143250101293482"><ele>40.33333333333333</ele><time>2026-04-17T07:08:14Z</time></trkpt><trkpt lat="36.92317312858348" lon="15.143425131562209"><ele>39.666666666666664</ele><time>2026-04-17T07:08:15Z</time></trkpt><trkpt lat="36.92325225406661" lon="15.143598141040256"><ele>39.0</ele><time>2026-04-17T07:08:16Z</time></trkpt><trkpt lat="36.92333268649856" lon="15.143773258992344"><ele>39.666666666666664</ele><time>2026-04-17T07:08:17Z</time></trkpt><trkpt lat="36.923419216417884" lon="15.143947799428497"><ele>40.33333333333333</ele><time>2026-04-17T07:08:18Z</time></trkpt><trkpt lat="36.923508534823284" lon="15.144118046061356"><ele>41.0</ele><time>2026-04-17T07:08:19Z</time></trkpt><trkpt lat="36.92359433476264" lon="15.14429195776805"><ele>41.0</ele><time>2026-04-17T07:08:20Z</time></trkpt><trkpt lat="36.92367765850309" lon="15.144466132703034"><ele>41.0</ele><time>2026-04-17T07:08:21Z</time></trkpt><trkpt lat="36.923759094747076" lon="15.144634675358663"><ele>41.0</ele><time>2026-04-17T07:08:22Z</time></trkpt><trkpt lat="36.92383669971704" lon="15.144792725679014"><ele>40.25</ele><time>2026-04-17T07:08:23Z</time></trkpt><trkpt lat="36.92390526744891" lon="15.144944840522474"><ele>39.5</ele><time>2026-04-17T07:08:24Z</time></trkpt><trkpt lat="36.92397866767074" lon="15.145096764663846"><ele>38.75</ele><time>2026-04-17T07:08:25Z</time></trkpt><trkpt lat="36.92405335806182" lon="15.145250762167048"><ele>38.0</ele><time>2026-04-17T07:08:26Z</time></trkpt><trkpt lat="36.92413021480543" lon="15.145411709246124"><ele>38.0</ele><time>2026-04-17T07:08:27Z</time></trkpt><trkpt lat="36.92420793081576" lon="15.145574938157495"><ele>38.0</ele><time>2026-04-17T07:08:28Z</time></trkpt><trkpt lat="36.9242824256526" lon="15.145745045469573"><ele>38.0</ele><time>2026-04-17T07:08:29Z</time></trkpt><trkpt lat="36.92436852516261" lon="15.145915381772234"><ele>38.33333333333333</ele><time>2026-04-17T07:08:30Z</time></trkpt><trkpt lat="36.9244562962868" lon="15.146083741967773"><ele>38.666666666666664</ele><time>2026-04-17T07:08:31Z</time></trkpt><trkpt lat="36.92455058573793" lon="15.14624611483593"><ele>39.0</ele><time>2026-04-17T07:08:32Z</time></trkpt><trkpt lat="36.92464624128565" lon="15.14641239339042"><ele>38.666666666666664</ele><time>2026-04-17T07:08:33Z</time></trkpt><trkpt lat="36.92474111557898" lon="15.146569763457848"><ele>38.33333333333333</ele><time>2026-04-17T07:08:34Z</time></trkpt><trkpt lat="36.924841018721594" lon="15.146719784941704"><ele>38.0</ele><time>2026-04-17T07:08:34.999Z</time></trkpt><trkpt lat="36.924942250976216" lon="15.146862962634414"><ele>38.0</ele><time>2026-04-17T07:08:35.999Z</time></trkpt><trkpt lat="36.92504406443345" lon="15.147003283463185"><ele>38.0</ele><time>2026-04-17T07:08:36.999Z</time></trkpt><trkpt lat="36.92514798550617" lon="15.147139470320878"><ele>38.0</ele><time>2026-04-17T07:08:37.999Z</time></trkpt><trkpt lat="36.92525489384147" lon="15.14726613756946"><ele>38.0</ele><time>2026-04-17T07:08:38.999Z</time></trkpt><trkpt lat="36.925364584856645" lon="15.147389976785554"><ele>38.0</ele><time>2026-04-17T07:08:39.999Z</time></trkpt><trkpt lat="36.92547846150713" lon="15.147511910236487"><ele>38.0</ele><time>2026-04-17T07:08:40.999Z</time></trkpt><trkpt lat="36.92559968255354" lon="15.147641321717444"><ele>38.0</ele><time>2026-04-17T07:08:41.999Z</time></trkpt><trkpt lat="36.92571687776827" lon="15.147773269512914"><ele>38.0</ele><time>2026-04-17T07:08:42.999Z</time></trkpt><trkpt lat="36.92583704604292" lon="15.147907597257582"><ele>38.0</ele><time>2026-04-17T07:08:43.999Z</time></trkpt><trkpt lat="36.92595571686257" lon="15.148040567458832"><ele>38.0</ele><time>2026-04-17T07:08:44.999Z</time></trkpt><trkpt lat="36.92607170351734" lon="15.148170221098265"><ele>38.0</ele><time>2026-04-17T07:08:45.999Z</time></trkpt><trkpt lat="36.92616924532847" lon="15.148305068613281"><ele>38.0</ele><time>2026-04-17T07:08:46.999Z</time></trkpt><trkpt lat="36.92625384541952" lon="15.148444400048458"><ele>38.0</ele><time>2026-04-17T07:08:47.999Z</time></trkpt><trkpt lat="36.92631360689446" lon="15.148611806011031"><ele>38.0</ele><time>2026-04-17T07:08:48.999Z</time></trkpt><trkpt lat="36.92638256252123" lon="15.148789455229032"><ele>38.0</ele><time>2026-04-17T07:08:49.999Z</time></trkpt><trkpt lat="36.926450316259505" lon="15.148959955715107"><ele>38.0</ele><time>2026-04-17T07:08:50.999Z</time></trkpt><trkpt lat="36.92651195817265" lon="15.149120076213977"><ele>38.0</ele><time>2026-04-17T07:08:51.999Z</time></trkpt><trkpt lat="36.92657721862231" lon="15.149285408062585"><ele>38.0</ele><time>2026-04-17T07:08:52.999Z</time></trkpt><trkpt lat="36.92664559776406" lon="15.149443635818567"><ele>38.0</ele><time>2026-04-17T07:08:53.999Z</time></trkpt><trkpt lat="36.92672305965116" lon="15.149592293725906"><ele>38.0</ele><time>2026-04-17T07:08:54.999Z</time></trkpt><trkpt lat="36.92681935441097" lon="15.149730406773488"><ele>38.0</ele><time>2026-04-17T07:08:55.999Z</time></trkpt><trkpt lat="36.92692681384681" lon="15.149844264337773"><ele>38.0</ele><time>2026-04-17T07:08:56.999Z</time></trkpt><trkpt lat="36.92703654107166" lon="15.149949112821753"><ele>38.0</ele><time>2026-04-17T07:08:57.999Z</time></trkpt><trkpt lat="36.927146311203614" lon="15.150063399531264"><ele>38.0</ele><time>2026-04-17T07:08:58.999Z</time></trkpt><trkpt lat="36.92725664196092" lon="15.150177015822221"><ele>38.0</ele><time>2026-04-17T07:08:59.999Z</time></trkpt><trkpt lat="36.92737280906036" lon="15.150296839617356"><ele>38.0</ele><time>2026-04-17T07:09:00.999Z</time></trkpt><trkpt lat="36.927483187353005" lon="15.150424638413915"><ele>38.666666666666664</ele><time>2026-04-17T07:09:01.999Z</time></trkpt><trkpt lat="36.927582783123924" lon="15.150567054787928"><ele>39.333333333333336</ele><time>2026-04-17T07:09:02.999Z</time></trkpt><trkpt lat="36.92767246946578" lon="15.150716355249331"><ele>40.0</ele><time>2026-04-17T07:09:03.999Z</time></trkpt><trkpt lat="36.92775651817729" lon="15.150871200263396"><ele>40.0</ele><time>2026-04-17T07:09:04.999Z</time></trkpt><trkpt lat="36.92783474780443" lon="15.151032328217502"><ele>40.0</ele><time>2026-04-17T07:09:05.999Z</time></trkpt><trkpt lat="36.92790024501782" lon="15.151203313735529"><ele>40.0</ele><time>2026-04-17T07:09:06.999Z</time></trkpt><trkpt lat="36.927963812450294" lon="15.1513667732183"><ele>40.0</ele><time>2026-04-17T07:09:07.999Z</time></trkpt><trkpt lat="36.928026261924586" lon="15.151525168064481"><ele>39.75</ele><time>2026-04-17T07:09:08.999Z</time></trkpt><trkpt lat="36.92808633083105" lon="15.15168122258313"><ele>39.5</ele><time>2026-04-17T07:09:09.999Z</time></trkpt><trkpt lat="36.92814968161522" lon="15.151834518249757"><ele>39.25</ele><time>2026-04-17T07:09:10.999Z</time></trkpt><trkpt lat="36.928215137511465" lon="15.151985677930792"><ele>39.0</ele><time>2026-04-17T07:09:11.999Z</time></trkpt><trkpt lat="36.928287971007265" lon="15.1521303375443"><ele>39.0</ele><time>2026-04-17T07:09:12.999Z</time></trkpt><trkpt lat="36.92836849669658" lon="15.15227328088557"><ele>39.0</ele><time>2026-04-17T07:09:13.999Z</time></trkpt><trkpt lat="36.92845567656326" lon="15.15241150517411"><ele>39.0</ele><time>2026-04-17T07:09:14.999Z</time></trkpt><trkpt lat="36.92854189764229" lon="15.15255079817049"><ele>39.0</ele><time>2026-04-17T07:09:15.999Z</time></trkpt><trkpt lat="36.92862729697611" lon="15.152690061627286"><ele>39.0</ele><time>2026-04-17T07:09:16.999Z</time></trkpt><trkpt lat="36.928707158379055" lon="15.152815980091852"><ele>39.0</ele><time>2026-04-17T07:09:17.999Z</time></trkpt><trkpt lat="36.92877832531805" lon="15.152934857630855"><ele>39.0</ele><time>2026-04-17T07:09:18.999Z</time></trkpt><trkpt lat="36.928848507213374" lon="15.153041487858165"><ele>39.0</ele><time>2026-04-17T07:09:19.999Z</time></trkpt><trkpt lat="36.92891070405598" lon="15.15314271052879"><ele>39.0</ele><time>2026-04-17T07:09:20.999Z</time></trkpt><trkpt lat="36.928961651022036" lon="15.153235896925347"><ele>39.0</ele><time>2026-04-17T07:09:21.999Z</time></trkpt><trkpt lat="36.929007966922214" lon="15.153311284906534"><ele>39.0</ele><time>2026-04-17T07:09:22.999Z</time></trkpt><trkpt lat="36.92905013807558" lon="15.153373715860534"><ele>39.0</ele><time>2026-04-17T07:09:23.999Z</time></trkpt><trkpt lat="36.92910045585578" lon="15.15344566126839"><ele>39.0</ele><time>2026-04-17T07:09:25.999Z</time></trkpt><trkpt lat="36.92919490968732" lon="15.153353208415181"><ele>39.0</ele><time>2026-04-17T07:09:26.999Z</time></trkpt><trkpt lat="36.9292554294217" lon="15.153296214972329"><ele>39.0</ele><time>2026-04-17T07:09:27.999Z</time></trkpt><trkpt lat="36.929317693318225" lon="15.153226531034669"><ele>39.0</ele><time>2026-04-17T07:09:28.999Z</time></trkpt><trkpt lat="36.9293826356376" lon="15.153153849377835"><ele>39.0</ele><time>2026-04-17T07:09:29.999Z</time></trkpt><trkpt lat="36.9294477523735" lon="15.15306984737392"><ele>39.0</ele><time>2026-04-17T07:09:30.999Z</time></trkpt><trkpt lat="36.929489237539514" lon="15.152956349912776"><ele>39.0</ele><time>2026-04-17T07:09:31.999Z</time></trkpt><trkpt lat="36.92953101083152" lon="15.15287391214547"><ele>39.0</ele><time>2026-04-17T07:09:32.999Z</time></trkpt><trkpt lat="36.92959616552286" lon="15.152784508946695"><ele>39.333333333333336</ele><time>2026-04-17T07:09:34.999Z</time></trkpt><trkpt lat="36.929700433377775" lon="15.152793500393464"><ele>39.666666666666664</ele><time>2026-04-17T07:09:36.999Z</time></trkpt><trkpt lat="36.929746842589964" lon="15.152858744316472"><ele>40.0</ele><time>2026-04-17T07:09:37.999Z</time></trkpt><trkpt lat="36.92979020412855" lon="15.152930506876992"><ele>40.33333333333333</ele><time>2026-04-17T07:09:38.999Z</time></trkpt><trkpt lat="36.92985722488675" lon="15.152998949628985"><ele>40.666666666666664</ele><time>2026-04-17T07:09:39.999Z</time></trkpt><trkpt lat="36.9299351729971" lon="15.153078606624424"><ele>41.0</ele><time>2026-04-17T07:09:40.999Z</time></trkpt><trkpt lat="36.930015353275074" lon="15.153165178759597"><ele>41.0</ele><time>2026-04-17T07:09:41.999Z</time></trkpt><trkpt lat="36.930088374450584" lon="15.153241235337758"><ele>41.0</ele><time>2026-04-17T07:09:42.999Z</time></trkpt><trkpt lat="36.93015451452498" lon="15.153304519213714"><ele>41.0</ele><time>2026-04-17T07:09:43.999Z</time></trkpt><trkpt lat="36.930217028483476" lon="15.153351293105707"><ele>41.0</ele><time>2026-04-17T07:09:44.999Z</time></trkpt><trkpt lat="36.930278907070196" lon="15.153370632359454"><ele>41.0</ele><time>2026-04-17T07:09:45.999Z</time></trkpt><trkpt lat="36.930343314065986" lon="15.153347517911714"><ele>41.0</ele><time>2026-04-17T07:09:46.999Z</time></trkpt><trkpt lat="36.930415119717246" lon="15.153297957020124"><ele>41.0</ele><time>2026-04-17T07:09:47.999Z</time></trkpt><trkpt lat="36.930506356480066" lon="15.153213846101385"><ele>41.0</ele><time>2026-04-17T07:09:48.999Z</time></trkpt><trkpt lat="36.93060780172418" lon="15.1531190223927"><ele>41.0</ele><time>2026-04-17T07:09:49.999Z</time></trkpt><trkpt lat="36.930707335927806" lon="15.153020552649327"><ele>41.0</ele><time>2026-04-17T07:09:50.999Z</time></trkpt><trkpt lat="36.930784876414336" lon="15.15289869187454"><ele>41.75</ele><time>2026-04-17T07:09:51.999Z</time></trkpt><trkpt lat="36.9308391200285" lon="15.152767682494837"><ele>42.5</ele><time>2026-04-17T07:09:52.999Z</time></trkpt><trkpt lat="36.930893215333526" lon="15.152645681622149"><ele>43.25</ele><time>2026-04-17T07:09:53.999Z</time></trkpt><trkpt lat="36.930975652297676" lon="15.152546292905916"><ele>44.0</ele><time>2026-04-17T07:09:54.999Z</time></trkpt><trkpt lat="36.93109171829152" lon="15.152475091396212"><ele>45.0</ele><time>2026-04-17T07:09:55.999Z</time></trkpt><trkpt lat="36.93117691197232" lon="15.152369772400704"><ele>46.0</ele><time>2026-04-17T07:09:56.999Z</time></trkpt><trkpt lat="36.93127077187604" lon="15.152282314088403"><ele>47.0</ele><time>2026-04-17T07:09:57.999Z</time></trkpt><trkpt lat="36.93136345571313" lon="15.152175961895791"><ele>48.0</ele><time>2026-04-17T07:09:58.999Z</time></trkpt><trkpt lat="36.93147181707105" lon="15.152081962118865"><ele>48.0</ele><time>2026-04-17T07:09:59.999Z</time></trkpt><trkpt lat="36.931574500221295" lon="15.151984131395963"><ele>48.0</ele><time>2026-04-17T07:10:00.999Z</time></trkpt><trkpt lat="36.93168461040633" lon="15.151893743226557"><ele>48.0</ele><time>2026-04-17T07:10:02Z</time></trkpt><trkpt lat="36.93179735468987" lon="15.151803687842683"><ele>48.0</ele><time>2026-04-17T07:10:03Z</time></trkpt><trkpt lat="36.93190944438434" lon="15.151727980666273"><ele>48.5</ele><time>2026-04-17T07:10:04Z</time></trkpt><trkpt lat="36.93201455754377" lon="15.151657577596515"><ele>49.0</ele><time>2026-04-17T07:10:05Z</time></trkpt><trkpt lat="36.932117381884495" lon="15.151590190196751"><ele>49.5</ele><time>2026-04-17T07:10:06Z</time></trkpt><trkpt lat="36.9322135202776" lon="15.151520579495726"><ele>50.0</ele><time>2026-04-17T07:10:07Z</time></trkpt><trkpt lat="36.93232218192293" lon="15.151470764764582"><ele>50.0</ele><time>2026-04-17T07:10:08Z</time></trkpt><trkpt lat="36.93243050335387" lon="15.151396058682082"><ele>50.0</ele><time>2026-04-17T07:10:09Z</time></trkpt><trkpt lat="36.93253256917767" lon="15.151298576790378"><ele>50.0</ele><time>2026-04-17T07:10:10Z</time></trkpt><trkpt lat="36.93262867485884" lon="15.151208349003786"><ele>50.0</ele><time>2026-04-17T07:10:11Z</time></trkpt><trkpt lat="36.93270869241447" lon="15.151137029910755"><ele>50.50000000000001</ele><time>2026-04-17T07:10:12Z</time></trkpt><trkpt lat="36.9327818734622" lon="15.151077006116353"><ele>51.0</ele><time>2026-04-17T07:10:13Z</time></trkpt><trkpt lat="36.93284751892864" lon="15.151028862928854"><ele>51.5</ele><time>2026-04-17T07:10:14Z</time></trkpt><trkpt lat="36.93290832527613" lon="15.150987362400667"><ele>52.0</ele><time>2026-04-17T07:10:15Z</time></trkpt><trkpt lat="36.932965673496284" lon="15.150940909364534"><ele>52.50000000000001</ele><time>2026-04-17T07:10:16Z</time></trkpt><trkpt lat="36.93305641494406" lon="15.150869324749852"><ele>53.0</ele><time>2026-04-17T07:10:18Z</time></trkpt><trkpt lat="36.93313901473119" lon="15.150867882559881"><ele>53.0</ele><time>2026-04-17T07:10:20Z</time></trkpt><trkpt lat="36.93322361599784" lon="15.15081347528003"><ele>53.0</ele><time>2026-04-17T07:11:35.999Z</time></trkpt><trkpt lat="36.93327698515711" lon="15.150769780851787"><ele>53.0</ele><time>2026-04-17T07:11:37.999Z</time></trkpt><trkpt lat="36.93334354691703" lon="15.150711797243023"><ele>53.0</ele><time>2026-04-17T07:11:49.999Z</time></trkpt><trkpt lat="36.93350919696971" lon="15.150583318485443"><ele>53.0</ele><time>2026-04-17T07:11:51.999Z</time></trkpt><trkpt lat="36.93365189790489" lon="15.150579140318982"><ele>54.0</ele><time>2026-04-17T07:11:53.999Z</time></trkpt><trkpt lat="36.93368570269478" lon="15.150659294548923"><ele>55.0</ele><time>2026-04-17T07:12:00.999Z</time></trkpt><trkpt lat="36.933744001010055" lon="15.150770820488363"><ele>56.0</ele><time>2026-04-17T07:12:02.999Z</time></trkpt><trkpt lat="36.93381264519214" lon="15.150862851311684"><ele>57.0</ele><time>2026-04-17T07:12:04.999Z</time></trkpt><trkpt lat="36.933893336081304" lon="15.15096469499036"><ele>58.0</ele><time>2026-04-17T07:12:06.999Z</time></trkpt><trkpt lat="36.93396180235346" lon="15.151049679006585"><ele>57.99999999999999</ele><time>2026-04-17T07:12:09Z</time></trkpt><trkpt lat="36.93402206871571" lon="15.151123025463066"><ele>58.0</ele><time>2026-04-17T07:12:11Z</time></trkpt><trkpt lat="36.93408833110357" lon="15.151203669358917"><ele>58.0</ele><time>2026-04-17T07:12:13Z</time></trkpt><trkpt lat="36.93416358318494" lon="15.151293395130773"><ele>58.0</ele><time>2026-04-17T07:12:15Z</time></trkpt><trkpt lat="36.9342132670421" lon="15.151350098710207"><ele>57.99999999999999</ele><time>2026-04-17T07:12:16Z</time></trkpt><trkpt lat="36.93427172259561" lon="15.151416813277514"><ele>58.0</ele><time>2026-04-17T07:12:17Z</time></trkpt><trkpt lat="36.93434548384311" lon="15.151500999049352"><ele>57.599999999999994</ele><time>2026-04-17T07:12:18Z</time></trkpt><trkpt lat="36.93442528874048" lon="15.151603464694173"><ele>57.199999999999996</ele><time>2026-04-17T07:12:19Z</time></trkpt><trkpt lat="36.93450399565104" lon="15.151693737732645"><ele>56.8</ele><time>2026-04-17T07:12:20Z</time></trkpt><trkpt lat="36.93458453586884" lon="15.151784546280759"><ele>56.4</ele><time>2026-04-17T07:12:21Z</time></trkpt><trkpt lat="36.93465447711201" lon="15.151861009683826"><ele>56.0</ele><time>2026-04-17T07:12:22Z</time></trkpt><trkpt lat="36.93472354347114" lon="15.15192963914257"><ele>56.0</ele><time>2026-04-17T07:12:23Z</time></trkpt><trkpt lat="36.93478399105286" lon="15.15198751659887"><ele>55.99999999999999</ele><time>2026-04-17T07:12:24Z</time></trkpt><trkpt lat="36.934850569462974" lon="15.152020596480527"><ele>55.99999999999999</ele><time>2026-04-17T07:12:25Z</time></trkpt><trkpt lat="36.93493782602592" lon="15.152123733407876"><ele>56.0</ele><time>2026-04-17T07:12:27Z</time></trkpt><trkpt lat="36.93501935067666" lon="15.15220585135742"><ele>56.0</ele><time>2026-04-17T07:12:28.999Z</time></trkpt><trkpt lat="36.935095726788425" lon="15.152287658110563"><ele>55.833333333333336</ele><time>2026-04-17T07:12:30.999Z</time></trkpt><trkpt lat="36.93516194148706" lon="15.152358092762721"><ele>55.66666666666667</ele><time>2026-04-17T07:12:32.999Z</time></trkpt><trkpt lat="36.93522169266082" lon="15.152419491032262"><ele>55.5</ele><time>2026-04-17T07:12:34.999Z</time></trkpt><trkpt lat="36.93527277279431" lon="15.152473009499706"><ele>55.33333333333333</ele><time>2026-04-17T07:12:36.999Z</time></trkpt><trkpt lat="36.935330045179555" lon="15.152512851997948"><ele>55.166666666666664</ele><time>2026-04-17T07:12:38.999Z</time></trkpt><trkpt lat="36.93539667260337" lon="15.152602888285417"><ele>55.0</ele><time>2026-04-17T07:12:41.999Z</time></trkpt><trkpt lat="36.93546123956047" lon="15.152688486105623"><ele>54.8</ele><time>2026-04-17T07:12:43.999Z</time></trkpt><trkpt lat="36.9355246060805" lon="15.152774195914196"><ele>54.6</ele><time>2026-04-17T07:12:45.999Z</time></trkpt><trkpt lat="36.935582631373784" lon="15.152858164402225"><ele>54.400000000000006</ele><time>2026-04-17T07:12:47.999Z</time></trkpt><trkpt lat="36.93564647330757" lon="15.152949214067387"><ele>54.2</ele><time>2026-04-17T07:12:49.999Z</time></trkpt><trkpt lat="36.935731351479795" lon="15.153056034387667"><ele>54.0</ele><time>2026-04-17T07:12:51.999Z</time></trkpt><trkpt lat="36.93578108375705" lon="15.153124104640588"><ele>53.75</ele><time>2026-04-17T07:12:52.999Z</time></trkpt><trkpt lat="36.93585705516476" lon="15.153225075569212"><ele>53.5</ele><time>2026-04-17T07:12:53.999Z</time></trkpt><trkpt lat="36.935954094269135" lon="15.153379938407745"><ele>53.25</ele><time>2026-04-17T07:12:54.999Z</time></trkpt><trkpt lat="36.936078118086826" lon="15.153532000381407"><ele>53.0</ele><time>2026-04-17T07:12:55.999Z</time></trkpt><trkpt lat="36.93619605873661" lon="15.153642749282957"><ele>53.4</ele><time>2026-04-17T07:12:56.999Z</time></trkpt><trkpt lat="36.936245485532574" lon="15.153700451475718"><ele>53.8</ele><time>2026-04-17T07:12:57.999Z</time></trkpt><trkpt lat="36.93634714759419" lon="15.15371196459454"><ele>54.2</ele><time>2026-04-17T07:12:59.999Z</time></trkpt><trkpt lat="36.936453727858854" lon="15.153652664948517"><ele>54.6</ele><time>2026-04-17T07:13:01.999Z</time></trkpt><trkpt lat="36.93652835685094" lon="15.153590890784479"><ele>55.0</ele><time>2026-04-17T07:13:02.999Z</time></trkpt><trkpt lat="36.936610897444865" lon="15.153528985448784"><ele>54.99999999999999</ele><time>2026-04-17T07:13:03.999Z</time></trkpt><trkpt lat="36.93668913190096" lon="15.153479031302558"><ele>55.0</ele><time>2026-04-17T07:13:04.999Z</time></trkpt><trkpt lat="36.936770810088724" lon="15.153443565282021"><ele>55.0</ele><time>2026-04-17T07:13:05.999Z</time></trkpt><trkpt lat="36.93685308657501" lon="15.153411616106151"><ele>55.0</ele><time>2026-04-17T07:13:06.999Z</time></trkpt><trkpt lat="36.93694436821622" lon="15.153401151215279"><ele>54.99999999999999</ele><time>2026-04-17T07:13:07.999Z</time></trkpt><trkpt lat="36.937022068041465" lon="15.153381801912953"><ele>55.0</ele><time>2026-04-17T07:13:08.999Z</time></trkpt><trkpt lat="36.93709977945762" lon="15.153394365575563"><ele>55.4</ele><time>2026-04-17T07:13:09.999Z</time></trkpt><trkpt lat="36.93718671634381" lon="15.153381113791646"><ele>55.8</ele><time>2026-04-17T07:13:10.999Z</time></trkpt><trkpt lat="36.93727270227458" lon="15.153419007674158"><ele>56.2</ele><time>2026-04-17T07:13:11.999Z</time></trkpt><trkpt lat="36.93735508297038" lon="15.153468834786814"><ele>56.6</ele><time>2026-04-17T07:13:12.999Z</time></trkpt><trkpt lat="36.93743926542424" lon="15.153531845927626"><ele>57.0</ele><time>2026-04-17T07:13:13.999Z</time></trkpt><trkpt lat="36.93751944291966" lon="15.153606678997745"><ele>57.25</ele><time>2026-04-17T07:13:14.999Z</time></trkpt><trkpt lat="36.93759988064857" lon="15.153698403012775"><ele>57.5</ele><time>2026-04-17T07:13:15.999Z</time></trkpt><trkpt lat="36.937672716775445" lon="15.153814193030943"><ele>57.75</ele><time>2026-04-17T07:13:16.999Z</time></trkpt><trkpt lat="36.93772751060527" lon="15.15395124696847"><ele>58.0</ele><time>2026-04-17T07:13:17.999Z</time></trkpt><trkpt lat="36.93774546621004" lon="15.154105135474232"><ele>58.0</ele><time>2026-04-17T07:13:18.998Z</time></trkpt><trkpt lat="36.93774226986198" lon="15.154265171724873"><ele>58.0</ele><time>2026-04-17T07:13:19.998Z</time></trkpt><trkpt lat="36.93773149891158" lon="15.154421342731549"><ele>58.0</ele><time>2026-04-17T07:13:20.998Z</time></trkpt><trkpt lat="36.93771176858373" lon="15.154573968073157"><ele>58.0</ele><time>2026-04-17T07:13:21.998Z</time></trkpt><trkpt lat="36.93765412576459" lon="15.154716290372978"><ele>58.25</ele><time>2026-04-17T07:13:22.998Z</time></trkpt><trkpt lat="36.937615435773836" lon="15.154874123308584"><ele>58.5</ele><time>2026-04-17T07:13:23.998Z</time></trkpt><trkpt lat="36.93755502272907" lon="15.155022113021412"><ele>58.75</ele><time>2026-04-17T07:13:24.998Z</time></trkpt><trkpt lat="36.937497593213486" lon="15.155165353361609"><ele>59.0</ele><time>2026-04-17T07:13:25.998Z</time></trkpt><trkpt lat="36.937460029310124" lon="15.155304620545147"><ele>58.6</ele><time>2026-04-17T07:13:26.998Z</time></trkpt><trkpt lat="36.9374543377477" lon="15.15544454963834"><ele>58.2</ele><time>2026-04-17T07:13:27.998Z</time></trkpt><trkpt lat="36.9374632599265" lon="15.155589934529392"><ele>57.800000000000004</ele><time>2026-04-17T07:13:28.998Z</time></trkpt><trkpt lat="36.93748668805124" lon="15.15572255056323"><ele>57.400000000000006</ele><time>2026-04-17T07:13:29.998Z</time></trkpt><trkpt lat="36.9375270637906" lon="15.15583711788053"><ele>57.0</ele><time>2026-04-17T07:13:30.998Z</time></trkpt><trkpt lat="36.93759151138936" lon="15.155938163377517"><ele>57.0</ele><time>2026-04-17T07:13:31.998Z</time></trkpt><trkpt lat="36.93765496288253" lon="15.156064246618229"><ele>57.0</ele><time>2026-04-17T07:13:32.998Z</time></trkpt><trkpt lat="36.93773538541846" lon="15.15620680919534"><ele>57.0</ele><time>2026-04-17T07:13:33.998Z</time></trkpt><trkpt lat="36.937814318105765" lon="15.156347305414561"><ele>57.0</ele><time>2026-04-17T07:13:34.998Z</time></trkpt><trkpt lat="36.937897538655236" lon="15.156495433632031"><ele>57.0</ele><time>2026-04-17T07:13:35.998Z</time></trkpt><trkpt lat="36.93798295090216" lon="15.156649465909856"><ele>57.0</ele><time>2026-04-17T07:13:36.998Z</time></trkpt><trkpt lat="36.93806837626023" lon="15.156804158622442"><ele>57.0</ele><time>2026-04-17T07:13:37.998Z</time></trkpt><trkpt lat="36.93816023024136" lon="15.15696544118475"><ele>57.0</ele><time>2026-04-17T07:13:38.998Z</time></trkpt><trkpt lat="36.938254776746504" lon="15.157132740740575"><ele>57.0</ele><time>2026-04-17T07:13:39.998Z</time></trkpt><trkpt lat="36.938348592026045" lon="15.157298746372454"><ele>57.0</ele><time>2026-04-17T07:13:40.998Z</time></trkpt><trkpt lat="36.93844161743965" lon="15.157461289276458"><ele>57.5</ele><time>2026-04-17T07:13:41.998Z</time></trkpt><trkpt lat="36.93853155411819" lon="15.157618189122998"><ele>58.0</ele><time>2026-04-17T07:13:42.998Z</time></trkpt><trkpt lat="36.93863338057419" lon="15.157755690003707"><ele>58.5</ele><time>2026-04-17T07:13:43.998Z</time></trkpt><trkpt lat="36.93871503002093" lon="15.157887656812148"><ele>59.0</ele><time>2026-04-17T07:13:44.998Z</time></trkpt><trkpt lat="36.938782574898774" lon="15.15803012420281"><ele>59.0</ele><time>2026-04-17T07:13:45.998Z</time></trkpt><trkpt lat="36.938859585173724" lon="15.158150918988644"><ele>59.0</ele><time>2026-04-17T07:13:46.998Z</time></trkpt><trkpt lat="36.93893860808914" lon="15.158267714685802"><ele>59.0</ele><time>2026-04-17T07:13:47.998Z</time></trkpt><trkpt lat="36.93902429629024" lon="15.158381823900344"><ele>59.0</ele><time>2026-04-17T07:13:48.998Z</time></trkpt><trkpt lat="36.93912285610863" lon="15.158493400911045"><ele>59.0</ele><time>2026-04-17T07:13:49.998Z</time></trkpt><trkpt lat="36.93921822352887" lon="15.158608486995625"><ele>59.0</ele><time>2026-04-17T07:13:50.998Z</time></trkpt><trkpt lat="36.939292336396356" lon="15.15875006113276"><ele>59.0</ele><time>2026-04-17T07:13:51.998Z</time></trkpt><trkpt lat="36.93939811066938" lon="15.15888556058219"><ele>59.0</ele><time>2026-04-17T07:13:52.998Z</time></trkpt><trkpt lat="36.93948724725633" lon="15.159032404756214"><ele>58.25</ele><time>2026-04-17T07:13:53.998Z</time></trkpt><trkpt lat="36.939602752000525" lon="15.15914856101691"><ele>57.5</ele><time>2026-04-17T07:13:54.998Z</time></trkpt><trkpt lat="36.93970680509745" lon="15.159279708086647"><ele>56.75</ele><time>2026-04-17T07:13:55.998Z</time></trkpt><trkpt lat="36.939816053457065" lon="15.159407551687845"><ele>56.0</ele><time>2026-04-17T07:13:56.998Z</time></trkpt><trkpt lat="36.939916339004235" lon="15.159527455578889"><ele>56.0</ele><time>2026-04-17T07:13:57.998Z</time></trkpt><trkpt lat="36.94000393918581" lon="15.159627078217222"><ele>55.99999999999999</ele><time>2026-04-17T07:13:58.998Z</time></trkpt><trkpt lat="36.94008887571943" lon="15.159714993147334"><ele>55.99999999999999</ele><time>2026-04-17T07:13:59.998Z</time></trkpt><trkpt lat="36.94016822306967" lon="15.159789477227157"><ele>56.0</ele><time>2026-04-17T07:14:00.998Z</time></trkpt><trkpt lat="36.940217917880915" lon="15.159870045851152"><ele>56.0</ele><time>2026-04-17T07:14:01.998Z</time></trkpt><trkpt lat="36.94027126348575" lon="15.159929610698637"><ele>56.00000000000001</ele><time>2026-04-17T07:14:02.998Z</time></trkpt><trkpt lat="36.94036494202665" lon="15.15990746869977"><ele>56.0</ele><time>2026-04-17T07:14:03.998Z</time></trkpt><trkpt lat="36.940428440946285" lon="15.159894910668813"><ele>56.0</ele><time>2026-04-17T07:14:04.998Z</time></trkpt><trkpt lat="36.94049785996792" lon="15.159867267320157"><ele>56.0</ele><time>2026-04-17T07:14:05.998Z</time></trkpt><trkpt lat="36.940573355029684" lon="15.159824819308032"><ele>56.00000000000001</ele><time>2026-04-17T07:14:06.998Z</time></trkpt><trkpt lat="36.94065263225663" lon="15.159772770581837"><ele>56.0</ele><time>2026-04-17T07:14:07.998Z</time></trkpt><trkpt lat="36.94072530933655" lon="15.159708296894117"><ele>56.599999999999994</ele><time>2026-04-17T07:14:08.998Z</time></trkpt><trkpt lat="36.94079616138954" lon="15.159634552047606"><ele>57.199999999999996</ele><time>2026-04-17T07:14:09.998Z</time></trkpt><trkpt lat="36.9408603421961" lon="15.159550002745776"><ele>57.800000000000004</ele><time>2026-04-17T07:14:10.998Z</time></trkpt><trkpt lat="36.94091981249148" lon="15.159456634709858"><ele>58.400000000000006</ele><time>2026-04-17T07:14:11.998Z</time></trkpt><trkpt lat="36.940974677634216" lon="15.15936152307333"><ele>59.0</ele><time>2026-04-17T07:14:12.998Z</time></trkpt><trkpt lat="36.941034249471805" lon="15.159269160587543"><ele>60.0</ele><time>2026-04-17T07:14:13.999Z</time></trkpt><trkpt lat="36.94109386595639" lon="15.159178625114807"><ele>61.00000000000001</ele><time>2026-04-17T07:14:14.999Z</time></trkpt><trkpt lat="36.94115737602227" lon="15.159074039924862"><ele>62.00000000000001</ele><time>2026-04-17T07:14:15.999Z</time></trkpt><trkpt lat="36.94121311257695" lon="15.158962430758354"><ele>63.0</ele><time>2026-04-17T07:14:16.999Z</time></trkpt><trkpt lat="36.941270720419105" lon="15.158866389835087"><ele>64.0</ele><time>2026-04-17T07:14:17.999Z</time></trkpt><trkpt lat="36.94130946575421" lon="15.158787529663185"><ele>64.33333333333333</ele><time>2026-04-17T07:14:18.999Z</time></trkpt><trkpt lat="36.94134961358327" lon="15.158719218478682"><ele>64.66666666666666</ele><time>2026-04-17T07:14:19.999Z</time></trkpt><trkpt lat="36.94138789644274" lon="15.158654205546528"><ele>65.0</ele><time>2026-04-17T07:14:20.999Z</time></trkpt><trkpt lat="36.94142872893813" lon="15.158578694268973"><ele>65.33333333333333</ele><time>2026-04-17T07:14:21.999Z</time></trkpt><trkpt lat="36.94148391723236" lon="15.158475258652654"><ele>65.66666666666667</ele><time>2026-04-17T07:14:22.999Z</time></trkpt><trkpt lat="36.94153867016869" lon="15.158362274379424"><ele>66.0</ele><time>2026-04-17T07:14:23.999Z</time></trkpt><trkpt lat="36.94159428619179" lon="15.158239287947142"><ele>66.75</ele><time>2026-04-17T07:14:24.999Z</time></trkpt><trkpt lat="36.94165478286201" lon="15.158100140416098"><ele>67.5</ele><time>2026-04-17T07:14:26Z</time></trkpt><trkpt lat="36.941716618478125" lon="15.15794988430378"><ele>68.25</ele><time>2026-04-17T07:14:27Z</time></trkpt><trkpt lat="36.941771175712276" lon="15.157816471403809"><ele>69.0</ele><time>2026-04-17T07:14:28Z</time></trkpt><trkpt lat="36.94182530844112" lon="15.15768253046551"><ele>70.0</ele><time>2026-04-17T07:14:29Z</time></trkpt><trkpt lat="36.94187912157662" lon="15.157546299592115"><ele>71.0</ele><time>2026-04-17T07:14:30Z</time></trkpt><trkpt lat="36.94193299892832" lon="15.15740938102755"><ele>72.0</ele><time>2026-04-17T07:14:31Z</time></trkpt><trkpt lat="36.94198280411661" lon="15.15725546381549"><ele>73.0</ele><time>2026-04-17T07:14:32Z</time></trkpt><trkpt lat="36.942048518385015" lon="15.157101992525492"><ele>73.75</ele><time>2026-04-17T07:14:33Z</time></trkpt><trkpt lat="36.9421146897782" lon="15.156952360053454"><ele>74.5</ele><time>2026-04-17T07:14:34Z</time></trkpt><trkpt lat="36.94219074421861" lon="15.156813138367756"><ele>75.25</ele><time>2026-04-17T07:14:35Z</time></trkpt><trkpt lat="36.94225454055171" lon="15.15667331842037"><ele>76.0</ele><time>2026-04-17T07:14:36Z</time></trkpt><trkpt lat="36.942308339235666" lon="15.156549572655814"><ele>77.0</ele><time>2026-04-17T07:14:37Z</time></trkpt><trkpt lat="36.94235820783141" lon="15.156430803161525"><ele>78.0</ele><time>2026-04-17T07:14:38Z</time></trkpt><trkpt lat="36.94240899666345" lon="15.156323612600309"><ele>79.0</ele><time>2026-04-17T07:14:39Z</time></trkpt><trkpt lat="36.942465963808786" lon="15.156225713321467"><ele>80.0</ele><time>2026-04-17T07:14:40Z</time></trkpt><trkpt lat="36.942526543274646" lon="15.156138113220933"><ele>81.0</ele><time>2026-04-17T07:14:41Z</time></trkpt><trkpt lat="36.942595624072766" lon="15.15604599543966"><ele>81.8</ele><time>2026-04-17T07:14:42Z</time></trkpt><trkpt lat="36.942669782388" lon="15.155950074590484"><ele>82.6</ele><time>2026-04-17T07:14:43Z</time></trkpt><trkpt lat="36.94273213922198" lon="15.155842140822132"><ele>83.4</ele><time>2026-04-17T07:14:44Z</time></trkpt><trkpt lat="36.94280484978272" lon="15.15574697615771"><ele>84.2</ele><time>2026-04-17T07:14:45Z</time></trkpt><trkpt lat="36.94287439634667" lon="15.155659068556353"><ele>85.0</ele><time>2026-04-17T07:14:46Z</time></trkpt><trkpt lat="36.94294134254032" lon="15.15557296416269"><ele>85.66666666666666</ele><time>2026-04-17T07:14:47Z</time></trkpt><trkpt lat="36.94300462048066" lon="15.155487145961326"><ele>86.33333333333333</ele><time>2026-04-17T07:14:48Z</time></trkpt><trkpt lat="36.94307160445825" lon="15.155411161907807"><ele>87.0</ele><time>2026-04-17T07:14:49Z</time></trkpt><trkpt lat="36.94312248021621" lon="15.155336934123785"><ele>87.66666666666667</ele><time>2026-04-17T07:14:50Z</time></trkpt><trkpt lat="36.94317548957101" lon="15.155270279612923"><ele>88.33333333333334</ele><time>2026-04-17T07:14:51Z</time></trkpt><trkpt lat="36.94322408197424" lon="15.155210854821355"><ele>89.0</ele><time>2026-04-17T07:14:52Z</time></trkpt><trkpt lat="36.943266656763136" lon="15.155150559526465"><ele>89.0</ele><time>2026-04-17T07:14:53Z</time></trkpt><trkpt lat="36.94331377587638" lon="15.155092842974753"><ele>89.0</ele><time>2026-04-17T07:14:54Z</time></trkpt><trkpt lat="36.94335769531726" lon="15.155034752043385"><ele>89.0</ele><time>2026-04-17T07:14:55Z</time></trkpt><trkpt lat="36.94343222383593" lon="15.154919131026624"><ele>89.0</ele><time>2026-04-17T07:14:57Z</time></trkpt><trkpt lat="36.94347572118042" lon="15.154862089892877"><ele>89.0</ele><time>2026-04-17T07:14:58Z</time></trkpt><trkpt lat="36.943524715235306" lon="15.154712898841852"><ele>89.0</ele><time>2026-04-17T07:15:00Z</time></trkpt><trkpt lat="36.9435425808668" lon="15.154634010521782"><ele>91.4</ele><time>2026-04-17T07:15:01Z</time></trkpt><trkpt lat="36.94355629408831" lon="15.154550316572774"><ele>93.80000000000001</ele><time>2026-04-17T07:15:02Z</time></trkpt><trkpt lat="36.94355567288217" lon="15.154469329353033"><ele>96.19999999999999</ele><time>2026-04-17T07:15:03Z</time></trkpt><trkpt lat="36.943591322516966" lon="15.154320361751669"><ele>98.6</ele><time>2026-04-17T07:15:05Z</time></trkpt><trkpt lat="36.94363671409727" lon="15.1541961408047"><ele>101.0</ele><time>2026-04-17T07:15:07Z</time></trkpt><trkpt lat="36.943675916114735" lon="15.1540672467084"><ele>101.49999999999999</ele><time>2026-04-17T07:15:09Z</time></trkpt><trkpt lat="36.943718660276595" lon="15.153947189392134"><ele>102.0</ele><time>2026-04-17T07:15:11Z</time></trkpt><trkpt lat="36.94378114618247" lon="15.153822373690499"><ele>102.5</ele><time>2026-04-17T07:15:13Z</time></trkpt><trkpt lat="36.94382711632878" lon="15.153760234744276"><ele>103.0</ele><time>2026-04-17T07:15:14Z</time></trkpt><trkpt lat="36.94387825133377" lon="15.153690241349551"><ele>103.49999999999999</ele><time>2026-04-17T07:15:15Z</time></trkpt><trkpt lat="36.94394013610639" lon="15.153644491380916"><ele>104.0</ele><time>2026-04-17T07:15:16Z</time></trkpt><trkpt lat="36.94399680746609" lon="15.153580115273925"><ele>104.0</ele><time>2026-04-17T07:15:17Z</time></trkpt><trkpt lat="36.94406608334977" lon="15.1535325846971"><ele>104.0</ele><time>2026-04-17T07:15:18Z</time></trkpt><trkpt lat="36.94413908161544" lon="15.153505930334708"><ele>104.0</ele><time>2026-04-17T07:15:19Z</time></trkpt><trkpt lat="36.94422656447687" lon="15.153419124449593"><ele>104.0</ele><time>2026-04-17T07:15:21Z</time></trkpt><trkpt lat="36.94431454869531" lon="15.153335648336876"><ele>104.0</ele><time>2026-04-17T07:15:22.999Z</time></trkpt><trkpt lat="36.94441139406312" lon="15.153241110812138"><ele>105.80000000000001</ele><time>2026-04-17T07:15:24.999Z</time></trkpt><trkpt lat="36.94448950939603" lon="15.15318733301576"><ele>107.60000000000001</ele><time>2026-04-17T07:15:26.999Z</time></trkpt><trkpt lat="36.944558760725876" lon="15.153118897628708"><ele>109.4</ele><time>2026-04-17T07:15:28.999Z</time></trkpt><trkpt lat="36.94460787151686" lon="15.153045558252765"><ele>111.2</ele><time>2026-04-17T07:15:30.999Z</time></trkpt><trkpt lat="36.9446856538357" lon="15.152994060668018"><ele>113.0</ele><time>2026-04-17T07:15:32.999Z</time></trkpt><trkpt lat="36.94479260933996" lon="15.152889979521184"><ele>112.99999999999999</ele><time>2026-04-17T07:15:34.999Z</time></trkpt><trkpt lat="36.94486652864403" lon="15.152820842778054"><ele>113.0</ele><time>2026-04-17T07:15:35.999Z</time></trkpt><trkpt lat="36.944934840656856" lon="15.152756950414194"><ele>113.0</ele><time>2026-04-17T07:15:36.999Z</time></trkpt><trkpt lat="36.94500224257769" lon="15.152693909276824"><ele>113.0</ele><time>2026-04-17T07:15:37.999Z</time></trkpt><trkpt lat="36.9450717089105" lon="15.152628937336802"><ele>112.99999999999999</ele><time>2026-04-17T07:15:38.999Z</time></trkpt><trkpt lat="36.94514195936133" lon="15.152561262138292"><ele>113.0</ele><time>2026-04-17T07:15:39.999Z</time></trkpt><trkpt lat="36.945225506131976" lon="15.152480135625305"><ele>114.60000000000001</ele><time>2026-04-17T07:15:40.999Z</time></trkpt><trkpt lat="36.945318546280575" lon="15.152387616151735"><ele>116.20000000000002</ele><time>2026-04-17T07:15:41.999Z</time></trkpt><trkpt lat="36.94539656418124" lon="15.1523075030745"><ele>117.8</ele><time>2026-04-17T07:15:42.999Z</time></trkpt><trkpt lat="36.94544667519315" lon="15.152229380935625"><ele>119.4</ele><time>2026-04-17T07:15:43.999Z</time></trkpt><trkpt lat="36.94550216089892" lon="15.152185957118325"><ele>121.0</ele><time>2026-04-17T07:15:44.999Z</time></trkpt><trkpt lat="36.94558780722257" lon="15.152091531049459"><ele>121.42857142857142</ele><time>2026-04-17T07:15:46.999Z</time></trkpt><trkpt lat="36.94567400960217" lon="15.151990072424928"><ele>121.85714285714285</ele><time>2026-04-17T07:15:48.999Z</time></trkpt><trkpt lat="36.94572529067416" lon="15.151942814208889"><ele>122.28571428571428</ele><time>2026-04-17T07:15:49.999Z</time></trkpt><trkpt lat="36.945777146124655" lon="15.151889375172106"><ele>122.71428571428572</ele><time>2026-04-17T07:15:50.999Z</time></trkpt><trkpt lat="36.94582533791296" lon="15.151837960984503"><ele>123.14285714285715</ele><time>2026-04-17T07:15:51.999Z</time></trkpt><trkpt lat="36.94587981794294" lon="15.151785684160663"><ele>123.57142857142858</ele><time>2026-04-17T07:15:52.999Z</time></trkpt><trkpt lat="36.94592923238865" lon="15.151735930414956"><ele>124.0</ele><time>2026-04-17T07:15:53.999Z</time></trkpt><trkpt lat="36.945978711293684" lon="15.15168705978385"><ele>125.83333333333334</ele><time>2026-04-17T07:15:54.999Z</time></trkpt><trkpt lat="36.946066919352525" lon="15.15160418686633"><ele>127.66666666666667</ele><time>2026-04-17T07:15:56.999Z</time></trkpt><trkpt lat="36.94613459715542" lon="15.151549862626457"><ele>129.5</ele><time>2026-04-17T07:15:58.999Z</time></trkpt><trkpt lat="36.94621171509463" lon="15.151551683606725"><ele>131.33333333333334</ele><time>2026-04-17T07:16:00.999Z</time></trkpt><trkpt lat="36.94630387921572" lon="15.151611140821185"><ele>133.16666666666666</ele><time>2026-04-17T07:16:02.999Z</time></trkpt><trkpt lat="36.946369557481084" lon="15.151640294349498"><ele>135.0</ele><time>2026-04-17T07:16:03.999Z</time></trkpt><trkpt lat="36.94644926965444" lon="15.151665115694206"><ele>135.0</ele><time>2026-04-17T07:16:04.999Z</time></trkpt><trkpt lat="36.94660133358822" lon="15.151731547960233"><ele>135.0</ele><time>2026-04-17T07:16:05.999Z</time></trkpt><trkpt lat="36.94675359356458" lon="15.151793627409607"><ele>135.0</ele><time>2026-04-17T07:16:06.999Z</time></trkpt><trkpt lat="36.94689532450437" lon="15.151856647117377"><ele>137.5</ele><time>2026-04-17T07:16:07.999Z</time></trkpt><trkpt lat="36.94702724544448" lon="15.151918509203663"><ele>140.0</ele><time>2026-04-17T07:16:08.999Z</time></trkpt><trkpt lat="36.94713238119451" lon="15.151971986639559"><ele>142.5</ele><time>2026-04-17T07:16:09.999Z</time></trkpt><trkpt lat="36.947236400675216" lon="15.151990548017283"><ele>145.0</ele><time>2026-04-17T07:16:10.999Z</time></trkpt><trkpt lat="36.947355407265654" lon="15.151965037481538"><ele>145.0</ele><time>2026-04-17T07:16:11.999Z</time></trkpt><trkpt lat="36.94749357878299" lon="15.151909787838308"><ele>145.0</ele><time>2026-04-17T07:16:12.999Z</time></trkpt><trkpt lat="36.947645088442286" lon="15.15185437640225"><ele>145.0</ele><time>2026-04-17T07:16:13.999Z</time></trkpt><trkpt lat="36.947770113906095" lon="15.151824630682633"><ele>145.0</ele><time>2026-04-17T07:16:14.999Z</time></trkpt><trkpt lat="36.94785698642831" lon="15.151802580007926"><ele>145.75</ele><time>2026-04-17T07:16:15.999Z</time></trkpt><trkpt lat="36.94788978231946" lon="15.151647645331996"><ele>146.5</ele><time>2026-04-17T07:16:18.999Z</time></trkpt><trkpt lat="36.947767543959785" lon="15.151607804199209"><ele>147.25</ele><time>2026-04-17T07:16:20Z</time></trkpt><trkpt lat="36.9476526345152" lon="15.151584520800458"><ele>148.0</ele><time>2026-04-17T07:16:21Z</time></trkpt><trkpt lat="36.94753470256469" lon="15.151538923679553"><ele>148.0</ele><time>2026-04-17T07:16:22Z</time></trkpt><trkpt lat="36.94743112741611" lon="15.15150446686875"><ele>148.0</ele><time>2026-04-17T07:16:23Z</time></trkpt><trkpt lat="36.947340997820426" lon="15.151458644157044"><ele>148.0</ele><time>2026-04-17T07:16:24Z</time></trkpt><trkpt lat="36.94728814086116" lon="15.151409585999263"><ele>148.0</ele><time>2026-04-17T07:16:25Z</time></trkpt><trkpt lat="36.947394145936585" lon="15.151359783197671"><ele>148.0</ele><time>2026-04-17T07:16:29Z</time></trkpt><trkpt lat="36.94747002579858" lon="15.151356509070494"><ele>152.60000000000002</ele><time>2026-04-17T07:16:30Z</time></trkpt><trkpt lat="36.947557808216104" lon="15.151360726295326"><ele>157.20000000000002</ele><time>2026-04-17T07:16:31Z</time></trkpt><trkpt lat="36.94765047115177" lon="15.151346448753925"><ele>161.8</ele><time>2026-04-17T07:16:32Z</time></trkpt><trkpt lat="36.94774965634353" lon="15.15133355520139"><ele>166.4</ele><time>2026-04-17T07:16:33Z</time></trkpt><trkpt lat="36.94785680215421" lon="15.15134424753556"><ele>171.0</ele><time>2026-04-17T07:16:34Z</time></trkpt><trkpt lat="36.94797451643503" lon="15.151339220155943"><ele>171.0</ele><time>2026-04-17T07:16:35Z</time></trkpt><trkpt lat="36.948083786426146" lon="15.15133423956028"><ele>171.0</ele><time>2026-04-17T07:16:36Z</time></trkpt><trkpt lat="36.94820411794809" lon="15.151328755483826"><ele>171.0</ele><time>2026-04-17T07:16:37Z</time></trkpt><trkpt lat="36.948320689968114" lon="15.151322177316436"><ele>171.0</ele><time>2026-04-17T07:16:38Z</time></trkpt><trkpt lat="36.94844923180257" lon="15.151314923700925"><ele>176.75</ele><time>2026-04-17T07:16:39Z</time></trkpt><trkpt lat="36.9485840189912" lon="15.151306054117693"><ele>182.5</ele><time>2026-04-17T07:16:40Z</time></trkpt><trkpt lat="36.94872649358039" lon="15.151275787254507"><ele>188.25</ele><time>2026-04-17T07:16:41Z</time></trkpt><trkpt lat="36.948857640047194" lon="15.151277107017771"><ele>194.0</ele><time>2026-04-17T07:16:42Z</time></trkpt><trkpt lat="36.94899058458614" lon="15.151264577795933"><ele>194.0</ele><time>2026-04-17T07:16:43Z</time></trkpt><trkpt lat="36.94913186128783" lon="15.151269331858822"><ele>194.0</ele><time>2026-04-17T07:16:44Z</time></trkpt><trkpt lat="36.94927364920291" lon="15.151259827712153"><ele>194.0</ele><time>2026-04-17T07:16:45Z</time></trkpt><trkpt lat="36.94941948352346" lon="15.151243830647973"><ele>194.0</ele><time>2026-04-17T07:16:46Z</time></trkpt><trkpt lat="36.949564760331455" lon="15.151292794622837"><ele>198.25</ele><time>2026-04-17T07:16:47Z</time></trkpt><trkpt lat="36.94970176578103" lon="15.151334698828673"><ele>202.5</ele><time>2026-04-17T07:16:48Z</time></trkpt><trkpt lat="36.949840894982" lon="15.151368782010525"><ele>206.75</ele><time>2026-04-17T07:16:49Z</time></trkpt><trkpt lat="36.949980892065376" lon="15.15141974211934"><ele>211.0</ele><time>2026-04-17T07:16:50Z</time></trkpt><trkpt lat="36.95011940536124" lon="15.15146028320523"><ele>210.0</ele><time>2026-04-17T07:16:51Z</time></trkpt><trkpt lat="36.95025844429763" lon="15.151497766008918"><ele>209.0</ele><time>2026-04-17T07:16:52Z</time></trkpt><trkpt lat="36.95039662483329" lon="15.15153045481071"><ele>208.0</ele><time>2026-04-17T07:16:53Z</time></trkpt><trkpt lat="36.9505425590957" lon="15.151563954657417"><ele>207.0</ele><time>2026-04-17T07:16:54Z</time></trkpt><trkpt lat="36.95068894708386" lon="15.151592274280523"><ele>207.0</ele><time>2026-04-17T07:16:55Z</time></trkpt><trkpt lat="36.950832813078165" lon="15.151618710010574"><ele>207.0</ele><time>2026-04-17T07:16:56Z</time></trkpt><trkpt lat="36.95096431104328" lon="15.151646760752552"><ele>207.0</ele><time>2026-04-17T07:16:57Z</time></trkpt><trkpt lat="36.95109677952074" lon="15.151712628495346"><ele>207.0</ele><time>2026-04-17T07:16:58Z</time></trkpt><trkpt lat="36.95122461999599" lon="15.151789232563694"><ele>214.75</ele><time>2026-04-17T07:16:59Z</time></trkpt><trkpt lat="36.95134410977289" lon="15.151871105411898"><ele>222.5</ele><time>2026-04-17T07:17:00Z</time></trkpt><trkpt lat="36.95144506944226" lon="15.15198055698345"><ele>230.25</ele><time>2026-04-17T07:17:01Z</time></trkpt><trkpt lat="36.9515226401995" lon="15.152118888409971"><ele>238.0</ele><time>2026-04-17T07:17:02Z</time></trkpt><trkpt lat="36.95157749819562" lon="15.152275638704765"><ele>240.25</ele><time>2026-04-17T07:17:03Z</time></trkpt><trkpt lat="36.95163162005719" lon="15.152425813126518"><ele>242.5</ele><time>2026-04-17T07:17:04Z</time></trkpt><trkpt lat="36.95168406685837" lon="15.152562194966945"><ele>244.75</ele><time>2026-04-17T07:17:05Z</time></trkpt><trkpt lat="36.95175779473638" lon="15.15266897927819"><ele>247.0</ele><time>2026-04-17T07:17:06Z</time></trkpt><trkpt lat="36.95186654427118" lon="15.152729207837345"><ele>247.0</ele><time>2026-04-17T07:17:07Z</time></trkpt><trkpt lat="36.95199799562312" lon="15.152764772870512"><ele>247.0</ele><time>2026-04-17T07:17:08Z</time></trkpt><trkpt lat="36.95213148004624" lon="15.152833160638446"><ele>247.0</ele><time>2026-04-17T07:17:09Z</time></trkpt><trkpt lat="36.95224074803219" lon="15.15295769709331"><ele>247.0</ele><time>2026-04-17T07:17:10Z</time></trkpt><trkpt lat="36.952338077113275" lon="15.153084396405356"><ele>247.0</ele><time>2026-04-17T07:17:11Z</time></trkpt><trkpt lat="36.95245259804158" lon="15.153205071091005"><ele>247.0</ele><time>2026-04-17T07:17:12Z</time></trkpt><trkpt lat="36.952574247231254" lon="15.153284629539666"><ele>247.0</ele><time>2026-04-17T07:17:13Z</time></trkpt><trkpt lat="36.95270108497553" lon="15.15333736835768"><ele>247.0</ele><time>2026-04-17T07:17:14Z</time></trkpt><trkpt lat="36.95280291372536" lon="15.153409381446451"><ele>246.83333333333331</ele><time>2026-04-17T07:17:15Z</time></trkpt><trkpt lat="36.952872484723784" lon="15.153478800862322"><ele>246.66666666666666</ele><time>2026-04-17T07:17:16Z</time></trkpt><trkpt lat="36.95293410098996" lon="15.15351877610759"><ele>246.5</ele><time>2026-04-17T07:17:17Z</time></trkpt><trkpt lat="36.95300142862631" lon="15.153519419392424"><ele>246.33333333333331</ele><time>2026-04-17T07:17:19Z</time></trkpt><trkpt lat="36.9530310696292" lon="15.15336070863845"><ele>246.16666666666666</ele><time>2026-04-17T07:17:20Z</time></trkpt><trkpt lat="36.95298679512942" lon="15.153265451446506"><ele>246.0</ele><time>2026-04-17T07:17:21Z</time></trkpt><trkpt lat="36.952920400255806" lon="15.153177216063032"><ele>248.60000000000002</ele><time>2026-04-17T07:17:21.999Z</time></trkpt><trkpt lat="36.952863858018134" lon="15.153106438386718"><ele>251.20000000000002</ele><time>2026-04-17T07:17:22.999Z</time></trkpt><trkpt lat="36.95280796840304" lon="15.153034892233121"><ele>253.79999999999998</ele><time>2026-04-17T07:17:23.999Z</time></trkpt><trkpt lat="36.95274182227239" lon="15.152937752686263"><ele>256.4</ele><time>2026-04-17T07:17:24.999Z</time></trkpt><trkpt lat="36.95265885326251" lon="15.152824377234879"><ele>259.0</ele><time>2026-04-17T07:17:25.999Z</time></trkpt><trkpt lat="36.95257374397695" lon="15.152706606505259"><ele>258.8</ele><time>2026-04-17T07:17:26.999Z</time></trkpt><trkpt lat="36.95250735386645" lon="15.152580933000882"><ele>258.59999999999997</ele><time>2026-04-17T07:17:27.999Z</time></trkpt><trkpt lat="36.95246849646141" lon="15.152449302224944"><ele>258.4</ele><time>2026-04-17T07:17:28.999Z</time></trkpt><trkpt lat="36.952477547327504" lon="15.152328754890933"><ele>258.2</ele><time>2026-04-17T07:17:29.999Z</time></trkpt><trkpt lat="36.95247418225697" lon="15.152211926451173"><ele>258.0</ele><time>2026-04-17T07:17:30.999Z</time></trkpt><trkpt lat="36.95243605979989" lon="15.152099876172645"><ele>258.0</ele><time>2026-04-17T07:17:31.999Z</time></trkpt><trkpt lat="36.95236617974078" lon="15.152004705620977"><ele>258.0</ele><time>2026-04-17T07:17:32.999Z</time></trkpt><trkpt lat="36.9523011418117" lon="15.151874968177497"><ele>258.0</ele><time>2026-04-17T07:17:33.999Z</time></trkpt><trkpt lat="36.95225935490886" lon="15.151716649638029"><ele>258.0</ele><time>2026-04-17T07:17:34.999Z</time></trkpt><trkpt lat="36.95221319573291" lon="15.151550464748981"><ele>263.25</ele><time>2026-04-17T07:17:35.999Z</time></trkpt><trkpt lat="36.952177555471344" lon="15.151394310130566"><ele>268.5</ele><time>2026-04-17T07:17:36.999Z</time></trkpt><trkpt lat="36.952123718648416" lon="15.151244254527038"><ele>273.75</ele><time>2026-04-17T07:17:37.999Z</time></trkpt><trkpt lat="36.952038061460364" lon="15.151120153392936"><ele>279.0</ele><time>2026-04-17T07:17:38.999Z</time></trkpt><trkpt lat="36.95193655001511" lon="15.15103789733963"><ele>279.0</ele><time>2026-04-17T07:17:39.999Z</time></trkpt><trkpt lat="36.95184068326736" lon="15.151004930817827"><ele>279.0</ele><time>2026-04-17T07:17:40.999Z</time></trkpt><trkpt lat="36.95177285633856" lon="15.150968682451737"><ele>279.0</ele><time>2026-04-17T07:17:41.999Z</time></trkpt><trkpt lat="36.95186547498772" lon="15.150871019984669"><ele>279.0</ele><time>2026-04-17T07:17:45.999Z</time></trkpt><trkpt lat="36.95195798420149" lon="15.150840359402231"><ele>279.0</ele><time>2026-04-17T07:17:46.999Z</time></trkpt><trkpt lat="36.952057769201254" lon="15.15084253105389"><ele>279.0</ele><time>2026-04-17T07:17:47.999Z</time></trkpt><trkpt lat="36.952151752580896" lon="15.150823963126475"><ele>279.0</ele><time>2026-04-17T07:17:48.999Z</time></trkpt><trkpt lat="36.95223059966313" lon="15.150813839064082"><ele>279.0</ele><time>2026-04-17T07:17:49.999Z</time></trkpt><trkpt lat="36.95230302519526" lon="15.150762262899088"><ele>279.0</ele><time>2026-04-17T07:17:51.999Z</time></trkpt><trkpt lat="36.95224198112576" lon="15.150594241399727"><ele>279.0</ele><time>2026-04-17T07:17:52.999Z</time></trkpt><trkpt lat="36.952133990562096" lon="15.150522778995201"><ele>284.25</ele><time>2026-04-17T07:17:53.999Z</time></trkpt><trkpt lat="36.95203890605457" lon="15.150437981496276"><ele>289.5</ele><time>2026-04-17T07:17:54.999Z</time></trkpt><trkpt lat="36.95194571496792" lon="15.150346831886406"><ele>294.75</ele><time>2026-04-17T07:17:55.999Z</time></trkpt><trkpt lat="36.95184059480227" lon="15.150241268438682"><ele>300.0</ele><time>2026-04-17T07:17:56.999Z</time></trkpt><trkpt lat="36.95173375638361" lon="15.15013526612634"><ele>298.25</ele><time>2026-04-17T07:17:57.999Z</time></trkpt><trkpt lat="36.95162322017884" lon="15.150030961693068"><ele>296.5</ele><time>2026-04-17T07:17:58.999Z</time></trkpt><trkpt lat="36.951524052816815" lon="15.149924385290849"><ele>294.75</ele><time>2026-04-17T07:17:59.999Z</time></trkpt><trkpt lat="36.95146189412638" lon="15.149824119920025"><ele>293.0</ele><time>2026-04-17T07:18:00.999Z</time></trkpt><trkpt lat="36.95144525755935" lon="15.149719481911056"><ele>293.0</ele><time>2026-04-17T07:18:01.999Z</time></trkpt><trkpt lat="36.95143841471142" lon="15.149598929999149"><ele>293.0</ele><time>2026-04-17T07:18:02.999Z</time></trkpt><trkpt lat="36.95145370725628" lon="15.14945921915759"><ele>293.0</ele><time>2026-04-17T07:18:03.999Z</time></trkpt><trkpt lat="36.95150222162105" lon="15.149323284203305"><ele>293.0</ele><time>2026-04-17T07:18:04.999Z</time></trkpt><trkpt lat="36.951575019456534" lon="15.149237295948625"><ele>293.0</ele><time>2026-04-17T07:18:05.999Z</time></trkpt><trkpt lat="36.95165313923565" lon="15.149176496918486"><ele>298.4</ele><time>2026-04-17T07:18:06.999Z</time></trkpt><trkpt lat="36.9517465712289" lon="15.149135263095278"><ele>303.8</ele><time>2026-04-17T07:18:07.999Z</time></trkpt><trkpt lat="36.9518500204902" lon="15.149171403265736"><ele>309.2</ele><time>2026-04-17T07:18:08.999Z</time></trkpt><trkpt lat="36.95195220626497" lon="15.149183574225917"><ele>314.6</ele><time>2026-04-17T07:18:09.999Z</time></trkpt><trkpt lat="36.95206155583626" lon="15.149220455889557"><ele>320.0</ele><time>2026-04-17T07:18:10.999Z</time></trkpt><trkpt lat="36.95217828183226" lon="15.149254415779398"><ele>320.0</ele><time>2026-04-17T07:18:11.999Z</time></trkpt><trkpt lat="36.95228515055125" lon="15.149274563779755"><ele>320.0</ele><time>2026-04-17T07:18:12.999Z</time></trkpt><trkpt lat="36.95238613496451" lon="15.149288448423324"><ele>320.0</ele><time>2026-04-17T07:18:13.999Z</time></trkpt><trkpt lat="36.95247292250673" lon="15.149292224973163"><ele>320.0</ele><time>2026-04-17T07:18:14.999Z</time></trkpt><trkpt lat="36.95256865699141" lon="15.149284046889772"><ele>320.0</ele><time>2026-04-17T07:18:15.999Z</time></trkpt><trkpt lat="36.95268383790241" lon="15.149303696711021"><ele>324.0</ele><time>2026-04-17T07:18:16.999Z</time></trkpt><trkpt lat="36.95281293444808" lon="15.149324116836253"><ele>328.0</ele><time>2026-04-17T07:18:17.999Z</time></trkpt><trkpt lat="36.95293920718853" lon="15.149351838665954"><ele>332.0</ele><time>2026-04-17T07:18:18.999Z</time></trkpt><trkpt lat="36.953051616294125" lon="15.149354415747895"><ele>336.0</ele><time>2026-04-17T07:18:19.999Z</time></trkpt><trkpt lat="36.95313565741868" lon="15.149354833657773"><ele>336.0</ele><time>2026-04-17T07:18:20.999Z</time></trkpt><trkpt lat="36.95321529698198" lon="15.149247017668939"><ele>336.0</ele><time>2026-04-17T07:18:22.999Z</time></trkpt><trkpt lat="36.95318885005426" lon="15.149129669013242"><ele>336.0</ele><time>2026-04-17T07:18:23.999Z</time></trkpt><trkpt lat="36.95310146116815" lon="15.149046347254162"><ele>336.0</ele><time>2026-04-17T07:18:24.999Z</time></trkpt><trkpt lat="36.95303751882527" lon="15.148973799675845"><ele>336.0</ele><time>2026-04-17T07:18:26Z</time></trkpt><trkpt lat="36.95298218291811" lon="15.148911599956215"><ele>337.1666666666667</ele><time>2026-04-17T07:18:27Z</time></trkpt><trkpt lat="36.95292048381867" lon="15.148847878691097"><ele>338.3333333333333</ele><time>2026-04-17T07:18:28Z</time></trkpt><trkpt lat="36.952841152374624" lon="15.148791832812776"><ele>339.5</ele><time>2026-04-17T07:18:29Z</time></trkpt><trkpt lat="36.95276596962942" lon="15.148763674065213"><ele>340.66666666666663</ele><time>2026-04-17T07:18:30Z</time></trkpt><trkpt lat="36.95270072250067" lon="15.14871633710728"><ele>341.8333333333333</ele><time>2026-04-17T07:18:31Z</time></trkpt><trkpt lat="36.95262573054553" lon="15.14862275027002"><ele>343.0</ele><time>2026-04-17T07:18:33Z</time></trkpt><trkpt lat="36.952714520939274" lon="15.14857335859746"><ele>343.0</ele><time>2026-04-17T07:18:36Z</time></trkpt><trkpt lat="36.95283743628832" lon="15.148612134868658"><ele>343.0</ele><time>2026-04-17T07:18:38Z</time></trkpt><trkpt lat="36.952908940076725" lon="15.14864073725944"><ele>343.0</ele><time>2026-04-17T07:18:39Z</time></trkpt><trkpt lat="36.95301844375146" lon="15.148687244117973"><ele>343.0</ele><time>2026-04-17T07:18:41Z</time></trkpt><trkpt lat="36.953084708174146" lon="15.14871519077922"><ele>343.0</ele><time>2026-04-17T07:18:43Z</time></trkpt><trkpt lat="36.95317008652154" lon="15.14872425351223"><ele>343.0</ele><time>2026-04-17T07:18:47Z</time></trkpt><trkpt lat="36.95354269555154" lon="15.148695469838577"><ele>343.0</ele><time>2026-04-17T07:18:48Z</time></trkpt><trkpt lat="36.953316079465054" lon="15.148476143623386"><ele>345.66666666666663</ele><time>2026-04-17T07:18:50Z</time></trkpt><trkpt lat="36.95338104833614" lon="15.148424575032182"><ele>348.3333333333333</ele><time>2026-04-17T07:18:52Z</time></trkpt><trkpt lat="36.95338201837633" lon="15.148345525792081"><ele>351.0</ele><time>2026-04-17T07:18:54Z</time></trkpt><trkpt lat="36.95340705370521" lon="15.148256625891552"><ele>353.6666666666667</ele><time>2026-04-17T07:18:56Z</time></trkpt><trkpt lat="36.95346837335538" lon="15.148221085887496"><ele>356.33333333333337</ele><time>2026-04-17T07:18:59Z</time></trkpt><trkpt lat="36.95353207593652" lon="15.148149836469493"><ele>359.0</ele><time>2026-04-17T07:19:23Z</time></trkpt><trkpt lat="36.953600407459575" lon="15.148074388466192"><ele>359.0</ele><time>2026-04-17T07:19:25Z</time></trkpt><trkpt lat="36.95367463253472" lon="15.147951029207166"><ele>359.0</ele><time>2026-04-17T07:19:27Z</time></trkpt><trkpt lat="36.95374451068981" lon="15.147899690468652"><ele>359.0</ele><time>2026-04-17T07:19:28Z</time></trkpt><trkpt lat="36.95376820393766" lon="15.147795541818526"><ele>359.0</ele><time>2026-04-17T07:19:29Z</time></trkpt><trkpt lat="36.95376817672685" lon="15.147685055872925"><ele>359.0</ele><time>2026-04-17T07:19:30Z</time></trkpt><trkpt lat="36.9537510489306" lon="15.147567693616478"><ele>359.0</ele><time>2026-04-17T07:19:31Z</time></trkpt><trkpt lat="36.95372255971655" lon="15.147453885025676"><ele>359.0</ele><time>2026-04-17T07:19:31.999Z</time></trkpt><trkpt lat="36.95369468376434" lon="15.147340874302728"><ele>359.0</ele><time>2026-04-17T07:19:32.999Z</time></trkpt><trkpt lat="36.95367124162639" lon="15.147241679535467"><ele>359.0</ele><time>2026-04-17T07:19:33.999Z</time></trkpt><trkpt lat="36.953652974038185" lon="15.14714719290411"><ele>359.0</ele><time>2026-04-17T07:19:34.999Z</time></trkpt><trkpt lat="36.95364081271802" lon="15.147059220330695"><ele>359.0</ele><time>2026-04-17T07:19:35.999Z</time></trkpt><trkpt lat="36.953642603584925" lon="15.146959958624322"><ele>359.25</ele><time>2026-04-17T07:19:36.999Z</time></trkpt><trkpt lat="36.953675540471025" lon="15.146848070297892"><ele>359.5</ele><time>2026-04-17T07:19:37.999Z</time></trkpt><trkpt lat="36.95374414551369" lon="15.146719517621696"><ele>359.75</ele><time>2026-04-17T07:19:38.999Z</time></trkpt><trkpt lat="36.953812605411635" lon="15.146578780297341"><ele>360.0</ele><time>2026-04-17T07:19:39.999Z</time></trkpt><trkpt lat="36.953875369657794" lon="15.146426225785872"><ele>361.5</ele><time>2026-04-17T07:19:40.999Z</time></trkpt><trkpt lat="36.9539353258836" lon="15.146253249350636"><ele>363.0</ele><time>2026-04-17T07:19:41.999Z</time></trkpt><trkpt lat="36.95397943554188" lon="15.1460857225508"><ele>364.5</ele><time>2026-04-17T07:19:42.999Z</time></trkpt><trkpt lat="36.95401955958587" lon="15.14592514400875"><ele>366.0</ele><time>2026-04-17T07:19:43.999Z</time></trkpt><trkpt lat="36.95405724525579" lon="15.145782080792388"><ele>365.20000000000005</ele><time>2026-04-17T07:19:44.999Z</time></trkpt><trkpt lat="36.954102231565265" lon="15.145652667525415"><ele>364.40000000000003</ele><time>2026-04-17T07:19:45.999Z</time></trkpt><trkpt lat="36.95416676464678" lon="15.145558429227778"><ele>363.6</ele><time>2026-04-17T07:19:46.999Z</time></trkpt><trkpt lat="36.95425970339996" lon="15.145503309679647"><ele>362.8</ele><time>2026-04-17T07:19:47.999Z</time></trkpt><trkpt lat="36.95437058590347" lon="15.14544934051458"><ele>362.0</ele><time>2026-04-17T07:19:48.999Z</time></trkpt><trkpt lat="36.95448436793495" lon="15.145369032756111"><ele>365.75</ele><time>2026-04-17T07:19:49.999Z</time></trkpt><trkpt lat="36.95460478607042" lon="15.145307193018079"><ele>369.5</ele><time>2026-04-17T07:19:50.999Z</time></trkpt><trkpt lat="36.95472137224209" lon="15.145260490662134"><ele>373.25</ele><time>2026-04-17T07:19:51.999Z</time></trkpt><trkpt lat="36.95481998071159" lon="15.145206563076439"><ele>377.0</ele><time>2026-04-17T07:19:52.999Z</time></trkpt><trkpt lat="36.954903253796694" lon="15.145139496714377"><ele>377.0</ele><time>2026-04-17T07:19:53.999Z</time></trkpt><trkpt lat="36.95499292494024" lon="15.145095361227671"><ele>377.0</ele><time>2026-04-17T07:19:54.999Z</time></trkpt><trkpt lat="36.95507268909462" lon="15.145048897821653"><ele>377.0</ele><time>2026-04-17T07:19:55.999Z</time></trkpt><trkpt lat="36.955152274594575" lon="15.144998156962494"><ele>377.0</ele><time>2026-04-17T07:19:56.999Z</time></trkpt><trkpt lat="36.95522518858601" lon="15.144911663921599"><ele>377.0</ele><time>2026-04-17T07:19:57.999Z</time></trkpt><trkpt lat="36.955292187375775" lon="15.144816916754309"><ele>377.8</ele><time>2026-04-17T07:19:58.999Z</time></trkpt><trkpt lat="36.955351377301476" lon="15.144723956193433"><ele>378.6</ele><time>2026-04-17T07:19:59.999Z</time></trkpt><trkpt lat="36.955403888263476" lon="15.144629424071663"><ele>379.40000000000003</ele><time>2026-04-17T07:20:00.999Z</time></trkpt><trkpt lat="36.955451727654584" lon="15.144529240734602"><ele>380.20000000000005</ele><time>2026-04-17T07:20:01.999Z</time></trkpt><trkpt lat="36.9554942417389" lon="15.144435661947286"><ele>381.0</ele><time>2026-04-17T07:20:02.999Z</time></trkpt><trkpt lat="36.955535217868324" lon="15.14434318804186"><ele>381.0</ele><time>2026-04-17T07:20:03.999Z</time></trkpt><trkpt lat="36.95557011075015" lon="15.144261250853146"><ele>381.0</ele><time>2026-04-17T07:20:04.999Z</time></trkpt><trkpt lat="36.95559869312442" lon="15.144177652365212"><ele>381.0</ele><time>2026-04-17T07:20:05.999Z</time></trkpt><trkpt lat="36.9556135047959" lon="15.14408188594132"><ele>381.0</ele><time>2026-04-17T07:20:06.999Z</time></trkpt><trkpt lat="36.955616265269086" lon="15.143985732332824"><ele>381.0</ele><time>2026-04-17T07:20:07.999Z</time></trkpt><trkpt lat="36.95559561992383" lon="15.143881220615647"><ele>381.0</ele><time>2026-04-17T07:20:08.999Z</time></trkpt><trkpt lat="36.95554900788118" lon="15.143790081510693"><ele>382.0</ele><time>2026-04-17T07:20:09.999Z</time></trkpt><trkpt lat="36.95551786708547" lon="15.143697742615222"><ele>383.0</ele><time>2026-04-17T07:20:10.999Z</time></trkpt><trkpt lat="36.95549846325381" lon="15.143600126706726"><ele>384.0</ele><time>2026-04-17T07:20:11.999Z</time></trkpt><trkpt lat="36.95550456914913" lon="15.143512240069107"><ele>385.0</ele><time>2026-04-17T07:20:12.999Z</time></trkpt><trkpt lat="36.955520400684435" lon="15.143409639600884"><ele>386.0</ele><time>2026-04-17T07:20:13.999Z</time></trkpt><trkpt lat="36.95556385495314" lon="15.143328626337428"><ele>387.0</ele><time>2026-04-17T07:20:14.999Z</time></trkpt><trkpt lat="36.95560038229308" lon="15.143231598607866"><ele>387.5</ele><time>2026-04-17T07:20:15.999Z</time></trkpt><trkpt lat="36.955637080068435" lon="15.143133111821232"><ele>388.0</ele><time>2026-04-17T07:20:16.999Z</time></trkpt><trkpt lat="36.95567051446215" lon="15.143041701430375"><ele>388.5</ele><time>2026-04-17T07:20:17.999Z</time></trkpt><trkpt lat="36.955703978359715" lon="15.142957038942765"><ele>389.0</ele><time>2026-04-17T07:20:18.999Z</time></trkpt><trkpt lat="36.95573934034957" lon="15.142878896648913"><ele>389.5</ele><time>2026-04-17T07:20:19.999Z</time></trkpt><trkpt lat="36.95578250276296" lon="15.14280208301061"><ele>390.0</ele><time>2026-04-17T07:20:20.999Z</time></trkpt><trkpt lat="36.95582987806252" lon="15.142729335606274"><ele>391.3333333333333</ele><time>2026-04-17T07:20:21.999Z</time></trkpt><trkpt lat="36.95587981514026" lon="15.142660468189478"><ele>392.66666666666663</ele><time>2026-04-17T07:20:22.999Z</time></trkpt><trkpt lat="36.95593224661755" lon="15.142594535483095"><ele>394.0</ele><time>2026-04-17T07:20:23.999Z</time></trkpt><trkpt lat="36.955991342487756" lon="15.142532011731626"><ele>395.3333333333333</ele><time>2026-04-17T07:20:24.999Z</time></trkpt><trkpt lat="36.95607021999614" lon="15.142467603678199"><ele>396.66666666666663</ele><time>2026-04-17T07:20:25.999Z</time></trkpt><trkpt lat="36.956136500250956" lon="15.142424926876286"><ele>398.0</ele><time>2026-04-17T07:20:26.999Z</time></trkpt><trkpt lat="36.95624980239554" lon="15.142365696430508"><ele>398.3333333333333</ele><time>2026-04-17T07:20:28.999Z</time></trkpt><trkpt lat="36.956317005302616" lon="15.142348048892098"><ele>398.66666666666663</ele><time>2026-04-17T07:20:29.999Z</time></trkpt><trkpt lat="36.956428967599265" lon="15.142277309950403"><ele>399.0</ele><time>2026-04-17T07:20:32Z</time></trkpt><trkpt lat="36.95648952558567" lon="15.142203075687204"><ele>399.33333333333337</ele><time>2026-04-17T07:20:33Z</time></trkpt><trkpt lat="36.956532703714004" lon="15.14211424160206"><ele>399.6666666666667</ele><time>2026-04-17T07:20:34Z</time></trkpt><trkpt lat="36.95657284783458" lon="15.142020219341639"><ele>400.0</ele><time>2026-04-17T07:20:35Z</time></trkpt><trkpt lat="36.95661012309824" lon="15.14192968187496"><ele>400.00000000000006</ele><time>2026-04-17T07:20:36Z</time></trkpt><trkpt lat="36.95664689857021" lon="15.141840183949451"><ele>400.0</ele><time>2026-04-17T07:20:37Z</time></trkpt><trkpt lat="36.95668454824302" lon="15.141747382657874"><ele>400.0</ele><time>2026-04-17T07:20:38Z</time></trkpt><trkpt lat="36.95672301057024" lon="15.141652835256147"><ele>400.0</ele><time>2026-04-17T07:20:39Z</time></trkpt><trkpt lat="36.95676078130445" lon="15.141561130405368"><ele>400.00000000000006</ele><time>2026-04-17T07:20:40Z</time></trkpt><trkpt lat="36.9567934045149" lon="15.141481923452481"><ele>400.0</ele><time>2026-04-17T07:20:41Z</time></trkpt><trkpt lat="36.956825123705784" lon="15.141404911211934"><ele>399.00000000000006</ele><time>2026-04-17T07:20:42Z</time></trkpt><trkpt lat="36.95685883941521" lon="15.141323051794702"><ele>398.0</ele><time>2026-04-17T07:20:43Z</time></trkpt><trkpt lat="36.95689519432971" lon="15.141234784663212"><ele>397.0</ele><time>2026-04-17T07:20:44Z</time></trkpt><trkpt lat="36.95692906493675" lon="15.141149714270961"><ele>396.0</ele><time>2026-04-17T07:20:45Z</time></trkpt><trkpt lat="36.956962075641" lon="15.141066812281235"><ele>395.00000000000006</ele><time>2026-04-17T07:20:46Z</time></trkpt><trkpt lat="36.95699443260774" lon="15.140985552486155"><ele>394.0</ele><time>2026-04-17T07:20:47Z</time></trkpt><trkpt lat="36.95702894328404" lon="15.140898884106823"><ele>394.00000000000006</ele><time>2026-04-17T07:20:48Z</time></trkpt><trkpt lat="36.957062294064635" lon="15.140815382624984"><ele>394.0</ele><time>2026-04-17T07:20:49Z</time></trkpt><trkpt lat="36.957096108835245" lon="15.140732460829444"><ele>394.0</ele><time>2026-04-17T07:20:50Z</time></trkpt><trkpt lat="36.95712987783785" lon="15.140649652117533"><ele>394.0</ele><time>2026-04-17T07:20:51Z</time></trkpt><trkpt lat="36.95716826626446" lon="15.140555515748256"><ele>394.00000000000006</ele><time>2026-04-17T07:20:52Z</time></trkpt><trkpt lat="36.957219401112454" lon="15.140433548143935"><ele>394.0</ele><time>2026-04-17T07:20:53Z</time></trkpt><trkpt lat="36.95728064897478" lon="15.140300384838346"><ele>392.75</ele><time>2026-04-17T07:20:54Z</time></trkpt><trkpt lat="36.95734981095273" lon="15.140170552740095"><ele>391.5</ele><time>2026-04-17T07:20:55Z</time></trkpt><trkpt lat="36.95741449067834" lon="15.140054129209043"><ele>390.25</ele><time>2026-04-17T07:20:56Z</time></trkpt><trkpt lat="36.95747232397521" lon="15.13994398795449"><ele>389.0</ele><time>2026-04-17T07:20:57Z</time></trkpt><trkpt lat="36.95752561132047" lon="15.139825402867286"><ele>389.49999999999994</ele><time>2026-04-17T07:20:58Z</time></trkpt><trkpt lat="36.95756577318752" lon="15.13972124140506"><ele>390.0</ele><time>2026-04-17T07:20:59Z</time></trkpt><trkpt lat="36.957585263063415" lon="15.139626576334043"><ele>390.5</ele><time>2026-04-17T07:21:00Z</time></trkpt><trkpt lat="36.95761605832203" lon="15.1395485016974"><ele>391.0</ele><time>2026-04-17T07:21:01Z</time></trkpt><trkpt lat="36.95765215731717" lon="15.139447880236082"><ele>391.49999999999994</ele><time>2026-04-17T07:21:02Z</time></trkpt><trkpt lat="36.957699182988264" lon="15.139338866458383"><ele>392.0</ele><time>2026-04-17T07:21:03Z</time></trkpt><trkpt lat="36.95774749507667" lon="15.139220986176138"><ele>392.0</ele><time>2026-04-17T07:21:04Z</time></trkpt><trkpt lat="36.95778784313151" lon="15.139109162704878"><ele>392.0</ele><time>2026-04-17T07:21:05Z</time></trkpt><trkpt lat="36.957837301597" lon="15.139000496833578"><ele>392.0</ele><time>2026-04-17T07:21:06Z</time></trkpt><trkpt lat="36.9578785241062" lon="15.138894782337328"><ele>392.0</ele><time>2026-04-17T07:21:07Z</time></trkpt><trkpt lat="36.95791961581098" lon="15.138792703374218"><ele>392.0</ele><time>2026-04-17T07:21:08Z</time></trkpt><trkpt lat="36.95795685233597" lon="15.138699950585313"><ele>392.8</ele><time>2026-04-17T07:21:09Z</time></trkpt><trkpt lat="36.957997247170084" lon="15.138599294355652"><ele>393.6</ele><time>2026-04-17T07:21:10Z</time></trkpt><trkpt lat="36.95804855355477" lon="15.13847144871006"><ele>394.40000000000003</ele><time>2026-04-17T07:21:11Z</time></trkpt><trkpt lat="36.95809692817547" lon="15.138350908447865"><ele>395.20000000000005</ele><time>2026-04-17T07:21:12Z</time></trkpt><trkpt lat="36.958148631101196" lon="15.138222074688988"><ele>396.0</ele><time>2026-04-17T07:21:13Z</time></trkpt><trkpt lat="36.958182389407014" lon="15.138093281510185"><ele>397.0</ele><time>2026-04-17T07:21:14Z</time></trkpt><trkpt lat="36.95823554047977" lon="15.137986822363784"><ele>398.0</ele><time>2026-04-17T07:21:15Z</time></trkpt><trkpt lat="36.95827598661526" lon="15.13786677922495"><ele>399.0</ele><time>2026-04-17T07:21:16Z</time></trkpt><trkpt lat="36.95832160186663" lon="15.137761919897494"><ele>400.0</ele><time>2026-04-17T07:21:17Z</time></trkpt><trkpt lat="36.95836470962703" lon="15.137663572690252"><ele>401.0</ele><time>2026-04-17T07:21:18Z</time></trkpt><trkpt lat="36.95840000407571" lon="15.137565881764393"><ele>401.5</ele><time>2026-04-17T07:21:19Z</time></trkpt><trkpt lat="36.958446092955356" lon="15.137459953224512"><ele>402.0</ele><time>2026-04-17T07:21:20Z</time></trkpt><trkpt lat="36.958479003164754" lon="15.137373396550919"><ele>402.5</ele><time>2026-04-17T07:21:21Z</time></trkpt><trkpt lat="36.958356561757995" lon="15.137212505953414"><ele>403.0</ele><time>2026-04-17T07:21:41Z</time></trkpt><trkpt lat="36.958282908418035" lon="15.137122211714829"><ele>404.5</ele><time>2026-04-17T07:21:42Z</time></trkpt><trkpt lat="36.95819156176619" lon="15.13701681709762"><ele>406.0</ele><time>2026-04-17T07:21:43Z</time></trkpt><trkpt lat="36.958107619352994" lon="15.136922431450767"><ele>407.5</ele><time>2026-04-17T07:21:44Z</time></trkpt><trkpt lat="36.95803013741545" lon="15.136828698726458"><ele>409.0</ele><time>2026-04-17T07:21:45Z</time></trkpt><trkpt lat="36.95795330514457" lon="15.136732267940722"><ele>409.0</ele><time>2026-04-17T07:21:46Z</time></trkpt><trkpt lat="36.957875282083265" lon="15.136634432857502"><ele>409.0</ele><time>2026-04-17T07:21:47Z</time></trkpt><trkpt lat="36.957797143782194" lon="15.136537653843263"><ele>409.0</ele><time>2026-04-17T07:21:48Z</time></trkpt><trkpt lat="36.957716723049636" lon="15.136441459789431"><ele>409.0</ele><time>2026-04-17T07:21:49Z</time></trkpt><trkpt lat="36.95764232439952" lon="15.136353032284415"><ele>409.0</ele><time>2026-04-17T07:21:49.999Z</time></trkpt><trkpt lat="36.95756597635202" lon="15.136285217363147"><ele>410.4</ele><time>2026-04-17T07:21:50.999Z</time></trkpt><trkpt lat="36.957506809247" lon="15.13622342114843"><ele>411.79999999999995</ele><time>2026-04-17T07:21:51.999Z</time></trkpt><trkpt lat="36.95747298182715" lon="15.136153623746745"><ele>413.20000000000005</ele><time>2026-04-17T07:21:52.999Z</time></trkpt><trkpt lat="36.95740332921664" lon="15.136031103059134"><ele>414.6</ele><time>2026-04-17T07:21:54.999Z</time></trkpt><trkpt lat="36.95729240799117" lon="15.13604684091087"><ele>416.0</ele><time>2026-04-17T07:21:56.999Z</time></trkpt><trkpt lat="36.95719058584344" lon="15.13613355848726"><ele>416.0</ele><time>2026-04-17T07:21:58.999Z</time></trkpt><trkpt lat="36.95712697498549" lon="15.136177886400509"><ele>416.0</ele><time>2026-04-17T07:21:59.999Z</time></trkpt><trkpt lat="36.95701652894469" lon="15.136203377892965"><ele>416.0</ele><time>2026-04-17T07:22:01.999Z</time></trkpt><trkpt lat="36.956926451625925" lon="15.136155084727225"><ele>416.0</ele><time>2026-04-17T07:22:03.999Z</time></trkpt><trkpt lat="36.95683861262559" lon="15.136104617805264"><ele>416.0</ele><time>2026-04-17T07:22:05.999Z</time></trkpt><trkpt lat="36.956752198693934" lon="15.13604643996046"><ele>416.0</ele><time>2026-04-17T07:22:07.999Z</time></trkpt><trkpt lat="36.956666861052824" lon="15.135959299896493"><ele>416.0</ele><time>2026-04-17T07:22:09.999Z</time></trkpt><trkpt lat="36.95655579610491" lon="15.135877154155745"><ele>416.0</ele><time>2026-04-17T07:22:11.999Z</time></trkpt><trkpt lat="36.956489721399116" lon="15.135835333932276"><ele>416.0</ele><time>2026-04-17T07:22:12.999Z</time></trkpt><trkpt lat="36.956426621693964" lon="15.13579810518568"><ele>416.0</ele><time>2026-04-17T07:22:13.999Z</time></trkpt><trkpt lat="36.956363285742675" lon="15.135770480717133"><ele>415.99999999999994</ele><time>2026-04-17T07:22:14.999Z</time></trkpt><trkpt lat="36.95629911181721" lon="15.135755450048979"><ele>416.0</ele><time>2026-04-17T07:22:15.999Z</time></trkpt><trkpt lat="36.95623400565473" lon="15.13573528185884"><ele>416.0</ele><time>2026-04-17T07:22:16.999Z</time></trkpt><trkpt lat="36.95616601755687" lon="15.13571816722623"><ele>416.0</ele><time>2026-04-17T07:22:17.999Z</time></trkpt><trkpt lat="36.956055154095566" lon="15.135763678251198"><ele>415.99999999999994</ele><time>2026-04-17T07:22:19.999Z</time></trkpt><trkpt lat="36.95601003823645" lon="15.135820970205879"><ele>416.0</ele><time>2026-04-17T07:22:20.999Z</time></trkpt><trkpt lat="36.95593548840358" lon="15.135917732582863"><ele>418.0</ele><time>2026-04-17T07:22:22.999Z</time></trkpt><trkpt lat="36.95584543155963" lon="15.136003641951138"><ele>420.0</ele><time>2026-04-17T07:22:24.999Z</time></trkpt><trkpt lat="36.95575638881535" lon="15.1360771854648"><ele>422.0</ele><time>2026-04-17T07:22:26.999Z</time></trkpt><trkpt lat="36.955690837109" lon="15.136150697589848"><ele>424.0</ele><time>2026-04-17T07:22:28.999Z</time></trkpt><trkpt lat="36.95563594011468" lon="15.136223841843348"><ele>426.0</ele><time>2026-04-17T07:22:31.999Z</time></trkpt><trkpt lat="36.95559200802317" lon="15.136295046118619"><ele>426.0</ele><time>2026-04-17T07:22:34.999Z</time></trkpt><trkpt lat="36.955540215411716" lon="15.13639639807938"><ele>426.0</ele><time>2026-04-17T07:22:38Z</time></trkpt><trkpt lat="36.95550459913759" lon="15.136472585316548"><ele>426.0</ele><time>2026-04-17T07:22:41Z</time></trkpt><trkpt lat="36.95545930574141" lon="15.136579943437445"><ele>426.0</ele><time>2026-04-17T07:22:55Z</time></trkpt><trkpt lat="36.955413567049014" lon="15.13668864050906"><ele>426.0</ele><time>2026-04-17T07:22:56Z</time></trkpt><trkpt lat="36.95534052553773" lon="15.136848431734013"><ele>425.0</ele><time>2026-04-17T07:22:57Z</time></trkpt><trkpt lat="36.95526107876254" lon="15.137021760686277"><ele>424.0</ele><time>2026-04-17T07:22:58Z</time></trkpt><trkpt lat="36.95518259417962" lon="15.137198543903757"><ele>423.0</ele><time>2026-04-17T07:22:59Z</time></trkpt><trkpt lat="36.955108048597076" lon="15.137357723320445"><ele>422.75</ele><time>2026-04-17T07:23:00Z</time></trkpt><trkpt lat="36.95504206495236" lon="15.137507878505552"><ele>422.5</ele><time>2026-04-17T07:23:01Z</time></trkpt><trkpt lat="36.95498078498788" lon="15.137640147784206"><ele>422.25</ele><time>2026-04-17T07:23:02Z</time></trkpt><trkpt lat="36.954916740618586" lon="15.137757391833636"><ele>422.0</ele><time>2026-04-17T07:23:03Z</time></trkpt><trkpt lat="36.95486059477947" lon="15.137869452946742"><ele>422.0</ele><time>2026-04-17T07:23:04Z</time></trkpt><trkpt lat="36.95480575074078" lon="15.137976906416565"><ele>422.0</ele><time>2026-04-17T07:23:05Z</time></trkpt><trkpt lat="36.95475907044427" lon="15.138074665564353"><ele>422.0</ele><time>2026-04-17T07:23:06Z</time></trkpt><trkpt lat="36.954699160382596" lon="15.138163608756068"><ele>422.0</ele><time>2026-04-17T07:23:07Z</time></trkpt><trkpt lat="36.95462201640013" lon="15.13826493532496"><ele>422.0</ele><time>2026-04-17T07:23:08Z</time></trkpt><trkpt lat="36.954548331980874" lon="15.138367301105827"><ele>421.20000000000005</ele><time>2026-04-17T07:23:09Z</time></trkpt><trkpt lat="36.95446872127733" lon="15.138463702729922"><ele>420.4</ele><time>2026-04-17T07:23:10Z</time></trkpt><trkpt lat="36.95440528900191" lon="15.13855262380418"><ele>419.6</ele><time>2026-04-17T07:23:11Z</time></trkpt><trkpt lat="36.95435563566232" lon="15.138649424369632"><ele>418.79999999999995</ele><time>2026-04-17T07:23:12Z</time></trkpt><trkpt lat="36.95430716946469" lon="15.138767716710518"><ele>418.0</ele><time>2026-04-17T07:23:13Z</time></trkpt><trkpt lat="36.95424980890689" lon="15.138882396081357"><ele>418.0</ele><time>2026-04-17T07:23:14Z</time></trkpt><trkpt lat="36.95419842094357" lon="15.139000213389965"><ele>418.0</ele><time>2026-04-17T07:23:15Z</time></trkpt><trkpt lat="36.954152597209365" lon="15.139109409893772"><ele>418.0</ele><time>2026-04-17T07:23:16Z</time></trkpt><trkpt lat="36.95410558973654" lon="15.139192638094519"><ele>418.0</ele><time>2026-04-17T07:23:17Z</time></trkpt><trkpt lat="36.954066530076965" lon="15.139266909604268"><ele>418.0</ele><time>2026-04-17T07:23:18Z</time></trkpt><trkpt lat="36.95400298686033" lon="15.139352001833798"><ele>416.25</ele><time>2026-04-17T07:23:19Z</time></trkpt><trkpt lat="36.95392236375112" lon="15.13945561376341"><ele>414.5</ele><time>2026-04-17T07:23:20Z</time></trkpt><trkpt lat="36.95383360637839" lon="15.139571449820227"><ele>412.75</ele><time>2026-04-17T07:23:21Z</time></trkpt><trkpt lat="36.953749359960014" lon="15.139689339329731"><ele>411.0</ele><time>2026-04-17T07:23:22Z</time></trkpt><trkpt lat="36.95367652415732" lon="15.139805515701358"><ele>409.8</ele><time>2026-04-17T07:23:23Z</time></trkpt><trkpt lat="36.95361461923873" lon="15.139930227439761"><ele>408.6</ele><time>2026-04-17T07:23:24Z</time></trkpt><trkpt lat="36.95355463568664" lon="15.140049789984229"><ele>407.4</ele><time>2026-04-17T07:23:25Z</time></trkpt><trkpt lat="36.9535000240531" lon="15.140151537447666"><ele>406.2</ele><time>2026-04-17T07:23:26Z</time></trkpt><trkpt lat="36.95344231069716" lon="15.140252987472756"><ele>405.0</ele><time>2026-04-17T07:23:27Z</time></trkpt><trkpt lat="36.95339491692434" lon="15.140346996416849"><ele>404.4</ele><time>2026-04-17T07:23:28Z</time></trkpt><trkpt lat="36.95334900554305" lon="15.140460022028854"><ele>403.8</ele><time>2026-04-17T07:23:29Z</time></trkpt><trkpt lat="36.95328595271212" lon="15.140568156376847"><ele>403.20000000000005</ele><time>2026-04-17T07:23:30Z</time></trkpt><trkpt lat="36.95322419721338" lon="15.140674029308153"><ele>402.6</ele><time>2026-04-17T07:23:31Z</time></trkpt><trkpt lat="36.9531766090811" lon="15.140769264303948"><ele>402.0</ele><time>2026-04-17T07:23:32Z</time></trkpt><trkpt lat="36.95313237296725" lon="15.140857104610417"><ele>402.0</ele><time>2026-04-17T07:23:33Z</time></trkpt><trkpt lat="36.95307945256702" lon="15.14093243006771"><ele>402.0</ele><time>2026-04-17T07:23:34Z</time></trkpt><trkpt lat="36.95302264498905" lon="15.141000574198632"><ele>402.0</ele><time>2026-04-17T07:23:35Z</time></trkpt><trkpt lat="36.95297092141062" lon="15.141063589811393"><ele>402.0</ele><time>2026-04-17T07:23:36Z</time></trkpt><trkpt lat="36.952913677901265" lon="15.14111233366683"><ele>402.0</ele><time>2026-04-17T07:23:37Z</time></trkpt><trkpt lat="36.952850931952234" lon="15.141134587678867"><ele>402.0</ele><time>2026-04-17T07:23:38Z</time></trkpt><trkpt lat="36.952779724796706" lon="15.141145310746364"><ele>402.0</ele><time>2026-04-17T07:23:39Z</time></trkpt><trkpt lat="36.9527067215133" lon="15.141148371770129"><ele>402.0</ele><time>2026-04-17T07:23:40Z</time></trkpt><trkpt lat="36.95264432484002" lon="15.141124685728162"><ele>402.0</ele><time>2026-04-17T07:23:41Z</time></trkpt><trkpt lat="36.95258951929307" lon="15.141078292449592"><ele>402.0</ele><time>2026-04-17T07:23:42Z</time></trkpt><trkpt lat="36.95253950653204" lon="15.1410132281862"><ele>402.0</ele><time>2026-04-17T07:23:43Z</time></trkpt><trkpt lat="36.952484099701614" lon="15.140937807751135"><ele>402.0</ele><time>2026-04-17T07:23:44Z</time></trkpt><trkpt lat="36.95243245719129" lon="15.140861316221113"><ele>402.0</ele><time>2026-04-17T07:23:45Z</time></trkpt><trkpt lat="36.952380108704034" lon="15.140782086363808"><ele>402.0</ele><time>2026-04-17T07:23:46Z</time></trkpt><trkpt lat="36.952319485180745" lon="15.140706413063759"><ele>404.0</ele><time>2026-04-17T07:23:47Z</time></trkpt><trkpt lat="36.95226689254942" lon="15.140645458883816"><ele>406.0</ele><time>2026-04-17T07:23:48Z</time></trkpt><trkpt lat="36.95219687546963" lon="15.140582930228693"><ele>408.0</ele><time>2026-04-17T07:23:50Z</time></trkpt><trkpt lat="36.952133594387504" lon="15.140598748801192"><ele>410.0</ele><time>2026-04-17T07:23:52Z</time></trkpt><trkpt lat="36.95211297452113" lon="15.140673884098504"><ele>412.0</ele><time>2026-04-17T07:23:54Z</time></trkpt><trkpt lat="36.95218192063978" lon="15.14068002520084"><ele>414.0</ele><time>2026-04-17T07:24:34.999Z</time></trkpt><trkpt lat="36.9522508105606" lon="15.140595324405336"><ele>414.0</ele><time>2026-04-17T07:24:36.999Z</time></trkpt><trkpt lat="36.952323101678985" lon="15.140501259684003"><ele>414.0</ele><time>2026-04-17T07:24:38.999Z</time></trkpt><trkpt lat="36.95238742418569" lon="15.140475335938437"><ele>414.0</ele><time>2026-04-17T07:24:39.999Z</time></trkpt><trkpt lat="36.95244699843991" lon="15.140437858118183"><ele>414.0</ele><time>2026-04-17T07:24:40.999Z</time></trkpt><trkpt lat="36.9525429930049" lon="15.140347279632776"><ele>414.0</ele><time>2026-04-17T07:24:42.999Z</time></trkpt><trkpt lat="36.95259461454656" lon="15.14029750722973"><ele>414.0</ele><time>2026-04-17T07:24:44Z</time></trkpt><trkpt lat="36.95264882369823" lon="15.140243871486962"><ele>413.5714285714286</ele><time>2026-04-17T07:24:45Z</time></trkpt><trkpt lat="36.9526995757631" lon="15.140182530257713"><ele>413.14285714285717</ele><time>2026-04-17T07:24:46Z</time></trkpt><trkpt lat="36.95275148044841" lon="15.140111856083626"><ele>412.7142857142857</ele><time>2026-04-17T07:24:47Z</time></trkpt><trkpt lat="36.95279260075317" lon="15.140034076447451"><ele>412.28571428571433</ele><time>2026-04-17T07:24:48Z</time></trkpt><trkpt lat="36.95283338571204" lon="15.139949433694595"><ele>411.85714285714283</ele><time>2026-04-17T07:24:49Z</time></trkpt><trkpt lat="36.952867643817065" lon="15.139867258207552"><ele>411.42857142857144</ele><time>2026-04-17T07:24:50Z</time></trkpt><trkpt lat="36.952898885607034" lon="15.139783313180391"><ele>411.0</ele><time>2026-04-17T07:24:51Z</time></trkpt><trkpt lat="36.95294265061192" lon="15.139684836901129"><ele>412.5</ele><time>2026-04-17T07:24:52Z</time></trkpt><trkpt lat="36.95298721498593" lon="15.139588662755507"><ele>414.0</ele><time>2026-04-17T07:24:53Z</time></trkpt><trkpt lat="36.953029713292466" lon="15.139505172580343"><ele>415.5</ele><time>2026-04-17T07:24:54Z</time></trkpt><trkpt lat="36.95307968334417" lon="15.139424917208686"><ele>417.0</ele><time>2026-04-17T07:24:55Z</time></trkpt><trkpt lat="36.95311441736267" lon="15.139355590547032"><ele>418.5</ele><time>2026-04-17T07:24:56Z</time></trkpt><trkpt lat="36.95314865595587" lon="15.139273488755936"><ele>420.0</ele><time>2026-04-17T07:24:57Z</time></trkpt><trkpt lat="36.95318360263717" lon="15.139198575789537"><ele>420.0</ele><time>2026-04-17T07:24:58Z</time></trkpt><trkpt lat="36.953224220545984" lon="15.139122104630273"><ele>420.0</ele><time>2026-04-17T07:24:59Z</time></trkpt><trkpt lat="36.953261877983984" lon="15.1390470678238"><ele>420.0</ele><time>2026-04-17T07:25:00Z</time></trkpt><trkpt lat="36.95330044015082" lon="15.138964497206771"><ele>420.0</ele><time>2026-04-17T07:25:01Z</time></trkpt><trkpt lat="36.953337989195184" lon="15.138872984535125"><ele>420.0</ele><time>2026-04-17T07:25:02Z</time></trkpt><trkpt lat="36.95337726839645" lon="15.138781735317028"><ele>420.0</ele><time>2026-04-17T07:25:03Z</time></trkpt><trkpt lat="36.953420612552975" lon="15.138683831096316"><ele>419.6</ele><time>2026-04-17T07:25:04Z</time></trkpt><trkpt lat="36.95346517200893" lon="15.138582866697027"><ele>419.2</ele><time>2026-04-17T07:25:05Z</time></trkpt><trkpt lat="36.953510798719705" lon="15.138480724963193"><ele>418.79999999999995</ele><time>2026-04-17T07:25:06Z</time></trkpt><trkpt lat="36.953559508625446" lon="15.138380379235002"><ele>418.4</ele><time>2026-04-17T07:25:07Z</time></trkpt><trkpt lat="36.95360709391973" lon="15.138280303874815"><ele>418.0</ele><time>2026-04-17T07:25:08Z</time></trkpt><trkpt lat="36.95364935149597" lon="15.138184501837914"><ele>418.6666666666667</ele><time>2026-04-17T07:25:09Z</time></trkpt><trkpt lat="36.95369349574825" lon="15.138098192504858"><ele>419.33333333333337</ele><time>2026-04-17T07:25:10Z</time></trkpt><trkpt lat="36.953727115722934" lon="15.138023021083837"><ele>420.0</ele><time>2026-04-17T07:25:11Z</time></trkpt><trkpt lat="36.95376012159239" lon="15.137946638506026"><ele>420.66666666666663</ele><time>2026-04-17T07:25:12Z</time></trkpt><trkpt lat="36.953795674985386" lon="15.137865146312585"><ele>421.3333333333333</ele><time>2026-04-17T07:25:13Z</time></trkpt><trkpt lat="36.953834127275414" lon="15.137775091191735"><ele>422.0</ele><time>2026-04-17T07:25:14Z</time></trkpt><trkpt lat="36.95386952111183" lon="15.137683630658195"><ele>422.0</ele><time>2026-04-17T07:25:15Z</time></trkpt><trkpt lat="36.95390527765664" lon="15.137605589317571"><ele>422.0</ele><time>2026-04-17T07:25:16Z</time></trkpt><trkpt lat="36.95393894027783" lon="15.137530295854434"><ele>422.0</ele><time>2026-04-17T07:25:17Z</time></trkpt><trkpt lat="36.95396701689082" lon="15.137458674869544"><ele>422.0</ele><time>2026-04-17T07:25:18Z</time></trkpt><trkpt lat="36.95399935967427" lon="15.137383580426967"><ele>422.0</ele><time>2026-04-17T07:25:19Z</time></trkpt><trkpt lat="36.95402123171988" lon="15.13730002671596"><ele>422.0</ele><time>2026-04-17T07:25:20Z</time></trkpt><trkpt lat="36.95405287559125" lon="15.137217411608088"><ele>422.0</ele><time>2026-04-17T07:25:21Z</time></trkpt><trkpt lat="36.95409041121945" lon="15.137132086923094"><ele>421.8333333333333</ele><time>2026-04-17T07:25:22Z</time></trkpt><trkpt lat="36.95411975567005" lon="15.137055746222496"><ele>421.66666666666663</ele><time>2026-04-17T07:25:23Z</time></trkpt><trkpt lat="36.95415265661563" lon="15.136968233152057"><ele>421.5</ele><time>2026-04-17T07:25:24Z</time></trkpt><trkpt lat="36.95418815464757" lon="15.136881531001201"><ele>421.33333333333337</ele><time>2026-04-17T07:25:25Z</time></trkpt><trkpt lat="36.95422317092931" lon="15.136795136737595"><ele>421.1666666666667</ele><time>2026-04-17T07:25:26Z</time></trkpt><trkpt lat="36.954256701162876" lon="15.13669909900576"><ele>421.0</ele><time>2026-04-17T07:25:27Z</time></trkpt><trkpt lat="36.95428724881757" lon="15.136618679923613"><ele>422.6666666666667</ele><time>2026-04-17T07:25:28Z</time></trkpt><trkpt lat="36.954325367313075" lon="15.136531502822761"><ele>424.33333333333337</ele><time>2026-04-17T07:25:29Z</time></trkpt><trkpt lat="36.954354860275885" lon="15.136449681889049"><ele>426.0</ele><time>2026-04-17T07:25:30Z</time></trkpt><trkpt lat="36.954386869082754" lon="15.136344857389545"><ele>427.66666666666663</ele><time>2026-04-17T07:25:31Z</time></trkpt><trkpt lat="36.954419750567716" lon="15.136247296965134"><ele>429.3333333333333</ele><time>2026-04-17T07:25:32Z</time></trkpt><trkpt lat="36.95445432804892" lon="15.136159692959712"><ele>431.0</ele><time>2026-04-17T07:25:33Z</time></trkpt><trkpt lat="36.954501853705025" lon="15.136064909459582"><ele>431.0</ele><time>2026-04-17T07:25:34Z</time></trkpt><trkpt lat="36.95454472520528" lon="15.135966813583982"><ele>431.0</ele><time>2026-04-17T07:25:35Z</time></trkpt><trkpt lat="36.95458655296468" lon="15.13586463240621"><ele>431.0</ele><time>2026-04-17T07:25:36Z</time></trkpt><trkpt lat="36.95463111994272" lon="15.135774201924988"><ele>431.0</ele><time>2026-04-17T07:25:37Z</time></trkpt><trkpt lat="36.954682546526385" lon="15.135675780530882"><ele>431.0</ele><time>2026-04-17T07:25:38Z</time></trkpt><trkpt lat="36.95473539530074" lon="15.135574623647031"><ele>430.20000000000005</ele><time>2026-04-17T07:25:39Z</time></trkpt><trkpt lat="36.954789800596835" lon="15.135464219216239"><ele>429.40000000000003</ele><time>2026-04-17T07:25:40Z</time></trkpt><trkpt lat="36.95484988203427" lon="15.135354526632005"><ele>428.6</ele><time>2026-04-17T07:25:41Z</time></trkpt><trkpt lat="36.954911816038695" lon="15.135254667265508"><ele>427.8</ele><time>2026-04-17T07:25:42Z</time></trkpt><trkpt lat="36.95497158290978" lon="15.135159165518905"><ele>427.0</ele><time>2026-04-17T07:25:43Z</time></trkpt><trkpt lat="36.95503201268384" lon="15.135049169814796"><ele>426.8</ele><time>2026-04-17T07:25:44Z</time></trkpt><trkpt lat="36.95509775636202" lon="15.134937249933724"><ele>426.6</ele><time>2026-04-17T07:25:45Z</time></trkpt><trkpt lat="36.95516281231997" lon="15.134823976531464"><ele>426.40000000000003</ele><time>2026-04-17T07:25:46Z</time></trkpt><trkpt lat="36.95521940528941" lon="15.134714269891552"><ele>426.20000000000005</ele><time>2026-04-17T07:25:47Z</time></trkpt><trkpt lat="36.95527187902797" lon="15.134606721342296"><ele>426.0</ele><time>2026-04-17T07:25:48Z</time></trkpt><trkpt lat="36.955320243906904" lon="15.134517324324394"><ele>425.99999999999994</ele><time>2026-04-17T07:25:49Z</time></trkpt><trkpt lat="36.95536424998937" lon="15.134442147743925"><ele>426.0</ele><time>2026-04-17T07:25:50Z</time></trkpt><trkpt lat="36.95540121615313" lon="15.134367826480528"><ele>426.0</ele><time>2026-04-17T07:25:51Z</time></trkpt><trkpt lat="36.95544751477752" lon="15.134294125553955"><ele>426.0</ele><time>2026-04-17T07:25:52Z</time></trkpt><trkpt lat="36.955504416661775" lon="15.134240361666958"><ele>426.0</ele><time>2026-04-17T07:25:53Z</time></trkpt><trkpt lat="36.95555967250457" lon="15.134180666881866"><ele>425.99999999999994</ele><time>2026-04-17T07:25:54Z</time></trkpt><trkpt lat="36.95560464285599" lon="15.134119370075116"><ele>426.0</ele><time>2026-04-17T07:25:55Z</time></trkpt><trkpt lat="36.9556558403714" lon="15.134047471154677"><ele>426.5</ele><time>2026-04-17T07:25:56Z</time></trkpt><trkpt lat="36.95570608022516" lon="15.133981003719137"><ele>427.0</ele><time>2026-04-17T07:25:57Z</time></trkpt><trkpt lat="36.955752118804085" lon="15.133925626383176"><ele>427.5</ele><time>2026-04-17T07:25:58Z</time></trkpt><trkpt lat="36.95581810574059" lon="15.133843737761174"><ele>428.0</ele><time>2026-04-17T07:26:00Z</time></trkpt><trkpt lat="36.95589346019929" lon="15.133769313996227"><ele>428.5</ele><time>2026-04-17T07:26:03Z</time></trkpt><trkpt lat="36.95600511294299" lon="15.13376311437901"><ele>429.0</ele><time>2026-04-17T07:26:06Z</time></trkpt><trkpt lat="36.956097472762686" lon="15.13377020315086"><ele>429.0</ele><time>2026-04-17T07:26:07.999Z</time></trkpt><trkpt lat="36.95619886713838" lon="15.13379419788368"><ele>429.0</ele><time>2026-04-17T07:26:09.999Z</time></trkpt><trkpt lat="36.956298994715404" lon="15.133804679569762"><ele>429.0</ele><time>2026-04-17T07:26:11.999Z</time></trkpt><trkpt lat="36.95638826108693" lon="15.133809871071511"><ele>429.0</ele><time>2026-04-17T07:26:14.999Z</time></trkpt><trkpt lat="36.956478799080884" lon="15.133821165614352"><ele>429.0</ele><time>2026-04-17T07:26:16.999Z</time></trkpt><trkpt lat="36.956574507242564" lon="15.133843800140921"><ele>429.0</ele><time>2026-04-17T07:26:18.999Z</time></trkpt><trkpt lat="36.95667264602813" lon="15.13386455343375"><ele>429.0</ele><time>2026-04-17T07:26:20.999Z</time></trkpt><trkpt lat="36.956766218006806" lon="15.133885961581807"><ele>429.0</ele><time>2026-04-17T07:26:22.999Z</time></trkpt><trkpt lat="36.95685527000073" lon="15.1338751508213"><ele>429.0</ele><time>2026-04-17T07:26:24.999Z</time></trkpt><trkpt lat="36.95694530093534" lon="15.133898776103031"><ele>429.0</ele><time>2026-04-17T07:26:26.999Z</time></trkpt><trkpt lat="36.95705067897453" lon="15.133933741780195"><ele>429.0</ele><time>2026-04-17T07:26:28.999Z</time></trkpt><trkpt lat="36.95712163126042" lon="15.13394548113972"><ele>429.0</ele><time>2026-04-17T07:26:29.999Z</time></trkpt><trkpt lat="36.95719110694354" lon="15.133950079162164"><ele>429.0</ele><time>2026-04-17T07:26:30.999Z</time></trkpt><trkpt lat="36.957303860491535" lon="15.133960959153171"><ele>429.0</ele><time>2026-04-17T07:26:32.999Z</time></trkpt><trkpt lat="36.9574167252835" lon="15.134013093606486"><ele>429.0</ele><time>2026-04-17T07:26:34.999Z</time></trkpt><trkpt lat="36.95751362447284" lon="15.134094961073115"><ele>429.14285714285717</ele><time>2026-04-17T07:26:36.999Z</time></trkpt><trkpt lat="36.95757747778638" lon="15.134125611988589"><ele>429.28571428571433</ele><time>2026-04-17T07:26:37.999Z</time></trkpt><trkpt lat="36.95764314981924" lon="15.134143188348608"><ele>429.42857142857144</ele><time>2026-04-17T07:26:38.999Z</time></trkpt><trkpt lat="36.95771342263992" lon="15.134158818127794"><ele>429.57142857142856</ele><time>2026-04-17T07:26:39.999Z</time></trkpt><trkpt lat="36.95777322775222" lon="15.134196646444751"><ele>429.7142857142857</ele><time>2026-04-17T07:26:40.999Z</time></trkpt><trkpt lat="36.95783991017656" lon="15.134232531932021"><ele>429.85714285714283</ele><time>2026-04-17T07:26:41.999Z</time></trkpt><trkpt lat="36.95791111189481" lon="15.13425981173119"><ele>430.0</ele><time>2026-04-17T07:26:42.999Z</time></trkpt><trkpt lat="36.95798033026643" lon="15.134281227363784"><ele>430.0</ele><time>2026-04-17T07:26:43.999Z</time></trkpt><trkpt lat="36.95805307526533" lon="15.134302452862073"><ele>430.0</ele><time>2026-04-17T07:26:44.999Z</time></trkpt><trkpt lat="36.958127540543856" lon="15.134335006636286"><ele>430.0</ele><time>2026-04-17T07:26:45.999Z</time></trkpt><trkpt lat="36.95819050916206" lon="15.13436307468238"><ele>430.0</ele><time>2026-04-17T07:26:46.999Z</time></trkpt><trkpt lat="36.95826209230985" lon="15.134388721034771"><ele>430.0</ele><time>2026-04-17T07:26:47.999Z</time></trkpt><trkpt lat="36.95832323561676" lon="15.134419650755106"><ele>430.0</ele><time>2026-04-17T07:26:48.999Z</time></trkpt><trkpt lat="36.95838178185906" lon="15.134448609906078"><ele>430.0</ele><time>2026-04-17T07:26:50Z</time></trkpt><trkpt lat="36.95844744864859" lon="15.134475328587177"><ele>429.1666666666667</ele><time>2026-04-17T07:26:51Z</time></trkpt><trkpt lat="36.95851304599386" lon="15.134500395657273"><ele>428.33333333333337</ele><time>2026-04-17T07:26:52Z</time></trkpt><trkpt lat="36.95858370217705" lon="15.134525036768444"><ele>427.5</ele><time>2026-04-17T07:26:53Z</time></trkpt><trkpt lat="36.95865476898158" lon="15.134552058330254"><ele>426.66666666666663</ele><time>2026-04-17T07:26:54Z</time></trkpt><trkpt lat="36.958711237004906" lon="15.134588540861348"><ele>425.8333333333333</ele><time>2026-04-17T07:26:55Z</time></trkpt><trkpt lat="36.95882204103327" lon="15.134632006079912"><ele>425.0</ele><time>2026-04-17T07:26:57Z</time></trkpt><trkpt lat="36.95889992140026" lon="15.134660628343806"><ele>424.99999999999994</ele><time>2026-04-17T07:26:59Z</time></trkpt><trkpt lat="36.95898301979974" lon="15.134680469701136"><ele>425.0</ele><time>2026-04-17T07:27:01Z</time></trkpt><trkpt lat="36.959067454753814" lon="15.134664044443062"><ele>425.0</ele><time>2026-04-17T07:27:03Z</time></trkpt><trkpt lat="36.95911397414823" lon="15.134580338359392"><ele>425.0</ele><time>2026-04-17T07:27:05Z</time></trkpt><trkpt lat="36.95913061990777" lon="15.134464440760816"><ele>424.99999999999994</ele><time>2026-04-17T07:27:07Z</time></trkpt><trkpt lat="36.95913466609341" lon="15.134344749323628"><ele>425.0</ele><time>2026-04-17T07:27:09Z</time></trkpt><trkpt lat="36.959151930634455" lon="15.134209284637242"><ele>424.99999999999994</ele><time>2026-04-17T07:27:11Z</time></trkpt><trkpt lat="36.95919882810778" lon="15.134153475120145"><ele>425.0</ele><time>2026-04-17T07:27:12Z</time></trkpt><trkpt lat="36.959246831120865" lon="15.134024383285052"><ele>425.0</ele><time>2026-04-17T07:27:14Z</time></trkpt><trkpt lat="36.95927565055184" lon="15.133949847147418"><ele>425.0</ele><time>2026-04-17T07:27:15Z</time></trkpt><trkpt lat="36.9593045709721" lon="15.133874260423426"><ele>424.99999999999994</ele><time>2026-04-17T07:27:16Z</time></trkpt><trkpt lat="36.95933317705254" lon="15.133795836642147"><ele>425.0</ele><time>2026-04-17T07:27:17Z</time></trkpt><trkpt lat="36.95936129613422" lon="15.133715940728266"><ele>425.85714285714283</ele><time>2026-04-17T07:27:18Z</time></trkpt><trkpt lat="36.9593873486272" lon="15.133635018539765"><ele>426.71428571428567</ele><time>2026-04-17T07:27:19Z</time></trkpt><trkpt lat="36.959410208235724" lon="15.133558945330023"><ele>427.57142857142856</ele><time>2026-04-17T07:27:20Z</time></trkpt><trkpt lat="36.95943429233783" lon="15.13347165306817"><ele>428.42857142857144</ele><time>2026-04-17T07:27:21Z</time></trkpt><trkpt lat="36.95945726487483" lon="15.133381294372775"><ele>429.2857142857143</ele><time>2026-04-17T07:27:22Z</time></trkpt><trkpt lat="36.95948236694089" lon="15.13328606037819"><ele>430.14285714285717</ele><time>2026-04-17T07:27:23Z</time></trkpt><trkpt lat="36.959512247651105" lon="15.13319299713549"><ele>431.0</ele><time>2026-04-17T07:27:24Z</time></trkpt><trkpt lat="36.95954957237006" lon="15.133114616635089"><ele>430.99999999999994</ele><time>2026-04-17T07:27:25Z</time></trkpt><trkpt lat="36.95959098236452" lon="15.13303126948681"><ele>431.0</ele><time>2026-04-17T07:27:26Z</time></trkpt><trkpt lat="36.9596268552941" lon="15.1329494897903"><ele>431.0</ele><time>2026-04-17T07:27:27Z</time></trkpt><trkpt lat="36.95965964764801" lon="15.132865595687665"><ele>431.0</ele><time>2026-04-17T07:27:28Z</time></trkpt><trkpt lat="36.959684509505124" lon="15.132764800168179"><ele>430.99999999999994</ele><time>2026-04-17T07:27:29Z</time></trkpt><trkpt lat="36.95968001243765" lon="15.132659992220312"><ele>431.0</ele><time>2026-04-17T07:27:30Z</time></trkpt><trkpt lat="36.95969104574941" lon="15.13255613351514"><ele>430.99999999999994</ele><time>2026-04-17T07:27:31Z</time></trkpt><trkpt lat="36.95969694776593" lon="15.132437845077574"><ele>431.0</ele><time>2026-04-17T07:27:32Z</time></trkpt><trkpt lat="36.959719768469334" lon="15.132328411324563"><ele>431.0</ele><time>2026-04-17T07:27:33Z</time></trkpt><trkpt lat="36.95972444535545" lon="15.13221884750781"><ele>431.0</ele><time>2026-04-17T07:27:34Z</time></trkpt><trkpt lat="36.95972652537551" lon="15.132122153829531"><ele>430.99999999999994</ele><time>2026-04-17T07:27:35Z</time></trkpt><trkpt lat="36.95970986529715" lon="15.132028846281576"><ele>431.0</ele><time>2026-04-17T07:27:36Z</time></trkpt><trkpt lat="36.95972330738412" lon="15.131930178309915"><ele>432.49999999999994</ele><time>2026-04-17T07:27:37Z</time></trkpt><trkpt lat="36.959719833168215" lon="15.13183748487951"><ele>434.0</ele><time>2026-04-17T07:27:38Z</time></trkpt><trkpt lat="36.95969980079158" lon="15.131745076663028"><ele>435.5</ele><time>2026-04-17T07:27:39Z</time></trkpt><trkpt lat="36.95970333447871" lon="15.131637504280619"><ele>437.0</ele><time>2026-04-17T07:27:40Z</time></trkpt><trkpt lat="36.95972092461617" lon="15.131527965218634"><ele>438.49999999999994</ele><time>2026-04-17T07:27:41Z</time></trkpt><trkpt lat="36.95972884166534" lon="15.131430511418285"><ele>440.0</ele><time>2026-04-17T07:27:42Z</time></trkpt><trkpt lat="36.959740612937395" lon="15.131345778289504"><ele>439.99999999999994</ele><time>2026-04-17T07:27:43Z</time></trkpt><trkpt lat="36.95973975275363" lon="15.131261604990655"><ele>440.0</ele><time>2026-04-17T07:27:44Z</time></trkpt><trkpt lat="36.95975675621591" lon="15.131172990217573"><ele>440.0</ele><time>2026-04-17T07:27:45Z</time></trkpt><trkpt lat="36.95977272274487" lon="15.13107804005094"><ele>440.0</ele><time>2026-04-17T07:27:46Z</time></trkpt><trkpt lat="36.95981148018301" lon="15.130975588378753"><ele>439.99999999999994</ele><time>2026-04-17T07:27:47Z</time></trkpt><trkpt lat="36.95985142919001" lon="15.130840486113339"><ele>440.0</ele><time>2026-04-17T07:27:48Z</time></trkpt><trkpt lat="36.95989841465999" lon="15.130698077088802"><ele>439.0</ele><time>2026-04-17T07:27:49Z</time></trkpt><trkpt lat="36.95995367440162" lon="15.13055778077511"><ele>438.0</ele><time>2026-04-17T07:27:50Z</time></trkpt><trkpt lat="36.96002192241522" lon="15.130382366219607"><ele>437.0</ele><time>2026-04-17T07:27:51Z</time></trkpt><trkpt lat="36.96010522179655" lon="15.130168265616486"><ele>432.66666666666663</ele><time>2026-04-17T07:27:52Z</time></trkpt><trkpt lat="36.960172636199026" lon="15.129948731579647"><ele>428.33333333333337</ele><time>2026-04-17T07:27:53Z</time></trkpt><trkpt lat="36.96025192131902" lon="15.129786317189867"><ele>424.0</ele><time>2026-04-17T07:27:54Z</time></trkpt><trkpt lat="36.96033184331078" lon="15.129575510842281"><ele>424.0</ele><time>2026-04-17T07:27:55Z</time></trkpt><trkpt lat="36.96040286607646" lon="15.129356086029441"><ele>424.0</ele><time>2026-04-17T07:27:56Z</time></trkpt><trkpt lat="36.96047621795757" lon="15.129162332828605"><ele>424.0</ele><time>2026-04-17T07:27:57Z</time></trkpt><trkpt lat="36.96054697058449" lon="15.128985611550418"><ele>428.5</ele><time>2026-04-17T07:27:58Z</time></trkpt><trkpt lat="36.96059481524201" lon="15.128839934120961"><ele>433.0</ele><time>2026-04-17T07:27:59Z</time></trkpt><trkpt lat="36.96062193102814" lon="15.128710120334459"><ele>437.5</ele><time>2026-04-17T07:28:00Z</time></trkpt><trkpt lat="36.96065263593819" lon="15.128566335624596"><ele>442.0</ele><time>2026-04-17T07:28:01Z</time></trkpt><trkpt lat="36.96069367680712" lon="15.128441333696742"><ele>442.0</ele><time>2026-04-17T07:28:02Z</time></trkpt><trkpt lat="36.960734952207545" lon="15.128323402048972"><ele>442.0</ele><time>2026-04-17T07:28:03Z</time></trkpt><trkpt lat="36.960790932482574" lon="15.128178310297379"><ele>442.0</ele><time>2026-04-17T07:28:04Z</time></trkpt><trkpt lat="36.96084619725634" lon="15.128024292792022"><ele>442.0</ele><time>2026-04-17T07:28:04.999Z</time></trkpt><trkpt lat="36.9609111196448" lon="15.127857079388114"><ele>435.33333333333337</ele><time>2026-04-17T07:28:05.999Z</time></trkpt><trkpt lat="36.96094931262376" lon="15.127667738076902"><ele>428.66666666666663</ele><time>2026-04-17T07:28:06.999Z</time></trkpt><trkpt lat="36.9609708307577" lon="15.127464624912939"><ele>422.0</ele><time>2026-04-17T07:28:07.999Z</time></trkpt><trkpt lat="36.96098652542578" lon="15.127295017920643"><ele>421.99999999999994</ele><time>2026-04-17T07:28:08.999Z</time></trkpt><trkpt lat="36.9610077396621" lon="15.127165840603656"><ele>422.0</ele><time>2026-04-17T07:28:09.999Z</time></trkpt><trkpt lat="36.96104799465144" lon="15.127066996304682"><ele>422.0</ele><time>2026-04-17T07:28:10.999Z</time></trkpt><trkpt lat="36.961101473005286" lon="15.126986734206383"><ele>422.0</ele><time>2026-04-17T07:28:11.999Z</time></trkpt><trkpt lat="36.961150510705046" lon="15.126903731559313"><ele>421.99999999999994</ele><time>2026-04-17T07:28:12.999Z</time></trkpt><trkpt lat="36.96118234626863" lon="15.126811591753901"><ele>422.0</ele><time>2026-04-17T07:28:13.999Z</time></trkpt><trkpt lat="36.96120168458627" lon="15.126699143283522"><ele>422.0</ele><time>2026-04-17T07:28:14.999Z</time></trkpt><trkpt lat="36.961217804254495" lon="15.126571856934165"><ele>422.0</ele><time>2026-04-17T07:28:15.999Z</time></trkpt><trkpt lat="36.96128737793363" lon="15.126452943301668"><ele>422.0</ele><time>2026-04-17T07:28:16.999Z</time></trkpt><trkpt lat="36.961353656969976" lon="15.126319225725467"><ele>422.0</ele><time>2026-04-17T07:28:17.999Z</time></trkpt><trkpt lat="36.9614210291502" lon="15.126207494360333"><ele>426.40000000000003</ele><time>2026-04-17T07:28:18.999Z</time></trkpt><trkpt lat="36.961482350619654" lon="15.126104526295244"><ele>430.8</ele><time>2026-04-17T07:28:19.999Z</time></trkpt><trkpt lat="36.96152810725366" lon="15.12601714836403"><ele>435.2</ele><time>2026-04-17T07:28:20.999Z</time></trkpt><trkpt lat="36.96158495410337" lon="15.12597154518187"><ele>439.6</ele><time>2026-04-17T07:28:21.999Z</time></trkpt><trkpt lat="36.96166826789566" lon="15.125843689721657"><ele>444.0</ele><time>2026-04-17T07:28:23.999Z</time></trkpt><trkpt lat="36.96169012450229" lon="15.125750841371568"><ele>435.4</ele><time>2026-04-17T07:28:24.999Z</time></trkpt><trkpt lat="36.9617182479142" lon="15.125644872161354"><ele>426.79999999999995</ele><time>2026-04-17T07:28:25.999Z</time></trkpt><trkpt lat="36.96175983608135" lon="15.12554189044886"><ele>418.20000000000005</ele><time>2026-04-17T07:28:26.999Z</time></trkpt><trkpt lat="36.961810247233146" lon="15.125434768155998"><ele>409.6</ele><time>2026-04-17T07:28:27.999Z</time></trkpt><trkpt lat="36.96185735141194" lon="15.12533524978745"><ele>401.0</ele><time>2026-04-17T07:28:28.999Z</time></trkpt><trkpt lat="36.96190893494144" lon="15.125226967550363"><ele>401.0</ele><time>2026-04-17T07:28:29.999Z</time></trkpt><trkpt lat="36.96195672554505" lon="15.125118925499196"><ele>401.0</ele><time>2026-04-17T07:28:30.999Z</time></trkpt><trkpt lat="36.96200338204414" lon="15.125015009268092"><ele>401.0</ele><time>2026-04-17T07:28:31.999Z</time></trkpt><trkpt lat="36.962040971980734" lon="15.124919603037526"><ele>401.0</ele><time>2026-04-17T07:28:32.999Z</time></trkpt><trkpt lat="36.962082009001" lon="15.124816123830875"><ele>401.0</ele><time>2026-04-17T07:28:33.999Z</time></trkpt><trkpt lat="36.962114529764285" lon="15.124722346912042"><ele>408.20000000000005</ele><time>2026-04-17T07:28:34.999Z</time></trkpt><trkpt lat="36.962148558677775" lon="15.124618444348222"><ele>415.40000000000003</ele><time>2026-04-17T07:28:35.999Z</time></trkpt><trkpt lat="36.96217731384367" lon="15.12452003312795"><ele>422.6</ele><time>2026-04-17T07:28:36.999Z</time></trkpt><trkpt lat="36.96220403944524" lon="15.12441668959143"><ele>429.8</ele><time>2026-04-17T07:28:37.999Z</time></trkpt><trkpt lat="36.96224615800359" lon="15.124310436297787"><ele>437.0</ele><time>2026-04-17T07:28:38.999Z</time></trkpt><trkpt lat="36.96228032161538" lon="15.124192386850345"><ele>437.0</ele><time>2026-04-17T07:28:39.999Z</time></trkpt><trkpt lat="36.962312931236454" lon="15.124082838227368"><ele>437.00000000000006</ele><time>2026-04-17T07:28:40.999Z</time></trkpt><trkpt lat="36.96234034894346" lon="15.123992052605605"><ele>437.00000000000006</ele><time>2026-04-17T07:28:41.999Z</time></trkpt><trkpt lat="36.962379416423445" lon="15.123872217606674"><ele>437.0</ele><time>2026-04-17T07:28:43.999Z</time></trkpt><trkpt lat="36.96227909811139" lon="15.123756520394494"><ele>437.0</ele><time>2026-04-17T07:28:48.999Z</time></trkpt><trkpt lat="36.96221255039141" lon="15.123726906456186"><ele>439.3333333333333</ele><time>2026-04-17T07:29:08Z</time></trkpt><trkpt lat="36.96214945565902" lon="15.123709879319957"><ele>441.66666666666663</ele><time>2026-04-17T07:29:10Z</time></trkpt><trkpt lat="36.962084372791516" lon="15.123695439321857"><ele>444.0</ele><time>2026-04-17T07:29:12Z</time></trkpt><trkpt lat="36.96215254519058" lon="15.123724824388578"><ele>446.33333333333337</ele><time>2026-04-17T07:29:24Z</time></trkpt><trkpt lat="36.962270978841495" lon="15.123789069751775"><ele>448.6666666666667</ele><time>2026-04-17T07:29:26Z</time></trkpt><trkpt lat="36.96233590817174" lon="15.123802801788024"><ele>451.0</ele><time>2026-04-17T07:29:27Z</time></trkpt><trkpt lat="36.962414498235105" lon="15.123756957063295"><ele>451.00000000000006</ele><time>2026-04-17T07:29:29Z</time></trkpt><trkpt lat="36.96247538499362" lon="15.123613939160222"><ele>451.0</ele><time>2026-04-17T07:29:31Z</time></trkpt><trkpt lat="36.96250503360511" lon="15.12352507638197"><ele>451.0</ele><time>2026-04-17T07:29:32Z</time></trkpt><trkpt lat="36.962537418878696" lon="15.123439042350821"><ele>451.0</ele><time>2026-04-17T07:29:33Z</time></trkpt><trkpt lat="36.962580019958615" lon="15.123355256254737"><ele>451.00000000000006</ele><time>2026-04-17T07:29:34Z</time></trkpt><trkpt lat="36.96262829181996" lon="15.123266450464744"><ele>451.0</ele><time>2026-04-17T07:29:35Z</time></trkpt><trkpt lat="36.962683146109214" lon="15.123196843026134"><ele>446.83333333333337</ele><time>2026-04-17T07:29:36Z</time></trkpt><trkpt lat="36.962734482770244" lon="15.123149401743788"><ele>442.6666666666667</ele><time>2026-04-17T07:29:37Z</time></trkpt><trkpt lat="36.962804545345094" lon="15.123112291182796"><ele>438.5</ele><time>2026-04-17T07:29:38Z</time></trkpt><trkpt lat="36.962876780481885" lon="15.123065513503164"><ele>434.33333333333337</ele><time>2026-04-17T07:29:39Z</time></trkpt><trkpt lat="36.962936065826646" lon="15.122998059779032"><ele>430.1666666666667</ele><time>2026-04-17T07:29:40Z</time></trkpt><trkpt lat="36.96299651948985" lon="15.122926079902165"><ele>426.0</ele><time>2026-04-17T07:29:41Z</time></trkpt><trkpt lat="36.96304798061124" lon="15.122869373552446"><ele>426.0</ele><time>2026-04-17T07:29:42Z</time></trkpt><trkpt lat="36.96309156505334" lon="15.12280798141852"><ele>426.0</ele><time>2026-04-17T07:29:43Z</time></trkpt><trkpt lat="36.9631237458751" lon="15.122727115168882"><ele>426.0</ele><time>2026-04-17T07:29:44Z</time></trkpt><trkpt lat="36.963149105070684" lon="15.122630849851573"><ele>426.0</ele><time>2026-04-17T07:29:45Z</time></trkpt><trkpt lat="36.9631712751939" lon="15.122528000576354"><ele>426.0</ele><time>2026-04-17T07:29:46Z</time></trkpt><trkpt lat="36.96319158222657" lon="15.12241469076205"><ele>426.0</ele><time>2026-04-17T07:29:47Z</time></trkpt><trkpt lat="36.963204385164076" lon="15.122306499443255"><ele>430.0</ele><time>2026-04-17T07:29:48Z</time></trkpt><trkpt lat="36.96322430966885" lon="15.122196308964957"><ele>434.0</ele><time>2026-04-17T07:29:49Z</time></trkpt><trkpt lat="36.96324548656672" lon="15.122071084695438"><ele>438.0</ele><time>2026-04-17T07:29:50Z</time></trkpt><trkpt lat="36.96326673300313" lon="15.121930699931637"><ele>442.0</ele><time>2026-04-17T07:29:51Z</time></trkpt><trkpt lat="36.96330221265374" lon="15.121791151485901"><ele>446.0</ele><time>2026-04-17T07:29:52Z</time></trkpt><trkpt lat="36.963321623222534" lon="15.12164219125483"><ele>446.0</ele><time>2026-04-17T07:29:53Z</time></trkpt><trkpt lat="36.963317242081445" lon="15.121501978054063"><ele>446.0</ele><time>2026-04-17T07:29:54Z</time></trkpt><trkpt lat="36.963328194515505" lon="15.12138423778542"><ele>446.0</ele><time>2026-04-17T07:29:55Z</time></trkpt><trkpt lat="36.963319217027255" lon="15.121275719986777"><ele>446.0</ele><time>2026-04-17T07:29:56Z</time></trkpt><trkpt lat="36.963281161196555" lon="15.121156683324822"><ele>446.0</ele><time>2026-04-17T07:29:57Z</time></trkpt><trkpt lat="36.96324904250992" lon="15.121042530715224"><ele>445.99999999999994</ele><time>2026-04-17T07:29:58Z</time></trkpt><trkpt lat="36.96322814226456" lon="15.120929583540036"><ele>446.0</ele><time>2026-04-17T07:29:59Z</time></trkpt><trkpt lat="36.963208680656415" lon="15.120824585826758"><ele>446.0</ele><time>2026-04-17T07:30:00Z</time></trkpt><trkpt lat="36.96317268341823" lon="15.12071675871971"><ele>446.0</ele><time>2026-04-17T07:30:01Z</time></trkpt><trkpt lat="36.9631534045689" lon="15.120607557808551"><ele>445.99999999999994</ele><time>2026-04-17T07:30:02Z</time></trkpt><trkpt lat="36.96314757800333" lon="15.1205064898784"><ele>446.0</ele><time>2026-04-17T07:30:03Z</time></trkpt><trkpt lat="36.96312738702176" lon="15.120399912908193"><ele>444.20000000000005</ele><time>2026-04-17T07:30:04Z</time></trkpt><trkpt lat="36.9631069492542" lon="15.12030663366056"><ele>442.40000000000003</ele><time>2026-04-17T07:30:05Z</time></trkpt><trkpt lat="36.9630867171875" lon="15.120179644255265"><ele>440.6</ele><time>2026-04-17T07:30:05.999Z</time></trkpt><trkpt lat="36.963052361207126" lon="15.120067437945394"><ele>438.8</ele><time>2026-04-17T07:30:06.999Z</time></trkpt><trkpt lat="36.963005229110856" lon="15.119950958563408"><ele>437.0</ele><time>2026-04-17T07:30:07.999Z</time></trkpt><trkpt lat="36.96293889527983" lon="15.119848934364565"><ele>436.25</ele><time>2026-04-17T07:30:08.999Z</time></trkpt><trkpt lat="36.962862372786766" lon="15.1197529877136"><ele>435.5</ele><time>2026-04-17T07:30:09.999Z</time></trkpt><trkpt lat="36.96277612399477" lon="15.119631046099807"><ele>434.75</ele><time>2026-04-17T07:30:10.999Z</time></trkpt><trkpt lat="36.96270907820254" lon="15.119502130512686"><ele>434.0</ele><time>2026-04-17T07:30:11.999Z</time></trkpt><trkpt lat="36.9626365841139" lon="15.119395016819762"><ele>434.0</ele><time>2026-04-17T07:30:12.999Z</time></trkpt><trkpt lat="36.96257422106237" lon="15.119296794030097"><ele>434.0</ele><time>2026-04-17T07:30:13.999Z</time></trkpt><trkpt lat="36.962495078638874" lon="15.119229158792614"><ele>434.0</ele><time>2026-04-17T07:30:14.999Z</time></trkpt><trkpt lat="36.96244380363225" lon="15.119135583014668"><ele>434.0</ele><time>2026-04-17T07:30:15.999Z</time></trkpt><trkpt lat="36.96239895295855" lon="15.119023645847424"><ele>434.0</ele><time>2026-04-17T07:30:16.999Z</time></trkpt><trkpt lat="36.96237783964914" lon="15.118918091551759"><ele>437.2</ele><time>2026-04-17T07:30:17.999Z</time></trkpt><trkpt lat="36.96238588610592" lon="15.118801987994548"><ele>440.4</ele><time>2026-04-17T07:30:18.999Z</time></trkpt><trkpt lat="36.96240526475994" lon="15.118676082399999"><ele>443.6</ele><time>2026-04-17T07:30:19.999Z</time></trkpt><trkpt lat="36.962423213368126" lon="15.118553903942441"><ele>446.8</ele><time>2026-04-17T07:30:20.999Z</time></trkpt><trkpt lat="36.96244166173866" lon="15.11843173617681"><ele>450.0</ele><time>2026-04-17T07:30:21.999Z</time></trkpt><trkpt lat="36.962454208856386" lon="15.118303795152919"><ele>449.2</ele><time>2026-04-17T07:30:22.999Z</time></trkpt><trkpt lat="36.96246568099518" lon="15.118164539546214"><ele>448.4</ele><time>2026-04-17T07:30:23.999Z</time></trkpt><trkpt lat="36.96248728448787" lon="15.118027752042652"><ele>447.6</ele><time>2026-04-17T07:30:24.999Z</time></trkpt><trkpt lat="36.962497710533604" lon="15.117895630413164"><ele>446.8</ele><time>2026-04-17T07:30:25.999Z</time></trkpt><trkpt lat="36.96248945579405" lon="15.11777527697187"><ele>446.0</ele><time>2026-04-17T07:30:26.999Z</time></trkpt><trkpt lat="36.96249540920963" lon="15.117651853735978"><ele>446.0</ele><time>2026-04-17T07:30:27.999Z</time></trkpt><trkpt lat="36.96250413961461" lon="15.117528014127856"><ele>446.0</ele><time>2026-04-17T07:30:28.999Z</time></trkpt><trkpt lat="36.9625091286136" lon="15.117396460923453"><ele>446.0</ele><time>2026-04-17T07:30:29.999Z</time></trkpt><trkpt lat="36.9625026009842" lon="15.117262509176749"><ele>446.0</ele><time>2026-04-17T07:30:30.999Z</time></trkpt><trkpt lat="36.962484777542684" lon="15.11714281595335"><ele>446.0</ele><time>2026-04-17T07:30:31.999Z</time></trkpt><trkpt lat="36.96247119738173" lon="15.11702043403044"><ele>445.8333333333333</ele><time>2026-04-17T07:30:32.999Z</time></trkpt><trkpt lat="36.96245940968283" lon="15.116914167823303"><ele>445.66666666666663</ele><time>2026-04-17T07:30:33.999Z</time></trkpt><trkpt lat="36.962447751949796" lon="15.116817162335028"><ele>445.5</ele><time>2026-04-17T07:30:34.999Z</time></trkpt><trkpt lat="36.9624412606404" lon="15.116720258138002"><ele>445.33333333333337</ele><time>2026-04-17T07:30:35.999Z</time></trkpt><trkpt lat="36.96242452305256" lon="15.11661285365116"><ele>445.1666666666667</ele><time>2026-04-17T07:30:36.999Z</time></trkpt><trkpt lat="36.962423913216824" lon="15.116503697831435"><ele>445.0</ele><time>2026-04-17T07:30:37.999Z</time></trkpt><trkpt lat="36.962414548555714" lon="15.116391330016798"><ele>445.8</ele><time>2026-04-17T07:30:38.999Z</time></trkpt><trkpt lat="36.96241160527049" lon="15.1162813609806"><ele>446.6</ele><time>2026-04-17T07:30:39.999Z</time></trkpt><trkpt lat="36.96242070165695" lon="15.116161176451294"><ele>447.4</ele><time>2026-04-17T07:30:40.999Z</time></trkpt><trkpt lat="36.96242280809026" lon="15.116049817169182"><ele>448.2</ele><time>2026-04-17T07:30:41.999Z</time></trkpt><trkpt lat="36.96243970478101" lon="15.115940073889854"><ele>449.0</ele><time>2026-04-17T07:30:42.999Z</time></trkpt><trkpt lat="36.96246043237646" lon="15.115796997181851"><ele>451.75</ele><time>2026-04-17T07:30:43.999Z</time></trkpt><trkpt lat="36.9624909608233" lon="15.115635368143025"><ele>454.5</ele><time>2026-04-17T07:30:44.999Z</time></trkpt><trkpt lat="36.96253539150739" lon="15.115471170694008"><ele>457.25</ele><time>2026-04-17T07:30:45.999Z</time></trkpt><trkpt lat="36.962580721312456" lon="15.11531017847153"><ele>460.0</ele><time>2026-04-17T07:30:46.999Z</time></trkpt><trkpt lat="36.962626170046235" lon="15.115152044624496"><ele>445.0</ele><time>2026-04-17T07:30:47.999Z</time></trkpt><trkpt lat="36.96266818270272" lon="15.114986964634609"><ele>430.0</ele><time>2026-04-17T07:30:48.999Z</time></trkpt><trkpt lat="36.96271386667861" lon="15.114817545658651"><ele>415.0</ele><time>2026-04-17T07:30:49.999Z</time></trkpt><trkpt lat="36.96276784820956" lon="15.114636571239467"><ele>400.0</ele><time>2026-04-17T07:30:50.999Z</time></trkpt><trkpt lat="36.96282333353487" lon="15.114473068393908"><ele>400.0</ele><time>2026-04-17T07:30:51.999Z</time></trkpt><trkpt lat="36.96286724798312" lon="15.114301461096737"><ele>400.0</ele><time>2026-04-17T07:30:52.999Z</time></trkpt><trkpt lat="36.962919978925065" lon="15.114102794972359"><ele>400.0</ele><time>2026-04-17T07:30:53.999Z</time></trkpt><trkpt lat="36.96298108928993" lon="15.113861382240183"><ele>412.33333333333337</ele><time>2026-04-17T07:30:54.999Z</time></trkpt><trkpt lat="36.96306516245625" lon="15.113594269827004"><ele>424.66666666666663</ele><time>2026-04-17T07:30:55.999Z</time></trkpt><trkpt lat="36.96312298739208" lon="15.113331402901116"><ele>437.0</ele><time>2026-04-17T07:30:56.999Z</time></trkpt><trkpt lat="36.9631774696629" lon="15.113105488278011"><ele>443.75</ele><time>2026-04-17T07:30:57.999Z</time></trkpt><trkpt lat="36.96322867138116" lon="15.11290883668044"><ele>450.5</ele><time>2026-04-17T07:30:58.999Z</time></trkpt><trkpt lat="36.96324995434306" lon="15.112734781991982"><ele>457.25</ele><time>2026-04-17T07:30:59.999Z</time></trkpt><trkpt lat="36.963292649824" lon="15.112577641702126"><ele>464.0</ele><time>2026-04-17T07:31:00.999Z</time></trkpt><trkpt lat="36.96333812153779" lon="15.112421143851906"><ele>448.25</ele><time>2026-04-17T07:31:02Z</time></trkpt><trkpt lat="36.96338720047049" lon="15.112262239192479"><ele>432.5</ele><time>2026-04-17T07:31:03Z</time></trkpt><trkpt lat="36.96343036586309" lon="15.112104304735158"><ele>416.75</ele><time>2026-04-17T07:31:04Z</time></trkpt><trkpt lat="36.963466892345984" lon="15.111945292996408"><ele>401.0</ele><time>2026-04-17T07:31:05Z</time></trkpt><trkpt lat="36.963494111321864" lon="15.111784562852117"><ele>401.0</ele><time>2026-04-17T07:31:06Z</time></trkpt><trkpt lat="36.96353094775013" lon="15.111635284419815"><ele>401.0</ele><time>2026-04-17T07:31:07Z</time></trkpt><trkpt lat="36.96352564664032" lon="15.111479113584398"><ele>401.0</ele><time>2026-04-17T07:31:08Z</time></trkpt><trkpt lat="36.96351898886692" lon="15.111328385064608"><ele>401.0</ele><time>2026-04-17T07:31:09Z</time></trkpt><trkpt lat="36.96350757931292" lon="15.111169934779301"><ele>413.66666666666663</ele><time>2026-04-17T07:31:10Z</time></trkpt><trkpt lat="36.96348714080327" lon="15.110999788876038"><ele>426.33333333333337</ele><time>2026-04-17T07:31:11Z</time></trkpt><trkpt lat="36.96345224123768" lon="15.110817029600039"><ele>439.0</ele><time>2026-04-17T07:31:12Z</time></trkpt><trkpt lat="36.96340921258905" lon="15.110610221628791"><ele>445.25</ele><time>2026-04-17T07:31:13Z</time></trkpt><trkpt lat="36.96336656694872" lon="15.110411879408137"><ele>451.5</ele><time>2026-04-17T07:31:14Z</time></trkpt><trkpt lat="36.963349676232035" lon="15.110231639006393"><ele>457.75</ele><time>2026-04-17T07:31:15Z</time></trkpt><trkpt lat="36.963322979590004" lon="15.110075703485233"><ele>464.0</ele><time>2026-04-17T07:31:16Z</time></trkpt><trkpt lat="36.96329813668946" lon="15.109934235735023"><ele>465.6</ele><time>2026-04-17T07:31:17Z</time></trkpt><trkpt lat="36.96332415832165" lon="15.109782850782121"><ele>467.2</ele><time>2026-04-17T07:31:18Z</time></trkpt><trkpt lat="36.96330128421961" lon="15.10963521720249"><ele>468.80000000000007</ele><time>2026-04-17T07:31:19Z</time></trkpt><trkpt lat="36.963297415908244" lon="15.109505553058286"><ele>470.40000000000003</ele><time>2026-04-17T07:31:20Z</time></trkpt><trkpt lat="36.96329855830943" lon="15.109392358533139"><ele>472.0</ele><time>2026-04-17T07:31:21Z</time></trkpt><trkpt lat="36.96333662581057" lon="15.109301721394989"><ele>472.50000000000006</ele><time>2026-04-17T07:31:22Z</time></trkpt><trkpt lat="36.96337115317488" lon="15.10920950100396"><ele>473.0</ele><time>2026-04-17T07:31:23Z</time></trkpt><trkpt lat="36.96340649124713" lon="15.10913001200868"><ele>473.5</ele><time>2026-04-17T07:31:24Z</time></trkpt><trkpt lat="36.963445086053554" lon="15.109039780482949"><ele>474.0</ele><time>2026-04-17T07:31:25Z</time></trkpt><trkpt lat="36.96348785214197" lon="15.108928170968351"><ele>474.50000000000006</ele><time>2026-04-17T07:31:26Z</time></trkpt><trkpt lat="36.96350985985212" lon="15.108810577119593"><ele>475.0</ele><time>2026-04-17T07:31:27Z</time></trkpt><trkpt lat="36.96354371312764" lon="15.10871853953691"><ele>475.1666666666667</ele><time>2026-04-17T07:31:28Z</time></trkpt><trkpt lat="36.96357062888434" lon="15.108631964159484"><ele>475.33333333333337</ele><time>2026-04-17T07:31:29Z</time></trkpt><trkpt lat="36.96359108591237" lon="15.10852854488023"><ele>475.5</ele><time>2026-04-17T07:31:30Z</time></trkpt><trkpt lat="36.963610815022356" lon="15.10842570942039"><ele>475.66666666666663</ele><time>2026-04-17T07:31:31Z</time></trkpt><trkpt lat="36.96363406765401" lon="15.108298784051424"><ele>475.8333333333333</ele><time>2026-04-17T07:31:32Z</time></trkpt><trkpt lat="36.96365026359818" lon="15.10818975828887"><ele>476.0</ele><time>2026-04-17T07:31:33Z</time></trkpt><trkpt lat="36.96367450555593" lon="15.108057889812365"><ele>476.0</ele><time>2026-04-17T07:31:34Z</time></trkpt><trkpt lat="36.963708787071575" lon="15.107917121517348"><ele>476.0</ele><time>2026-04-17T07:31:35Z</time></trkpt><trkpt lat="36.96374147375553" lon="15.107774322451752"><ele>476.0</ele><time>2026-04-17T07:31:36Z</time></trkpt><trkpt lat="36.96377507583397" lon="15.107633545651018"><ele>476.0</ele><time>2026-04-17T07:31:37Z</time></trkpt><trkpt lat="36.96381219605399" lon="15.107490383900657"><ele>476.25</ele><time>2026-04-17T07:31:38Z</time></trkpt><trkpt lat="36.96385563225708" lon="15.107341162041898"><ele>476.5</ele><time>2026-04-17T07:31:39Z</time></trkpt><trkpt lat="36.963910913730295" lon="15.107201950839379"><ele>476.75</ele><time>2026-04-17T07:31:40Z</time></trkpt><trkpt lat="36.96396729954841" lon="15.10704264478727"><ele>477.0</ele><time>2026-04-17T07:31:41Z</time></trkpt><trkpt lat="36.964024245246804" lon="15.106888424993706"><ele>477.0</ele><time>2026-04-17T07:31:42Z</time></trkpt><trkpt lat="36.9640787337388" lon="15.10673361303126"><ele>477.0</ele><time>2026-04-17T07:31:43Z</time></trkpt><trkpt lat="36.96412405068267" lon="15.106574006803038"><ele>477.0</ele><time>2026-04-17T07:31:44Z</time></trkpt><trkpt lat="36.964164297493475" lon="15.106411044160767"><ele>477.0</ele><time>2026-04-17T07:31:45Z</time></trkpt><trkpt lat="36.964199683182954" lon="15.106258283022276"><ele>479.5</ele><time>2026-04-17T07:31:46Z</time></trkpt><trkpt lat="36.96423767410503" lon="15.106095493047997"><ele>482.0</ele><time>2026-04-17T07:31:47Z</time></trkpt><trkpt lat="36.964272111399715" lon="15.105947735814548"><ele>484.5</ele><time>2026-04-17T07:31:48Z</time></trkpt><trkpt lat="36.96431475608121" lon="15.105781438934802"><ele>487.0</ele><time>2026-04-17T07:31:49Z</time></trkpt><trkpt lat="36.96435144661826" lon="15.105600354090852"><ele>487.75</ele><time>2026-04-17T07:31:50Z</time></trkpt><trkpt lat="36.96439125509267" lon="15.10543078838637"><ele>488.5</ele><time>2026-04-17T07:31:51Z</time></trkpt><trkpt lat="36.9644122715134" lon="15.10526986931976"><ele>489.25</ele><time>2026-04-17T07:31:52Z</time></trkpt><trkpt lat="36.96441796856007" lon="15.105098340865311"><ele>490.0</ele><time>2026-04-17T07:31:53Z</time></trkpt><trkpt lat="36.96440637684462" lon="15.10492639173328"><ele>490.25</ele><time>2026-04-17T07:31:54Z</time></trkpt><trkpt lat="36.9643868108285" lon="15.104758497863203"><ele>490.5</ele><time>2026-04-17T07:31:55Z</time></trkpt><trkpt lat="36.96436989423826" lon="15.104598442059133"><ele>490.75</ele><time>2026-04-17T07:31:56Z</time></trkpt><trkpt lat="36.964363071963334" lon="15.104459993742578"><ele>491.0</ele><time>2026-04-17T07:31:57Z</time></trkpt><trkpt lat="36.964397132379695" lon="15.104336543941002"><ele>491.0</ele><time>2026-04-17T07:31:58Z</time></trkpt><trkpt lat="36.96443687893671" lon="15.104192174418733"><ele>491.0</ele><time>2026-04-17T07:31:59Z</time></trkpt><trkpt lat="36.9644659670259" lon="15.104019021142562"><ele>491.0</ele><time>2026-04-17T07:32:00Z</time></trkpt><trkpt lat="36.96449359652193" lon="15.103846831361727"><ele>491.0</ele><time>2026-04-17T07:32:01Z</time></trkpt><trkpt lat="36.96450933346714" lon="15.1036549241644"><ele>491.5</ele><time>2026-04-17T07:32:02Z</time></trkpt><trkpt lat="36.96451563758063" lon="15.103479429460702"><ele>492.0</ele><time>2026-04-17T07:32:03Z</time></trkpt><trkpt lat="36.96453002386296" lon="15.103311204957697"><ele>492.5</ele><time>2026-04-17T07:32:04Z</time></trkpt><trkpt lat="36.964537390116874" lon="15.10316558420283"><ele>493.0</ele><time>2026-04-17T07:32:05Z</time></trkpt><trkpt lat="36.964549196116884" lon="15.103056132204264"><ele>493.4</ele><time>2026-04-17T07:32:06Z</time></trkpt><trkpt lat="36.96459334234613" lon="15.10294744312351"><ele>493.79999999999995</ele><time>2026-04-17T07:32:07Z</time></trkpt><trkpt lat="36.964644457939805" lon="15.10283907038471"><ele>494.2</ele><time>2026-04-17T07:32:07.999Z</time></trkpt><trkpt lat="36.9646889011516" lon="15.102734625640513"><ele>494.6</ele><time>2026-04-17T07:32:08.999Z</time></trkpt><trkpt lat="36.964744369997966" lon="15.102644990094891"><ele>495.0</ele><time>2026-04-17T07:32:09.999Z</time></trkpt><trkpt lat="36.96481091543138" lon="15.102532550984343"><ele>495.0</ele><time>2026-04-17T07:32:10.999Z</time></trkpt><trkpt lat="36.96486547435011" lon="15.102430238766987"><ele>495.0</ele><time>2026-04-17T07:32:11.999Z</time></trkpt><trkpt lat="36.96491071162188" lon="15.102334444900128"><ele>495.0</ele><time>2026-04-17T07:32:12.999Z</time></trkpt><trkpt lat="36.96496926156492" lon="15.102278310573256"><ele>495.0</ele><time>2026-04-17T07:32:13.999Z</time></trkpt><trkpt lat="36.965020532866696" lon="15.10218221647285"><ele>495.0</ele><time>2026-04-17T07:32:14.999Z</time></trkpt><trkpt lat="36.965087241183085" lon="15.102101364316209"><ele>495.0</ele><time>2026-04-17T07:32:15.999Z</time></trkpt><trkpt lat="36.96516384804973" lon="15.102008888339904"><ele>497.0</ele><time>2026-04-17T07:32:16.999Z</time></trkpt><trkpt lat="36.96524101935207" lon="15.101905717246082"><ele>499.0</ele><time>2026-04-17T07:32:17.999Z</time></trkpt><trkpt lat="36.96531763873168" lon="15.101807687384404"><ele>501.0</ele><time>2026-04-17T07:32:18.999Z</time></trkpt><trkpt lat="36.96540954277729" lon="15.101691092015994"><ele>503.0</ele><time>2026-04-17T07:32:19.999Z</time></trkpt><trkpt lat="36.96549435456256" lon="15.101573854380042"><ele>503.0</ele><time>2026-04-17T07:32:20.999Z</time></trkpt><trkpt lat="36.965583197818475" lon="15.101464428778902"><ele>503.0</ele><time>2026-04-17T07:32:21.999Z</time></trkpt><trkpt lat="36.96568597273477" lon="15.101350034253324"><ele>503.0</ele><time>2026-04-17T07:32:22.999Z</time></trkpt><trkpt lat="36.965798443543804" lon="15.101235243424071"><ele>503.0</ele><time>2026-04-17T07:32:23.999Z</time></trkpt><trkpt lat="36.96589788623041" lon="15.101128734810514"><ele>503.25</ele><time>2026-04-17T07:32:24.999Z</time></trkpt><trkpt lat="36.96600213037785" lon="15.101014964599496"><ele>503.5</ele><time>2026-04-17T07:32:25.999Z</time></trkpt><trkpt lat="36.966095259070805" lon="15.100892505838573"><ele>503.75</ele><time>2026-04-17T07:32:26.999Z</time></trkpt><trkpt lat="36.966180282621046" lon="15.10074312587591"><ele>504.0</ele><time>2026-04-17T07:32:27.999Z</time></trkpt><trkpt lat="36.96625186554134" lon="15.100563714781176"><ele>503.25</ele><time>2026-04-17T07:32:28.999Z</time></trkpt><trkpt lat="36.96631781996098" lon="15.100382711902748"><ele>502.5</ele><time>2026-04-17T07:32:29.999Z</time></trkpt><trkpt lat="36.966371006490014" lon="15.100228302174218"><ele>501.75</ele><time>2026-04-17T07:32:30.999Z</time></trkpt><trkpt lat="36.966411499820325" lon="15.10009900895286"><ele>501.0</ele><time>2026-04-17T07:32:31.999Z</time></trkpt><trkpt lat="36.9664372686485" lon="15.09999188582794"><ele>500.0</ele><time>2026-04-17T07:32:32.999Z</time></trkpt><trkpt lat="36.96644864763962" lon="15.099864087972119"><ele>499.0</ele><time>2026-04-17T07:32:34.999Z</time></trkpt><trkpt lat="36.966463943226834" lon="15.099781259544471"><ele>498.0</ele><time>2026-04-17T07:32:36.999Z</time></trkpt><trkpt lat="36.96646217254151" lon="15.099667993204417"><ele>497.0</ele><time>2026-04-17T07:32:38.999Z</time></trkpt><trkpt lat="36.966482060974386" lon="15.099568186379024"><ele>496.0</ele><time>2026-04-17T07:32:39.999Z</time></trkpt><trkpt lat="36.966503088094676" lon="15.099464417815437"><ele>495.0</ele><time>2026-04-17T07:32:40.999Z</time></trkpt><trkpt lat="36.966525133752846" lon="15.099314473815932"><ele>495.0</ele><time>2026-04-17T07:32:41.999Z</time></trkpt><trkpt lat="36.96655777685043" lon="15.099150077346204"><ele>495.0</ele><time>2026-04-17T07:32:42.999Z</time></trkpt><trkpt lat="36.9665801875182" lon="15.098983218673647"><ele>495.0</ele><time>2026-04-17T07:32:43.999Z</time></trkpt><trkpt lat="36.96662401580722" lon="15.098830127898875"><ele>495.0</ele><time>2026-04-17T07:32:44.999Z</time></trkpt><trkpt lat="36.966648731720554" lon="15.09868529532641"><ele>494.6</ele><time>2026-04-17T07:32:45.999Z</time></trkpt><trkpt lat="36.96667309924094" lon="15.098546197661635"><ele>494.2</ele><time>2026-04-17T07:32:46.999Z</time></trkpt><trkpt lat="36.96669407906288" lon="15.098424498152777"><ele>493.79999999999995</ele><time>2026-04-17T07:32:47.999Z</time></trkpt><trkpt lat="36.966711230848475" lon="15.098317983464007"><ele>493.4</ele><time>2026-04-17T07:32:48.999Z</time></trkpt><trkpt lat="36.96672601470255" lon="15.098217584479624"><ele>493.0</ele><time>2026-04-17T07:32:49.999Z</time></trkpt><trkpt lat="36.96674158930286" lon="15.098111729163458"><ele>488.33333333333337</ele><time>2026-04-17T07:32:50.999Z</time></trkpt><trkpt lat="36.966751703223466" lon="15.09802491251805"><ele>483.6666666666667</ele><time>2026-04-17T07:32:51.999Z</time></trkpt><trkpt lat="36.966761460067" lon="15.097941397136081"><ele>479.0</ele><time>2026-04-17T07:32:52.999Z</time></trkpt><trkpt lat="36.966775754539825" lon="15.097793395247407"><ele>474.33333333333337</ele><time>2026-04-17T07:32:54.999Z</time></trkpt><trkpt lat="36.96678407568417" lon="15.09764794358481"><ele>469.6666666666667</ele><time>2026-04-17T07:32:56.999Z</time></trkpt><trkpt lat="36.96676723033379" lon="15.097558890848742"><ele>465.0</ele><time>2026-04-17T07:32:58.999Z</time></trkpt><trkpt lat="36.966775079737246" lon="15.097465010838173"><ele>462.8</ele><time>2026-04-17T07:33:00.999Z</time></trkpt><trkpt lat="36.966786343165424" lon="15.097330507967225"><ele>460.6</ele><time>2026-04-17T07:33:02.999Z</time></trkpt><trkpt lat="36.966796775353906" lon="15.097225519311605"><ele>458.4</ele><time>2026-04-17T07:33:08Z</time></trkpt><trkpt lat="36.966796270590756" lon="15.097094762904677"><ele>456.2</ele><time>2026-04-17T07:33:44Z</time></trkpt><trkpt lat="36.966798115131226" lon="15.096995415865079"><ele>454.0</ele><time>2026-04-17T07:33:45Z</time></trkpt><trkpt lat="36.96680722035225" lon="15.096860060874548"><ele>454.0</ele><time>2026-04-17T07:33:46Z</time></trkpt><trkpt lat="36.9668071832284" lon="15.09672039968622"><ele>454.0</ele><time>2026-04-17T07:33:47Z</time></trkpt><trkpt lat="36.966809462362306" lon="15.096584130046692"><ele>454.0</ele><time>2026-04-17T07:33:48Z</time></trkpt><trkpt lat="36.96682019702168" lon="15.096445794763374"><ele>454.0</ele><time>2026-04-17T07:33:49Z</time></trkpt><trkpt lat="36.96682733753727" lon="15.096313000388584"><ele>454.0</ele><time>2026-04-17T07:33:50Z</time></trkpt><trkpt lat="36.96683357964664" lon="15.09618136977844"><ele>454.5</ele><time>2026-04-17T07:33:51Z</time></trkpt><trkpt lat="36.96684709651532" lon="15.096046866164585"><ele>455.0</ele><time>2026-04-17T07:33:52Z</time></trkpt><trkpt lat="36.966878158732456" lon="15.095911399363041"><ele>455.5</ele><time>2026-04-17T07:33:53Z</time></trkpt><trkpt lat="36.96693777523294" lon="15.09577906493931"><ele>456.0</ele><time>2026-04-17T07:33:54Z</time></trkpt><trkpt lat="36.96701148808302" lon="15.095648486518268"><ele>462.75</ele><time>2026-04-17T07:33:55Z</time></trkpt><trkpt lat="36.967092119627814" lon="15.09551074727019"><ele>469.5</ele><time>2026-04-17T07:33:56Z</time></trkpt><trkpt lat="36.96716381493895" lon="15.095374298267908"><ele>476.25</ele><time>2026-04-17T07:33:57Z</time></trkpt><trkpt lat="36.967220609449015" lon="15.095252759192856"><ele>483.0</ele><time>2026-04-17T07:33:58Z</time></trkpt><trkpt lat="36.96726812183803" lon="15.095149733374443"><ele>483.0</ele><time>2026-04-17T07:33:59Z</time></trkpt><trkpt lat="36.96730836122683" lon="15.095063524366891"><ele>483.0</ele><time>2026-04-17T07:34:00Z</time></trkpt><trkpt lat="36.96732691744614" lon="15.094980106061156"><ele>483.0</ele><time>2026-04-17T07:34:01Z</time></trkpt><trkpt lat="36.967325709404165" lon="15.094900071337877"><ele>483.0</ele><time>2026-04-17T07:34:02Z</time></trkpt><trkpt lat="36.967312761639185" lon="15.09479478136017"><ele>483.0</ele><time>2026-04-17T07:34:04Z</time></trkpt><trkpt lat="36.96722558084498" lon="15.094748984460441"><ele>483.0</ele><time>2026-04-17T07:34:06Z</time></trkpt><trkpt lat="36.9671264102607" lon="15.094697539149552"><ele>487.5</ele><time>2026-04-17T07:34:08Z</time></trkpt><trkpt lat="36.96690699014231" lon="15.094674130366405"><ele>492.0</ele><time>2026-04-17T07:34:29.999Z</time></trkpt><trkpt lat="36.96680863027206" lon="15.094658594140666"><ele>496.5</ele><time>2026-04-17T07:34:30.999Z</time></trkpt><trkpt lat="36.96672725671318" lon="15.094614975609815"><ele>501.0</ele><time>2026-04-17T07:34:31.999Z</time></trkpt><trkpt lat="36.96663085745946" lon="15.094600976925129"><ele>501.5</ele><time>2026-04-17T07:34:32.999Z</time></trkpt><trkpt lat="36.96652779084588" lon="15.09457886648557"><ele>502.0</ele><time>2026-04-17T07:34:33.999Z</time></trkpt><trkpt lat="36.96640287621752" lon="15.094520469070968"><ele>502.5</ele><time>2026-04-17T07:34:34.999Z</time></trkpt><trkpt lat="36.96628271942977" lon="15.09449381623878"><ele>503.0</ele><time>2026-04-17T07:34:35.999Z</time></trkpt><trkpt lat="36.966161356018056" lon="15.094437945364986"><ele>503.0</ele><time>2026-04-17T07:34:36.999Z</time></trkpt><trkpt lat="36.96603854626354" lon="15.094371131608009"><ele>503.0</ele><time>2026-04-17T07:34:37.999Z</time></trkpt><trkpt lat="36.96590609672267" lon="15.094316449910421"><ele>503.0</ele><time>2026-04-17T07:34:38.999Z</time></trkpt><trkpt lat="36.96574679248532" lon="15.094301388814339"><ele>503.0</ele><time>2026-04-17T07:34:39.999Z</time></trkpt><trkpt lat="36.9655829581375" lon="15.094283804826336"><ele>500.66666666666663</ele><time>2026-04-17T07:34:40.999Z</time></trkpt><trkpt lat="36.965426104823266" lon="15.094238815915347"><ele>498.33333333333337</ele><time>2026-04-17T07:34:41.999Z</time></trkpt><trkpt lat="36.96528301499433" lon="15.094187488438672"><ele>496.0</ele><time>2026-04-17T07:34:42.999Z</time></trkpt><trkpt lat="36.965144222167126" lon="15.094133962543632"><ele>494.25</ele><time>2026-04-17T07:34:43.999Z</time></trkpt><trkpt lat="36.96501760834653" lon="15.09408414781246"><ele>492.5</ele><time>2026-04-17T07:34:44.999Z</time></trkpt><trkpt lat="36.964900188798" lon="15.094034189000512"><ele>490.75</ele><time>2026-04-17T07:34:45.999Z</time></trkpt><trkpt lat="36.96478334419564" lon="15.093988225228152"><ele>489.0</ele><time>2026-04-17T07:34:46.999Z</time></trkpt><trkpt lat="36.96467713519591" lon="15.093960627060117"><ele>489.0</ele><time>2026-04-17T07:34:47.999Z</time></trkpt><trkpt lat="36.96456079154238" lon="15.093971663745025"><ele>489.0</ele><time>2026-04-17T07:34:48.999Z</time></trkpt><trkpt lat="36.96443753700617" lon="15.09398381479048"><ele>489.0</ele><time>2026-04-17T07:34:49.999Z</time></trkpt><trkpt lat="36.964322191761426" lon="15.094051673454267"><ele>489.0</ele><time>2026-04-17T07:34:50.999Z</time></trkpt><trkpt lat="36.964204168067006" lon="15.0940702199286"><ele>490.0</ele><time>2026-04-17T07:34:51.999Z</time></trkpt><trkpt lat="36.96410875100392" lon="15.094035415527443"><ele>491.0</ele><time>2026-04-17T07:34:52.999Z</time></trkpt><trkpt lat="36.96403120952644" lon="15.093955192657475"><ele>492.0</ele><time>2026-04-17T07:34:53.999Z</time></trkpt><trkpt lat="36.96396663907249" lon="15.093840565140074"><ele>493.0</ele><time>2026-04-17T07:34:54.999Z</time></trkpt><trkpt lat="36.963894532207156" lon="15.09369686815139"><ele>494.0</ele><time>2026-04-17T07:34:55.999Z</time></trkpt><trkpt lat="36.96383649064221" lon="15.093563714578211"><ele>494.0</ele><time>2026-04-17T07:34:56.999Z</time></trkpt><trkpt lat="36.9638160835223" lon="15.093463674427056"><ele>494.0</ele><time>2026-04-17T07:34:57.999Z</time></trkpt><trkpt lat="36.96375766104132" lon="15.093383536680594"><ele>494.0</ele><time>2026-04-17T07:34:59.999Z</time></trkpt><trkpt lat="36.9638388044067" lon="15.093257337211792"><ele>494.0</ele><time>2026-04-17T07:35:00.999Z</time></trkpt><trkpt lat="36.963900140413955" lon="15.093144282339772"><ele>494.0</ele><time>2026-04-17T07:35:01.999Z</time></trkpt><trkpt lat="36.96397330374248" lon="15.093002724389677"><ele>494.5</ele><time>2026-04-17T07:35:02.999Z</time></trkpt><trkpt lat="36.963998122531436" lon="15.092871573329933"><ele>495.0</ele><time>2026-04-17T07:35:03.999Z</time></trkpt><trkpt lat="36.96407145289855" lon="15.092715447433163"><ele>495.5</ele><time>2026-04-17T07:35:04.999Z</time></trkpt><trkpt lat="36.964148013880035" lon="15.092541704433328"><ele>496.0</ele><time>2026-04-17T07:35:05.999Z</time></trkpt><trkpt lat="36.964233627827966" lon="15.09235371041441"><ele>496.33333333333337</ele><time>2026-04-17T07:35:06.999Z</time></trkpt><trkpt lat="36.964315209890174" lon="15.092162539177526"><ele>496.66666666666663</ele><time>2026-04-17T07:35:07.999Z</time></trkpt><trkpt lat="36.96435028395459" lon="15.091944477605416"><ele>497.0</ele><time>2026-04-17T07:35:08.999Z</time></trkpt><trkpt lat="36.96436435420504" lon="15.091712768707657"><ele>498.3333333333333</ele><time>2026-04-17T07:35:09.999Z</time></trkpt><trkpt lat="36.96440627058772" lon="15.091495056200841"><ele>499.66666666666663</ele><time>2026-04-17T07:35:10.999Z</time></trkpt><trkpt lat="36.964488737120504" lon="15.091307004798558"><ele>501.0</ele><time>2026-04-17T07:35:11.999Z</time></trkpt><trkpt lat="36.96456741474566" lon="15.091114154832376"><ele>501.0</ele><time>2026-04-17T07:35:12.999Z</time></trkpt><trkpt lat="36.964672372330334" lon="15.090916992198004"><ele>501.0</ele><time>2026-04-17T07:35:14Z</time></trkpt><trkpt lat="36.964775496218564" lon="15.09070879117507"><ele>501.0</ele><time>2026-04-17T07:35:15Z</time></trkpt><trkpt lat="36.964869508747604" lon="15.09051301364476"><ele>501.66666666666663</ele><time>2026-04-17T07:35:16Z</time></trkpt><trkpt lat="36.96495559031252" lon="15.0903388124897"><ele>502.3333333333333</ele><time>2026-04-17T07:35:17Z</time></trkpt><trkpt lat="36.965025611896245" lon="15.090176423496755"><ele>503.0</ele><time>2026-04-17T07:35:18Z</time></trkpt><trkpt lat="36.96507084747856" lon="15.090009349055247"><ele>502.25</ele><time>2026-04-17T07:35:19Z</time></trkpt><trkpt lat="36.96508480728289" lon="15.089835476732599"><ele>501.5</ele><time>2026-04-17T07:35:20Z</time></trkpt><trkpt lat="36.96508113741808" lon="15.089656315842022"><ele>500.75</ele><time>2026-04-17T07:35:21Z</time></trkpt><trkpt lat="36.96507438931927" lon="15.08944856012283"><ele>500.0</ele><time>2026-04-17T07:35:22Z</time></trkpt><trkpt lat="36.96507117603225" lon="15.089220370425735"><ele>500.0</ele><time>2026-04-17T07:35:23Z</time></trkpt><trkpt lat="36.965073391773295" lon="15.088979627121494"><ele>500.0</ele><time>2026-04-17T07:35:24Z</time></trkpt><trkpt lat="36.96507583485868" lon="15.088744015155962"><ele>500.0</ele><time>2026-04-17T07:35:25Z</time></trkpt><trkpt lat="36.96507622706949" lon="15.088512452062522"><ele>500.0</ele><time>2026-04-17T07:35:26Z</time></trkpt><trkpt lat="36.965079602135624" lon="15.088283555991044"><ele>500.0</ele><time>2026-04-17T07:35:27Z</time></trkpt><trkpt lat="36.96508184329005" lon="15.088075543291485"><ele>500.0</ele><time>2026-04-17T07:35:28Z</time></trkpt><trkpt lat="36.96508892352757" lon="15.087890312952837"><ele>500.8</ele><time>2026-04-17T07:35:29Z</time></trkpt><trkpt lat="36.96510286944776" lon="15.087736667759911"><ele>501.6</ele><time>2026-04-17T07:35:30Z</time></trkpt><trkpt lat="36.965135968628616" lon="15.087629401668018"><ele>502.4</ele><time>2026-04-17T07:35:31Z</time></trkpt><trkpt lat="36.96523453647048" lon="15.087605229243104"><ele>503.2</ele><time>2026-04-17T07:35:32Z</time></trkpt><trkpt lat="36.965306639235656" lon="15.087538007925362"><ele>504.0</ele><time>2026-04-17T07:35:33Z</time></trkpt><trkpt lat="36.965375830504804" lon="15.087451832628135"><ele>503.4</ele><time>2026-04-17T07:35:34Z</time></trkpt><trkpt lat="36.96547527558015" lon="15.087381069158818"><ele>502.79999999999995</ele><time>2026-04-17T07:35:35Z</time></trkpt><trkpt lat="36.9655462513455" lon="15.087281858130732"><ele>502.20000000000005</ele><time>2026-04-17T07:35:36Z</time></trkpt><trkpt lat="36.96558928711641" lon="15.087160055192742"><ele>501.6</ele><time>2026-04-17T07:35:37Z</time></trkpt><trkpt lat="36.96560086962493" lon="15.087021277357652"><ele>501.0</ele><time>2026-04-17T07:35:38Z</time></trkpt><trkpt lat="36.9655875290614" lon="15.086866378629233"><ele>501.0</ele><time>2026-04-17T07:35:39Z</time></trkpt><trkpt lat="36.965592206752085" lon="15.08670427550322"><ele>501.0</ele><time>2026-04-17T07:35:40Z</time></trkpt><trkpt lat="36.96560039878891" lon="15.086545799991509"><ele>501.0</ele><time>2026-04-17T07:35:41Z</time></trkpt><trkpt lat="36.96560656845534" lon="15.08638885567027"><ele>501.0</ele><time>2026-04-17T07:35:42Z</time></trkpt><trkpt lat="36.9656169958047" lon="15.086236419575334"><ele>500.0</ele><time>2026-04-17T07:35:43Z</time></trkpt><trkpt lat="36.9656233231598" lon="15.086087313522377"><ele>499.0</ele><time>2026-04-17T07:35:44Z</time></trkpt><trkpt lat="36.965632899282994" lon="15.085935418372047"><ele>498.0</ele><time>2026-04-17T07:35:45Z</time></trkpt><trkpt lat="36.96564151912585" lon="15.08579071342155"><ele>497.0</ele><time>2026-04-17T07:35:46Z</time></trkpt><trkpt lat="36.96565171213077" lon="15.085648845627382"><ele>497.0</ele><time>2026-04-17T07:35:47Z</time></trkpt><trkpt lat="36.96567599581368" lon="15.085515708845387"><ele>497.00000000000006</ele><time>2026-04-17T07:35:48Z</time></trkpt><trkpt lat="36.96570187454372" lon="15.085395194512287"><ele>497.00000000000006</ele><time>2026-04-17T07:35:49Z</time></trkpt><trkpt lat="36.96564743694626" lon="15.08526038558799"><ele>497.0</ele><time>2026-04-17T07:35:50Z</time></trkpt><trkpt lat="36.965635047137745" lon="15.08514559869405"><ele>497.0</ele><time>2026-04-17T07:35:51Z</time></trkpt><trkpt lat="36.96562033040592" lon="15.085031963694867"><ele>497.16666666666663</ele><time>2026-04-17T07:35:52Z</time></trkpt><trkpt lat="36.96560711959833" lon="15.084926793730686"><ele>497.3333333333333</ele><time>2026-04-17T07:35:53Z</time></trkpt><trkpt lat="36.96559528771801" lon="15.084820173807334"><ele>497.5</ele><time>2026-04-17T07:35:54Z</time></trkpt><trkpt lat="36.965593554807576" lon="15.084719399268574"><ele>497.66666666666663</ele><time>2026-04-17T07:35:55Z</time></trkpt><trkpt lat="36.96558689326837" lon="15.084614926225727"><ele>497.8333333333333</ele><time>2026-04-17T07:35:56Z</time></trkpt><trkpt lat="36.965579818386985" lon="15.08450871846587"><ele>498.0</ele><time>2026-04-17T07:35:57Z</time></trkpt><trkpt lat="36.9655885963967" lon="15.084393749568036"><ele>498.0</ele><time>2026-04-17T07:35:58Z</time></trkpt><trkpt lat="36.96560934738759" lon="15.08428149157542"><ele>497.99999999999994</ele><time>2026-04-17T07:35:59Z</time></trkpt><trkpt lat="36.965641316857734" lon="15.08414611341231"><ele>497.99999999999994</ele><time>2026-04-17T07:36:00Z</time></trkpt><trkpt lat="36.96567906800286" lon="15.084001070112635"><ele>498.0</ele><time>2026-04-17T07:36:01Z</time></trkpt><trkpt lat="36.965708589211985" lon="15.083856256927099"><ele>498.0</ele><time>2026-04-17T07:36:02Z</time></trkpt><trkpt lat="36.965724789223735" lon="15.083705209128878"><ele>497.75</ele><time>2026-04-17T07:36:03Z</time></trkpt><trkpt lat="36.965729995216705" lon="15.083541950741342"><ele>497.5</ele><time>2026-04-17T07:36:04Z</time></trkpt><trkpt lat="36.96572024647023" lon="15.083366761555425"><ele>497.25</ele><time>2026-04-17T07:36:05Z</time></trkpt><trkpt lat="36.96569325759407" lon="15.083178456122733"><ele>497.0</ele><time>2026-04-17T07:36:06Z</time></trkpt><trkpt lat="36.96564704073359" lon="15.082983034111107"><ele>494.0</ele><time>2026-04-17T07:36:07Z</time></trkpt><trkpt lat="36.96558778136941" lon="15.082773474036168"><ele>491.0</ele><time>2026-04-17T07:36:08Z</time></trkpt><trkpt lat="36.96550649357785" lon="15.082548248171639"><ele>488.0</ele><time>2026-04-17T07:36:09Z</time></trkpt><trkpt lat="36.96541864130291" lon="15.082316715052928"><ele>484.66666666666663</ele><time>2026-04-17T07:36:10Z</time></trkpt><trkpt lat="36.965343690118125" lon="15.082073486038217"><ele>481.33333333333337</ele><time>2026-04-17T07:36:11Z</time></trkpt><trkpt lat="36.965287773795396" lon="15.08182747884262"><ele>478.0</ele><time>2026-04-17T07:36:11.999Z</time></trkpt><trkpt lat="36.965245299051006" lon="15.081574518701252"><ele>474.0</ele><time>2026-04-17T07:36:12.999Z</time></trkpt><trkpt lat="36.96523104541939" lon="15.08129378043606"><ele>470.0</ele><time>2026-04-17T07:36:13.999Z</time></trkpt><trkpt lat="36.965203077667304" lon="15.081013399243389"><ele>469.0</ele><time>2026-04-17T07:36:14.999Z</time></trkpt><trkpt lat="36.96519568408368" lon="15.080748759425523"><ele>468.0</ele><time>2026-04-17T07:36:15.999Z</time></trkpt><trkpt lat="36.96517802867465" lon="15.080498077183504"><ele>467.0</ele><time>2026-04-17T07:36:16.999Z</time></trkpt><trkpt lat="36.9651463442031" lon="15.080246568585444"><ele>467.0</ele><time>2026-04-17T07:36:17.999Z</time></trkpt><trkpt lat="36.96509728368207" lon="15.079982896328369"><ele>467.0</ele><time>2026-04-17T07:36:18.999Z</time></trkpt><trkpt lat="36.96503293047994" lon="15.07971076612982"><ele>467.0</ele><time>2026-04-17T07:36:19.999Z</time></trkpt><trkpt lat="36.964966113694054" lon="15.079436536024055"><ele>466.3333333333333</ele><time>2026-04-17T07:36:20.999Z</time></trkpt><trkpt lat="36.96489796744947" lon="15.079172826372789"><ele>465.66666666666663</ele><time>2026-04-17T07:36:21.999Z</time></trkpt><trkpt lat="36.964827257119595" lon="15.078925402328805"><ele>465.0</ele><time>2026-04-17T07:36:22.999Z</time></trkpt><trkpt lat="36.96476209570447" lon="15.078701009221007"><ele>465.0</ele><time>2026-04-17T07:36:23.999Z</time></trkpt><trkpt lat="36.964703441900824" lon="15.078512430725445"><ele>465.0</ele><time>2026-04-17T07:36:24.999Z</time></trkpt><trkpt lat="36.96464984235617" lon="15.078337549218668"><ele>465.0</ele><time>2026-04-17T07:36:25.999Z</time></trkpt><trkpt lat="36.96458684287499" lon="15.07817630839499"><ele>464.5</ele><time>2026-04-17T07:36:26.999Z</time></trkpt><trkpt lat="36.9645120423833" lon="15.078035197837917"><ele>464.0</ele><time>2026-04-17T07:36:27.999Z</time></trkpt><trkpt lat="36.96442028961019" lon="15.077911757627604"><ele>463.5</ele><time>2026-04-17T07:36:28.999Z</time></trkpt><trkpt lat="36.96434135041246" lon="15.077782045931311"><ele>463.0</ele><time>2026-04-17T07:36:29.999Z</time></trkpt><trkpt lat="36.964247759114386" lon="15.07767537016415"><ele>462.6666666666667</ele><time>2026-04-17T07:36:30.999Z</time></trkpt><trkpt lat="36.96418548623216" lon="15.077554689578093"><ele>462.33333333333337</ele><time>2026-04-17T07:36:31.999Z</time></trkpt><trkpt lat="36.96413546571355" lon="15.077452035575059"><ele>462.0</ele><time>2026-04-17T07:36:32.999Z</time></trkpt><trkpt lat="36.964082206381356" lon="15.077393430807735"><ele>461.66666666666663</ele><time>2026-04-17T07:36:33.999Z</time></trkpt><trkpt lat="36.96403702715402" lon="15.077336909700398"><ele>461.3333333333333</ele><time>2026-04-17T07:36:34.999Z</time></trkpt><trkpt lat="36.963991076047215" lon="15.077280035877525"><ele>461.0</ele><time>2026-04-17T07:36:35.999Z</time></trkpt><trkpt lat="36.96394925547404" lon="15.077219934596387"><ele>459.66666666666663</ele><time>2026-04-17T07:36:36.999Z</time></trkpt><trkpt lat="36.9640872343028" lon="15.076847432904103"><ele>458.33333333333337</ele><time>2026-04-17T07:36:38.999Z</time></trkpt><trkpt lat="36.96407663186777" lon="15.076704678701322"><ele>457.0</ele><time>2026-04-17T07:36:40.999Z</time></trkpt><trkpt lat="36.9640682356073" lon="15.076573357862491"><ele>456.1666666666667</ele><time>2026-04-17T07:36:42.999Z</time></trkpt><trkpt lat="36.964063356971565" lon="15.076489381532518"><ele>455.33333333333337</ele><time>2026-04-17T07:36:45.999Z</time></trkpt><trkpt lat="36.96403111905885" lon="15.076374795991356"><ele>454.5</ele><time>2026-04-17T07:36:48.999Z</time></trkpt><trkpt lat="36.96398920848814" lon="15.0762517656249"><ele>453.66666666666663</ele><time>2026-04-17T07:36:50.999Z</time></trkpt><trkpt lat="36.96395734579497" lon="15.076164997786863"><ele>452.8333333333333</ele><time>2026-04-17T07:36:52.999Z</time></trkpt><trkpt lat="36.9639261698196" lon="15.076055144476712"><ele>452.0</ele><time>2026-04-17T07:36:55.999Z</time></trkpt><trkpt lat="36.963879713108575" lon="15.075945424143416"><ele>452.0</ele><time>2026-04-17T07:36:58.999Z</time></trkpt><trkpt lat="36.96384702262949" lon="15.075795462356256"><ele>452.00000000000006</ele><time>2026-04-17T07:37:00.999Z</time></trkpt><trkpt lat="36.963825489197156" lon="15.075693941112856"><ele>452.00000000000006</ele><time>2026-04-17T07:37:01.999Z</time></trkpt><trkpt lat="36.96379131014813" lon="15.075587259039748"><ele>452.0</ele><time>2026-04-17T07:37:02.999Z</time></trkpt><trkpt lat="36.963750341543935" lon="15.075490142057395"><ele>452.0</ele><time>2026-04-17T07:37:03.999Z</time></trkpt><trkpt lat="36.963716001172656" lon="15.07540019841936"><ele>452.28571428571433</ele><time>2026-04-17T07:37:04.999Z</time></trkpt><trkpt lat="36.96368783795334" lon="15.075320408146686"><ele>452.57142857142856</ele><time>2026-04-17T07:37:05.999Z</time></trkpt><trkpt lat="36.96365071682414" lon="15.07524756881761"><ele>452.8571428571429</ele><time>2026-04-17T07:37:06.999Z</time></trkpt><trkpt lat="36.96361656192107" lon="15.07515546882514"><ele>453.14285714285717</ele><time>2026-04-17T07:37:07.999Z</time></trkpt><trkpt lat="36.96358926709683" lon="15.075049955318853"><ele>453.42857142857144</ele><time>2026-04-17T07:37:08.999Z</time></trkpt><trkpt lat="36.96357710578989" lon="15.074965859431773"><ele>453.7142857142857</ele><time>2026-04-17T07:37:09.999Z</time></trkpt><trkpt lat="36.96357127889923" lon="15.074887215059313"><ele>454.0</ele><time>2026-04-17T07:37:10.999Z</time></trkpt><trkpt lat="36.96359784737033" lon="15.074718198831857"><ele>454.79999999999995</ele><time>2026-04-17T07:37:12.999Z</time></trkpt><trkpt lat="36.96361248702883" lon="15.074614611807743"><ele>455.59999999999997</ele><time>2026-04-17T07:37:13.999Z</time></trkpt><trkpt lat="36.96363315008895" lon="15.074509521115612"><ele>456.4</ele><time>2026-04-17T07:37:14.999Z</time></trkpt><trkpt lat="36.96365351643711" lon="15.074425802843136"><ele>457.2</ele><time>2026-04-17T07:37:15.999Z</time></trkpt><trkpt lat="36.96370272138588" lon="15.074314997848203"><ele>458.0</ele><time>2026-04-17T07:37:17.999Z</time></trkpt><trkpt lat="36.963750168306305" lon="15.074177405093565"><ele>458.16666666666663</ele><time>2026-04-17T07:37:20Z</time></trkpt><trkpt lat="36.9637861591008" lon="15.074101822648018"><ele>458.3333333333333</ele><time>2026-04-17T07:37:21Z</time></trkpt><trkpt lat="36.96383625977714" lon="15.074021960732555"><ele>458.5</ele><time>2026-04-17T07:37:22Z</time></trkpt><trkpt lat="36.96388014841637" lon="15.073935703840098"><ele>458.66666666666663</ele><time>2026-04-17T07:37:23Z</time></trkpt><trkpt lat="36.96392044143568" lon="15.073860038205972"><ele>458.8333333333333</ele><time>2026-04-17T07:37:24Z</time></trkpt><trkpt lat="36.963943988730826" lon="15.07378503379762"><ele>459.0</ele><time>2026-04-17T07:37:25Z</time></trkpt><trkpt lat="36.96397501660461" lon="15.073627170048784"><ele>459.0</ele><time>2026-04-17T07:37:27Z</time></trkpt><trkpt lat="36.96400286543822" lon="15.07353415199545"><ele>459.0</ele><time>2026-04-17T07:37:28Z</time></trkpt><trkpt lat="36.9640214445718" lon="15.073436842260419"><ele>459.0</ele><time>2026-04-17T07:37:29Z</time></trkpt><trkpt lat="36.96404378985867" lon="15.07334640766886"><ele>459.0</ele><time>2026-04-17T07:37:30Z</time></trkpt><trkpt lat="36.96407033584413" lon="15.073247951373562"><ele>459.0</ele><time>2026-04-17T07:37:31Z</time></trkpt><trkpt lat="36.96407842349217" lon="15.073160610088253"><ele>459.0</ele><time>2026-04-17T07:37:32Z</time></trkpt><trkpt lat="36.9640894502271" lon="15.073079604765994"><ele>458.8333333333333</ele><time>2026-04-17T07:37:33Z</time></trkpt><trkpt lat="36.964104888858266" lon="15.07292257351743"><ele>458.66666666666663</ele><time>2026-04-17T07:37:35Z</time></trkpt><trkpt lat="36.964112771354735" lon="15.072840733004142"><ele>458.5</ele><time>2026-04-17T07:37:36Z</time></trkpt><trkpt lat="36.96411638033243" lon="15.072761188997056"><ele>458.3333333333333</ele><time>2026-04-17T07:37:37Z</time></trkpt><trkpt lat="36.96412492221533" lon="15.07267713798766"><ele>458.16666666666663</ele><time>2026-04-17T07:37:38Z</time></trkpt><trkpt lat="36.96413077812962" lon="15.072532084951668"><ele>458.0</ele><time>2026-04-17T07:37:40Z</time></trkpt><trkpt lat="36.96412914183484" lon="15.072439276383491"><ele>457.99999999999994</ele><time>2026-04-17T07:37:41Z</time></trkpt><trkpt lat="36.964127680252055" lon="15.072343820753623"><ele>458.0</ele><time>2026-04-17T07:37:42Z</time></trkpt><trkpt lat="36.96413198575107" lon="15.072258794649525"><ele>458.0</ele><time>2026-04-17T07:37:43Z</time></trkpt><trkpt lat="36.96410807105572" lon="15.072126454301387"><ele>458.0</ele><time>2026-04-17T07:37:45Z</time></trkpt><trkpt lat="36.964081591331166" lon="15.072022147743192"><ele>457.99999999999994</ele><time>2026-04-17T07:37:46Z</time></trkpt><trkpt lat="36.96405015560184" lon="15.071940402642861"><ele>458.0</ele><time>2026-04-17T07:37:47Z</time></trkpt><trkpt lat="36.96402765201637" lon="15.071858844136013"><ele>458.0</ele><time>2026-04-17T07:37:48Z</time></trkpt><trkpt lat="36.964021094476365" lon="15.071774767532819"><ele>458.0</ele><time>2026-04-17T07:37:49Z</time></trkpt><trkpt lat="36.96401650101215" lon="15.071682340416606"><ele>458.0</ele><time>2026-04-17T07:37:50Z</time></trkpt><trkpt lat="36.96402074214556" lon="15.07158963190553"><ele>458.0</ele><time>2026-04-17T07:37:51Z</time></trkpt><trkpt lat="36.96401985087677" lon="15.071498630118779"><ele>458.0</ele><time>2026-04-17T07:37:52Z</time></trkpt><trkpt lat="36.96402212607999" lon="15.07141683433969"><ele>458.0</ele><time>2026-04-17T07:37:53Z</time></trkpt><trkpt lat="36.964038980764116" lon="15.071323230337093"><ele>458.0</ele><time>2026-04-17T07:37:54Z</time></trkpt><trkpt lat="36.96403981444474" lon="15.071235524328118"><ele>458.2</ele><time>2026-04-17T07:37:55Z</time></trkpt><trkpt lat="36.96404960047724" lon="15.071085873992777"><ele>458.4</ele><time>2026-04-17T07:37:57Z</time></trkpt><trkpt lat="36.96404901928918" lon="15.07099496764743"><ele>458.59999999999997</ele><time>2026-04-17T07:37:58Z</time></trkpt><trkpt lat="36.964049864640565" lon="15.070857124935422"><ele>458.79999999999995</ele><time>2026-04-17T07:38:00Z</time></trkpt><trkpt lat="36.96404975186942" lon="15.070748766624785"><ele>459.0</ele><time>2026-04-17T07:38:02Z</time></trkpt><trkpt lat="36.964050959588405" lon="15.070654722305289"><ele>458.5</ele><time>2026-04-17T07:38:04Z</time></trkpt><trkpt lat="36.964041346630985" lon="15.070558555359936"><ele>458.0</ele><time>2026-04-17T07:38:06Z</time></trkpt><trkpt lat="36.96406067396111" lon="15.070439571427672"><ele>457.5</ele><time>2026-04-17T07:38:08Z</time></trkpt><trkpt lat="36.964040387451334" lon="15.070301788330081"><ele>457.0</ele><time>2026-04-17T07:38:10Z</time></trkpt><trkpt lat="36.964002815156256" lon="15.07021881865785"><ele>456.5</ele><time>2026-04-17T07:38:11Z</time></trkpt><trkpt lat="36.96397799970897" lon="15.070131963783576"><ele>456.0</ele><time>2026-04-17T07:38:11.999Z</time></trkpt><trkpt lat="36.963964397793546" lon="15.070050692668675"><ele>456.4</ele><time>2026-04-17T07:38:12.999Z</time></trkpt><trkpt lat="36.96393607447506" lon="15.069932276056786"><ele>456.8</ele><time>2026-04-17T07:38:14.999Z</time></trkpt><trkpt lat="36.963894376703564" lon="15.069824262724776"><ele>457.19999999999993</ele><time>2026-04-17T07:38:16.999Z</time></trkpt><trkpt lat="36.96388259728333" lon="15.06968448876853"><ele>457.59999999999997</ele><time>2026-04-17T07:38:18.999Z</time></trkpt><trkpt lat="36.963872195432785" lon="15.069600368722414"><ele>458.0</ele><time>2026-04-17T07:38:19.999Z</time></trkpt><trkpt lat="36.963841730748506" lon="15.069513903420901"><ele>457.99999999999994</ele><time>2026-04-17T07:38:20.999Z</time></trkpt><trkpt lat="36.96381539986112" lon="15.069425292644036"><ele>458.0</ele><time>2026-04-17T07:38:21.999Z</time></trkpt><trkpt lat="36.96378159961734" lon="15.069345137653535"><ele>458.0</ele><time>2026-04-17T07:38:22.999Z</time></trkpt><trkpt lat="36.96374004122832" lon="15.069257949195787"><ele>458.0</ele><time>2026-04-17T07:38:23.999Z</time></trkpt><trkpt lat="36.96369612463476" lon="15.069161816367481"><ele>457.99999999999994</ele><time>2026-04-17T07:38:24.999Z</time></trkpt><trkpt lat="36.96365135947804" lon="15.069074453465085"><ele>458.0</ele><time>2026-04-17T07:38:25.999Z</time></trkpt><trkpt lat="36.963600270258226" lon="15.068998758094711"><ele>458.3333333333333</ele><time>2026-04-17T07:38:26.999Z</time></trkpt><trkpt lat="36.96354719976358" lon="15.068932177704967"><ele>458.66666666666663</ele><time>2026-04-17T07:38:27.999Z</time></trkpt><trkpt lat="36.96348403422374" lon="15.06885709432864"><ele>459.0</ele><time>2026-04-17T07:38:28.999Z</time></trkpt><trkpt lat="36.96342976115623" lon="15.068801691072975"><ele>459.33333333333337</ele><time>2026-04-17T07:38:29.999Z</time></trkpt><trkpt lat="36.96336257518645" lon="15.06876031459182"><ele>459.6666666666667</ele><time>2026-04-17T07:38:30.999Z</time></trkpt><trkpt lat="36.96330961613802" lon="15.068675980838574"><ele>460.0</ele><time>2026-04-17T07:38:31.999Z</time></trkpt><trkpt lat="36.963255307913165" lon="15.06863064491697"><ele>460.0</ele><time>2026-04-17T07:38:32.999Z</time></trkpt><trkpt lat="36.96317291541408" lon="15.068555404591145"><ele>460.0</ele><time>2026-04-17T07:38:34.999Z</time></trkpt><trkpt lat="36.963084865519676" lon="15.068453440478361"><ele>460.0</ele><time>2026-04-17T07:38:36.999Z</time></trkpt><trkpt lat="36.963032374095135" lon="15.068391238254193"><ele>460.0</ele><time>2026-04-17T07:38:37.999Z</time></trkpt><trkpt lat="36.96293513334775" lon="15.068247546739347"><ele>460.0</ele><time>2026-04-17T07:38:39.999Z</time></trkpt><trkpt lat="36.962875513552156" lon="15.068158176275553"><ele>460.50000000000006</ele><time>2026-04-17T07:38:40.999Z</time></trkpt><trkpt lat="36.96282528435972" lon="15.068073365780903"><ele>461.0</ele><time>2026-04-17T07:38:41.999Z</time></trkpt><trkpt lat="36.96277303093574" lon="15.067938573749847"><ele>461.5</ele><time>2026-04-17T07:38:43.999Z</time></trkpt><trkpt lat="36.96274350345456" lon="15.067861185903924"><ele>462.0</ele><time>2026-04-17T07:38:44.999Z</time></trkpt><trkpt lat="36.96267641570578" lon="15.067776796024974"><ele>462.50000000000006</ele><time>2026-04-17T07:38:46.999Z</time></trkpt><trkpt lat="36.96265561332847" lon="15.0676807047414"><ele>463.0</ele><time>2026-04-17T07:38:48.999Z</time></trkpt><trkpt lat="36.96271181975082" lon="15.06763229199786"><ele>463.0</ele><time>2026-04-17T07:38:51.999Z</time></trkpt><trkpt lat="36.96273156407475" lon="15.067543776398338"><ele>462.99999999999994</ele><time>2026-04-17T07:39:53Z</time></trkpt><trkpt lat="36.96278278633223" lon="15.067394941887782"><ele>462.99999999999994</ele><time>2026-04-17T07:39:55Z</time></trkpt><trkpt lat="36.962809178408556" lon="15.06729403060958"><ele>463.0</ele><time>2026-04-17T07:39:56Z</time></trkpt><trkpt lat="36.962857392592326" lon="15.06718451462659"><ele>463.0</ele><time>2026-04-17T07:39:57Z</time></trkpt><trkpt lat="36.962912182505676" lon="15.067042342139604"><ele>462.5</ele><time>2026-04-17T07:39:58Z</time></trkpt><trkpt lat="36.962952154428564" lon="15.066898136811588"><ele>462.0</ele><time>2026-04-17T07:39:59Z</time></trkpt><trkpt lat="36.96297985199467" lon="15.066753918328244"><ele>461.5</ele><time>2026-04-17T07:40:00Z</time></trkpt><trkpt lat="36.963000371918874" lon="15.066623035212112"><ele>461.0</ele><time>2026-04-17T07:40:01Z</time></trkpt><trkpt lat="36.963027329508265" lon="15.06648809512521"><ele>460.20000000000005</ele><time>2026-04-17T07:40:02Z</time></trkpt><trkpt lat="36.963052598380116" lon="15.066377065469986"><ele>459.40000000000003</ele><time>2026-04-17T07:40:03Z</time></trkpt><trkpt lat="36.963075082935156" lon="15.066255716419935"><ele>458.6</ele><time>2026-04-17T07:40:04Z</time></trkpt><trkpt lat="36.963098974924144" lon="15.066138230803325"><ele>457.8</ele><time>2026-04-17T07:40:05Z</time></trkpt><trkpt lat="36.9631173656768" lon="15.066026264826084"><ele>457.0</ele><time>2026-04-17T07:40:06Z</time></trkpt><trkpt lat="36.96313547122609" lon="15.065918867111591"><ele>457.00000000000006</ele><time>2026-04-17T07:40:07Z</time></trkpt><trkpt lat="36.96316148477488" lon="15.065812631302096"><ele>457.0</ele><time>2026-04-17T07:40:08Z</time></trkpt><trkpt lat="36.9631887441382" lon="15.065731265763887"><ele>457.0</ele><time>2026-04-17T07:40:09Z</time></trkpt><trkpt lat="36.96322041162399" lon="15.065643426611107"><ele>457.0</ele><time>2026-04-17T07:40:10Z</time></trkpt><trkpt lat="36.963248089828795" lon="15.06554387544844"><ele>457.00000000000006</ele><time>2026-04-17T07:40:11Z</time></trkpt><trkpt lat="36.963266750343145" lon="15.065430735265469"><ele>457.0</ele><time>2026-04-17T07:40:12Z</time></trkpt><trkpt lat="36.9632780283118" lon="15.065337194176074"><ele>456.0</ele><time>2026-04-17T07:40:13Z</time></trkpt><trkpt lat="36.96328810674338" lon="15.065241726928813"><ele>455.00000000000006</ele><time>2026-04-17T07:40:14Z</time></trkpt><trkpt lat="36.96328508220184" lon="15.065107599904946"><ele>454.00000000000006</ele><time>2026-04-17T07:40:15Z</time></trkpt><trkpt lat="36.96328317965407" lon="15.064975365992792"><ele>453.0</ele><time>2026-04-17T07:40:16Z</time></trkpt><trkpt lat="36.96329408556417" lon="15.064854969274421"><ele>452.0</ele><time>2026-04-17T07:40:17Z</time></trkpt><trkpt lat="36.96330955420459" lon="15.064753725771874"><ele>451.8</ele><time>2026-04-17T07:40:17.999Z</time></trkpt><trkpt lat="36.96332555266975" lon="15.06466886869663"><ele>451.6</ele><time>2026-04-17T07:40:18.999Z</time></trkpt><trkpt lat="36.96335243147106" lon="15.064539821293492"><ele>451.40000000000003</ele><time>2026-04-17T07:40:20.999Z</time></trkpt><trkpt lat="36.96339539298439" lon="15.06443066785455"><ele>451.20000000000005</ele><time>2026-04-17T07:40:22.999Z</time></trkpt><trkpt lat="36.96342679966158" lon="15.064257951253108"><ele>451.0</ele><time>2026-04-17T07:40:24.999Z</time></trkpt><trkpt lat="36.96345885575572" lon="15.064127116363627"><ele>452.0</ele><time>2026-04-17T07:40:25.999Z</time></trkpt><trkpt lat="36.96350372133251" lon="15.064004185499336"><ele>453.0</ele><time>2026-04-17T07:40:26.999Z</time></trkpt><trkpt lat="36.96358215138339" lon="15.063893034320579"><ele>454.0</ele><time>2026-04-17T07:40:27.999Z</time></trkpt><trkpt lat="36.96365374335183" lon="15.063763020924"><ele>455.0</ele><time>2026-04-17T07:40:28.999Z</time></trkpt><trkpt lat="36.963734655733695" lon="15.063598663691948"><ele>455.0</ele><time>2026-04-17T07:40:29.999Z</time></trkpt><trkpt lat="36.963829250897696" lon="15.063432397608212"><ele>455.0</ele><time>2026-04-17T07:40:30.999Z</time></trkpt><trkpt lat="36.963923736505514" lon="15.06327793445339"><ele>455.0</ele><time>2026-04-17T07:40:31.999Z</time></trkpt><trkpt lat="36.96399558497876" lon="15.063151173086643"><ele>455.0</ele><time>2026-04-17T07:40:32.999Z</time></trkpt><trkpt lat="36.96404495312378" lon="15.063043426309582"><ele>455.99999999999994</ele><time>2026-04-17T07:40:33.999Z</time></trkpt><trkpt lat="36.964088147119156" lon="15.062956615554997"><ele>457.0</ele><time>2026-04-17T07:40:34.999Z</time></trkpt><trkpt lat="36.96415715969739" lon="15.062851329340562"><ele>458.0</ele><time>2026-04-17T07:40:35.999Z</time></trkpt><trkpt lat="36.96422348046604" lon="15.06279262666846"><ele>459.0</ele><time>2026-04-17T07:40:36.999Z</time></trkpt><trkpt lat="36.964288124486906" lon="15.06275765534451"><ele>459.99999999999994</ele><time>2026-04-17T07:40:37.999Z</time></trkpt><trkpt lat="36.96435816353433" lon="15.062722330374344"><ele>461.0</ele><time>2026-04-17T07:40:38.999Z</time></trkpt><trkpt lat="36.96442094341359" lon="15.062602686164311"><ele>461.4</ele><time>2026-04-17T07:40:40.999Z</time></trkpt><trkpt lat="36.964429737509256" lon="15.062502962719718"><ele>461.8</ele><time>2026-04-17T07:40:41.999Z</time></trkpt><trkpt lat="36.96444579059504" lon="15.06237019312627"><ele>462.19999999999993</ele><time>2026-04-17T07:40:42.999Z</time></trkpt><trkpt lat="36.96447856083138" lon="15.06225135232549"><ele>462.59999999999997</ele><time>2026-04-17T07:40:43.999Z</time></trkpt><trkpt lat="36.964516252727414" lon="15.062154373918379"><ele>463.0</ele><time>2026-04-17T07:40:44.999Z</time></trkpt><trkpt lat="36.964557639707934" lon="15.06205164381238"><ele>463.79999999999995</ele><time>2026-04-17T07:40:45.999Z</time></trkpt><trkpt lat="36.96460499946898" lon="15.061933166173244"><ele>464.59999999999997</ele><time>2026-04-17T07:40:46.999Z</time></trkpt><trkpt lat="36.964667327320015" lon="15.061815989417926"><ele>465.40000000000003</ele><time>2026-04-17T07:40:47.999Z</time></trkpt><trkpt lat="36.964726654250285" lon="15.061701890660098"><ele>466.20000000000005</ele><time>2026-04-17T07:40:48.999Z</time></trkpt><trkpt lat="36.96478040250858" lon="15.061584535301982"><ele>467.0</ele><time>2026-04-17T07:40:49.999Z</time></trkpt><trkpt lat="36.96483079622187" lon="15.061484857712449"><ele>467.25</ele><time>2026-04-17T07:40:50.999Z</time></trkpt><trkpt lat="36.964882902410984" lon="15.061382838831769"><ele>467.5</ele><time>2026-04-17T07:40:51.999Z</time></trkpt><trkpt lat="36.96493985930324" lon="15.061274777224295"><ele>467.75</ele><time>2026-04-17T07:40:52.999Z</time></trkpt><trkpt lat="36.96499869895966" lon="15.061151409447092"><ele>468.0</ele><time>2026-04-17T07:40:53.999Z</time></trkpt><trkpt lat="36.96506922960881" lon="15.060993594996367"><ele>468.4</ele><time>2026-04-17T07:40:54.999Z</time></trkpt><trkpt lat="36.965145076581265" lon="15.060861554150037"><ele>468.79999999999995</ele><time>2026-04-17T07:40:55.999Z</time></trkpt><trkpt lat="36.965197408249836" lon="15.060737868867974"><ele>469.2</ele><time>2026-04-17T07:40:56.999Z</time></trkpt><trkpt lat="36.965230654773286" lon="15.060623062334114"><ele>469.6</ele><time>2026-04-17T07:40:57.999Z</time></trkpt><trkpt lat="36.965275217849" lon="15.060521258840255"><ele>470.0</ele><time>2026-04-17T07:40:58.999Z</time></trkpt><trkpt lat="36.965322933358664" lon="15.060447173103432"><ele>470.0</ele><time>2026-04-17T07:40:59.999Z</time></trkpt><trkpt lat="36.965363437122924" lon="15.060361245181769"><ele>469.99999999999994</ele><time>2026-04-17T07:41:00.999Z</time></trkpt><trkpt lat="36.96540986283583" lon="15.060270657264837"><ele>470.0</ele><time>2026-04-17T07:41:01.999Z</time></trkpt><trkpt lat="36.96544243184781" lon="15.060178073298331"><ele>470.0</ele><time>2026-04-17T07:41:02.999Z</time></trkpt><trkpt lat="36.96548500291682" lon="15.06011744214459"><ele>469.99999999999994</ele><time>2026-04-17T07:41:03.999Z</time></trkpt><trkpt lat="36.96553154564573" lon="15.060048831901993"><ele>470.0</ele><time>2026-04-17T07:41:04.999Z</time></trkpt><trkpt lat="36.9655862793159" lon="15.060001510688435"><ele>470.0</ele><time>2026-04-17T07:41:05.999Z</time></trkpt><trkpt lat="36.96565954303411" lon="15.059883265617113"><ele>470.2</ele><time>2026-04-17T07:41:07.999Z</time></trkpt><trkpt lat="36.965738171501236" lon="15.059752355958587"><ele>470.4</ele><time>2026-04-17T07:41:09.999Z</time></trkpt><trkpt lat="36.965786232734985" lon="15.059649257563999"><ele>470.6</ele><time>2026-04-17T07:41:10.999Z</time></trkpt><trkpt lat="36.96583746793843" lon="15.059528727851415"><ele>470.8</ele><time>2026-04-17T07:41:11.999Z</time></trkpt><trkpt lat="36.96588908621668" lon="15.059427383288938"><ele>471.0</ele><time>2026-04-17T07:41:12.999Z</time></trkpt><trkpt lat="36.96593058381433" lon="15.05934956779724"><ele>471.00000000000006</ele><time>2026-04-17T07:41:13.999Z</time></trkpt><trkpt lat="36.96596279838321" lon="15.059271391478733"><ele>471.0</ele><time>2026-04-17T07:41:14.999Z</time></trkpt><trkpt lat="36.96598442561775" lon="15.059196640609315"><ele>471.00000000000006</ele><time>2026-04-17T07:41:15.999Z</time></trkpt><trkpt lat="36.96600362345817" lon="15.059118050804743"><ele>471.00000000000006</ele><time>2026-04-17T07:41:16.999Z</time></trkpt><trkpt lat="36.96602595309197" lon="15.059026465932373"><ele>471.0</ele><time>2026-04-17T07:41:17.999Z</time></trkpt><trkpt lat="36.9660456682127" lon="15.058936917474695"><ele>471.00000000000006</ele><time>2026-04-17T07:41:18.999Z</time></trkpt><trkpt lat="36.96606838151213" lon="15.058833360025885"><ele>471.00000000000006</ele><time>2026-04-17T07:41:19.999Z</time></trkpt><trkpt lat="36.966085090911456" lon="15.058737918576641"><ele>470.7142857142858</ele><time>2026-04-17T07:41:20.999Z</time></trkpt><trkpt lat="36.96609645679401" lon="15.058640760282055"><ele>470.42857142857144</ele><time>2026-04-17T07:41:21.999Z</time></trkpt><trkpt lat="36.9660997341447" lon="15.058549725566605"><ele>470.14285714285717</ele><time>2026-04-17T07:41:22.999Z</time></trkpt><trkpt lat="36.966099503539276" lon="15.058464911840883"><ele>469.8571428571429</ele><time>2026-04-17T07:41:23.999Z</time></trkpt><trkpt lat="36.96609518627126" lon="15.058378377338677"><ele>469.57142857142856</ele><time>2026-04-17T07:41:24.999Z</time></trkpt><trkpt lat="36.966096524900934" lon="15.05828549656716"><ele>469.2857142857143</ele><time>2026-04-17T07:41:25.999Z</time></trkpt><trkpt lat="36.966099524544944" lon="15.05819943372148"><ele>469.0</ele><time>2026-04-17T07:41:26.999Z</time></trkpt><trkpt lat="36.96610240381953" lon="15.05810841818857"><ele>468.57142857142856</ele><time>2026-04-17T07:41:27.999Z</time></trkpt><trkpt lat="36.96610711469027" lon="15.058022444141782"><ele>468.1428571428571</ele><time>2026-04-17T07:41:28.998Z</time></trkpt><trkpt lat="36.96610719457789" lon="15.057940573146075"><ele>467.7142857142857</ele><time>2026-04-17T07:41:29.998Z</time></trkpt><trkpt lat="36.96610549752807" lon="15.057841415180516"><ele>467.2857142857143</ele><time>2026-04-17T07:41:30.998Z</time></trkpt><trkpt lat="36.96611464757936" lon="15.057746973788118"><ele>466.85714285714283</ele><time>2026-04-17T07:41:32Z</time></trkpt><trkpt lat="36.966129714874725" lon="15.057665269466703"><ele>466.42857142857144</ele><time>2026-04-17T07:41:33Z</time></trkpt><trkpt lat="36.96615668471046" lon="15.057588737609242"><ele>466.0</ele><time>2026-04-17T07:41:34Z</time></trkpt><trkpt lat="36.966181809166464" lon="15.05749892143928"><ele>465.1666666666667</ele><time>2026-04-17T07:41:35Z</time></trkpt><trkpt lat="36.966199808950286" lon="15.05741274252402"><ele>464.33333333333337</ele><time>2026-04-17T07:41:36Z</time></trkpt><trkpt lat="36.966215202275905" lon="15.05732000919492"><ele>463.5</ele><time>2026-04-17T07:41:37Z</time></trkpt><trkpt lat="36.96625195210158" lon="15.057241994000542"><ele>462.66666666666663</ele><time>2026-04-17T07:41:38Z</time></trkpt><trkpt lat="36.96627398927312" lon="15.057144333074541"><ele>461.8333333333333</ele><time>2026-04-17T07:41:39Z</time></trkpt><trkpt lat="36.966268528304155" lon="15.057042420618309"><ele>461.0</ele><time>2026-04-17T07:41:40Z</time></trkpt><trkpt lat="36.96628310510332" lon="15.056936869882101"><ele>460.99999999999994</ele><time>2026-04-17T07:41:41Z</time></trkpt><trkpt lat="36.96632817051893" lon="15.05684114435364"><ele>461.0</ele><time>2026-04-17T07:41:42Z</time></trkpt><trkpt lat="36.96634123514878" lon="15.056744161268766"><ele>461.0</ele><time>2026-04-17T07:41:43Z</time></trkpt><trkpt lat="36.96633979317865" lon="15.056634152631887"><ele>461.0</ele><time>2026-04-17T07:41:44Z</time></trkpt><trkpt lat="36.96636236233098" lon="15.056536474276022"><ele>460.99999999999994</ele><time>2026-04-17T07:41:45Z</time></trkpt><trkpt lat="36.96637466966557" lon="15.056417077521518"><ele>461.0</ele><time>2026-04-17T07:41:46Z</time></trkpt><trkpt lat="36.96638622289066" lon="15.056317983611343"><ele>460.3333333333333</ele><time>2026-04-17T07:41:47Z</time></trkpt><trkpt lat="36.966394982788636" lon="15.056210390052613"><ele>459.66666666666663</ele><time>2026-04-17T07:41:48Z</time></trkpt><trkpt lat="36.96640556049731" lon="15.056092621984787"><ele>459.0</ele><time>2026-04-17T07:41:49Z</time></trkpt><trkpt lat="36.96640023645293" lon="15.055989696389094"><ele>458.33333333333337</ele><time>2026-04-17T07:41:50Z</time></trkpt><trkpt lat="36.966400608832195" lon="15.05590729602922"><ele>457.6666666666667</ele><time>2026-04-17T07:41:51Z</time></trkpt><trkpt lat="36.96639586794084" lon="15.055827478380088"><ele>457.0</ele><time>2026-04-17T07:41:52Z</time></trkpt><trkpt lat="36.966389977929005" lon="15.05574835263594"><ele>456.1666666666667</ele><time>2026-04-17T07:41:53Z</time></trkpt><trkpt lat="36.96638634025939" lon="15.055637212341955"><ele>455.33333333333337</ele><time>2026-04-17T07:41:55Z</time></trkpt><trkpt lat="36.96639474288151" lon="15.055542182093856"><ele>454.5</ele><time>2026-04-17T07:41:57Z</time></trkpt><trkpt lat="36.96639332003834" lon="15.055443976565424"><ele>453.66666666666663</ele><time>2026-04-17T07:41:59Z</time></trkpt><trkpt lat="36.966409829063636" lon="15.05535493602761"><ele>452.8333333333333</ele><time>2026-04-17T07:42:01Z</time></trkpt><trkpt lat="36.96642112635566" lon="15.05527509384527"><ele>452.0</ele><time>2026-04-17T07:42:03Z</time></trkpt><trkpt lat="36.96643872654022" lon="15.055190447250364"><ele>452.0</ele><time>2026-04-17T07:42:07Z</time></trkpt><trkpt lat="36.966471072006826" lon="15.055059610881797"><ele>452.00000000000006</ele><time>2026-04-17T07:43:01.999Z</time></trkpt><trkpt lat="36.966483720084206" lon="15.054952749456472"><ele>452.00000000000006</ele><time>2026-04-17T07:43:02.999Z</time></trkpt><trkpt lat="36.96650376179157" lon="15.05482241443333"><ele>452.0</ele><time>2026-04-17T07:43:03.999Z</time></trkpt><trkpt lat="36.96652831161258" lon="15.05470617078317"><ele>452.0</ele><time>2026-04-17T07:43:04.999Z</time></trkpt><trkpt lat="36.966550325955005" lon="15.05458899454438"><ele>450.8</ele><time>2026-04-17T07:43:05.999Z</time></trkpt><trkpt lat="36.966569842040705" lon="15.054477781778347"><ele>449.6</ele><time>2026-04-17T07:43:06.999Z</time></trkpt><trkpt lat="36.9665965357091" lon="15.054363703044443"><ele>448.40000000000003</ele><time>2026-04-17T07:43:07.999Z</time></trkpt><trkpt lat="36.966613801519095" lon="15.054249053280133"><ele>447.20000000000005</ele><time>2026-04-17T07:43:08.999Z</time></trkpt><trkpt lat="36.96662334692032" lon="15.054131139195965"><ele>446.0</ele><time>2026-04-17T07:43:09.999Z</time></trkpt><trkpt lat="36.966644665391684" lon="15.054020752396282"><ele>447.0</ele><time>2026-04-17T07:43:10.999Z</time></trkpt><trkpt lat="36.96667073095977" lon="15.053904814556644"><ele>448.0</ele><time>2026-04-17T07:43:11.999Z</time></trkpt><trkpt lat="36.96669487639726" lon="15.05376871965921"><ele>449.0</ele><time>2026-04-17T07:43:12.999Z</time></trkpt><trkpt lat="36.96671659792014" lon="15.05362260881927"><ele>450.0</ele><time>2026-04-17T07:43:13.999Z</time></trkpt><trkpt lat="36.96674437027096" lon="15.053468328450679"><ele>450.0</ele><time>2026-04-17T07:43:14.999Z</time></trkpt><trkpt lat="36.966772959879485" lon="15.053301802071063"><ele>450.0</ele><time>2026-04-17T07:43:15.999Z</time></trkpt><trkpt lat="36.96679129441102" lon="15.053130594641448"><ele>450.0</ele><time>2026-04-17T07:43:16.999Z</time></trkpt><trkpt lat="36.96678740969069" lon="15.05297476231976"><ele>450.0</ele><time>2026-04-17T07:43:17.999Z</time></trkpt><trkpt lat="36.96677211303329" lon="15.052822798906552"><ele>450.0</ele><time>2026-04-17T07:43:18.999Z</time></trkpt><trkpt lat="36.966752006806686" lon="15.052682905541205"><ele>450.0</ele><time>2026-04-17T07:43:19.999Z</time></trkpt><trkpt lat="36.966735338388375" lon="15.052539941040402"><ele>450.0</ele><time>2026-04-17T07:43:20.999Z</time></trkpt><trkpt lat="36.9667143035169" lon="15.052395539828737"><ele>450.0</ele><time>2026-04-17T07:43:21.999Z</time></trkpt><trkpt lat="36.96666363808631" lon="15.052255553568498"><ele>446.75</ele><time>2026-04-17T07:43:22.999Z</time></trkpt><trkpt lat="36.96659617553602" lon="15.052111551164899"><ele>443.5</ele><time>2026-04-17T07:43:23.999Z</time></trkpt><trkpt lat="36.9665314533918" lon="15.051980064975284"><ele>440.25</ele><time>2026-04-17T07:43:24.999Z</time></trkpt><trkpt lat="36.96647737110852" lon="15.051857960823622"><ele>437.0</ele><time>2026-04-17T07:43:25.999Z</time></trkpt><trkpt lat="36.966429264479295" lon="15.051749565299703"><ele>436.99999999999994</ele><time>2026-04-17T07:43:26.999Z</time></trkpt><trkpt lat="36.966397881490224" lon="15.05164392942936"><ele>437.0</ele><time>2026-04-17T07:43:27.999Z</time></trkpt><trkpt lat="36.96639116684762" lon="15.051537272698976"><ele>437.0</ele><time>2026-04-17T07:43:28.999Z</time></trkpt><trkpt lat="36.96637859975393" lon="15.051445279331885"><ele>437.0</ele><time>2026-04-17T07:43:29.999Z</time></trkpt><trkpt lat="36.966353761692226" lon="15.05134851626899"><ele>436.99999999999994</ele><time>2026-04-17T07:43:30.999Z</time></trkpt><trkpt lat="36.9663232383075" lon="15.051228263809168"><ele>437.0</ele><time>2026-04-17T07:43:31.999Z</time></trkpt><trkpt lat="36.966295089235786" lon="15.051126505762046"><ele>436.49999999999994</ele><time>2026-04-17T07:43:32.999Z</time></trkpt><trkpt lat="36.966270405907316" lon="15.051030141181633"><ele>436.0</ele><time>2026-04-17T07:43:33.998Z</time></trkpt><trkpt lat="36.966240284458436" lon="15.050923953055138"><ele>435.5</ele><time>2026-04-17T07:43:34.998Z</time></trkpt><trkpt lat="36.96621681179007" lon="15.050818076351984"><ele>435.0</ele><time>2026-04-17T07:43:35.998Z</time></trkpt><trkpt lat="36.96619058679873" lon="15.050724855095096"><ele>434.49999999999994</ele><time>2026-04-17T07:43:36.998Z</time></trkpt><trkpt lat="36.9661667022371" lon="15.050647228957912"><ele>434.0</ele><time>2026-04-17T07:43:38Z</time></trkpt><trkpt lat="36.96615208263764" lon="15.050520329503957"><ele>431.99999999999994</ele><time>2026-04-17T07:43:40Z</time></trkpt><trkpt lat="36.96613753033222" lon="15.050433140826886"><ele>430.0</ele><time>2026-04-17T07:43:42Z</time></trkpt><trkpt lat="36.96613049195113" lon="15.050340427715446"><ele>428.0</ele><time>2026-04-17T07:43:45Z</time></trkpt><trkpt lat="36.96612393434007" lon="15.05024076382175"><ele>426.0</ele><time>2026-04-17T07:44:06Z</time></trkpt><trkpt lat="36.96609000486524" lon="15.050162077693155"><ele>423.99999999999994</ele><time>2026-04-17T07:44:07Z</time></trkpt><trkpt lat="36.96611132540847" lon="15.050057959893559"><ele>422.0</ele><time>2026-04-17T07:44:08Z</time></trkpt><trkpt lat="36.966104968937145" lon="15.049965803823344"><ele>421.0</ele><time>2026-04-17T07:44:09Z</time></trkpt><trkpt lat="36.96609775987986" lon="15.04986091457174"><ele>420.0</ele><time>2026-04-17T07:44:10Z</time></trkpt><trkpt lat="36.966090291648754" lon="15.04975150250459"><ele>419.0</ele><time>2026-04-17T07:44:11Z</time></trkpt><trkpt lat="36.96608037019256" lon="15.04963674311773"><ele>418.0</ele><time>2026-04-17T07:44:12Z</time></trkpt><trkpt lat="36.966053022065886" lon="15.049509634388686"><ele>417.0</ele><time>2026-04-17T07:44:13Z</time></trkpt><trkpt lat="36.96604121993777" lon="15.049345690174379"><ele>417.0</ele><time>2026-04-17T07:44:14Z</time></trkpt><trkpt lat="36.96603990457246" lon="15.049191252291607"><ele>417.0</ele><time>2026-04-17T07:44:15Z</time></trkpt><trkpt lat="36.966045154523" lon="15.049047204501141"><ele>417.0</ele><time>2026-04-17T07:44:16Z</time></trkpt><trkpt lat="36.966041419885336" lon="15.048921513598607"><ele>417.0</ele><time>2026-04-17T07:44:17Z</time></trkpt><trkpt lat="36.966047363307496" lon="15.048797138652375"><ele>417.0</ele><time>2026-04-17T07:44:18Z</time></trkpt><trkpt lat="36.966057381803644" lon="15.048675778466418"><ele>416.6666666666667</ele><time>2026-04-17T07:44:19Z</time></trkpt><trkpt lat="36.966076501765556" lon="15.048557524431533"><ele>416.33333333333337</ele><time>2026-04-17T07:44:20Z</time></trkpt><trkpt lat="36.96607603971517" lon="15.048453992478178"><ele>416.0</ele><time>2026-04-17T07:44:21Z</time></trkpt><trkpt lat="36.96605841657844" lon="15.048358230835545"><ele>415.6666666666667</ele><time>2026-04-17T07:44:22Z</time></trkpt><trkpt lat="36.966053899065386" lon="15.048258429104061"><ele>415.33333333333337</ele><time>2026-04-17T07:44:23Z</time></trkpt><trkpt lat="36.96603256925713" lon="15.048160360697919"><ele>415.0</ele><time>2026-04-17T07:44:24Z</time></trkpt><trkpt lat="36.96600853751812" lon="15.048062772518382"><ele>414.6</ele><time>2026-04-17T07:44:25Z</time></trkpt><trkpt lat="36.966005364259104" lon="15.047948616101888"><ele>414.2</ele><time>2026-04-17T07:44:26Z</time></trkpt><trkpt lat="36.9660019688819" lon="15.047823783900878"><ele>413.79999999999995</ele><time>2026-04-17T07:44:27Z</time></trkpt><trkpt lat="36.96600248011341" lon="15.04768853367994"><ele>413.4</ele><time>2026-04-17T07:44:28Z</time></trkpt><trkpt lat="36.96601717841445" lon="15.047567062119573"><ele>413.0</ele><time>2026-04-17T07:44:29Z</time></trkpt><trkpt lat="36.966036428670265" lon="15.047447425186787"><ele>412.49999999999994</ele><time>2026-04-17T07:44:29.999Z</time></trkpt><trkpt lat="36.96604521221389" lon="15.047344408176551"><ele>412.0</ele><time>2026-04-17T07:44:30.999Z</time></trkpt><trkpt lat="36.96602633750007" lon="15.047255301323995"><ele>411.5</ele><time>2026-04-17T07:44:31.999Z</time></trkpt><trkpt lat="36.96599687975384" lon="15.047163160923423"><ele>411.0</ele><time>2026-04-17T07:44:32.999Z</time></trkpt><trkpt lat="36.96595830128436" lon="15.047061508488929"><ele>410.49999999999994</ele><time>2026-04-17T07:44:33.999Z</time></trkpt><trkpt lat="36.965925697034606" lon="15.046992853076263"><ele>410.0</ele><time>2026-04-17T07:44:34.999Z</time></trkpt><trkpt lat="36.96590929272456" lon="15.046911822544105"><ele>410.0</ele><time>2026-04-17T07:44:35.999Z</time></trkpt><trkpt lat="36.96589449832625" lon="15.046803037425953"><ele>410.0</ele><time>2026-04-17T07:44:38.999Z</time></trkpt><trkpt lat="36.965866728519195" lon="15.04669207147386"><ele>410.0</ele><time>2026-04-17T07:44:40.999Z</time></trkpt><trkpt lat="36.96576438932806" lon="15.046592504091821"><ele>410.0</ele><time>2026-04-17T07:44:42.999Z</time></trkpt><trkpt lat="36.9656654698125" lon="15.046573090960184"><ele>410.0</ele><time>2026-04-17T07:44:43.999Z</time></trkpt><trkpt lat="36.96555604844246" lon="15.046578956434361"><ele>409.49999999999994</ele><time>2026-04-17T07:44:44.999Z</time></trkpt><trkpt lat="36.965468932910895" lon="15.046550475017403"><ele>409.0</ele><time>2026-04-17T07:44:45.999Z</time></trkpt><trkpt lat="36.96539497346282" lon="15.046493844912264"><ele>408.5</ele><time>2026-04-17T07:44:46.999Z</time></trkpt><trkpt lat="36.96532151684972" lon="15.04644198841215"><ele>408.0</ele><time>2026-04-17T07:44:47.999Z</time></trkpt><trkpt lat="36.965260968221855" lon="15.046380990456742"><ele>407.49999999999994</ele><time>2026-04-17T07:44:48.999Z</time></trkpt><trkpt lat="36.965208541315754" lon="15.046269639161258"><ele>407.0</ele><time>2026-04-17T07:44:50.999Z</time></trkpt><trkpt lat="36.96520669123306" lon="15.046153147457343"><ele>407.0</ele><time>2026-04-17T07:44:52.999Z</time></trkpt><trkpt lat="36.96513937261804" lon="15.046022527499142"><ele>407.0</ele><time>2026-04-17T07:44:54.999Z</time></trkpt><trkpt lat="36.96513942187996" lon="15.045918693873839"><ele>407.0</ele><time>2026-04-17T07:44:55.999Z</time></trkpt><trkpt lat="36.965111738336674" lon="15.045818987687523"><ele>407.0</ele><time>2026-04-17T07:44:56.999Z</time></trkpt><trkpt lat="36.96503172164671" lon="15.045702019246844"><ele>407.0</ele><time>2026-04-17T07:44:58.999Z</time></trkpt><trkpt lat="36.964987091487615" lon="15.045580465247376"><ele>406.0</ele><time>2026-04-17T07:45:00.999Z</time></trkpt><trkpt lat="36.96494016149601" lon="15.045467319537641"><ele>405.0</ele><time>2026-04-17T07:45:02.999Z</time></trkpt><trkpt lat="36.96489447726172" lon="15.045337899885263"><ele>404.0</ele><time>2026-04-17T07:45:04.999Z</time></trkpt><trkpt lat="36.964855553548546" lon="15.045200803065725"><ele>403.0</ele><time>2026-04-17T07:45:06.999Z</time></trkpt><trkpt lat="36.96482473265653" lon="15.045069433647972"><ele>402.0</ele><time>2026-04-17T07:45:08.999Z</time></trkpt><trkpt lat="36.9648000331798" lon="15.044996835102797"><ele>401.3333333333333</ele><time>2026-04-17T07:45:09.999Z</time></trkpt><trkpt lat="36.9647674262924" lon="15.044915109587055"><ele>400.66666666666663</ele><time>2026-04-17T07:45:10.999Z</time></trkpt><trkpt lat="36.96472673624685" lon="15.0448168488614"><ele>400.0</ele><time>2026-04-17T07:45:11.999Z</time></trkpt><trkpt lat="36.964674950748254" lon="15.044711014146076"><ele>399.3333333333333</ele><time>2026-04-17T07:45:12.999Z</time></trkpt><trkpt lat="36.96460478625007" lon="15.044620971041383"><ele>398.66666666666663</ele><time>2026-04-17T07:45:13.999Z</time></trkpt><trkpt lat="36.964563813716346" lon="15.044528860366475"><ele>398.0</ele><time>2026-04-17T07:45:14.999Z</time></trkpt><trkpt lat="36.96452671227252" lon="15.044439902870236"><ele>398.0</ele><time>2026-04-17T07:45:15.999Z</time></trkpt><trkpt lat="36.96446740715232" lon="15.04437143574727"><ele>398.0</ele><time>2026-04-17T07:45:16.999Z</time></trkpt><trkpt lat="36.964408581108316" lon="15.044290557282952"><ele>398.0</ele><time>2026-04-17T07:45:17.999Z</time></trkpt><trkpt lat="36.96434976794982" lon="15.044197439169764"><ele>398.0</ele><time>2026-04-17T07:45:18.999Z</time></trkpt><trkpt lat="36.96427615552444" lon="15.044105575970791"><ele>398.0</ele><time>2026-04-17T07:45:19.999Z</time></trkpt><trkpt lat="36.96421685153416" lon="15.044013956474481"><ele>397.1428571428571</ele><time>2026-04-17T07:45:20.999Z</time></trkpt><trkpt lat="36.964176066088115" lon="15.043929885790817"><ele>396.2857142857143</ele><time>2026-04-17T07:45:21.999Z</time></trkpt><trkpt lat="36.96412106024703" lon="15.043871442700318"><ele>395.42857142857144</ele><time>2026-04-17T07:45:22.999Z</time></trkpt><trkpt lat="36.96407656549312" lon="15.043814315722294"><ele>394.57142857142856</ele><time>2026-04-17T07:45:23.999Z</time></trkpt><trkpt lat="36.96402152567181" lon="15.043764792162708"><ele>393.7142857142857</ele><time>2026-04-17T07:45:24.999Z</time></trkpt><trkpt lat="36.96396547930816" lon="15.043706880997451"><ele>392.85714285714283</ele><time>2026-04-17T07:45:25.999Z</time></trkpt><trkpt lat="36.963902583828144" lon="15.043652636202122"><ele>392.0</ele><time>2026-04-17T07:45:26.999Z</time></trkpt><trkpt lat="36.96385912993239" lon="15.043589979813573"><ele>392.0</ele><time>2026-04-17T07:45:27.999Z</time></trkpt><trkpt lat="36.96382148770347" lon="15.043513489254899"><ele>392.0</ele><time>2026-04-17T07:45:28.999Z</time></trkpt><trkpt lat="36.96379839581816" lon="15.04343943276965"><ele>392.0</ele><time>2026-04-17T07:45:29.999Z</time></trkpt><trkpt lat="36.96377628537055" lon="15.043360628926159"><ele>392.0</ele><time>2026-04-17T07:45:30.999Z</time></trkpt><trkpt lat="36.96376285347399" lon="15.043272897848556"><ele>392.0</ele><time>2026-04-17T07:45:31.999Z</time></trkpt><trkpt lat="36.96374908209178" lon="15.043186038624613"><ele>392.0</ele><time>2026-04-17T07:45:32.999Z</time></trkpt><trkpt lat="36.96373872658886" lon="15.043081879953368"><ele>392.0</ele><time>2026-04-17T07:45:33.999Z</time></trkpt><trkpt lat="36.96373081624716" lon="15.042934430592979"><ele>391.8</ele><time>2026-04-17T07:45:34.999Z</time></trkpt><trkpt lat="36.96373501546132" lon="15.042779476483496"><ele>391.6</ele><time>2026-04-17T07:45:35.999Z</time></trkpt><trkpt lat="36.96374044952828" lon="15.04265965856004"><ele>391.40000000000003</ele><time>2026-04-17T07:45:36.999Z</time></trkpt><trkpt lat="36.9637362381703" lon="15.042549120377016"><ele>391.20000000000005</ele><time>2026-04-17T07:45:37.999Z</time></trkpt><trkpt lat="36.96372177158188" lon="15.042453302114255"><ele>391.0</ele><time>2026-04-17T07:45:38.998Z</time></trkpt><trkpt lat="36.96369496955892" lon="15.042336544831901"><ele>392.0</ele><time>2026-04-17T07:45:39.998Z</time></trkpt><trkpt lat="36.963675126702135" lon="15.04222158714851"><ele>393.0</ele><time>2026-04-17T07:45:40.998Z</time></trkpt><trkpt lat="36.963661277055486" lon="15.042106813434591"><ele>394.0</ele><time>2026-04-17T07:45:41.998Z</time></trkpt><trkpt lat="36.96365371497343" lon="15.041985843868568"><ele>395.0</ele><time>2026-04-17T07:45:42.998Z</time></trkpt><trkpt lat="36.963648318012226" lon="15.041862953824621"><ele>396.0</ele><time>2026-04-17T07:45:44Z</time></trkpt><trkpt lat="36.96364411941273" lon="15.041734814853525"><ele>397.20000000000005</ele><time>2026-04-17T07:45:45Z</time></trkpt><trkpt lat="36.96362189539607" lon="15.041611315937866"><ele>398.40000000000003</ele><time>2026-04-17T07:45:46Z</time></trkpt><trkpt lat="36.9635865837994" lon="15.041468814979469"><ele>399.6</ele><time>2026-04-17T07:45:47Z</time></trkpt><trkpt lat="36.963562054155375" lon="15.041328770967317"><ele>400.8</ele><time>2026-04-17T07:45:48Z</time></trkpt><trkpt lat="36.96354665363107" lon="15.041197879601878"><ele>402.0</ele><time>2026-04-17T07:45:49Z</time></trkpt><trkpt lat="36.96353401580383" lon="15.041077175890061"><ele>402.0</ele><time>2026-04-17T07:45:50Z</time></trkpt><trkpt lat="36.963520946121434" lon="15.040954437517582"><ele>402.0</ele><time>2026-04-17T07:45:51Z</time></trkpt><trkpt lat="36.96353260518219" lon="15.040841782671016"><ele>402.0</ele><time>2026-04-17T07:45:52Z</time></trkpt><trkpt lat="36.96350917040551" lon="15.040712385282703"><ele>402.0</ele><time>2026-04-17T07:45:53Z</time></trkpt><trkpt lat="36.96350042387465" lon="15.0405847145818"><ele>402.0</ele><time>2026-04-17T07:45:54Z</time></trkpt><trkpt lat="36.963501950983925" lon="15.040453316638255"><ele>403.0</ele><time>2026-04-17T07:45:55Z</time></trkpt><trkpt lat="36.963490462804245" lon="15.04033179376518"><ele>404.0</ele><time>2026-04-17T07:45:56Z</time></trkpt><trkpt lat="36.96348718709233" lon="15.040206377004148"><ele>405.0</ele><time>2026-04-17T07:45:57Z</time></trkpt><trkpt lat="36.963480676403755" lon="15.040092617699957"><ele>406.0</ele><time>2026-04-17T07:45:58Z</time></trkpt><trkpt lat="36.96347164600199" lon="15.03998572362584"><ele>407.0</ele><time>2026-04-17T07:45:59Z</time></trkpt><trkpt lat="36.963450734631486" lon="15.039890041273152"><ele>407.49999999999994</ele><time>2026-04-17T07:46:00Z</time></trkpt><trkpt lat="36.9634330798097" lon="15.039793892968182"><ele>408.0</ele><time>2026-04-17T07:46:01Z</time></trkpt><trkpt lat="36.963423356495795" lon="15.039706194635574"><ele>408.5</ele><time>2026-04-17T07:46:02Z</time></trkpt><trkpt lat="36.963409980945876" lon="15.039614288864486"><ele>409.0</ele><time>2026-04-17T07:46:03Z</time></trkpt><trkpt lat="36.963402388713035" lon="15.039517315224902"><ele>409.49999999999994</ele><time>2026-04-17T07:46:04Z</time></trkpt><trkpt lat="36.96340205976125" lon="15.039411420754817"><ele>410.0</ele><time>2026-04-17T07:46:05Z</time></trkpt><trkpt lat="36.96340549815026" lon="15.039315294150464"><ele>410.0</ele><time>2026-04-17T07:46:06Z</time></trkpt><trkpt lat="36.96340445695876" lon="15.039212727293004"><ele>410.0</ele><time>2026-04-17T07:46:07Z</time></trkpt><trkpt lat="36.9633885689298" lon="15.039102694254732"><ele>410.0</ele><time>2026-04-17T07:46:08Z</time></trkpt><trkpt lat="36.963377892085845" lon="15.038982616886837"><ele>410.0</ele><time>2026-04-17T07:46:09Z</time></trkpt><trkpt lat="36.963374541968435" lon="15.038850757567529"><ele>410.0</ele><time>2026-04-17T07:46:10Z</time></trkpt><trkpt lat="36.96333452371602" lon="15.038740429511542"><ele>410.0</ele><time>2026-04-17T07:46:11Z</time></trkpt><trkpt lat="36.963268915235" lon="15.038638865457187"><ele>410.0</ele><time>2026-04-17T07:46:12Z</time></trkpt><trkpt lat="36.96319008932279" lon="15.038536799434924"><ele>410.0</ele><time>2026-04-17T07:46:13Z</time></trkpt><trkpt lat="36.96312233199836" lon="15.038427297955018"><ele>410.0</ele><time>2026-04-17T07:46:14Z</time></trkpt><trkpt lat="36.963034091843475" lon="15.038338710272265"><ele>410.0</ele><time>2026-04-17T07:46:15Z</time></trkpt><trkpt lat="36.96294466496066" lon="15.038273995813752"><ele>410.8333333333333</ele><time>2026-04-17T07:46:16Z</time></trkpt><trkpt lat="36.962863678426174" lon="15.038211500907407"><ele>411.66666666666663</ele><time>2026-04-17T07:46:17Z</time></trkpt><trkpt lat="36.96279346927982" lon="15.038137689897445"><ele>412.5</ele><time>2026-04-17T07:46:18Z</time></trkpt><trkpt lat="36.96274827675421" lon="15.038065404228483"><ele>413.33333333333337</ele><time>2026-04-17T07:46:19Z</time></trkpt><trkpt lat="36.96270792355552" lon="15.037987436875449"><ele>414.1666666666667</ele><time>2026-04-17T07:46:20Z</time></trkpt><trkpt lat="36.96267499229632" lon="15.037860888777288"><ele>415.0</ele><time>2026-04-17T07:46:22Z</time></trkpt><trkpt lat="36.96250484657046" lon="15.037870357636558"><ele>415.00000000000006</ele><time>2026-04-17T07:46:25Z</time></trkpt><trkpt lat="36.96242707812054" lon="15.037910452150706"><ele>415.0</ele><time>2026-04-17T07:46:57.999Z</time></trkpt><trkpt lat="36.96235738449715" lon="15.037921588608157"><ele>415.0</ele><time>2026-04-17T07:46:59.999Z</time></trkpt><trkpt lat="36.962238122449826" lon="15.037964336780314"><ele>415.0</ele><time>2026-04-17T07:47:01.999Z</time></trkpt><trkpt lat="36.96215481703358" lon="15.037990487211546"><ele>415.00000000000006</ele><time>2026-04-17T07:47:02.999Z</time></trkpt><trkpt lat="36.96207510870001" lon="15.03801183481501"><ele>415.0</ele><time>2026-04-17T07:47:03.999Z</time></trkpt><trkpt lat="36.961977473158086" lon="15.038041358597312"><ele>415.0</ele><time>2026-04-17T07:47:04.999Z</time></trkpt><trkpt lat="36.961884401180086" lon="15.038086664456712"><ele>415.0</ele><time>2026-04-17T07:47:05.999Z</time></trkpt><trkpt lat="36.96180008795027" lon="15.038141973259417"><ele>415.0</ele><time>2026-04-17T07:47:06.999Z</time></trkpt><trkpt lat="36.96172097574055" lon="15.038208542777083"><ele>415.0</ele><time>2026-04-17T07:47:07.999Z</time></trkpt><trkpt lat="36.96165522600111" lon="15.038277652896857"><ele>415.0</ele><time>2026-04-17T07:47:08.999Z</time></trkpt><trkpt lat="36.961587666108194" lon="15.038325212897583"><ele>414.33333333333337</ele><time>2026-04-17T07:47:09.999Z</time></trkpt><trkpt lat="36.96152304846465" lon="15.038374978435202"><ele>413.6666666666667</ele><time>2026-04-17T07:47:10.999Z</time></trkpt><trkpt lat="36.961446915782986" lon="15.038446983169285"><ele>413.0</ele><time>2026-04-17T07:47:11.999Z</time></trkpt><trkpt lat="36.96138047457685" lon="15.038508683249615"><ele>412.33333333333337</ele><time>2026-04-17T07:47:12.999Z</time></trkpt><trkpt lat="36.961320307771004" lon="15.038564477862739"><ele>411.6666666666667</ele><time>2026-04-17T07:47:13.999Z</time></trkpt><trkpt lat="36.961270138530104" lon="15.038623220194886"><ele>411.0</ele><time>2026-04-17T07:47:14.999Z</time></trkpt><trkpt lat="36.96121274698882" lon="15.038683752990643"><ele>411.0</ele><time>2026-04-17T07:47:15.999Z</time></trkpt><trkpt lat="36.96115159144357" lon="15.038751886215072"><ele>411.0</ele><time>2026-04-17T07:47:16.999Z</time></trkpt><trkpt lat="36.96108482109315" lon="15.038828353230132"><ele>411.0</ele><time>2026-04-17T07:47:17.999Z</time></trkpt><trkpt lat="36.96104543186698" lon="15.038904385256455"><ele>411.0</ele><time>2026-04-17T07:47:18.999Z</time></trkpt><trkpt lat="36.9609920169017" lon="15.038965857719159"><ele>411.0</ele><time>2026-04-17T07:47:19.999Z</time></trkpt><trkpt lat="36.960952154733754" lon="15.039027337741034"><ele>411.0</ele><time>2026-04-17T07:47:20.999Z</time></trkpt><trkpt lat="36.96089175074967" lon="15.039132348868156"><ele>410.6666666666667</ele><time>2026-04-17T07:47:22.999Z</time></trkpt><trkpt lat="36.96090145280213" lon="15.039243819614383"><ele>410.33333333333337</ele><time>2026-04-17T07:47:24.999Z</time></trkpt><trkpt lat="36.96093473648102" lon="15.039315185640813"><ele>410.0</ele><time>2026-04-17T07:47:31.999Z</time></trkpt><trkpt lat="36.96097089384575" lon="15.039395693410235"><ele>409.6666666666667</ele><time>2026-04-17T07:47:33.999Z</time></trkpt><trkpt lat="36.96095976163238" lon="15.039537243435595"><ele>409.33333333333337</ele><time>2026-04-17T07:47:35.999Z</time></trkpt><trkpt lat="36.96094473745665" lon="15.0396346896076"><ele>409.0</ele><time>2026-04-17T07:47:36.999Z</time></trkpt><trkpt lat="36.96092979811121" lon="15.039751290530647"><ele>409.00000000000006</ele><time>2026-04-17T07:47:37.999Z</time></trkpt><trkpt lat="36.96091418231694" lon="15.039859071048527"><ele>409.0</ele><time>2026-04-17T07:47:38.999Z</time></trkpt><trkpt lat="36.96089604318113" lon="15.039953400286274"><ele>409.0</ele><time>2026-04-17T07:47:39.999Z</time></trkpt><trkpt lat="36.96087839233088" lon="15.040037054099415"><ele>409.0</ele><time>2026-04-17T07:47:40.999Z</time></trkpt><trkpt lat="36.960875719185836" lon="15.04012727225361"><ele>409.00000000000006</ele><time>2026-04-17T07:47:41.999Z</time></trkpt><trkpt lat="36.96088383977312" lon="15.040264109370796"><ele>409.0</ele><time>2026-04-17T07:47:43.998Z</time></trkpt><trkpt lat="36.96086942058334" lon="15.040424236505169"><ele>408.4</ele><time>2026-04-17T07:47:45.998Z</time></trkpt><trkpt lat="36.96088197779698" lon="15.040578095784833"><ele>407.79999999999995</ele><time>2026-04-17T07:47:47.998Z</time></trkpt><trkpt lat="36.96087551940639" lon="15.040690183388202"><ele>407.20000000000005</ele><time>2026-04-17T07:47:50Z</time></trkpt><trkpt lat="36.96081517670813" lon="15.040787276565085"><ele>406.6</ele><time>2026-04-17T07:47:52Z</time></trkpt><trkpt lat="36.96077609529538" lon="15.040912955561016"><ele>406.0</ele><time>2026-04-17T07:47:54Z</time></trkpt><trkpt lat="36.96072962035665" lon="15.04101156135678"><ele>406.00000000000006</ele><time>2026-04-17T07:47:56Z</time></trkpt><trkpt lat="36.960661861987234" lon="15.041040177405517"><ele>406.0</ele><time>2026-04-17T07:47:58Z</time></trkpt><trkpt lat="36.96058781755576" lon="15.041113223211418"><ele>406.0</ele><time>2026-04-17T07:48:00Z</time></trkpt><trkpt lat="36.96051946962203" lon="15.041172390576962"><ele>406.0</ele><time>2026-04-17T07:48:02Z</time></trkpt><trkpt lat="36.96044551698865" lon="15.041239559471894"><ele>406.00000000000006</ele><time>2026-04-17T07:48:04Z</time></trkpt><trkpt lat="36.96037312914113" lon="15.041306842062092"><ele>406.0</ele><time>2026-04-17T07:48:06Z</time></trkpt><trkpt lat="36.960322009220796" lon="15.041360271012232"><ele>406.00000000000006</ele><time>2026-04-17T07:48:08Z</time></trkpt><trkpt lat="36.96026943047943" lon="15.04141534065843"><ele>406.0</ele><time>2026-04-17T07:48:11Z</time></trkpt><trkpt lat="36.96020547657648" lon="15.041484423923873"><ele>406.0</ele><time>2026-04-17T07:48:14Z</time></trkpt><trkpt lat="36.96013454676854" lon="15.041546844133247"><ele>406.0</ele><time>2026-04-17T07:48:17Z</time></trkpt><trkpt lat="36.96007805460506" lon="15.041615978084266"><ele>406.00000000000006</ele><time>2026-04-17T07:48:20Z</time></trkpt><trkpt lat="36.960020995472696" lon="15.041662979884112"><ele>406.0</ele><time>2026-04-17T07:48:49.999Z</time></trkpt><trkpt lat="36.95996577561945" lon="15.041749644314587"><ele>405.1666666666667</ele><time>2026-04-17T07:48:52.999Z</time></trkpt><trkpt lat="36.95992017485734" lon="15.041832384731501"><ele>404.33333333333337</ele><time>2026-04-17T07:48:55.999Z</time></trkpt><trkpt lat="36.959869537127545" lon="15.041885193559523"><ele>403.5</ele><time>2026-04-17T07:48:58.999Z</time></trkpt><trkpt lat="36.9597951615026" lon="15.041971037757174"><ele>402.66666666666663</ele><time>2026-04-17T07:49:01.999Z</time></trkpt><trkpt lat="36.959744812915744" lon="15.042028842539985"><ele>401.8333333333333</ele><time>2026-04-17T07:49:03.999Z</time></trkpt><trkpt lat="36.95968497954782" lon="15.042097906780512"><ele>401.0</ele><time>2026-04-17T07:49:06.999Z</time></trkpt><trkpt lat="36.95963024342004" lon="15.042145351412087"><ele>400.99999999999994</ele><time>2026-04-17T07:49:08.999Z</time></trkpt><trkpt lat="36.95957489265107" lon="15.042195306796634"><ele>401.0</ele><time>2026-04-17T07:49:10.999Z</time></trkpt><trkpt lat="36.95953488655633" lon="15.042275094223182"><ele>401.0</ele><time>2026-04-17T07:49:34.999Z</time></trkpt><trkpt lat="36.959489233449816" lon="15.04236151317383"><ele>401.0</ele><time>2026-04-17T07:49:38.999Z</time></trkpt><trkpt lat="36.95943986687898" lon="15.042412555909225"><ele>400.99999999999994</ele><time>2026-04-17T07:49:40.999Z</time></trkpt><trkpt lat="36.9593527993142" lon="15.042457448874117"><ele>401.0</ele><time>2026-04-17T07:49:42.999Z</time></trkpt><trkpt lat="36.959264272796446" lon="15.042508175880236"><ele>397.8333333333333</ele><time>2026-04-17T07:49:44.999Z</time></trkpt><trkpt lat="36.95919676827989" lon="15.042557692560289"><ele>394.66666666666663</ele><time>2026-04-17T07:49:46.998Z</time></trkpt><trkpt lat="36.95914092987991" lon="15.042615124687904"><ele>391.5</ele><time>2026-04-17T07:49:49.998Z</time></trkpt><trkpt lat="36.95909884411817" lon="15.04269019137853"><ele>388.3333333333333</ele><time>2026-04-17T07:49:53.998Z</time></trkpt><trkpt lat="36.95903166877306" lon="15.042746478915095"><ele>385.16666666666663</ele><time>2026-04-17T07:50:25Z</time></trkpt><trkpt lat="36.95894065198929" lon="15.042745897252619"><ele>382.0</ele><time>2026-04-17T07:50:29Z</time></trkpt><trkpt lat="36.958875819861525" lon="15.042732661359862"><ele>382.0</ele><time>2026-04-17T07:50:34Z</time></trkpt><trkpt lat="36.958815335505484" lon="15.042707633372816"><ele>382.0</ele><time>2026-04-17T07:50:39Z</time></trkpt><trkpt lat="36.95875046033859" lon="15.04263127512912"><ele>382.0</ele><time>2026-04-17T07:57:27.999Z</time></trkpt><trkpt lat="36.958677827658825" lon="15.042635720396289"><ele>382.0</ele><time>2026-04-17T07:57:47.999Z</time></trkpt><trkpt lat="36.958624974243705" lon="15.042690182306478"><ele>382.0</ele><time>2026-04-17T07:58:49Z</time></trkpt><trkpt lat="36.95859397275276" lon="15.042770421672635"><ele>382.0</ele><time>2026-04-17T07:59:15.999Z</time></trkpt><trkpt lat="36.958588412229844" lon="15.042853356239062"><ele>382.0</ele><time>2026-04-17T07:59:24.999Z</time></trkpt><trkpt lat="36.95855215338059" lon="15.042919653409362"><ele>382.0</ele><time>2026-04-17T07:59:46.999Z</time></trkpt><trkpt lat="36.958513489300174" lon="15.043006594112443"><ele>382.0</ele><time>2026-04-17T07:59:48.999Z</time></trkpt><trkpt lat="36.95846852807776" lon="15.043074140326233"><ele>382.0</ele><time>2026-04-17T08:10:42.999Z</time></trkpt><trkpt lat="36.95843533605016" lon="15.043152387100047"><ele>382.0</ele><time>2026-04-17T08:10:44.999Z</time></trkpt><trkpt lat="36.9584095080014" lon="15.043229104173944"><ele>382.0</ele><time>2026-04-17T08:10:47.999Z</time></trkpt><trkpt lat="36.95838346171598" lon="15.043305896797682"><ele>382.0</ele><time>2026-04-17T08:10:51.999Z</time></trkpt><trkpt lat="36.95834968013776" lon="15.043375874411657"><ele>382.0</ele><time>2026-04-17T08:10:54.999Z</time></trkpt><trkpt lat="36.958316712133495" lon="15.043457218133355"><ele>381.3333333333333</ele><time>2026-04-17T08:10:58Z</time></trkpt><trkpt lat="36.95826872507212" lon="15.043541723350813"><ele>380.66666666666663</ele><time>2026-04-17T08:11:01Z</time></trkpt><trkpt lat="36.95823447105026" lon="15.043621670388983"><ele>380.0</ele><time>2026-04-17T08:11:04Z</time></trkpt><trkpt lat="36.958198885843146" lon="15.043721548538876"><ele>379.3333333333333</ele><time>2026-04-17T08:11:06Z</time></trkpt><trkpt lat="36.95815925900182" lon="15.043812472093554"><ele>378.6666666666667</ele><time>2026-04-17T08:11:09Z</time></trkpt><trkpt lat="36.95814042411642" lon="15.04388936356916"><ele>378.0</ele><time>2026-04-17T08:11:12Z</time></trkpt><trkpt lat="36.95806667555471" lon="15.044029317763789"><ele>378.0</ele><time>2026-04-17T08:11:55.999Z</time></trkpt><trkpt lat="36.958002725916515" lon="15.044092155517639"><ele>378.0</ele><time>2026-04-17T08:14:57.999Z</time></trkpt><trkpt lat="36.95793568923879" lon="15.044094810963939"><ele>378.0</ele><time>2026-04-17T08:15:16Z</time></trkpt><trkpt lat="36.95786998750991" lon="15.04417380856637"><ele>378.0</ele><time>2026-04-17T08:15:19Z</time></trkpt><trkpt lat="36.95781730769954" lon="15.044241580337392"><ele>378.0</ele><time>2026-04-17T08:15:22Z</time></trkpt><trkpt lat="36.95775771229079" lon="15.044280288776235"><ele>378.0</ele><time>2026-04-17T08:15:25Z</time></trkpt><trkpt lat="36.95768398596411" lon="15.044329684680466"><ele>378.3333333333333</ele><time>2026-04-17T08:15:28Z</time></trkpt><trkpt lat="36.95763741530475" lon="15.044382881186896"><ele>378.6666666666667</ele><time>2026-04-17T08:15:30Z</time></trkpt><trkpt lat="36.957575349782594" lon="15.044409872155656"><ele>379.0</ele><time>2026-04-17T08:15:32Z</time></trkpt><trkpt lat="36.95747139016894" lon="15.044456685113047"><ele>379.33333333333337</ele><time>2026-04-17T08:15:34Z</time></trkpt><trkpt lat="36.957393321889015" lon="15.044558515455545"><ele>379.6666666666667</ele><time>2026-04-17T08:15:36Z</time></trkpt><trkpt lat="36.95735336286992" lon="15.044627670085415"><ele>380.0</ele><time>2026-04-17T08:15:37Z</time></trkpt><trkpt lat="36.957298889221704" lon="15.04469175436529"><ele>379.14285714285717</ele><time>2026-04-17T08:15:39Z</time></trkpt><trkpt lat="36.95722088534055" lon="15.044738483829674"><ele>378.28571428571433</ele><time>2026-04-17T08:15:42Z</time></trkpt><trkpt lat="36.957157994711686" lon="15.04476027731454"><ele>377.42857142857144</ele><time>2026-04-17T08:15:45Z</time></trkpt><trkpt lat="36.95709638988471" lon="15.044785592269383"><ele>376.57142857142856</ele><time>2026-04-17T08:15:47Z</time></trkpt><trkpt lat="36.95703592548177" lon="15.044812301487667"><ele>375.7142857142857</ele><time>2026-04-17T08:15:49Z</time></trkpt><trkpt lat="36.95696947897542" lon="15.04487216096077"><ele>374.85714285714283</ele><time>2026-04-17T08:15:52Z</time></trkpt><trkpt lat="36.956910349560324" lon="15.044946154422723"><ele>374.0</ele><time>2026-04-17T08:15:55Z</time></trkpt><trkpt lat="36.956866583556305" lon="15.04502322513379"><ele>374.0</ele><time>2026-04-17T08:15:57.999Z</time></trkpt><trkpt lat="36.95682852699261" lon="15.04510665136983"><ele>374.0</ele><time>2026-04-17T08:15:59.999Z</time></trkpt><trkpt lat="36.956777774338285" lon="15.045169352613911"><ele>374.0</ele><time>2026-04-17T08:16:02.999Z</time></trkpt><trkpt lat="36.95676813862928" lon="15.04526232328847"><ele>374.0</ele><time>2026-04-17T08:16:04.999Z</time></trkpt><trkpt lat="36.95673995204269" lon="15.045336440970743"><ele>374.0</ele><time>2026-04-17T08:16:05.999Z</time></trkpt><trkpt lat="36.95670183189245" lon="15.045453683616406"><ele>374.0</ele><time>2026-04-17T08:16:07.999Z</time></trkpt><trkpt lat="36.956640602281574" lon="15.0455530378109"><ele>373.5</ele><time>2026-04-17T08:16:09.999Z</time></trkpt><trkpt lat="36.95656370332224" lon="15.045592187417341"><ele>373.0</ele><time>2026-04-17T08:16:11.999Z</time></trkpt><trkpt lat="36.95648572345255" lon="15.045588174442667"><ele>372.5</ele><time>2026-04-17T08:16:13.999Z</time></trkpt><trkpt lat="36.9564231479104" lon="15.045556236774402"><ele>372.0</ele><time>2026-04-17T08:16:15.999Z</time></trkpt><trkpt lat="36.95633883867098" lon="15.04546998729714"><ele>371.5</ele><time>2026-04-17T08:16:18.999Z</time></trkpt><trkpt lat="36.95626079908787" lon="15.04537643077731"><ele>371.0</ele><time>2026-04-17T08:16:20.999Z</time></trkpt><trkpt lat="36.956208983170505" lon="15.045326649475927"><ele>371.0</ele><time>2026-04-17T08:16:21.999Z</time></trkpt><trkpt lat="36.956136048225865" lon="15.045282473908422"><ele>371.0</ele><time>2026-04-17T08:16:22.999Z</time></trkpt><trkpt lat="36.95605431339477" lon="15.045235723959014"><ele>371.0</ele><time>2026-04-17T08:16:23.999Z</time></trkpt><trkpt lat="36.95599351322666" lon="15.045183972468605"><ele>371.0</ele><time>2026-04-17T08:16:24.999Z</time></trkpt><trkpt lat="36.95592507805806" lon="15.045060217753917"><ele>371.0</ele><time>2026-04-17T08:16:26.999Z</time></trkpt><trkpt lat="36.95586577458317" lon="15.044931871536404"><ele>369.83333333333337</ele><time>2026-04-17T08:16:28.999Z</time></trkpt><trkpt lat="36.955820586673084" lon="15.044808071403253"><ele>368.6666666666667</ele><time>2026-04-17T08:16:29.999Z</time></trkpt><trkpt lat="36.955783007329785" lon="15.044674807485837"><ele>367.5</ele><time>2026-04-17T08:16:30.999Z</time></trkpt><trkpt lat="36.95577433953174" lon="15.044576174883497"><ele>366.3333333333333</ele><time>2026-04-17T08:16:31.999Z</time></trkpt><trkpt lat="36.955781036135214" lon="15.044494805620563"><ele>365.16666666666663</ele><time>2026-04-17T08:16:32.999Z</time></trkpt><trkpt lat="36.955808407191974" lon="15.044418036804307"><ele>364.0</ele><time>2026-04-17T08:16:33.999Z</time></trkpt><trkpt lat="36.95584591071363" lon="15.044322616588163"><ele>365.25</ele><time>2026-04-17T08:16:34.999Z</time></trkpt><trkpt lat="36.95591534099655" lon="15.044173091600324"><ele>366.5</ele><time>2026-04-17T08:16:35.999Z</time></trkpt><trkpt lat="36.95599344064113" lon="15.044003931969772"><ele>367.75</ele><time>2026-04-17T08:16:36.999Z</time></trkpt><trkpt lat="36.95604534849504" lon="15.043854854919566"><ele>369.0</ele><time>2026-04-17T08:16:37.999Z</time></trkpt><trkpt lat="36.95606770442614" lon="15.043734707691037"><ele>369.0</ele><time>2026-04-17T08:16:38.999Z</time></trkpt><trkpt lat="36.95607890069226" lon="15.043623347751979"><ele>369.0</ele><time>2026-04-17T08:16:39.999Z</time></trkpt><trkpt lat="36.95606320757054" lon="15.043527052886631"><ele>369.0</ele><time>2026-04-17T08:16:40.999Z</time></trkpt><trkpt lat="36.956057526874" lon="15.04342599336162"><ele>369.0</ele><time>2026-04-17T08:16:41.999Z</time></trkpt><trkpt lat="36.95606321003232" lon="15.04330550581715"><ele>369.0</ele><time>2026-04-17T08:16:42.999Z</time></trkpt><trkpt lat="36.9560719529642" lon="15.043203864168554"><ele>369.0</ele><time>2026-04-17T08:16:43.999Z</time></trkpt><trkpt lat="36.95608655331893" lon="15.04312027611299"><ele>369.79999999999995</ele><time>2026-04-17T08:16:44.999Z</time></trkpt><trkpt lat="36.95609044555581" lon="15.042959938012066"><ele>370.59999999999997</ele><time>2026-04-17T08:16:46.999Z</time></trkpt><trkpt lat="36.95608258141312" lon="15.042846895026154"><ele>371.4</ele><time>2026-04-17T08:16:47.999Z</time></trkpt><trkpt lat="36.956052118491755" lon="15.04273978474067"><ele>372.2</ele><time>2026-04-17T08:16:48.999Z</time></trkpt><trkpt lat="36.95601608617462" lon="15.042649142635797"><ele>373.0</ele><time>2026-04-17T08:16:49.999Z</time></trkpt><trkpt lat="36.95596330363297" lon="15.042561647207359"><ele>373.0</ele><time>2026-04-17T08:16:50.999Z</time></trkpt><trkpt lat="36.95591546679232" lon="15.042485061483974"><ele>373.0</ele><time>2026-04-17T08:16:51.999Z</time></trkpt><trkpt lat="36.95583429102565" lon="15.042386800384385"><ele>373.0</ele><time>2026-04-17T08:16:53.999Z</time></trkpt><trkpt lat="36.9557527913414" lon="15.042335367078365"><ele>373.0</ele><time>2026-04-17T08:16:55.999Z</time></trkpt><trkpt lat="36.95567934678496" lon="15.042312893166356"><ele>373.0</ele><time>2026-04-17T08:16:57.999Z</time></trkpt><trkpt lat="36.9556081148561" lon="15.042273359176725"><ele>373.0</ele><time>2026-04-17T08:16:59.999Z</time></trkpt><trkpt lat="36.955531210063775" lon="15.042165302763284"><ele>373.79999999999995</ele><time>2026-04-17T08:17:01.999Z</time></trkpt><trkpt lat="36.95550414194144" lon="15.042081217187057"><ele>374.6</ele><time>2026-04-17T08:17:02.999Z</time></trkpt><trkpt lat="36.955479290129645" lon="15.041961963698494"><ele>375.4</ele><time>2026-04-17T08:17:03.999Z</time></trkpt><trkpt lat="36.955440057712224" lon="15.041837379155305"><ele>376.20000000000005</ele><time>2026-04-17T08:17:04.999Z</time></trkpt><trkpt lat="36.95537373937433" lon="15.041739710047452"><ele>377.0</ele><time>2026-04-17T08:17:05.999Z</time></trkpt><trkpt lat="36.955301665990284" lon="15.041651277763314"><ele>377.5</ele><time>2026-04-17T08:17:06.999Z</time></trkpt><trkpt lat="36.95524783847904" lon="15.041550087282536"><ele>378.0</ele><time>2026-04-17T08:17:07.999Z</time></trkpt><trkpt lat="36.95520686430699" lon="15.04147871915487"><ele>378.5</ele><time>2026-04-17T08:17:08.999Z</time></trkpt><trkpt lat="36.95513392994825" lon="15.04138510175626"><ele>379.0</ele><time>2026-04-17T08:17:10.998Z</time></trkpt><trkpt lat="36.955077760615296" lon="15.041296779992125"><ele>379.5</ele><time>2026-04-17T08:17:34Z</time></trkpt><trkpt lat="36.95510644129511" lon="15.041197044449017"><ele>380.0</ele><time>2026-04-17T08:17:35Z</time></trkpt><trkpt lat="36.95516230581487" lon="15.041062687282814"><ele>380.0</ele><time>2026-04-17T08:17:36Z</time></trkpt><trkpt lat="36.95520918734301" lon="15.040933330278547"><ele>380.0</ele><time>2026-04-17T08:17:37Z</time></trkpt><trkpt lat="36.95526209743715" lon="15.040779518620178"><ele>380.0</ele><time>2026-04-17T08:17:38Z</time></trkpt><trkpt lat="36.955361532546725" lon="15.040599520273469"><ele>380.0</ele><time>2026-04-17T08:17:39Z</time></trkpt><trkpt lat="36.9555157852585" lon="15.040457725984758"><ele>381.33333333333337</ele><time>2026-04-17T08:17:40Z</time></trkpt><trkpt lat="36.95566910204904" lon="15.04031129915945"><ele>382.6666666666667</ele><time>2026-04-17T08:17:41Z</time></trkpt><trkpt lat="36.95585753296071" lon="15.040170628480634"><ele>384.0</ele><time>2026-04-17T08:17:42Z</time></trkpt><trkpt lat="36.95605015605575" lon="15.040010848077586"><ele>380.5</ele><time>2026-04-17T08:17:43Z</time></trkpt><trkpt lat="36.95626323585124" lon="15.039832027446666"><ele>377.0</ele><time>2026-04-17T08:17:44Z</time></trkpt><trkpt lat="36.95646642247892" lon="15.039667722904975"><ele>377.0</ele><time>2026-04-17T08:17:45Z</time></trkpt><trkpt lat="36.956679531094274" lon="15.03949632046278"><ele>377.0</ele><time>2026-04-17T08:17:46Z</time></trkpt><trkpt lat="36.95690068722458" lon="15.03931181916495"><ele>379.0</ele><time>2026-04-17T08:17:47Z</time></trkpt><trkpt lat="36.95712273381806" lon="15.039125666889305"><ele>381.0</ele><time>2026-04-17T08:17:48Z</time></trkpt><trkpt lat="36.95733603548294" lon="15.038946091075351"><ele>381.0</ele><time>2026-04-17T08:17:49Z</time></trkpt><trkpt lat="36.95753492845805" lon="15.038782784037421"><ele>381.0</ele><time>2026-04-17T08:17:50Z</time></trkpt><trkpt lat="36.957741804034974" lon="15.038618140761303"><ele>387.0</ele><time>2026-04-17T08:17:51Z</time></trkpt><trkpt lat="36.95794854133761" lon="15.038463686693651"><ele>393.0</ele><time>2026-04-17T08:17:52Z</time></trkpt><trkpt lat="36.95813909090658" lon="15.038331105239742"><ele>393.0</ele><time>2026-04-17T08:17:53Z</time></trkpt><trkpt lat="36.95830556973821" lon="15.038211793808486"><ele>393.0</ele><time>2026-04-17T08:17:53.999Z</time></trkpt><trkpt lat="36.95847717336737" lon="15.038123221447144"><ele>393.0</ele><time>2026-04-17T08:17:54.999Z</time></trkpt><trkpt lat="36.95865530577771" lon="15.038022593927574"><ele>393.0</ele><time>2026-04-17T08:17:55.999Z</time></trkpt><trkpt lat="36.958848030543614" lon="15.037969903502352"><ele>393.0</ele><time>2026-04-17T08:17:56.999Z</time></trkpt><trkpt lat="36.95901791785679" lon="15.03792512281248"><ele>393.0</ele><time>2026-04-17T08:17:57.999Z</time></trkpt><trkpt lat="36.95918501074029" lon="15.037915035988275"><ele>394.33333333333337</ele><time>2026-04-17T08:17:58.999Z</time></trkpt><trkpt lat="36.95937305699437" lon="15.037944285604969"><ele>395.6666666666667</ele><time>2026-04-17T08:17:59.999Z</time></trkpt><trkpt lat="36.95957655871301" lon="15.037985784605599"><ele>397.0</ele><time>2026-04-17T08:18:00.999Z</time></trkpt><trkpt lat="36.95978435189607" lon="15.038020805212703"><ele>397.0</ele><time>2026-04-17T08:18:01.999Z</time></trkpt><trkpt lat="36.959988163705475" lon="15.038051440512886"><ele>397.0</ele><time>2026-04-17T08:18:02.999Z</time></trkpt><trkpt lat="36.960183570770305" lon="15.038073208105475"><ele>397.0</ele><time>2026-04-17T08:18:03.999Z</time></trkpt><trkpt lat="36.96037493498487" lon="15.038078053136298"><ele>399.33333333333337</ele><time>2026-04-17T08:18:04.999Z</time></trkpt><trkpt lat="36.96056730377746" lon="15.038034527864223"><ele>401.66666666666663</ele><time>2026-04-17T08:18:05.999Z</time></trkpt><trkpt lat="36.96074879751135" lon="15.037945443005581"><ele>404.0</ele><time>2026-04-17T08:18:06.999Z</time></trkpt><trkpt lat="36.96093549621327" lon="15.03785400012492"><ele>406.0</ele><time>2026-04-17T08:18:07.999Z</time></trkpt><trkpt lat="36.96111699654226" lon="15.037778416796153"><ele>408.0</ele><time>2026-04-17T08:18:08.999Z</time></trkpt><trkpt lat="36.961293956253265" lon="15.037705197897164"><ele>410.0</ele><time>2026-04-17T08:18:09.999Z</time></trkpt><trkpt lat="36.961468402606165" lon="15.037636660928884"><ele>410.0</ele><time>2026-04-17T08:18:10.999Z</time></trkpt><trkpt lat="36.96164067503978" lon="15.03756600785673"><ele>410.0</ele><time>2026-04-17T08:18:11.999Z</time></trkpt><trkpt lat="36.961814430190316" lon="15.037492826480623"><ele>410.0</ele><time>2026-04-17T08:18:12.999Z</time></trkpt><trkpt lat="36.96198083336622" lon="15.037420520134734"><ele>411.0</ele><time>2026-04-17T08:18:13.999Z</time></trkpt><trkpt lat="36.96214566188192" lon="15.037352181197141"><ele>412.0</ele><time>2026-04-17T08:18:14.999Z</time></trkpt><trkpt lat="36.96228903572249" lon="15.037288902893453"><ele>413.0</ele><time>2026-04-17T08:18:15.999Z</time></trkpt><trkpt lat="36.96241768741006" lon="15.037221958021775"><ele>415.0</ele><time>2026-04-17T08:18:16.999Z</time></trkpt><trkpt lat="36.96254130264574" lon="15.037126347192494"><ele>417.0</ele><time>2026-04-17T08:18:17.999Z</time></trkpt><trkpt lat="36.96264895405712" lon="15.037001051258361"><ele>419.0</ele><time>2026-04-17T08:18:18.999Z</time></trkpt><trkpt lat="36.96274170339017" lon="15.03686298660698"><ele>421.0</ele><time>2026-04-17T08:18:19.999Z</time></trkpt><trkpt lat="36.96280909312312" lon="15.036699426748399"><ele>421.33333333333337</ele><time>2026-04-17T08:18:20.999Z</time></trkpt><trkpt lat="36.962887632029776" lon="15.036521468941189"><ele>421.66666666666663</ele><time>2026-04-17T08:18:21.999Z</time></trkpt><trkpt lat="36.962977167963" lon="15.036348165885009"><ele>422.0</ele><time>2026-04-17T08:18:22.999Z</time></trkpt><trkpt lat="36.96306287183813" lon="15.036172015110882"><ele>422.0</ele><time>2026-04-17T08:18:23.999Z</time></trkpt><trkpt lat="36.96314791883821" lon="15.035996540052235"><ele>422.0</ele><time>2026-04-17T08:18:24.999Z</time></trkpt><trkpt lat="36.96323041025062" lon="15.035824985591624"><ele>422.0</ele><time>2026-04-17T08:18:25.999Z</time></trkpt><trkpt lat="36.96331352635865" lon="15.035663777959748"><ele>425.0</ele><time>2026-04-17T08:18:26.999Z</time></trkpt><trkpt lat="36.96340603530437" lon="15.035478600438102"><ele>428.0</ele><time>2026-04-17T08:18:27.999Z</time></trkpt><trkpt lat="36.96349732498359" lon="15.035287419889615"><ele>431.0</ele><time>2026-04-17T08:18:28.999Z</time></trkpt><trkpt lat="36.96359515347662" lon="15.035090198691865"><ele>431.0</ele><time>2026-04-17T08:18:29.999Z</time></trkpt><trkpt lat="36.96369319626259" lon="15.03489530424748"><ele>431.0</ele><time>2026-04-17T08:18:30.999Z</time></trkpt><trkpt lat="36.963788057598144" lon="15.034723308473499"><ele>431.0</ele><time>2026-04-17T08:18:31.999Z</time></trkpt><trkpt lat="36.963890447798846" lon="15.03457394599668"><ele>431.0</ele><time>2026-04-17T08:18:32.999Z</time></trkpt><trkpt lat="36.963999220518296" lon="15.03443542741833"><ele>431.0</ele><time>2026-04-17T08:18:33.999Z</time></trkpt><trkpt lat="36.96410220854956" lon="15.034304080317249"><ele>431.0</ele><time>2026-04-17T08:18:34.999Z</time></trkpt><trkpt lat="36.96421173009419" lon="15.034179916788421"><ele>432.0</ele><time>2026-04-17T08:18:35.999Z</time></trkpt><trkpt lat="36.96432219984158" lon="15.03406276501195"><ele>433.0</ele><time>2026-04-17T08:18:36.999Z</time></trkpt><trkpt lat="36.96443527235142" lon="15.033964030252479"><ele>434.0</ele><time>2026-04-17T08:18:37.999Z</time></trkpt><trkpt lat="36.96456451203633" lon="15.0339140189032"><ele>435.0</ele><time>2026-04-17T08:18:38.999Z</time></trkpt><trkpt lat="36.964701912839836" lon="15.033916473062689"><ele>435.0</ele><time>2026-04-17T08:18:39.999Z</time></trkpt><trkpt lat="36.96482824226106" lon="15.033960842427742"><ele>435.0</ele><time>2026-04-17T08:18:40.999Z</time></trkpt><trkpt lat="36.96496050618057" lon="15.034020055570144"><ele>435.0</ele><time>2026-04-17T08:18:41.999Z</time></trkpt><trkpt lat="36.96508451657189" lon="15.034072309195793"><ele>435.0</ele><time>2026-04-17T08:18:42.999Z</time></trkpt><trkpt lat="36.96519640081014" lon="15.034120951917457"><ele>435.75</ele><time>2026-04-17T08:18:43.999Z</time></trkpt><trkpt lat="36.96530309806969" lon="15.034166351556063"><ele>436.5</ele><time>2026-04-17T08:18:44.999Z</time></trkpt><trkpt lat="36.96542643899457" lon="15.034217108622862"><ele>437.25</ele><time>2026-04-17T08:18:45.999Z</time></trkpt><trkpt lat="36.965547514081926" lon="15.034264143669347"><ele>438.0</ele><time>2026-04-17T08:18:46.999Z</time></trkpt><trkpt lat="36.96564961228253" lon="15.034305470546453"><ele>438.0</ele><time>2026-04-17T08:18:47.999Z</time></trkpt><trkpt lat="36.96573217181125" lon="15.034342123840561"><ele>438.0</ele><time>2026-04-17T08:18:48.999Z</time></trkpt><trkpt lat="36.965802170611965" lon="15.034376114777743"><ele>438.0</ele><time>2026-04-17T08:18:49.999Z</time></trkpt><trkpt lat="36.96588247963221" lon="15.034442420956916"><ele>438.0</ele><time>2026-04-17T08:18:51.999Z</time></trkpt><trkpt lat="36.96581200474235" lon="15.034414735996805"><ele>438.0</ele><time>2026-04-17T08:31:58Z</time></trkpt><trkpt lat="36.96579718481186" lon="15.034323014938948"><ele>438.0</ele><time>2026-04-17T08:32:01Z</time></trkpt><trkpt lat="36.965665809362164" lon="15.03425392056936"><ele>438.0</ele><time>2026-04-17T08:32:03Z</time></trkpt><trkpt lat="36.96558614192009" lon="15.0342279062996"><ele>437.99999999999994</ele><time>2026-04-17T08:32:04Z</time></trkpt><trkpt lat="36.965482821656344" lon="15.03418642075536"><ele>437.99999999999994</ele><time>2026-04-17T08:32:05Z</time></trkpt><trkpt lat="36.96537724429661" lon="15.034142230759269"><ele>438.0</ele><time>2026-04-17T08:32:06Z</time></trkpt><trkpt lat="36.965266558227285" lon="15.034097898911401"><ele>438.0</ele><time>2026-04-17T08:32:07Z</time></trkpt><trkpt lat="36.96514281129069" lon="15.034041966057957"><ele>437.25</ele><time>2026-04-17T08:32:08Z</time></trkpt><trkpt lat="36.96501377925296" lon="15.03398485596103"><ele>436.5</ele><time>2026-04-17T08:32:09Z</time></trkpt><trkpt lat="36.964885893277945" lon="15.033938059450877"><ele>435.75</ele><time>2026-04-17T08:32:10Z</time></trkpt><trkpt lat="36.96476899559356" lon="15.033889744969041"><ele>435.0</ele><time>2026-04-17T08:32:11Z</time></trkpt><trkpt lat="36.96464618523146" lon="15.033865795376416"><ele>435.0</ele><time>2026-04-17T08:32:12Z</time></trkpt><trkpt lat="36.96449929570872" lon="15.033898650193233"><ele>435.0</ele><time>2026-04-17T08:32:13Z</time></trkpt><trkpt lat="36.964364866372776" lon="15.03398150963887"><ele>435.0</ele><time>2026-04-17T08:32:14Z</time></trkpt><trkpt lat="36.964232017159404" lon="15.034121821606801"><ele>433.66666666666663</ele><time>2026-04-17T08:32:15Z</time></trkpt><trkpt lat="36.964092525693815" lon="15.034284734167894"><ele>432.3333333333333</ele><time>2026-04-17T08:32:16Z</time></trkpt><trkpt lat="36.9639546126014" lon="15.034451022681285"><ele>431.0</ele><time>2026-04-17T08:32:17Z</time></trkpt><trkpt lat="36.963828707483685" lon="15.034620241249142"><ele>431.0</ele><time>2026-04-17T08:32:18Z</time></trkpt><trkpt lat="36.96372106059554" lon="15.034805707129314"><ele>431.0</ele><time>2026-04-17T08:32:19Z</time></trkpt><trkpt lat="36.96362015431618" lon="15.035004115393367"><ele>431.0</ele><time>2026-04-17T08:32:20Z</time></trkpt><trkpt lat="36.96352089675599" lon="15.035201559647383"><ele>431.0</ele><time>2026-04-17T08:32:21Z</time></trkpt><trkpt lat="36.96342254452758" lon="15.035406940565226"><ele>431.0</ele><time>2026-04-17T08:32:22Z</time></trkpt><trkpt lat="36.96332652195752" lon="15.035604167908062"><ele>431.0</ele><time>2026-04-17T08:32:23Z</time></trkpt><trkpt lat="36.96323715349554" lon="15.035791305256271"><ele>428.0</ele><time>2026-04-17T08:32:24Z</time></trkpt><trkpt lat="36.963148071636994" lon="15.035969181816764"><ele>425.0</ele><time>2026-04-17T08:32:25Z</time></trkpt><trkpt lat="36.963064157216216" lon="15.036141563808695"><ele>422.0</ele><time>2026-04-17T08:32:26Z</time></trkpt><trkpt lat="36.962981849509674" lon="15.036310464300513"><ele>422.0</ele><time>2026-04-17T08:32:27Z</time></trkpt><trkpt lat="36.962898411857296" lon="15.036480863563497"><ele>422.0</ele><time>2026-04-17T08:32:28Z</time></trkpt><trkpt lat="36.962813430218226" lon="15.036650383914445"><ele>422.0</ele><time>2026-04-17T08:32:29Z</time></trkpt><trkpt lat="36.96273071173365" lon="15.036819394571893"><ele>421.75</ele><time>2026-04-17T08:32:30Z</time></trkpt><trkpt lat="36.96264020864155" lon="15.036967467860666"><ele>421.5</ele><time>2026-04-17T08:32:31Z</time></trkpt><trkpt lat="36.96253515940819" lon="15.037089898327409"><ele>421.25</ele><time>2026-04-17T08:32:32Z</time></trkpt><trkpt lat="36.96239827623135" lon="15.03718240860593"><ele>421.0</ele><time>2026-04-17T08:32:33Z</time></trkpt><trkpt lat="36.962234428904154" lon="15.037268193749695"><ele>418.33333333333337</ele><time>2026-04-17T08:32:34Z</time></trkpt><trkpt lat="36.96205386408845" lon="15.03734254816106"><ele>415.66666666666663</ele><time>2026-04-17T08:32:35Z</time></trkpt><trkpt lat="36.96187390743824" lon="15.037416540434132"><ele>413.0</ele><time>2026-04-17T08:32:36Z</time></trkpt><trkpt lat="36.96169499798991" lon="15.037492372105072"><ele>412.0</ele><time>2026-04-17T08:32:37Z</time></trkpt><trkpt lat="36.96151383300017" lon="15.037572631974582"><ele>411.0</ele><time>2026-04-17T08:32:38Z</time></trkpt><trkpt lat="36.96133671947932" lon="15.037645012344642"><ele>410.0</ele><time>2026-04-17T08:32:39Z</time></trkpt><trkpt lat="36.96115430099943" lon="15.037721693844984"><ele>410.0</ele><time>2026-04-17T08:32:40Z</time></trkpt><trkpt lat="36.96096898166281" lon="15.037797123999786"><ele>410.0</ele><time>2026-04-17T08:32:41Z</time></trkpt><trkpt lat="36.960791174378436" lon="15.037876462531072"><ele>410.0</ele><time>2026-04-17T08:32:41.999Z</time></trkpt><trkpt lat="36.960614325151745" lon="15.037948710610891"><ele>408.0</ele><time>2026-04-17T08:32:42.999Z</time></trkpt><trkpt lat="36.96044365201104" lon="15.03801396301005"><ele>406.0</ele><time>2026-04-17T08:32:43.999Z</time></trkpt><trkpt lat="36.96027887327822" lon="15.038032271839526"><ele>404.0</ele><time>2026-04-17T08:32:44.999Z</time></trkpt><trkpt lat="36.96011716018158" lon="15.038023199804245"><ele>401.66666666666663</ele><time>2026-04-17T08:32:45.999Z</time></trkpt><trkpt lat="36.959959465928684" lon="15.038000572140458"><ele>399.33333333333337</ele><time>2026-04-17T08:32:46.999Z</time></trkpt><trkpt lat="36.95980180842338" lon="15.037970247002596"><ele>397.0</ele><time>2026-04-17T08:32:47.999Z</time></trkpt><trkpt lat="36.95964169890687" lon="15.037948611796613"><ele>397.0</ele><time>2026-04-17T08:32:48.999Z</time></trkpt><trkpt lat="36.95947499482487" lon="15.03792107499578"><ele>397.0</ele><time>2026-04-17T08:32:49.999Z</time></trkpt><trkpt lat="36.959316657895975" lon="15.037893904884726"><ele>397.0</ele><time>2026-04-17T08:32:50.999Z</time></trkpt><trkpt lat="36.959156126644864" lon="15.037874828355056"><ele>395.6666666666667</ele><time>2026-04-17T08:32:51.999Z</time></trkpt><trkpt lat="36.958990826980525" lon="15.037878088579351"><ele>394.33333333333337</ele><time>2026-04-17T08:32:52.999Z</time></trkpt><trkpt lat="36.958813091102655" lon="15.03792730578269"><ele>393.0</ele><time>2026-04-17T08:32:53.999Z</time></trkpt><trkpt lat="36.95863991268013" lon="15.03800362623345"><ele>393.0</ele><time>2026-04-17T08:32:54.999Z</time></trkpt><trkpt lat="36.95846983386545" lon="15.038093804449096"><ele>393.0</ele><time>2026-04-17T08:32:55.999Z</time></trkpt><trkpt lat="36.958298510497414" lon="15.038200517729582"><ele>393.0</ele><time>2026-04-17T08:32:56.999Z</time></trkpt><trkpt lat="36.95812796448636" lon="15.038319241022778"><ele>393.0</ele><time>2026-04-17T08:32:57.999Z</time></trkpt><trkpt lat="36.957956804569925" lon="15.038443938233181"><ele>393.0</ele><time>2026-04-17T08:32:58.999Z</time></trkpt><trkpt lat="36.957782959281786" lon="15.038574787037149"><ele>393.0</ele><time>2026-04-17T08:32:59.999Z</time></trkpt><trkpt lat="36.95761078788697" lon="15.038710161634908"><ele>389.0</ele><time>2026-04-17T08:33:00.999Z</time></trkpt><trkpt lat="36.95744111116165" lon="15.038840330997301"><ele>385.0</ele><time>2026-04-17T08:33:01.999Z</time></trkpt><trkpt lat="36.957276819463814" lon="15.03896971579604"><ele>381.0</ele><time>2026-04-17T08:33:02.999Z</time></trkpt><trkpt lat="36.95711070124875" lon="15.039104563829918"><ele>379.6666666666667</ele><time>2026-04-17T08:33:03.999Z</time></trkpt><trkpt lat="36.95693984259974" lon="15.039243532736464"><ele>378.33333333333337</ele><time>2026-04-17T08:33:04.999Z</time></trkpt><trkpt lat="36.956760451060504" lon="15.039384492998717"><ele>377.0</ele><time>2026-04-17T08:33:05.999Z</time></trkpt><trkpt lat="36.95658055863521" lon="15.039529145203375"><ele>377.0</ele><time>2026-04-17T08:33:06.999Z</time></trkpt><trkpt lat="36.956400637530756" lon="15.039680304504534"><ele>377.0</ele><time>2026-04-17T08:33:07.999Z</time></trkpt><trkpt lat="36.956222239233874" lon="15.039828544228639"><ele>377.0</ele><time>2026-04-17T08:33:08.999Z</time></trkpt><trkpt lat="36.956052084659184" lon="15.039972104136949"><ele>375.33333333333337</ele><time>2026-04-17T08:33:09.999Z</time></trkpt><trkpt lat="36.95588755254109" lon="15.040110902026795"><ele>373.6666666666667</ele><time>2026-04-17T08:33:10.999Z</time></trkpt><trkpt lat="36.95572091831398" lon="15.040237609059941"><ele>372.0</ele><time>2026-04-17T08:33:11.999Z</time></trkpt><trkpt lat="36.955565214645404" lon="15.040365146731073"><ele>372.0</ele><time>2026-04-17T08:33:12.999Z</time></trkpt><trkpt lat="36.955420342460435" lon="15.040496534738034"><ele>372.0</ele><time>2026-04-17T08:33:13.999Z</time></trkpt><trkpt lat="36.95530118807638" lon="15.040654484249036"><ele>372.0</ele><time>2026-04-17T08:33:14.999Z</time></trkpt><trkpt lat="36.95522238405053" lon="15.040845451782973"><ele>369.6666666666667</ele><time>2026-04-17T08:33:15.999Z</time></trkpt><trkpt lat="36.95515160480278" lon="15.041040037463244"><ele>367.33333333333337</ele><time>2026-04-17T08:33:16.999Z</time></trkpt><trkpt lat="36.95508969624872" lon="15.041237924222495"><ele>365.0</ele><time>2026-04-17T08:33:17.999Z</time></trkpt><trkpt lat="36.955032555339905" lon="15.04142602680986"><ele>365.0</ele><time>2026-04-17T08:33:18.999Z</time></trkpt><trkpt lat="36.954932488876985" lon="15.041576574229435"><ele>365.0</ele><time>2026-04-17T08:33:19.999Z</time></trkpt><trkpt lat="36.9547960530048" lon="15.04167951170723"><ele>365.0</ele><time>2026-04-17T08:33:20.999Z</time></trkpt><trkpt lat="36.95465709226197" lon="15.041799733185327"><ele>364.6666666666667</ele><time>2026-04-17T08:33:21.999Z</time></trkpt><trkpt lat="36.954522832125576" lon="15.041918738669242"><ele>364.3333333333333</ele><time>2026-04-17T08:33:22.999Z</time></trkpt><trkpt lat="36.95439394289802" lon="15.042026846440672"><ele>364.0</ele><time>2026-04-17T08:33:23.999Z</time></trkpt><trkpt lat="36.95427135412016" lon="15.04212821020376"><ele>363.25</ele><time>2026-04-17T08:33:24.999Z</time></trkpt><trkpt lat="36.954156811409064" lon="15.042232112428167"><ele>362.5</ele><time>2026-04-17T08:33:25.999Z</time></trkpt><trkpt lat="36.95405203103463" lon="15.042333893272174"><ele>361.75</ele><time>2026-04-17T08:33:26.999Z</time></trkpt><trkpt lat="36.95395466203464" lon="15.042432371521105"><ele>361.0</ele><time>2026-04-17T08:33:27.999Z</time></trkpt><trkpt lat="36.95386746632318" lon="15.042533719956676"><ele>361.0</ele><time>2026-04-17T08:33:28.999Z</time></trkpt><trkpt lat="36.95379849170583" lon="15.04264198471861"><ele>361.0</ele><time>2026-04-17T08:33:29.999Z</time></trkpt><trkpt lat="36.9537397868751" lon="15.042748535270656"><ele>361.0</ele><time>2026-04-17T08:33:30.999Z</time></trkpt><trkpt lat="36.95368492212737" lon="15.042845501096627"><ele>361.0</ele><time>2026-04-17T08:33:31.999Z</time></trkpt><trkpt lat="36.95363143449259" lon="15.042934208362833"><ele>361.0</ele><time>2026-04-17T08:33:32.999Z</time></trkpt><trkpt lat="36.95357750018834" lon="15.043020281807825"><ele>361.0</ele><time>2026-04-17T08:33:33.999Z</time></trkpt><trkpt lat="36.953523691809536" lon="15.043109593943502"><ele>361.0</ele><time>2026-04-17T08:33:34.999Z</time></trkpt><trkpt lat="36.95346950758214" lon="15.04319758659009"><ele>361.0</ele><time>2026-04-17T08:33:35.999Z</time></trkpt><trkpt lat="36.95341723176963" lon="15.04327906688828"><ele>361.0</ele><time>2026-04-17T08:33:36.999Z</time></trkpt><trkpt lat="36.95336188651955" lon="15.043366567019248"><ele>361.0</ele><time>2026-04-17T08:33:37.999Z</time></trkpt><trkpt lat="36.95329700395073" lon="15.043467576087531"><ele>361.20000000000005</ele><time>2026-04-17T08:33:38.999Z</time></trkpt><trkpt lat="36.95322938036351" lon="15.043576194456147"><ele>361.40000000000003</ele><time>2026-04-17T08:33:39.999Z</time></trkpt><trkpt lat="36.953163636962394" lon="15.043683100864223"><ele>361.6</ele><time>2026-04-17T08:33:40.999Z</time></trkpt><trkpt lat="36.953101153510595" lon="15.043786957495131"><ele>361.8</ele><time>2026-04-17T08:33:41.999Z</time></trkpt><trkpt lat="36.95304706217526" lon="15.043880908587768"><ele>362.0</ele><time>2026-04-17T08:33:42.999Z</time></trkpt><trkpt lat="36.95299462571809" lon="15.04397358528852"><ele>362.0</ele><time>2026-04-17T08:33:43.999Z</time></trkpt><trkpt lat="36.95294450178149" lon="15.044058419652693"><ele>362.0</ele><time>2026-04-17T08:33:44.999Z</time></trkpt><trkpt lat="36.95289373109568" lon="15.044140043820638"><ele>362.0</ele><time>2026-04-17T08:33:45.999Z</time></trkpt><trkpt lat="36.95284003734981" lon="15.044221833436888"><ele>362.0</ele><time>2026-04-17T08:33:46.999Z</time></trkpt><trkpt lat="36.95278418482361" lon="15.044306614482753"><ele>362.0</ele><time>2026-04-17T08:33:47.999Z</time></trkpt><trkpt lat="36.95272868082625" lon="15.044395499147486"><ele>362.0</ele><time>2026-04-17T08:33:48.999Z</time></trkpt><trkpt lat="36.9526740477959" lon="15.044487533636884"><ele>361.6</ele><time>2026-04-17T08:33:49.999Z</time></trkpt><trkpt lat="36.95261683063743" lon="15.044585719001871"><ele>361.20000000000005</ele><time>2026-04-17T08:33:50.999Z</time></trkpt><trkpt lat="36.95255394085404" lon="15.04468822346629"><ele>360.8</ele><time>2026-04-17T08:33:51.999Z</time></trkpt><trkpt lat="36.95249015555919" lon="15.044789187735473"><ele>360.4</ele><time>2026-04-17T08:33:52.999Z</time></trkpt><trkpt lat="36.952435482106466" lon="15.044885851980132"><ele>360.0</ele><time>2026-04-17T08:33:53.999Z</time></trkpt><trkpt lat="36.95238214316159" lon="15.044973645059848"><ele>360.8</ele><time>2026-04-17T08:33:54.999Z</time></trkpt><trkpt lat="36.95233395998992" lon="15.04505446325068"><ele>361.6</ele><time>2026-04-17T08:33:55.999Z</time></trkpt><trkpt lat="36.95229010647735" lon="15.04512771425537"><ele>362.4</ele><time>2026-04-17T08:33:56.999Z</time></trkpt><trkpt lat="36.952226534486925" lon="15.045232147058556"><ele>363.2</ele><time>2026-04-17T08:33:58.999Z</time></trkpt><trkpt lat="36.95215975431844" lon="15.04524093242789"><ele>364.0</ele><time>2026-04-17T08:34:01.999Z</time></trkpt><trkpt lat="36.95208112959801" lon="15.045114056970247"><ele>364.0</ele><time>2026-04-17T08:34:04.999Z</time></trkpt><trkpt lat="36.95199658727292" lon="15.045012915337944"><ele>364.0</ele><time>2026-04-17T08:34:07Z</time></trkpt><trkpt lat="36.95194810135192" lon="15.044922659266803"><ele>364.0</ele><time>2026-04-17T08:34:09Z</time></trkpt><trkpt lat="36.95189874144244" lon="15.044850853583123"><ele>364.0</ele><time>2026-04-17T08:34:11Z</time></trkpt><trkpt lat="36.951831701485254" lon="15.04486550790792"><ele>364.0</ele><time>2026-04-17T08:34:13Z</time></trkpt><trkpt lat="36.9517874349692" lon="15.044938201172357"><ele>364.0</ele><time>2026-04-17T08:34:15Z</time></trkpt><trkpt lat="36.951693357533166" lon="15.044993632652318"><ele>364.3333333333333</ele><time>2026-04-17T08:34:17Z</time></trkpt><trkpt lat="36.951610347198745" lon="15.045038840315444"><ele>364.66666666666663</ele><time>2026-04-17T08:34:19Z</time></trkpt><trkpt lat="36.9515420976961" lon="15.045041134922752"><ele>365.0</ele><time>2026-04-17T08:34:21Z</time></trkpt><trkpt lat="36.951465271676696" lon="15.045067150768102"><ele>365.3333333333333</ele><time>2026-04-17T08:34:23Z</time></trkpt><trkpt lat="36.95138278928619" lon="15.045137769568163"><ele>365.6666666666667</ele><time>2026-04-17T08:34:25Z</time></trkpt><trkpt lat="36.95132326137061" lon="15.045182391619552"><ele>366.0</ele><time>2026-04-17T08:34:27Z</time></trkpt><trkpt lat="36.951255635518756" lon="15.045218594517342"><ele>366.0</ele><time>2026-04-17T08:34:29Z</time></trkpt><trkpt lat="36.951179458271405" lon="15.045232940955847"><ele>366.0</ele><time>2026-04-17T08:34:31Z</time></trkpt><trkpt lat="36.95110535038001" lon="15.045231081268506"><ele>366.0</ele><time>2026-04-17T08:34:33Z</time></trkpt><trkpt lat="36.95103615427315" lon="15.045195806628339"><ele>366.0</ele><time>2026-04-17T08:34:36Z</time></trkpt><trkpt lat="36.95101443392714" lon="15.045117115654513"><ele>366.0</ele><time>2026-04-17T08:34:39Z</time></trkpt><trkpt lat="36.95094079928175" lon="15.045082836229298"><ele>366.0</ele><time>2026-04-17T08:34:41.999Z</time></trkpt><trkpt lat="36.950861282632395" lon="15.045039185956245"><ele>364.6666666666667</ele><time>2026-04-17T08:34:44.999Z</time></trkpt><trkpt lat="36.950799074768504" lon="15.044969074549801"><ele>363.3333333333333</ele><time>2026-04-17T08:34:47.999Z</time></trkpt><trkpt lat="36.95075890150998" lon="15.044882554916018"><ele>362.0</ele><time>2026-04-17T08:34:50.999Z</time></trkpt><trkpt lat="36.95067819971709" lon="15.044839628779886"><ele>360.66666666666663</ele><time>2026-04-17T08:34:53.999Z</time></trkpt><trkpt lat="36.95058692072064" lon="15.044836913509332"><ele>359.3333333333333</ele><time>2026-04-17T08:34:56.999Z</time></trkpt><trkpt lat="36.9505264849527" lon="15.0448140049728"><ele>358.0</ele><time>2026-04-17T08:34:58.999Z</time></trkpt><trkpt lat="36.95045158250172" lon="15.04481544403499"><ele>357.0</ele><time>2026-04-17T08:35:00.999Z</time></trkpt><trkpt lat="36.95036931637392" lon="15.044817548888105"><ele>356.0</ele><time>2026-04-17T08:35:02.999Z</time></trkpt><trkpt lat="36.95028341907288" lon="15.044825700148534"><ele>355.0</ele><time>2026-04-17T08:35:05.999Z</time></trkpt><trkpt lat="36.950201180501615" lon="15.044842600559164"><ele>354.0</ele><time>2026-04-17T08:35:08.999Z</time></trkpt><trkpt lat="36.95013366294064" lon="15.044835173661461"><ele>353.0</ele><time>2026-04-17T08:35:10.999Z</time></trkpt><trkpt lat="36.950060210851696" lon="15.04484425653639"><ele>352.0</ele><time>2026-04-17T08:35:13.999Z</time></trkpt><trkpt lat="36.94999665567956" lon="15.044789048363395"><ele>351.2857142857143</ele><time>2026-04-17T08:35:16.999Z</time></trkpt><trkpt lat="36.94998305319967" lon="15.04470965208552"><ele>350.57142857142856</ele><time>2026-04-17T08:35:18.999Z</time></trkpt><trkpt lat="36.95000650360836" lon="15.044631850204505"><ele>349.8571428571429</ele><time>2026-04-17T08:35:20.999Z</time></trkpt><trkpt lat="36.95000207843868" lon="15.044523891724927"><ele>349.1428571428571</ele><time>2026-04-17T08:35:23.999Z</time></trkpt><trkpt lat="36.94998931614151" lon="15.044425082535117"><ele>348.4285714285714</ele><time>2026-04-17T08:35:26.999Z</time></trkpt><trkpt lat="36.9500026112361" lon="15.044342668571241"><ele>347.7142857142857</ele><time>2026-04-17T08:35:29.999Z</time></trkpt><trkpt lat="36.95001199262949" lon="15.044253351665741"><ele>347.0</ele><time>2026-04-17T08:35:32.999Z</time></trkpt><trkpt lat="36.949999523104225" lon="15.044162627533732"><ele>346.40000000000003</ele><time>2026-04-17T08:35:35.999Z</time></trkpt><trkpt lat="36.95002039117511" lon="15.044055066709962"><ele>345.8</ele><time>2026-04-17T08:35:38.999Z</time></trkpt><trkpt lat="36.95001053693989" lon="15.043970258900282"><ele>345.2</ele><time>2026-04-17T08:35:40.999Z</time></trkpt><trkpt lat="36.95000405146498" lon="15.043817360822485"><ele>344.6</ele><time>2026-04-17T08:35:42.999Z</time></trkpt><trkpt lat="36.9499950314696" lon="15.043716092877535"><ele>344.0</ele><time>2026-04-17T08:35:43.999Z</time></trkpt><trkpt lat="36.949990175390006" lon="15.043570926425874"><ele>344.0</ele><time>2026-04-17T08:35:44.999Z</time></trkpt><trkpt lat="36.94998829842283" lon="15.04344177862929"><ele>344.0</ele><time>2026-04-17T08:35:45.999Z</time></trkpt><trkpt lat="36.949994521334034" lon="15.043293980480296"><ele>344.0</ele><time>2026-04-17T08:35:46.999Z</time></trkpt><trkpt lat="36.95000927588833" lon="15.043115712083791"><ele>344.0</ele><time>2026-04-17T08:35:47.999Z</time></trkpt><trkpt lat="36.9500276827111" lon="15.042929917065043"><ele>344.5</ele><time>2026-04-17T08:35:48.999Z</time></trkpt><trkpt lat="36.950041297920755" lon="15.042764795209989"><ele>345.0</ele><time>2026-04-17T08:35:49.999Z</time></trkpt><trkpt lat="36.95004955742834" lon="15.042607303571549"><ele>345.5</ele><time>2026-04-17T08:35:50.999Z</time></trkpt><trkpt lat="36.950059540580945" lon="15.042444372987172"><ele>346.0</ele><time>2026-04-17T08:35:51.999Z</time></trkpt><trkpt lat="36.95007337433958" lon="15.042271944866847"><ele>347.25</ele><time>2026-04-17T08:35:52.999Z</time></trkpt><trkpt lat="36.950087050898944" lon="15.042099937612697"><ele>348.5</ele><time>2026-04-17T08:35:53.999Z</time></trkpt><trkpt lat="36.950102298977804" lon="15.041926339209375"><ele>349.75</ele><time>2026-04-17T08:35:54.999Z</time></trkpt><trkpt lat="36.950113860744814" lon="15.041777368138721"><ele>351.0</ele><time>2026-04-17T08:35:55.999Z</time></trkpt><trkpt lat="36.95010972994339" lon="15.041637325945795"><ele>351.25</ele><time>2026-04-17T08:35:56.999Z</time></trkpt><trkpt lat="36.950110211482475" lon="15.041474629503984"><ele>351.5</ele><time>2026-04-17T08:35:57.999Z</time></trkpt><trkpt lat="36.95009905136703" lon="15.041300926614824"><ele>351.75</ele><time>2026-04-17T08:35:58.999Z</time></trkpt><trkpt lat="36.950086662412225" lon="15.041132189220003"><ele>352.0</ele><time>2026-04-17T08:35:59.999Z</time></trkpt><trkpt lat="36.95007888575873" lon="15.04096957169025"><ele>352.0</ele><time>2026-04-17T08:36:00.999Z</time></trkpt><trkpt lat="36.95006725951732" lon="15.04081939616678"><ele>352.0</ele><time>2026-04-17T08:36:01.999Z</time></trkpt><trkpt lat="36.950055801011175" lon="15.040677802146314"><ele>352.0</ele><time>2026-04-17T08:36:02.999Z</time></trkpt><trkpt lat="36.950015505827096" lon="15.040556549203892"><ele>352.0</ele><time>2026-04-17T08:36:03.999Z</time></trkpt><trkpt lat="36.949960785946644" lon="15.040437887130649"><ele>352.0</ele><time>2026-04-17T08:36:04.999Z</time></trkpt><trkpt lat="36.9499019560184" lon="15.04030179499203"><ele>351.25</ele><time>2026-04-17T08:36:05.999Z</time></trkpt><trkpt lat="36.94984217976754" lon="15.040162457528295"><ele>350.5</ele><time>2026-04-17T08:36:06.999Z</time></trkpt><trkpt lat="36.94978853229669" lon="15.040029194859876"><ele>349.75</ele><time>2026-04-17T08:36:08Z</time></trkpt><trkpt lat="36.949735965139126" lon="15.039900714099563"><ele>349.0</ele><time>2026-04-17T08:36:09Z</time></trkpt><trkpt lat="36.94968243479981" lon="15.03978225995943"><ele>348.5</ele><time>2026-04-17T08:36:10Z</time></trkpt><trkpt lat="36.949625985115425" lon="15.03967658863177"><ele>348.0</ele><time>2026-04-17T08:36:11Z</time></trkpt><trkpt lat="36.94958685763067" lon="15.039580153287421"><ele>347.5</ele><time>2026-04-17T08:36:12Z</time></trkpt><trkpt lat="36.949578307952706" lon="15.039488656624892"><ele>347.0</ele><time>2026-04-17T08:36:13Z</time></trkpt><trkpt lat="36.94960195711526" lon="15.039398561586044"><ele>346.5</ele><time>2026-04-17T08:36:14Z</time></trkpt><trkpt lat="36.94963896843199" lon="15.039315301768754"><ele>346.0</ele><time>2026-04-17T08:36:15Z</time></trkpt><trkpt lat="36.949655662986416" lon="15.039210096140808"><ele>346.3333333333333</ele><time>2026-04-17T08:36:16Z</time></trkpt><trkpt lat="36.949655376667295" lon="15.039101630721062"><ele>346.66666666666663</ele><time>2026-04-17T08:36:17Z</time></trkpt><trkpt lat="36.949645233149994" lon="15.039009846104113"><ele>347.0</ele><time>2026-04-17T08:36:18Z</time></trkpt><trkpt lat="36.949625531088735" lon="15.038884788466886"><ele>347.3333333333333</ele><time>2026-04-17T08:36:20Z</time></trkpt><trkpt lat="36.94952748264999" lon="15.03887213557679"><ele>347.6666666666667</ele><time>2026-04-17T08:36:57.999Z</time></trkpt><trkpt lat="36.94944803832088" lon="15.038888526446557"><ele>348.0</ele><time>2026-04-17T08:36:58.999Z</time></trkpt><trkpt lat="36.94934967718278" lon="15.038919120263543"><ele>348.0</ele><time>2026-04-17T08:36:59.999Z</time></trkpt><trkpt lat="36.94926235576525" lon="15.038897072797672"><ele>348.0</ele><time>2026-04-17T08:37:00.999Z</time></trkpt><trkpt lat="36.949178015487696" lon="15.038860370474895"><ele>348.0</ele><time>2026-04-17T08:37:01.999Z</time></trkpt><trkpt lat="36.94910473957046" lon="15.03882931409604"><ele>348.0</ele><time>2026-04-17T08:37:02.999Z</time></trkpt><trkpt lat="36.94901191982833" lon="15.038798539780988"><ele>348.0</ele><time>2026-04-17T08:37:03.999Z</time></trkpt><trkpt lat="36.94890812298419" lon="15.038770367334426"><ele>347.0</ele><time>2026-04-17T08:37:04.999Z</time></trkpt><trkpt lat="36.94878246166701" lon="15.038728026116974"><ele>346.0</ele><time>2026-04-17T08:37:05.999Z</time></trkpt><trkpt lat="36.948654253061854" lon="15.038697378991728"><ele>345.0</ele><time>2026-04-17T08:37:06.999Z</time></trkpt><trkpt lat="36.94852472719538" lon="15.03867175950905"><ele>344.0</ele><time>2026-04-17T08:37:07.999Z</time></trkpt><trkpt lat="36.94840602190144" lon="15.038637760818949"><ele>344.0</ele><time>2026-04-17T08:37:08.999Z</time></trkpt><trkpt lat="36.948279159615886" lon="15.038629289099578"><ele>344.0</ele><time>2026-04-17T08:37:09.999Z</time></trkpt><trkpt lat="36.9481487699336" lon="15.038631989519642"><ele>344.0</ele><time>2026-04-17T08:37:10.999Z</time></trkpt><trkpt lat="36.9480215832268" lon="15.038670239314097"><ele>344.0</ele><time>2026-04-17T08:37:11.999Z</time></trkpt><trkpt lat="36.94790361014724" lon="15.038747611003581"><ele>344.0</ele><time>2026-04-17T08:37:12.999Z</time></trkpt><trkpt lat="36.94776346622854" lon="15.038792906992704"><ele>344.0</ele><time>2026-04-17T08:37:13.999Z</time></trkpt><trkpt lat="36.94763476342267" lon="15.03885039194708"><ele>344.0</ele><time>2026-04-17T08:37:14.999Z</time></trkpt><trkpt lat="36.947524401290586" lon="15.038912545913456"><ele>344.0</ele><time>2026-04-17T08:37:15.999Z</time></trkpt><trkpt lat="36.947410791056434" lon="15.03897232574088"><ele>344.5</ele><time>2026-04-17T08:37:16.999Z</time></trkpt><trkpt lat="36.94733125108549" lon="15.039096046622396"><ele>345.0</ele><time>2026-04-17T08:37:17.999Z</time></trkpt><trkpt lat="36.94723779007067" lon="15.039175788964373"><ele>345.5</ele><time>2026-04-17T08:37:18.999Z</time></trkpt><trkpt lat="36.94713495679782" lon="15.039229070393452"><ele>346.0</ele><time>2026-04-17T08:37:19.999Z</time></trkpt><trkpt lat="36.94700341288674" lon="15.039298308413123"><ele>347.0</ele><time>2026-04-17T08:37:20.999Z</time></trkpt><trkpt lat="36.94686507860288" lon="15.039387304663"><ele>348.0</ele><time>2026-04-17T08:37:21.999Z</time></trkpt><trkpt lat="36.94672801332654" lon="15.039458465820875"><ele>349.0</ele><time>2026-04-17T08:37:22.999Z</time></trkpt><trkpt lat="36.946592803942266" lon="15.03952171973514"><ele>350.0</ele><time>2026-04-17T08:37:23.999Z</time></trkpt><trkpt lat="36.94645309192283" lon="15.039604262440983"><ele>350.0</ele><time>2026-04-17T08:37:24.999Z</time></trkpt><trkpt lat="36.94630471860655" lon="15.03969006230627"><ele>350.0</ele><time>2026-04-17T08:37:25.999Z</time></trkpt><trkpt lat="36.94615603137161" lon="15.03978066723376"><ele>350.0</ele><time>2026-04-17T08:37:26.999Z</time></trkpt><trkpt lat="36.94601682487601" lon="15.039882783242824"><ele>350.33333333333337</ele><time>2026-04-17T08:37:27.999Z</time></trkpt><trkpt lat="36.945882747865774" lon="15.039978268529504"><ele>350.6666666666667</ele><time>2026-04-17T08:37:28.999Z</time></trkpt><trkpt lat="36.9457645537925" lon="15.040095715265757"><ele>351.0</ele><time>2026-04-17T08:37:29.999Z</time></trkpt><trkpt lat="36.945642721884006" lon="15.04021518664964"><ele>351.0</ele><time>2026-04-17T08:37:30.999Z</time></trkpt><trkpt lat="36.945515259760256" lon="15.040335188486882"><ele>351.0</ele><time>2026-04-17T08:37:31.999Z</time></trkpt><trkpt lat="36.945381735781524" lon="15.040447766073065"><ele>351.0</ele><time>2026-04-17T08:37:32.999Z</time></trkpt><trkpt lat="36.94523520235526" lon="15.04053363318046"><ele>351.0</ele><time>2026-04-17T08:37:33.999Z</time></trkpt><trkpt lat="36.94510987969098" lon="15.040657840841122"><ele>351.0</ele><time>2026-04-17T08:37:34.999Z</time></trkpt><trkpt lat="36.94499530040234" lon="15.04076976393025"><ele>351.0</ele><time>2026-04-17T08:37:35.999Z</time></trkpt><trkpt lat="36.944877421498056" lon="15.040897968723552"><ele>350.3333333333333</ele><time>2026-04-17T08:37:36.999Z</time></trkpt><trkpt lat="36.9447653200624" lon="15.04103554714818"><ele>349.66666666666663</ele><time>2026-04-17T08:37:37.999Z</time></trkpt><trkpt lat="36.94464941503948" lon="15.041173293945825"><ele>349.0</ele><time>2026-04-17T08:37:38.999Z</time></trkpt><trkpt lat="36.94453245630703" lon="15.041309178797217"><ele>349.0</ele><time>2026-04-17T08:37:39.999Z</time></trkpt><trkpt lat="36.944416928856484" lon="15.041447526600736"><ele>349.0</ele><time>2026-04-17T08:37:40.999Z</time></trkpt><trkpt lat="36.94431191103918" lon="15.041586570410274"><ele>349.0</ele><time>2026-04-17T08:37:41.999Z</time></trkpt><trkpt lat="36.9441989467611" lon="15.041726107262841"><ele>347.3333333333333</ele><time>2026-04-17T08:37:42.999Z</time></trkpt><trkpt lat="36.944071369267505" lon="15.041844870672795"><ele>345.6666666666667</ele><time>2026-04-17T08:37:43.999Z</time></trkpt><trkpt lat="36.943928559096314" lon="15.041923055661332"><ele>344.0</ele><time>2026-04-17T08:37:44.999Z</time></trkpt><trkpt lat="36.943796173039914" lon="15.042031631871724"><ele>344.0</ele><time>2026-04-17T08:37:45.999Z</time></trkpt><trkpt lat="36.943657699683484" lon="15.042119733192543"><ele>344.0</ele><time>2026-04-17T08:37:46.999Z</time></trkpt><trkpt lat="36.94353393173263" lon="15.042200380537608"><ele>344.0</ele><time>2026-04-17T08:37:47.999Z</time></trkpt><trkpt lat="36.943416889534916" lon="15.042275255135888"><ele>344.0</ele><time>2026-04-17T08:37:48.999Z</time></trkpt><trkpt lat="36.94330929792231" lon="15.042349509922888"><ele>343.4</ele><time>2026-04-17T08:37:49.999Z</time></trkpt><trkpt lat="36.943208498285124" lon="15.042419926006003"><ele>342.79999999999995</ele><time>2026-04-17T08:37:50.999Z</time></trkpt><trkpt lat="36.943114166619274" lon="15.042494834161326"><ele>342.20000000000005</ele><time>2026-04-17T08:37:51.999Z</time></trkpt><trkpt lat="36.94302380358768" lon="15.042576836840722"><ele>341.6</ele><time>2026-04-17T08:37:52.999Z</time></trkpt><trkpt lat="36.942941651366375" lon="15.042662965058351"><ele>341.0</ele><time>2026-04-17T08:37:53.999Z</time></trkpt><trkpt lat="36.94284838958515" lon="15.042741350983473"><ele>341.0</ele><time>2026-04-17T08:37:54.999Z</time></trkpt><trkpt lat="36.94277219252732" lon="15.042854696942323"><ele>341.0</ele><time>2026-04-17T08:37:55.999Z</time></trkpt><trkpt lat="36.9426872362884" lon="15.042953528402258"><ele>341.0</ele><time>2026-04-17T08:37:56.999Z</time></trkpt><trkpt lat="36.94262329346311" lon="15.043080334759857"><ele>341.0</ele><time>2026-04-17T08:37:57.999Z</time></trkpt><trkpt lat="36.94256042136295" lon="15.04320663055132"><ele>341.0</ele><time>2026-04-17T08:37:58.999Z</time></trkpt><trkpt lat="36.94249797304461" lon="15.043345449768667"><ele>341.0</ele><time>2026-04-17T08:37:59.999Z</time></trkpt><trkpt lat="36.942438649243435" lon="15.043496132233992"><ele>341.0</ele><time>2026-04-17T08:38:00.999Z</time></trkpt><trkpt lat="36.94238419707986" lon="15.043648467714432"><ele>341.0</ele><time>2026-04-17T08:38:01.999Z</time></trkpt><trkpt lat="36.94233314937963" lon="15.043802542296978"><ele>341.0</ele><time>2026-04-17T08:38:02.999Z</time></trkpt><trkpt lat="36.94227444478613" lon="15.043943711798821"><ele>341.0</ele><time>2026-04-17T08:38:03.999Z</time></trkpt><trkpt lat="36.94222548345402" lon="15.044074338975886"><ele>341.0</ele><time>2026-04-17T08:38:04.999Z</time></trkpt><trkpt lat="36.94214994022055" lon="15.044188708778464"><ele>341.0</ele><time>2026-04-17T08:38:05.999Z</time></trkpt><trkpt lat="36.942074309520144" lon="15.044302004532735"><ele>339.75</ele><time>2026-04-17T08:38:06.999Z</time></trkpt><trkpt lat="36.941996635769236" lon="15.044414274115663"><ele>338.5</ele><time>2026-04-17T08:38:07.999Z</time></trkpt><trkpt lat="36.94191286308602" lon="15.044528961425321"><ele>337.25</ele><time>2026-04-17T08:38:08.999Z</time></trkpt><trkpt lat="36.941833428495386" lon="15.044652924923739"><ele>336.0</ele><time>2026-04-17T08:38:09.999Z</time></trkpt><trkpt lat="36.941752727909545" lon="15.044769416155082"><ele>336.5</ele><time>2026-04-17T08:38:10.999Z</time></trkpt><trkpt lat="36.941668062209345" lon="15.04488011656157"><ele>337.0</ele><time>2026-04-17T08:38:11.999Z</time></trkpt><trkpt lat="36.94158023059913" lon="15.044989400139482"><ele>337.5</ele><time>2026-04-17T08:38:12.999Z</time></trkpt><trkpt lat="36.94148245445236" lon="15.045085591215315"><ele>338.0</ele><time>2026-04-17T08:38:13.999Z</time></trkpt><trkpt lat="36.94137161093165" lon="15.04517308733548"><ele>338.0</ele><time>2026-04-17T08:38:15Z</time></trkpt><trkpt lat="36.941258713921044" lon="15.045265411628243"><ele>338.0</ele><time>2026-04-17T08:38:16Z</time></trkpt><trkpt lat="36.94113765426264" lon="15.045351842080537"><ele>338.0</ele><time>2026-04-17T08:38:17Z</time></trkpt><trkpt lat="36.94101065039524" lon="15.045440043697557"><ele>338.0</ele><time>2026-04-17T08:38:18Z</time></trkpt><trkpt lat="36.94088373904838" lon="15.045517439325195"><ele>340.0</ele><time>2026-04-17T08:38:19Z</time></trkpt><trkpt lat="36.94074305024253" lon="15.045569125016922"><ele>342.0</ele><time>2026-04-17T08:38:20Z</time></trkpt><trkpt lat="36.940602089490945" lon="15.045594966356397"><ele>344.0</ele><time>2026-04-17T08:38:21Z</time></trkpt><trkpt lat="36.94045528101182" lon="15.04566231227103"><ele>346.0</ele><time>2026-04-17T08:38:22Z</time></trkpt><trkpt lat="36.94029986513396" lon="15.045714533640666"><ele>346.0</ele><time>2026-04-17T08:38:23Z</time></trkpt><trkpt lat="36.940151351520896" lon="15.045777900699928"><ele>346.0</ele><time>2026-04-17T08:38:24Z</time></trkpt><trkpt lat="36.94000233473902" lon="15.045854882947852"><ele>346.0</ele><time>2026-04-17T08:38:25Z</time></trkpt><trkpt lat="36.93985730950518" lon="15.045940176836256"><ele>344.5</ele><time>2026-04-17T08:38:26Z</time></trkpt><trkpt lat="36.939717722308394" lon="15.046009471652775"><ele>343.0</ele><time>2026-04-17T08:38:27Z</time></trkpt><trkpt lat="36.93957791798279" lon="15.046072524807236"><ele>341.5</ele><time>2026-04-17T08:38:28Z</time></trkpt><trkpt lat="36.939438395541565" lon="15.046138824838577"><ele>340.0</ele><time>2026-04-17T08:38:29Z</time></trkpt><trkpt lat="36.93931634601163" lon="15.046199670524205"><ele>341.25</ele><time>2026-04-17T08:38:30Z</time></trkpt><trkpt lat="36.93919897057395" lon="15.046225016155956"><ele>342.5</ele><time>2026-04-17T08:38:31Z</time></trkpt><trkpt lat="36.939085615953246" lon="15.046241052149682"><ele>343.75</ele><time>2026-04-17T08:38:32Z</time></trkpt><trkpt lat="36.9389754368282" lon="15.046260760938745"><ele>345.0</ele><time>2026-04-17T08:38:33Z</time></trkpt><trkpt lat="36.938862006201205" lon="15.046279161666446"><ele>345.0</ele><time>2026-04-17T08:38:34Z</time></trkpt><trkpt lat="36.93874385148753" lon="15.046304553571732"><ele>345.0</ele><time>2026-04-17T08:38:35Z</time></trkpt><trkpt lat="36.93861945093214" lon="15.046332400700914"><ele>345.0</ele><time>2026-04-17T08:38:36Z</time></trkpt><trkpt lat="36.93849616893344" lon="15.04636443405734"><ele>345.0</ele><time>2026-04-17T08:38:37Z</time></trkpt><trkpt lat="36.93838379678323" lon="15.046389640390228"><ele>344.6666666666667</ele><time>2026-04-17T08:38:38Z</time></trkpt><trkpt lat="36.93827769085249" lon="15.04640997391252"><ele>344.3333333333333</ele><time>2026-04-17T08:38:39Z</time></trkpt><trkpt lat="36.938172230127094" lon="15.046425910421053"><ele>344.0</ele><time>2026-04-17T08:38:40Z</time></trkpt><trkpt lat="36.93808098599786" lon="15.046414550614847"><ele>343.66666666666663</ele><time>2026-04-17T08:38:41Z</time></trkpt><trkpt lat="36.938016197532974" lon="15.046411477943792"><ele>343.3333333333333</ele><time>2026-04-17T08:38:42Z</time></trkpt><trkpt lat="36.93795449011357" lon="15.046384632616682"><ele>343.0</ele><time>2026-04-17T08:38:44Z</time></trkpt><trkpt lat="36.93802145978535" lon="15.046410311782033"><ele>343.0</ele><time>2026-04-17T08:38:57Z</time></trkpt><trkpt lat="36.93793337994198" lon="15.046568552285358"><ele>343.0</ele><time>2026-04-17T08:38:58Z</time></trkpt><trkpt lat="36.93793424661733" lon="15.046699066021068"><ele>343.0</ele><time>2026-04-17T08:38:59Z</time></trkpt><trkpt lat="36.93793325315254" lon="15.046801860435394"><ele>343.0</ele><time>2026-04-17T08:39:00Z</time></trkpt><trkpt lat="36.937943115534175" lon="15.046888331076957"><ele>343.0</ele><time>2026-04-17T08:39:01Z</time></trkpt><trkpt lat="36.93792784553598" lon="15.046976861156924"><ele>342.5</ele><time>2026-04-17T08:39:01.999Z</time></trkpt><trkpt lat="36.93791991231042" lon="15.047094206763227"><ele>342.0</ele><time>2026-04-17T08:39:03.999Z</time></trkpt><trkpt lat="36.93792210706342" lon="15.04717323423891"><ele>341.5</ele><time>2026-04-17T08:39:09.999Z</time></trkpt><trkpt lat="36.93791555770284" lon="15.047290425393472"><ele>341.0</ele><time>2026-04-17T08:39:14.999Z</time></trkpt><trkpt lat="36.93790452919677" lon="15.04737429901053"><ele>340.5</ele><time>2026-04-17T08:39:15.999Z</time></trkpt><trkpt lat="36.937897483147005" lon="15.04750578511727"><ele>340.0</ele><time>2026-04-17T08:39:17.999Z</time></trkpt><trkpt lat="36.93788468325901" lon="15.047641481464431"><ele>338.6</ele><time>2026-04-17T08:39:19.999Z</time></trkpt><trkpt lat="36.93787488396518" lon="15.047776998118472"><ele>337.2</ele><time>2026-04-17T08:39:21.999Z</time></trkpt><trkpt lat="36.937882931592036" lon="15.047855498453975"><ele>335.79999999999995</ele><time>2026-04-17T08:39:22.999Z</time></trkpt><trkpt lat="36.937855725588" lon="15.047991625822844"><ele>334.4</ele><time>2026-04-17T08:39:24.999Z</time></trkpt><trkpt lat="36.9378345834083" lon="15.048101533643871"><ele>333.0</ele><time>2026-04-17T08:39:26.999Z</time></trkpt><trkpt lat="36.937809283455984" lon="15.048233040780525"><ele>331.2</ele><time>2026-04-17T08:39:28.999Z</time></trkpt><trkpt lat="36.93779021541815" lon="15.048361615452878"><ele>329.4</ele><time>2026-04-17T08:39:30.999Z</time></trkpt><trkpt lat="36.937766727765734" lon="15.048471177612965"><ele>327.59999999999997</ele><time>2026-04-17T08:39:32.999Z</time></trkpt><trkpt lat="36.93771945101008" lon="15.048571490196492"><ele>325.79999999999995</ele><time>2026-04-17T08:39:34.999Z</time></trkpt><trkpt lat="36.93769112147378" lon="15.048677765375443"><ele>324.0</ele><time>2026-04-17T08:39:36.999Z</time></trkpt><trkpt lat="36.937660137669" lon="15.048765038543385"><ele>324.0</ele><time>2026-04-17T08:39:38.999Z</time></trkpt><trkpt lat="36.93763374591214" lon="15.048872232743703"><ele>324.0</ele><time>2026-04-17T08:39:40.999Z</time></trkpt><trkpt lat="36.93760131453477" lon="15.048998590099266"><ele>324.0</ele><time>2026-04-17T08:39:42.999Z</time></trkpt><trkpt lat="36.93758260612632" lon="15.049148156420085"><ele>324.0</ele><time>2026-04-17T08:39:44.999Z</time></trkpt><trkpt lat="36.9375854611197" lon="15.049300618722022"><ele>324.0</ele><time>2026-04-17T08:39:46.999Z</time></trkpt><trkpt lat="36.93758702849616" lon="15.049415801245239"><ele>321.8</ele><time>2026-04-17T08:39:48.999Z</time></trkpt><trkpt lat="36.937592537793336" lon="15.049528456458937"><ele>319.59999999999997</ele><time>2026-04-17T08:39:50.999Z</time></trkpt><trkpt lat="36.937595549988615" lon="15.049664986563519"><ele>317.4</ele><time>2026-04-17T08:39:52.999Z</time></trkpt><trkpt lat="36.93761594897707" lon="15.049788888155755"><ele>315.2</ele><time>2026-04-17T08:39:54.999Z</time></trkpt><trkpt lat="36.937647052471" lon="15.049905722912051"><ele>313.0</ele><time>2026-04-17T08:39:56.999Z</time></trkpt><trkpt lat="36.93770464754164" lon="15.050014043590215"><ele>309.8333333333333</ele><time>2026-04-17T08:39:58.999Z</time></trkpt><trkpt lat="36.93771305207472" lon="15.050103353281512"><ele>306.66666666666663</ele><time>2026-04-17T08:40:00.999Z</time></trkpt><trkpt lat="36.93771264457518" lon="15.050208489181394"><ele>303.5</ele><time>2026-04-17T08:40:03.999Z</time></trkpt><trkpt lat="36.937681235599584" lon="15.050304841487906"><ele>300.3333333333333</ele><time>2026-04-17T08:40:06.999Z</time></trkpt><trkpt lat="36.93771254820488" lon="15.050421756142812"><ele>297.1666666666667</ele><time>2026-04-17T08:40:09.999Z</time></trkpt><trkpt lat="36.93770420434785" lon="15.05051271954594"><ele>294.0</ele><time>2026-04-17T08:40:11.999Z</time></trkpt><trkpt lat="36.93764667838444" lon="15.050571469058022"><ele>294.0</ele><time>2026-04-17T08:40:13.999Z</time></trkpt><trkpt lat="36.93757888659911" lon="15.050620839872627"><ele>294.0</ele><time>2026-04-17T08:40:15.999Z</time></trkpt><trkpt lat="36.93757198452981" lon="15.05073924641209"><ele>294.0</ele><time>2026-04-17T08:40:17.999Z</time></trkpt><trkpt lat="36.937533708148635" lon="15.050834842622384"><ele>294.0</ele><time>2026-04-17T08:40:20Z</time></trkpt><trkpt lat="36.937476868882555" lon="15.05095122586495"><ele>294.0</ele><time>2026-04-17T08:40:22Z</time></trkpt><trkpt lat="36.937439905502686" lon="15.05101931104712"><ele>294.0</ele><time>2026-04-17T08:40:23Z</time></trkpt><trkpt lat="36.93739415436394" lon="15.05108395808086"><ele>295.3333333333333</ele><time>2026-04-17T08:40:24Z</time></trkpt><trkpt lat="36.93732228789911" lon="15.051204600596922"><ele>296.6666666666667</ele><time>2026-04-17T08:40:26Z</time></trkpt><trkpt lat="36.93728222034941" lon="15.051332893485386"><ele>298.0</ele><time>2026-04-17T08:40:28Z</time></trkpt><trkpt lat="36.93724184340757" lon="15.051401177956718"><ele>299.33333333333337</ele><time>2026-04-17T08:40:29Z</time></trkpt><trkpt lat="36.93719057129818" lon="15.051458846185989"><ele>300.6666666666667</ele><time>2026-04-17T08:40:30Z</time></trkpt><trkpt lat="36.937139209805125" lon="15.051524408835414"><ele>302.0</ele><time>2026-04-17T08:40:31Z</time></trkpt><trkpt lat="36.93710343328891" lon="15.051616058414215"><ele>299.2</ele><time>2026-04-17T08:40:32Z</time></trkpt><trkpt lat="36.93706961545404" lon="15.051714433427216"><ele>296.4</ele><time>2026-04-17T08:40:33Z</time></trkpt><trkpt lat="36.93703238881051" lon="15.051844813600347"><ele>293.6</ele><time>2026-04-17T08:40:35Z</time></trkpt><trkpt lat="36.93703054427634" lon="15.051985819857526"><ele>290.8</ele><time>2026-04-17T08:40:37Z</time></trkpt><trkpt lat="36.93699580926058" lon="15.05209235593498"><ele>288.0</ele><time>2026-04-17T08:40:39Z</time></trkpt><trkpt lat="36.93695995863446" lon="15.052211450348059"><ele>288.0</ele><time>2026-04-17T08:40:42Z</time></trkpt><trkpt lat="36.936906769925045" lon="15.052322379345945"><ele>288.0</ele><time>2026-04-17T08:40:44Z</time></trkpt><trkpt lat="36.93685748572582" lon="15.052473909143824"><ele>288.0</ele><time>2026-04-17T08:40:46Z</time></trkpt><trkpt lat="36.93684785520787" lon="15.052552954382177"><ele>288.0</ele><time>2026-04-17T08:40:47Z</time></trkpt><trkpt lat="36.936824469863026" lon="15.052667820503576"><ele>288.0</ele><time>2026-04-17T08:40:49Z</time></trkpt><trkpt lat="36.93681066577084" lon="15.052772840875418"><ele>289.5</ele><time>2026-04-17T08:40:51Z</time></trkpt><trkpt lat="36.93679669371629" lon="15.052867752495628"><ele>291.0</ele><time>2026-04-17T08:40:53Z</time></trkpt><trkpt lat="36.936761291757655" lon="15.052951937077651"><ele>292.5</ele><time>2026-04-17T08:40:55Z</time></trkpt><trkpt lat="36.93670310006232" lon="15.053030427446599"><ele>294.0</ele><time>2026-04-17T08:40:57Z</time></trkpt><trkpt lat="36.936591601800686" lon="15.053062758443266"><ele>295.5</ele><time>2026-04-17T08:40:59Z</time></trkpt><trkpt lat="36.936526427094506" lon="15.05306797940122"><ele>297.0</ele><time>2026-04-17T08:41:00Z</time></trkpt><trkpt lat="36.93645827708231" lon="15.053064122531447"><ele>297.0</ele><time>2026-04-17T08:41:01Z</time></trkpt><trkpt lat="36.93635320046975" lon="15.053060058151617"><ele>297.0</ele><time>2026-04-17T08:41:03Z</time></trkpt><trkpt lat="36.93625576918025" lon="15.052991786947743"><ele>297.0</ele><time>2026-04-17T08:41:05Z</time></trkpt><trkpt lat="36.93619688277636" lon="15.052952067262995"><ele>297.0</ele><time>2026-04-17T08:41:06Z</time></trkpt><trkpt lat="36.93610230309648" lon="15.05295338798444"><ele>297.0</ele><time>2026-04-17T08:41:08Z</time></trkpt><trkpt lat="36.93602670561898" lon="15.052956852916381"><ele>297.0</ele><time>2026-04-17T08:41:10Z</time></trkpt><trkpt lat="36.93600708541654" lon="15.05303314688826"><ele>297.0</ele><time>2026-04-17T08:41:13Z</time></trkpt><trkpt lat="36.93608573004474" lon="15.053061505866532"><ele>297.0</ele><time>2026-04-17T08:41:15Z</time></trkpt><trkpt lat="36.93621055891922" lon="15.053117723183957"><ele>297.0</ele><time>2026-04-17T08:41:17Z</time></trkpt><trkpt lat="36.93628288047145" lon="15.053150261743655"><ele>297.0</ele><time>2026-04-17T08:41:18Z</time></trkpt><trkpt lat="36.93635927338758" lon="15.053184903355596"><ele>297.0</ele><time>2026-04-17T08:41:19Z</time></trkpt><trkpt lat="36.936419104845506" lon="15.05322016533262"><ele>297.0</ele><time>2026-04-17T08:41:21Z</time></trkpt><trkpt lat="36.936377046847234" lon="15.05328048341245"><ele>297.0</ele><time>2026-04-17T08:41:24Z</time></trkpt><trkpt lat="36.93628828355617" lon="15.053265159405166"><ele>297.0</ele><time>2026-04-17T08:41:25.999Z</time></trkpt><trkpt lat="36.936210206222334" lon="15.053231829109425"><ele>297.0</ele><time>2026-04-17T08:41:27.999Z</time></trkpt><trkpt lat="36.9361456023875" lon="15.05321493889307"><ele>297.0</ele><time>2026-04-17T08:41:29.999Z</time></trkpt><trkpt lat="36.93606777097616" lon="15.053172079309968"><ele>297.0</ele><time>2026-04-17T08:41:34.999Z</time></trkpt><trkpt lat="36.93597686075447" lon="15.053157026649671"><ele>297.0</ele><time>2026-04-17T08:41:37.999Z</time></trkpt><trkpt lat="36.93590111063544" lon="15.053090393209075"><ele>297.0</ele><time>2026-04-17T08:41:39.999Z</time></trkpt><trkpt lat="36.93576785950535" lon="15.053063551892471"><ele>297.0</ele><time>2026-04-17T08:41:41.999Z</time></trkpt><trkpt lat="36.9356792617695" lon="15.053069909086702"><ele>297.0</ele><time>2026-04-17T08:41:42.999Z</time></trkpt><trkpt lat="36.93559543007011" lon="15.05307276371732"><ele>297.0</ele><time>2026-04-17T08:41:43.999Z</time></trkpt><trkpt lat="36.93550130678909" lon="15.053076362318786"><ele>297.6666666666667</ele><time>2026-04-17T08:41:45.999Z</time></trkpt><trkpt lat="36.93546679998809" lon="15.05315108297375"><ele>298.3333333333333</ele><time>2026-04-17T08:41:47.999Z</time></trkpt><trkpt lat="36.935508447813866" lon="15.053218449306872"><ele>299.0</ele><time>2026-04-17T08:41:52.999Z</time></trkpt><trkpt lat="36.9355477491353" lon="15.053283993000306"><ele>299.66666666666663</ele><time>2026-04-17T08:41:55.999Z</time></trkpt><trkpt lat="36.93562556387025" lon="15.053353443025584"><ele>300.3333333333333</ele><time>2026-04-17T08:41:57.999Z</time></trkpt><trkpt lat="36.935730975437885" lon="15.053416667652396"><ele>301.0</ele><time>2026-04-17T08:41:59.999Z</time></trkpt><trkpt lat="36.93579617845079" lon="15.053454682353761"><ele>296.8333333333333</ele><time>2026-04-17T08:42:01.999Z</time></trkpt><trkpt lat="36.93587872631631" lon="15.053496355446523"><ele>292.66666666666663</ele><time>2026-04-17T08:42:03.999Z</time></trkpt><trkpt lat="36.93595236381032" lon="15.053535320445478"><ele>288.5</ele><time>2026-04-17T08:42:05.999Z</time></trkpt><trkpt lat="36.93601631716767" lon="15.053560523159508"><ele>284.3333333333333</ele><time>2026-04-17T08:42:07.999Z</time></trkpt><trkpt lat="36.93602013800719" lon="15.05367162874662"><ele>280.1666666666667</ele><time>2026-04-17T08:42:11.999Z</time></trkpt><trkpt lat="36.93602334144867" lon="15.053752774022723"><ele>276.0</ele><time>2026-04-17T08:42:14.999Z</time></trkpt><trkpt lat="36.93608138335166" lon="15.053825615872302"><ele>276.0</ele><time>2026-04-17T08:42:16.999Z</time></trkpt><trkpt lat="36.93614490208961" lon="15.053851665706599"><ele>276.0</ele><time>2026-04-17T08:42:19.999Z</time></trkpt><trkpt lat="36.93618613304939" lon="15.053926312175435"><ele>276.0</ele><time>2026-04-17T08:42:45Z</time></trkpt><trkpt lat="36.936121380693955" lon="15.053961333289275"><ele>276.0</ele><time>2026-04-17T08:42:47Z</time></trkpt><trkpt lat="36.93604259907799" lon="15.053900650817821"><ele>276.0</ele><time>2026-04-17T08:42:49Z</time></trkpt><trkpt lat="36.936007486253125" lon="15.05375070511019"><ele>276.0</ele><time>2026-04-17T08:42:51Z</time></trkpt><trkpt lat="36.93596729294523" lon="15.053657429645655"><ele>276.0</ele><time>2026-04-17T08:42:53Z</time></trkpt><trkpt lat="36.9359102476116" lon="15.053607179198131"><ele>276.0</ele><time>2026-04-17T08:43:01Z</time></trkpt><trkpt lat="36.93584125267389" lon="15.053620994493084"><ele>276.0</ele><time>2026-04-17T08:43:43.999Z</time></trkpt><trkpt lat="36.935772945789424" lon="15.053608516411845"><ele>276.0</ele><time>2026-04-17T08:43:53.999Z</time></trkpt><trkpt lat="36.935718494291194" lon="15.05364817589431"><ele>276.0</ele><time>2026-04-17T08:44:00.999Z</time></trkpt><trkpt lat="36.935654138314106" lon="15.053668014860246"><ele>276.0</ele><time>2026-04-17T08:44:04.999Z</time></trkpt><trkpt lat="36.93557137790714" lon="15.053679283949135"><ele>276.0</ele><time>2026-04-17T08:44:13.999Z</time></trkpt><trkpt lat="36.93556132367781" lon="15.053764077510527"><ele>275.57142857142856</ele><time>2026-04-17T08:44:21.999Z</time></trkpt><trkpt lat="36.93553578590451" lon="15.053679967126994"><ele>275.14285714285717</ele><time>2026-04-17T08:46:09.999Z</time></trkpt><trkpt lat="36.935597595211526" lon="15.053706419111476"><ele>274.7142857142857</ele><time>2026-04-17T08:46:16.999Z</time></trkpt><trkpt lat="36.93564904524962" lon="15.05363995082573"><ele>274.2857142857143</ele><time>2026-04-17T08:46:45Z</time></trkpt><trkpt lat="36.93571786682828" lon="15.053636445681716"><ele>273.8571428571429</ele><time>2026-04-17T08:47:08Z</time></trkpt><trkpt lat="36.93574399786017" lon="15.053710115573427"><ele>273.42857142857144</ele><time>2026-04-17T08:47:26Z</time></trkpt><trkpt lat="36.93580965381957" lon="15.053728728263044"><ele>273.0</ele><time>2026-04-17T08:47:34Z</time></trkpt><trkpt lat="36.9358681050798" lon="15.053763560313172"><ele>273.0</ele><time>2026-04-17T08:47:59.999Z</time></trkpt><trkpt lat="36.93585238505631" lon="15.053681763993406"><ele>273.0</ele><time>2026-04-17T08:51:09Z</time></trkpt><trkpt lat="36.93578113901197" lon="15.053681400844901"><ele>273.0</ele><time>2026-04-17T08:51:15Z</time></trkpt><trkpt lat="36.93569692385998" lon="15.053691521333516"><ele>273.0</ele><time>2026-04-17T08:51:24Z</time></trkpt><trkpt lat="36.93584336664085" lon="15.053643187029326"><ele>273.0</ele><time>2026-04-17T08:52:14Z</time></trkpt><trkpt lat="36.935914189134714" lon="15.053647370404677"><ele>273.0</ele><time>2026-04-17T08:52:26.999Z</time></trkpt><trkpt lat="36.935892595453154" lon="15.05353284692681"><ele>273.0</ele><time>2026-04-17T09:00:12.999Z</time></trkpt><trkpt lat="36.93585000447128" lon="15.053455296267584"><ele>273.0</ele><time>2026-04-17T09:00:14.999Z</time></trkpt><trkpt lat="36.93577970403602" lon="15.053431812964547"><ele>273.0</ele><time>2026-04-17T09:00:16.999Z</time></trkpt><trkpt lat="36.93565226139595" lon="15.053367591778704"><ele>273.0</ele><time>2026-04-17T09:00:18.999Z</time></trkpt><trkpt lat="36.93559132732195" lon="15.05332454929859"><ele>273.0</ele><time>2026-04-17T09:00:19.999Z</time></trkpt><trkpt lat="36.9355348505104" lon="15.053255212163586"><ele>273.0</ele><time>2026-04-17T09:00:21.999Z</time></trkpt><trkpt lat="36.935490161142944" lon="15.053159434845623"><ele>277.0</ele><time>2026-04-17T09:00:23.999Z</time></trkpt><trkpt lat="36.93551637435061" lon="15.053079530347823"><ele>281.0</ele><time>2026-04-17T09:00:26.999Z</time></trkpt><trkpt lat="36.93558926865577" lon="15.05308245687759"><ele>285.0</ele><time>2026-04-17T09:00:28.999Z</time></trkpt><trkpt lat="36.9356631702483" lon="15.053093927860873"><ele>289.0</ele><time>2026-04-17T09:00:29.999Z</time></trkpt><trkpt lat="36.93578833765786" lon="15.053081587446163"><ele>293.0</ele><time>2026-04-17T09:00:31.999Z</time></trkpt><trkpt lat="36.935867108516476" lon="15.053094730135808"><ele>297.0</ele><time>2026-04-17T09:00:32.999Z</time></trkpt><trkpt lat="36.935940111186596" lon="15.053115391494577"><ele>297.0</ele><time>2026-04-17T09:00:33.999Z</time></trkpt><trkpt lat="36.93601596830554" lon="15.053187328312463"><ele>297.0</ele><time>2026-04-17T09:00:35.999Z</time></trkpt><trkpt lat="36.936091427559475" lon="15.053205838059267"><ele>297.0</ele><time>2026-04-17T09:00:37.999Z</time></trkpt><trkpt lat="36.93620731254218" lon="15.053242900025161"><ele>297.0</ele><time>2026-04-17T09:00:39.999Z</time></trkpt><trkpt lat="36.93628601986987" lon="15.053276104609093"><ele>297.0</ele><time>2026-04-17T09:00:41.999Z</time></trkpt><trkpt lat="36.9363518354049" lon="15.053264885098374"><ele>297.0</ele><time>2026-04-17T09:00:44.999Z</time></trkpt><trkpt lat="36.936389785403634" lon="15.053198995293194"><ele>297.0</ele><time>2026-04-17T09:00:47.999Z</time></trkpt><trkpt lat="36.936297853358255" lon="15.053176897600189"><ele>297.0</ele><time>2026-04-17T09:00:50.999Z</time></trkpt><trkpt lat="36.93623508030933" lon="15.053161493499879"><ele>297.0</ele><time>2026-04-17T09:00:51.999Z</time></trkpt><trkpt lat="36.93616310710971" lon="15.0531212840891"><ele>297.0</ele><time>2026-04-17T09:00:52.999Z</time></trkpt><trkpt lat="36.93607359610245" lon="15.053077308281122"><ele>297.0</ele><time>2026-04-17T09:00:53.999Z</time></trkpt><trkpt lat="36.936002382739446" lon="15.053039596941195"><ele>297.0</ele><time>2026-04-17T09:00:54.999Z</time></trkpt><trkpt lat="36.93600239385934" lon="15.052950106525705"><ele>297.0</ele><time>2026-04-17T09:00:57.999Z</time></trkpt><trkpt lat="36.936081891473435" lon="15.052937287709007"><ele>297.0</ele><time>2026-04-17T09:01:00.999Z</time></trkpt><trkpt lat="36.93617168492946" lon="15.0529881956044"><ele>297.0</ele><time>2026-04-17T09:01:03.999Z</time></trkpt><trkpt lat="36.936269689125716" lon="15.053019146027449"><ele>297.0</ele><time>2026-04-17T09:01:05.999Z</time></trkpt><trkpt lat="36.93633504209381" lon="15.053056201030211"><ele>297.0</ele><time>2026-04-17T09:01:06.999Z</time></trkpt><trkpt lat="36.93640100166268" lon="15.053085180073868"><ele>297.0</ele><time>2026-04-17T09:01:07.999Z</time></trkpt><trkpt lat="36.93646636142171" lon="15.053083458459673"><ele>297.0</ele><time>2026-04-17T09:01:08.999Z</time></trkpt><trkpt lat="36.936539748083334" lon="15.0530875158774"><ele>297.0</ele><time>2026-04-17T09:01:09.999Z</time></trkpt><trkpt lat="36.93662320031705" lon="15.053067323344516"><ele>297.0</ele><time>2026-04-17T09:01:10.999Z</time></trkpt><trkpt lat="36.93669489899048" lon="15.05304299384312"><ele>297.0</ele><time>2026-04-17T09:01:11.999Z</time></trkpt><trkpt lat="36.93678078545587" lon="15.052943719060892"><ele>297.0</ele><time>2026-04-17T09:01:13.999Z</time></trkpt><trkpt lat="36.936805489295665" lon="15.052803316446823"><ele>295.7142857142857</ele><time>2026-04-17T09:01:15.999Z</time></trkpt><trkpt lat="36.93681630110619" lon="15.052716530254354"><ele>294.42857142857144</ele><time>2026-04-17T09:01:16.999Z</time></trkpt><trkpt lat="36.93682760217208" lon="15.052622724559933"><ele>293.14285714285717</ele><time>2026-04-17T09:01:17.999Z</time></trkpt><trkpt lat="36.93685111633607" lon="15.052533125118748"><ele>291.8571428571429</ele><time>2026-04-17T09:01:19Z</time></trkpt><trkpt lat="36.93686867409172" lon="15.052435142541725"><ele>290.57142857142856</ele><time>2026-04-17T09:01:20Z</time></trkpt><trkpt lat="36.93689454229249" lon="15.052338105535144"><ele>289.28571428571433</ele><time>2026-04-17T09:01:21Z</time></trkpt><trkpt lat="36.93691970027703" lon="15.052263666383514"><ele>288.0</ele><time>2026-04-17T09:01:22Z</time></trkpt><trkpt lat="36.93696461837894" lon="15.052180252384472"><ele>288.00000000000006</ele><time>2026-04-17T09:01:23Z</time></trkpt><trkpt lat="36.93698076605383" lon="15.052099725934811"><ele>288.0</ele><time>2026-04-17T09:01:24Z</time></trkpt><trkpt lat="36.937013331458736" lon="15.052016859627756"><ele>288.0</ele><time>2026-04-17T09:01:25Z</time></trkpt><trkpt lat="36.93704178373651" lon="15.051942179252572"><ele>288.0</ele><time>2026-04-17T09:01:26Z</time></trkpt><trkpt lat="36.93704513968231" lon="15.051850115121388"><ele>288.0</ele><time>2026-04-17T09:01:27Z</time></trkpt><trkpt lat="36.93705657807862" lon="15.051757833308733"><ele>288.00000000000006</ele><time>2026-04-17T09:01:28Z</time></trkpt><trkpt lat="36.937095350273935" lon="15.05165934707226"><ele>288.0</ele><time>2026-04-17T09:01:29Z</time></trkpt><trkpt lat="36.937132541984546" lon="15.051548216454687"><ele>290.3333333333333</ele><time>2026-04-17T09:01:30Z</time></trkpt><trkpt lat="36.937177687632555" lon="15.05145543974066"><ele>292.6666666666667</ele><time>2026-04-17T09:01:31Z</time></trkpt><trkpt lat="36.93723067912515" lon="15.051396940026558"><ele>295.0</ele><time>2026-04-17T09:01:32Z</time></trkpt><trkpt lat="36.937292236792196" lon="15.051346528887969"><ele>297.33333333333337</ele><time>2026-04-17T09:01:33Z</time></trkpt><trkpt lat="36.93732399134248" lon="15.051274820999206"><ele>299.6666666666667</ele><time>2026-04-17T09:01:34Z</time></trkpt><trkpt lat="36.937361204400155" lon="15.051150113259158"><ele>302.0</ele><time>2026-04-17T09:01:36Z</time></trkpt><trkpt lat="36.93740197392207" lon="15.051088729633948"><ele>302.0</ele><time>2026-04-17T09:01:37Z</time></trkpt><trkpt lat="36.93745686426124" lon="15.051014509709256"><ele>302.0</ele><time>2026-04-17T09:01:38Z</time></trkpt><trkpt lat="36.937518768698084" lon="15.05093300643549"><ele>302.0</ele><time>2026-04-17T09:01:39Z</time></trkpt><trkpt lat="36.93755791090622" lon="15.050799394658497"><ele>302.0</ele><time>2026-04-17T09:01:41Z</time></trkpt><trkpt lat="36.93758747645323" lon="15.050668116505896"><ele>302.0</ele><time>2026-04-17T09:01:43Z</time></trkpt><trkpt lat="36.93762367556383" lon="15.050576815903787"><ele>300.6666666666667</ele><time>2026-04-17T09:01:45Z</time></trkpt><trkpt lat="36.93770625817186" lon="15.050499457582147"><ele>299.33333333333337</ele><time>2026-04-17T09:01:47Z</time></trkpt><trkpt lat="36.93771514136644" lon="15.05039589815049"><ele>298.0</ele><time>2026-04-17T09:01:49Z</time></trkpt><trkpt lat="36.93767711290796" lon="15.050274067520133"><ele>296.6666666666667</ele><time>2026-04-17T09:01:51Z</time></trkpt><trkpt lat="36.93769156033215" lon="15.050181443993063"><ele>295.3333333333333</ele><time>2026-04-17T09:01:53Z</time></trkpt><trkpt lat="36.93770087403274" lon="15.050084882317647"><ele>294.0</ele><time>2026-04-17T09:01:55Z</time></trkpt><trkpt lat="36.93768201370214" lon="15.049987994295792"><ele>297.8</ele><time>2026-04-17T09:01:57Z</time></trkpt><trkpt lat="36.93763034319698" lon="15.049858124483078"><ele>301.59999999999997</ele><time>2026-04-17T09:01:58.999Z</time></trkpt><trkpt lat="36.93759556453594" lon="15.049775960179955"><ele>305.4</ele><time>2026-04-17T09:01:59.999Z</time></trkpt><trkpt lat="36.93758504650194" lon="15.04962210784798"><ele>309.2</ele><time>2026-04-17T09:02:01.999Z</time></trkpt><trkpt lat="36.9375782909229" lon="15.049533675010263"><ele>313.0</ele><time>2026-04-17T09:02:02.999Z</time></trkpt><trkpt lat="36.937576274894326" lon="15.04943720510906"><ele>313.0</ele><time>2026-04-17T09:02:03.999Z</time></trkpt><trkpt lat="36.93757218090363" lon="15.049346268323063"><ele>313.0</ele><time>2026-04-17T09:02:04.999Z</time></trkpt><trkpt lat="36.93757906912045" lon="15.049205348066462"><ele>313.0</ele><time>2026-04-17T09:02:06.999Z</time></trkpt><trkpt lat="36.93757769694707" lon="15.049118733043029"><ele>313.0</ele><time>2026-04-17T09:02:07.999Z</time></trkpt><trkpt lat="36.93758510155601" lon="15.049019906533378"><ele>313.0</ele><time>2026-04-17T09:02:08.999Z</time></trkpt><trkpt lat="36.93760182211071" lon="15.048929966742337"><ele>313.0</ele><time>2026-04-17T09:02:09.999Z</time></trkpt><trkpt lat="36.9376308214162" lon="15.048802377314018"><ele>315.2</ele><time>2026-04-17T09:02:11.999Z</time></trkpt><trkpt lat="36.93766924027049" lon="15.048648814473689"><ele>317.4</ele><time>2026-04-17T09:02:13.999Z</time></trkpt><trkpt lat="36.937695937743605" lon="15.048565067029188"><ele>319.59999999999997</ele><time>2026-04-17T09:02:14.999Z</time></trkpt><trkpt lat="36.937722921266186" lon="15.048487392673344"><ele>321.8</ele><time>2026-04-17T09:02:15.999Z</time></trkpt><trkpt lat="36.93775802250664" lon="15.048420543016315"><ele>324.0</ele><time>2026-04-17T09:02:16.999Z</time></trkpt><trkpt lat="36.93780510912863" lon="15.048280725038904"><ele>325.5</ele><time>2026-04-17T09:02:18.999Z</time></trkpt><trkpt lat="36.93781638643235" lon="15.04818955257221"><ele>327.0</ele><time>2026-04-17T09:02:19.999Z</time></trkpt><trkpt lat="36.93782387995589" lon="15.04810381113992"><ele>328.5</ele><time>2026-04-17T09:02:20.999Z</time></trkpt><trkpt lat="36.93783273432458" lon="15.048021905715887"><ele>330.0</ele><time>2026-04-17T09:02:21.999Z</time></trkpt><trkpt lat="36.93785086491735" lon="15.047946324281227"><ele>331.5</ele><time>2026-04-17T09:02:22.999Z</time></trkpt><trkpt lat="36.9379020205603" lon="15.047863781711353"><ele>333.0</ele><time>2026-04-17T09:02:23.999Z</time></trkpt><trkpt lat="36.93791414000247" lon="15.047697881014637"><ele>333.0</ele><time>2026-04-17T09:02:25.999Z</time></trkpt><trkpt lat="36.93792116499478" lon="15.047601715105614"><ele>333.0</ele><time>2026-04-17T09:02:26.999Z</time></trkpt><trkpt lat="36.937927096922955" lon="15.047520512310864"><ele>333.0</ele><time>2026-04-17T09:02:27.999Z</time></trkpt><trkpt lat="36.93793227001368" lon="15.047435043649001"><ele>333.0</ele><time>2026-04-17T09:02:28.999Z</time></trkpt><trkpt lat="36.93794073733705" lon="15.047279768758248"><ele>333.0</ele><time>2026-04-17T09:02:30.999Z</time></trkpt><trkpt lat="36.93793125596866" lon="15.047180805496193"><ele>333.0</ele><time>2026-04-17T09:02:31.999Z</time></trkpt><trkpt lat="36.93794022085907" lon="15.04708104939353"><ele>334.1666666666667</ele><time>2026-04-17T09:02:32.999Z</time></trkpt><trkpt lat="36.93795066670896" lon="15.04697907396773"><ele>335.3333333333333</ele><time>2026-04-17T09:02:33.999Z</time></trkpt><trkpt lat="36.937959632913525" lon="15.046875073094851"><ele>336.5</ele><time>2026-04-17T09:02:34.999Z</time></trkpt><trkpt lat="36.93796118411203" lon="15.046790210243271"><ele>337.66666666666663</ele><time>2026-04-17T09:02:35.999Z</time></trkpt><trkpt lat="36.93795655458701" lon="15.046653590533166"><ele>338.8333333333333</ele><time>2026-04-17T09:02:37.999Z</time></trkpt><trkpt lat="36.937955290320716" lon="15.04657296211714"><ele>340.0</ele><time>2026-04-17T09:02:38.999Z</time></trkpt><trkpt lat="36.93795565410476" lon="15.046486267098647"><ele>340.6</ele><time>2026-04-17T09:02:39.999Z</time></trkpt><trkpt lat="36.937965437833135" lon="15.046375515401483"><ele>341.2</ele><time>2026-04-17T09:02:41.999Z</time></trkpt><trkpt lat="36.93787274881011" lon="15.046344274382221"><ele>341.79999999999995</ele><time>2026-04-17T09:02:44.999Z</time></trkpt><trkpt lat="36.93778109895256" lon="15.046374733239192"><ele>342.4</ele><time>2026-04-17T09:03:40Z</time></trkpt><trkpt lat="36.93768141082945" lon="15.0464416030406"><ele>343.0</ele><time>2026-04-17T09:03:42Z</time></trkpt><trkpt lat="36.93758738915211" lon="15.046529508159876"><ele>341.59999999999997</ele><time>2026-04-17T09:03:43Z</time></trkpt><trkpt lat="36.93749638749652" lon="15.046640734366195"><ele>340.2</ele><time>2026-04-17T09:03:44Z</time></trkpt><trkpt lat="36.937424270905936" lon="15.04672446002554"><ele>338.8</ele><time>2026-04-17T09:03:45Z</time></trkpt><trkpt lat="36.93733655747398" lon="15.046793733197603"><ele>337.4</ele><time>2026-04-17T09:03:46Z</time></trkpt><trkpt lat="36.937236631472146" lon="15.04684682229534"><ele>336.0</ele><time>2026-04-17T09:03:47Z</time></trkpt><trkpt lat="36.93713603296029" lon="15.046911690214326"><ele>336.0</ele><time>2026-04-17T09:03:48Z</time></trkpt><trkpt lat="36.93705065168779" lon="15.047021334963445"><ele>336.0</ele><time>2026-04-17T09:03:49Z</time></trkpt><trkpt lat="36.936956332359735" lon="15.047120272496835"><ele>336.0</ele><time>2026-04-17T09:03:50Z</time></trkpt><trkpt lat="36.936869609974245" lon="15.047215004328518"><ele>336.0</ele><time>2026-04-17T09:03:51Z</time></trkpt><trkpt lat="36.93678012896222" lon="15.047308903749734"><ele>335.0</ele><time>2026-04-17T09:03:52Z</time></trkpt><trkpt lat="36.93669566654563" lon="15.047396609510834"><ele>334.0</ele><time>2026-04-17T09:03:53Z</time></trkpt><trkpt lat="36.936622544136796" lon="15.047478652744479"><ele>333.0</ele><time>2026-04-17T09:03:54Z</time></trkpt><trkpt lat="36.936576564380324" lon="15.047579290615674"><ele>332.0</ele><time>2026-04-17T09:03:55Z</time></trkpt><trkpt lat="36.93651655549443" lon="15.047672680538094"><ele>331.0</ele><time>2026-04-17T09:03:56Z</time></trkpt><trkpt lat="36.936451193290594" lon="15.047816307510752"><ele>330.0</ele><time>2026-04-17T09:03:57Z</time></trkpt><trkpt lat="36.93633954158541" lon="15.047978044544244"><ele>329.0</ele><time>2026-04-17T09:03:58Z</time></trkpt><trkpt lat="36.93623315731341" lon="15.048163723004803"><ele>328.0</ele><time>2026-04-17T09:03:59Z</time></trkpt><trkpt lat="36.936143735171" lon="15.04834037840065"><ele>328.0</ele><time>2026-04-17T09:04:00Z</time></trkpt><trkpt lat="36.93607039775353" lon="15.048479195109303"><ele>328.0</ele><time>2026-04-17T09:04:00.999Z</time></trkpt><trkpt lat="36.936030936815634" lon="15.048586084311772"><ele>328.0</ele><time>2026-04-17T09:04:01.999Z</time></trkpt><trkpt lat="36.935986461547735" lon="15.048655437320837"><ele>328.0</ele><time>2026-04-17T09:04:02.999Z</time></trkpt><trkpt lat="36.93592796740064" lon="15.048718740831218"><ele>328.0</ele><time>2026-04-17T09:04:04.999Z</time></trkpt><trkpt lat="36.93576300899045" lon="15.048666736377545"><ele>328.0</ele><time>2026-04-17T09:04:08.999Z</time></trkpt><trkpt lat="36.935675042067516" lon="15.048646813763035"><ele>328.0</ele><time>2026-04-17T09:04:09.999Z</time></trkpt><trkpt lat="36.93557050942595" lon="15.048606997369799"><ele>328.0</ele><time>2026-04-17T09:04:10.999Z</time></trkpt><trkpt lat="36.93549468997378" lon="15.048557201828773"><ele>328.0</ele><time>2026-04-17T09:04:11.999Z</time></trkpt><trkpt lat="36.9354256228369" lon="15.04851434178457"><ele>328.0</ele><time>2026-04-17T09:04:12.999Z</time></trkpt><trkpt lat="36.935362910014184" lon="15.04846051072186"><ele>328.0</ele><time>2026-04-17T09:04:13.999Z</time></trkpt><trkpt lat="36.93530128942527" lon="15.04840749917073"><ele>328.0</ele><time>2026-04-17T09:04:14.999Z</time></trkpt><trkpt lat="36.93523525351464" lon="15.048356141492246"><ele>328.0</ele><time>2026-04-17T09:04:15.999Z</time></trkpt><trkpt lat="36.935156396386795" lon="15.048303812820297"><ele>328.0</ele><time>2026-04-17T09:04:16.999Z</time></trkpt><trkpt lat="36.93507063077816" lon="15.04827833169541"><ele>328.0</ele><time>2026-04-17T09:04:17.999Z</time></trkpt><trkpt lat="36.934972841099764" lon="15.048255355294826"><ele>328.0</ele><time>2026-04-17T09:04:18.999Z</time></trkpt><trkpt lat="36.93489765044786" lon="15.048240576709102"><ele>328.0</ele><time>2026-04-17T09:04:19.999Z</time></trkpt><trkpt lat="36.93481135132498" lon="15.04822773673102"><ele>327.59999999999997</ele><time>2026-04-17T09:04:20.999Z</time></trkpt><trkpt lat="36.934724783283336" lon="15.048209384797529"><ele>327.2</ele><time>2026-04-17T09:04:21.999Z</time></trkpt><trkpt lat="36.934627848408" lon="15.048206578089705"><ele>326.8</ele><time>2026-04-17T09:04:22.999Z</time></trkpt><trkpt lat="36.93453444362543" lon="15.048191121108111"><ele>326.4</ele><time>2026-04-17T09:04:23.999Z</time></trkpt><trkpt lat="36.93444363463542" lon="15.04819142455806"><ele>326.0</ele><time>2026-04-17T09:04:24.999Z</time></trkpt><trkpt lat="36.93434441170958" lon="15.048183506508472"><ele>326.0</ele><time>2026-04-17T09:04:25.999Z</time></trkpt><trkpt lat="36.93425258379683" lon="15.048172486718197"><ele>326.0</ele><time>2026-04-17T09:04:26.999Z</time></trkpt><trkpt lat="36.93415823353125" lon="15.048173383741998"><ele>326.0</ele><time>2026-04-17T09:04:27.999Z</time></trkpt><trkpt lat="36.934068746196736" lon="15.048168807532523"><ele>326.0</ele><time>2026-04-17T09:04:28.999Z</time></trkpt><trkpt lat="36.93400010814494" lon="15.048165864003279"><ele>326.0</ele><time>2026-04-17T09:04:29.999Z</time></trkpt><trkpt lat="36.9338946163606" lon="15.048184829999892"><ele>325.8</ele><time>2026-04-17T09:04:31.999Z</time></trkpt><trkpt lat="36.93380329066507" lon="15.048202891226182"><ele>325.6</ele><time>2026-04-17T09:04:33.999Z</time></trkpt><trkpt lat="36.933726429872955" lon="15.048040408356059"><ele>325.4</ele><time>2026-04-17T09:04:34.999Z</time></trkpt><trkpt lat="36.93363754911029" lon="15.04798042938779"><ele>325.2</ele><time>2026-04-17T09:04:36.999Z</time></trkpt><trkpt lat="36.93356007680476" lon="15.047917502039972"><ele>325.0</ele><time>2026-04-17T09:04:38.999Z</time></trkpt><trkpt lat="36.933467192962084" lon="15.04784442492625"><ele>325.0</ele><time>2026-04-17T09:04:40.999Z</time></trkpt><trkpt lat="36.93338226444847" lon="15.047793706455833"><ele>325.0</ele><time>2026-04-17T09:04:42.999Z</time></trkpt><trkpt lat="36.93329455881398" lon="15.04774214124165"><ele>325.0</ele><time>2026-04-17T09:04:44.999Z</time></trkpt><trkpt lat="36.93324089842738" lon="15.047676098259597"><ele>325.0</ele><time>2026-04-17T09:04:47.999Z</time></trkpt><trkpt lat="36.93320517562978" lon="15.047607771821733"><ele>325.0</ele><time>2026-04-17T09:04:52.999Z</time></trkpt><trkpt lat="36.93314686262713" lon="15.047535581910966"><ele>325.0</ele><time>2026-04-17T09:04:56.999Z</time></trkpt><trkpt lat="36.93308874180558" lon="15.04749875601221"><ele>325.0</ele><time>2026-04-17T09:10:13Z</time></trkpt><trkpt lat="36.93314711643029" lon="15.047545133977891"><ele>325.0</ele><time>2026-04-17T09:11:28.999Z</time></trkpt><trkpt lat="36.933188788472386" lon="15.047619983039676"><ele>325.0</ele><time>2026-04-17T09:11:41.999Z</time></trkpt><trkpt lat="36.93325715915939" lon="15.047705305578482"><ele>325.0</ele><time>2026-04-17T09:11:44.999Z</time></trkpt><trkpt lat="36.93331554830918" lon="15.047760715154304"><ele>325.0</ele><time>2026-04-17T09:11:46.999Z</time></trkpt><trkpt lat="36.93342118355164" lon="15.047826588588663"><ele>325.0</ele><time>2026-04-17T09:12:23.999Z</time></trkpt><trkpt lat="36.93352396152924" lon="15.0478894495909"><ele>325.0</ele><time>2026-04-17T09:12:24.999Z</time></trkpt><trkpt lat="36.933599952629535" lon="15.047945817058201"><ele>325.0</ele><time>2026-04-17T09:12:25.999Z</time></trkpt><trkpt lat="36.93367173691005" lon="15.048005183638862"><ele>325.0</ele><time>2026-04-17T09:12:26.999Z</time></trkpt><trkpt lat="36.933750988467146" lon="15.04806500467145"><ele>325.0</ele><time>2026-04-17T09:12:27.999Z</time></trkpt><trkpt lat="36.93383500751641" lon="15.048107911579592"><ele>325.0</ele><time>2026-04-17T09:12:28.999Z</time></trkpt><trkpt lat="36.9339167779415" lon="15.04815460663742"><ele>325.0</ele><time>2026-04-17T09:12:29.999Z</time></trkpt><trkpt lat="36.93398539427734" lon="15.048180029925724"><ele>325.0</ele><time>2026-04-17T09:12:30.999Z</time></trkpt><trkpt lat="36.93405348547893" lon="15.04818413930628"><ele>325.0</ele><time>2026-04-17T09:12:32.999Z</time></trkpt><trkpt lat="36.93412491276819" lon="15.048187621717775"><ele>325.0</ele><time>2026-04-17T09:12:35.999Z</time></trkpt><trkpt lat="36.93420363025462" lon="15.048190114965402"><ele>325.0</ele><time>2026-04-17T09:12:38.999Z</time></trkpt><trkpt lat="36.93428181023571" lon="15.048210423930787"><ele>325.0</ele><time>2026-04-17T09:12:40.999Z</time></trkpt><trkpt lat="36.93434809165999" lon="15.04821428330431"><ele>325.0</ele><time>2026-04-17T09:12:42.999Z</time></trkpt><trkpt lat="36.934440493967635" lon="15.048219663624"><ele>325.16666666666663</ele><time>2026-04-17T09:12:44.999Z</time></trkpt><trkpt lat="36.93451278992786" lon="15.048223873206956"><ele>325.3333333333333</ele><time>2026-04-17T09:12:45.999Z</time></trkpt><trkpt lat="36.934575894386654" lon="15.04820700704138"><ele>325.5</ele><time>2026-04-17T09:12:46.999Z</time></trkpt><trkpt lat="36.934685549226394" lon="15.04822664522302"><ele>325.6666666666667</ele><time>2026-04-17T09:12:48.999Z</time></trkpt><trkpt lat="36.93481518476525" lon="15.048232751023638"><ele>325.83333333333337</ele><time>2026-04-17T09:12:50.999Z</time></trkpt><trkpt lat="36.9348801223717" lon="15.048267127690911"><ele>326.0</ele><time>2026-04-17T09:12:51.999Z</time></trkpt><trkpt lat="36.934946154748104" lon="15.048285627609161"><ele>326.2857142857143</ele><time>2026-04-17T09:12:52.999Z</time></trkpt><trkpt lat="36.935019931434695" lon="15.048310523517767"><ele>326.57142857142856</ele><time>2026-04-17T09:12:53.999Z</time></trkpt><trkpt lat="36.93508675955804" lon="15.048334303792666"><ele>326.85714285714283</ele><time>2026-04-17T09:12:54.999Z</time></trkpt><trkpt lat="36.935150685715115" lon="15.048358720417019"><ele>327.1428571428571</ele><time>2026-04-17T09:12:55.999Z</time></trkpt><trkpt lat="36.93521081717195" lon="15.048392522565175"><ele>327.42857142857144</ele><time>2026-04-17T09:12:56.999Z</time></trkpt><trkpt lat="36.93527328687343" lon="15.048429422087047"><ele>327.71428571428567</ele><time>2026-04-17T09:12:57.999Z</time></trkpt><trkpt lat="36.935327813346746" lon="15.048472894669812"><ele>328.0</ele><time>2026-04-17T09:12:58.999Z</time></trkpt><trkpt lat="36.93539878334063" lon="15.048503609797676"><ele>328.0</ele><time>2026-04-17T09:12:59.999Z</time></trkpt><trkpt lat="36.935464209288334" lon="15.048556483134877"><ele>328.0</ele><time>2026-04-17T09:13:00.999Z</time></trkpt><trkpt lat="36.93555329176713" lon="15.048609540151329"><ele>328.0</ele><time>2026-04-17T09:13:01.999Z</time></trkpt><trkpt lat="36.93565340955285" lon="15.048650727590271"><ele>328.0</ele><time>2026-04-17T09:13:02.999Z</time></trkpt><trkpt lat="36.9357479177311" lon="15.048687395588388"><ele>328.0</ele><time>2026-04-17T09:13:03.999Z</time></trkpt><trkpt lat="36.93582074638941" lon="15.04869680754799"><ele>328.0</ele><time>2026-04-17T09:13:04.999Z</time></trkpt><trkpt lat="36.93588213002901" lon="15.04872845070563"><ele>328.0</ele><time>2026-04-17T09:13:05.999Z</time></trkpt><trkpt lat="36.93597053160639" lon="15.04874518222787"><ele>328.0</ele><time>2026-04-17T09:13:07.999Z</time></trkpt><trkpt lat="36.93602922032156" lon="15.048618068950038"><ele>328.0</ele><time>2026-04-17T09:13:09.999Z</time></trkpt><trkpt lat="36.93610568787261" lon="15.048488240317102"><ele>328.0</ele><time>2026-04-17T09:13:11.999Z</time></trkpt><trkpt lat="36.93613005766459" lon="15.048402524881075"><ele>327.99999999999994</ele><time>2026-04-17T09:13:12.999Z</time></trkpt><trkpt lat="36.936168087705006" lon="15.048328380591315"><ele>328.0</ele><time>2026-04-17T09:13:13.999Z</time></trkpt><trkpt lat="36.936209374946856" lon="15.048251794128486"><ele>328.0</ele><time>2026-04-17T09:13:14.999Z</time></trkpt><trkpt lat="36.93624795270693" lon="15.048174296430927"><ele>328.0</ele><time>2026-04-17T09:13:15.999Z</time></trkpt><trkpt lat="36.936288358203406" lon="15.048106554802136"><ele>328.0</ele><time>2026-04-17T09:13:16.999Z</time></trkpt><trkpt lat="36.93633157450171" lon="15.048046281848286"><ele>327.99999999999994</ele><time>2026-04-17T09:13:17.999Z</time></trkpt><trkpt lat="36.93637684180987" lon="15.047984638603777"><ele>328.0</ele><time>2026-04-17T09:13:18.999Z</time></trkpt><trkpt lat="36.93645377902899" lon="15.047851915415052"><ele>327.99999999999994</ele><time>2026-04-17T09:13:20.999Z</time></trkpt><trkpt lat="36.93649378205707" lon="15.047782906810367"><ele>328.0</ele><time>2026-04-17T09:13:21.999Z</time></trkpt><trkpt lat="36.93653725726877" lon="15.04770790832013"><ele>328.0</ele><time>2026-04-17T09:13:22.999Z</time></trkpt><trkpt lat="36.93657938847856" lon="15.047634636652623"><ele>328.0</ele><time>2026-04-17T09:13:23.999Z</time></trkpt><trkpt lat="36.93662585949756" lon="15.047553640588207"><ele>328.0</ele><time>2026-04-17T09:13:24.999Z</time></trkpt><trkpt lat="36.93667111680157" lon="15.047478256895557"><ele>327.99999999999994</ele><time>2026-04-17T09:13:25.999Z</time></trkpt><trkpt lat="36.93672110105956" lon="15.047408217285202"><ele>328.0</ele><time>2026-04-17T09:13:26.999Z</time></trkpt><trkpt lat="36.93677674855087" lon="15.047347087851907"><ele>329.59999999999997</ele><time>2026-04-17T09:13:27.999Z</time></trkpt><trkpt lat="36.93683636302201" lon="15.047285245339495"><ele>331.2</ele><time>2026-04-17T09:13:28.999Z</time></trkpt><trkpt lat="36.93689487547312" lon="15.047224546050154"><ele>332.8</ele><time>2026-04-17T09:13:29.999Z</time></trkpt><trkpt lat="36.93695988247874" lon="15.047135850554572"><ele>334.4</ele><time>2026-04-17T09:13:30.999Z</time></trkpt><trkpt lat="36.93705594055637" lon="15.04703985354745"><ele>336.0</ele><time>2026-04-17T09:13:31.999Z</time></trkpt><trkpt lat="36.937159578938235" lon="15.046959268994135"><ele>336.0</ele><time>2026-04-17T09:13:32.999Z</time></trkpt><trkpt lat="36.93725473084948" lon="15.046879840636606"><ele>336.0</ele><time>2026-04-17T09:13:33.999Z</time></trkpt><trkpt lat="36.93735667713135" lon="15.046820972407408"><ele>336.0</ele><time>2026-04-17T09:13:34.999Z</time></trkpt><trkpt lat="36.93744654923149" lon="15.046725218790115"><ele>336.0</ele><time>2026-04-17T09:13:35.999Z</time></trkpt><trkpt lat="36.937534813905884" lon="15.04663332651949"><ele>337.4</ele><time>2026-04-17T09:13:36.999Z</time></trkpt><trkpt lat="36.93763342078915" lon="15.046532034610946"><ele>338.8</ele><time>2026-04-17T09:13:37.999Z</time></trkpt><trkpt lat="36.93771437784527" lon="15.04645253325741"><ele>340.2</ele><time>2026-04-17T09:13:38.999Z</time></trkpt><trkpt lat="36.937796376256664" lon="15.04639895897919"><ele>341.59999999999997</ele><time>2026-04-17T09:13:39.999Z</time></trkpt><trkpt lat="36.93787419745164" lon="15.04639109632555"><ele>343.0</ele><time>2026-04-17T09:13:40.999Z</time></trkpt><trkpt lat="36.93798729747058" lon="15.046406062610092"><ele>343.0</ele><time>2026-04-17T09:13:42.999Z</time></trkpt><trkpt lat="36.93807456557241" lon="15.046454271441517"><ele>343.0</ele><time>2026-04-17T09:13:44.999Z</time></trkpt><trkpt lat="36.93819104989802" lon="15.04644086961557"><ele>343.0</ele><time>2026-04-17T09:13:46.999Z</time></trkpt><trkpt lat="36.93827000964728" lon="15.046431365705024"><ele>343.0</ele><time>2026-04-17T09:13:47.999Z</time></trkpt><trkpt lat="36.938353686294654" lon="15.046419676454056"><ele>343.0</ele><time>2026-04-17T09:13:48.999Z</time></trkpt><trkpt lat="36.93844026289543" lon="15.046404595991879"><ele>343.4</ele><time>2026-04-17T09:13:49.999Z</time></trkpt><trkpt lat="36.938528285945495" lon="15.04637931382355"><ele>343.79999999999995</ele><time>2026-04-17T09:13:50.999Z</time></trkpt><trkpt lat="36.938615964644235" lon="15.046354793682934"><ele>344.2</ele><time>2026-04-17T09:13:51.999Z</time></trkpt><trkpt lat="36.93872211348361" lon="15.046332258334552"><ele>344.6</ele><time>2026-04-17T09:13:52.999Z</time></trkpt><trkpt lat="36.93882348751892" lon="15.046312242327524"><ele>345.0</ele><time>2026-04-17T09:13:53.999Z</time></trkpt><trkpt lat="36.93892884800279" lon="15.046292185361866"><ele>345.0</ele><time>2026-04-17T09:13:54.999Z</time></trkpt><trkpt lat="36.93904123924872" lon="15.04627381550146"><ele>345.0</ele><time>2026-04-17T09:13:55.999Z</time></trkpt><trkpt lat="36.93915378018028" lon="15.046257473413394"><ele>345.0</ele><time>2026-04-17T09:13:56.999Z</time></trkpt><trkpt lat="36.93925554405151" lon="15.046240405590867"><ele>345.0</ele><time>2026-04-17T09:13:57.999Z</time></trkpt><trkpt lat="36.939353452072474" lon="15.046196688412724"><ele>345.0</ele><time>2026-04-17T09:13:58.999Z</time></trkpt><trkpt lat="36.93944358032614" lon="15.046149462305335"><ele>344.0</ele><time>2026-04-17T09:13:59.999Z</time></trkpt><trkpt lat="36.93953914861821" lon="15.046103518347522"><ele>343.0</ele><time>2026-04-17T09:14:00.999Z</time></trkpt><trkpt lat="36.93963638719249" lon="15.046061399282356"><ele>342.0</ele><time>2026-04-17T09:14:01.999Z</time></trkpt><trkpt lat="36.93973450199268" lon="15.046018295744162"><ele>341.0</ele><time>2026-04-17T09:14:02.999Z</time></trkpt><trkpt lat="36.939834295584404" lon="15.045975207326943"><ele>340.0</ele><time>2026-04-17T09:14:03.999Z</time></trkpt><trkpt lat="36.93993540134229" lon="15.045925450773888"><ele>340.0</ele><time>2026-04-17T09:14:04.999Z</time></trkpt><trkpt lat="36.940040419748534" lon="15.045872778634457"><ele>340.0</ele><time>2026-04-17T09:14:05.999Z</time></trkpt><trkpt lat="36.94014571556377" lon="15.045814147164707"><ele>340.0</ele><time>2026-04-17T09:14:06.999Z</time></trkpt><trkpt lat="36.94026082524361" lon="15.045755714087464"><ele>340.0</ele><time>2026-04-17T09:14:07.999Z</time></trkpt><trkpt lat="36.94037201185432" lon="15.045705010762708"><ele>339.5</ele><time>2026-04-17T09:14:08.999Z</time></trkpt><trkpt lat="36.94049732913807" lon="15.045660624645514"><ele>339.0</ele><time>2026-04-17T09:14:09.999Z</time></trkpt><trkpt lat="36.94063883280875" lon="15.045624254257087"><ele>338.5</ele><time>2026-04-17T09:14:10.999Z</time></trkpt><trkpt lat="36.94076870791507" lon="15.045577570969103"><ele>338.0</ele><time>2026-04-17T09:14:11.999Z</time></trkpt><trkpt lat="36.94088820172849" lon="15.045528952906364"><ele>338.0</ele><time>2026-04-17T09:14:12.999Z</time></trkpt><trkpt lat="36.94100339590057" lon="15.045466351305137"><ele>338.0</ele><time>2026-04-17T09:14:13.999Z</time></trkpt><trkpt lat="36.94111705764623" lon="15.045383640202793"><ele>338.0</ele><time>2026-04-17T09:14:14.999Z</time></trkpt><trkpt lat="36.94123763119956" lon="15.04529891257033"><ele>338.0</ele><time>2026-04-17T09:14:15.999Z</time></trkpt><trkpt lat="36.94136131573258" lon="15.045203591948074"><ele>338.0</ele><time>2026-04-17T09:14:16.999Z</time></trkpt><trkpt lat="36.94148526228722" lon="15.045100545541741"><ele>338.0</ele><time>2026-04-17T09:14:17.999Z</time></trkpt><trkpt lat="36.94160377434499" lon="15.044983229546725"><ele>338.0</ele><time>2026-04-17T09:14:18.999Z</time></trkpt><trkpt lat="36.94171337831487" lon="15.044856354404757"><ele>338.0</ele><time>2026-04-17T09:14:19.999Z</time></trkpt><trkpt lat="36.941823228434956" lon="15.044702390967752"><ele>337.33333333333337</ele><time>2026-04-17T09:14:20.999Z</time></trkpt><trkpt lat="36.94194211846406" lon="15.044529801696454"><ele>336.6666666666667</ele><time>2026-04-17T09:14:21.999Z</time></trkpt><trkpt lat="36.94206142886538" lon="15.044355368509272"><ele>336.0</ele><time>2026-04-17T09:14:22.999Z</time></trkpt><trkpt lat="36.942159762804145" lon="15.044196296509556"><ele>337.25</ele><time>2026-04-17T09:14:23.999Z</time></trkpt><trkpt lat="36.94224758303774" lon="15.044038472455924"><ele>338.5</ele><time>2026-04-17T09:14:24.999Z</time></trkpt><trkpt lat="36.942328182181164" lon="15.043881835872433"><ele>339.75</ele><time>2026-04-17T09:14:25.999Z</time></trkpt><trkpt lat="36.94238786242352" lon="15.043732562946914"><ele>341.0</ele><time>2026-04-17T09:14:26.999Z</time></trkpt><trkpt lat="36.94243086888292" lon="15.043590986576769"><ele>341.0</ele><time>2026-04-17T09:14:27.999Z</time></trkpt><trkpt lat="36.942472020455384" lon="15.043461853074536"><ele>341.0</ele><time>2026-04-17T09:14:28.999Z</time></trkpt><trkpt lat="36.942521904727265" lon="15.0433369037471"><ele>341.0</ele><time>2026-04-17T09:14:29.999Z</time></trkpt><trkpt lat="36.94259144649314" lon="15.043222947078386"><ele>341.0</ele><time>2026-04-17T09:14:30.999Z</time></trkpt><trkpt lat="36.94265206909409" lon="15.043101339438623"><ele>341.0</ele><time>2026-04-17T09:14:31.999Z</time></trkpt><trkpt lat="36.942707648105966" lon="15.042991790806505"><ele>341.0</ele><time>2026-04-17T09:14:32.999Z</time></trkpt><trkpt lat="36.94275099058465" lon="15.042881960768108"><ele>341.0</ele><time>2026-04-17T09:14:33.999Z</time></trkpt><trkpt lat="36.94282698038542" lon="15.04282109059424"><ele>341.0</ele><time>2026-04-17T09:14:34.999Z</time></trkpt><trkpt lat="36.94288823880295" lon="15.042732680144022"><ele>341.0</ele><time>2026-04-17T09:14:35.999Z</time></trkpt><trkpt lat="36.942981657297196" lon="15.042642152080617"><ele>341.0</ele><time>2026-04-17T09:14:36.999Z</time></trkpt><trkpt lat="36.94307167548284" lon="15.042551492033422"><ele>341.0</ele><time>2026-04-17T09:14:37.999Z</time></trkpt><trkpt lat="36.9431643932" lon="15.042470299387322"><ele>341.0</ele><time>2026-04-17T09:14:38.999Z</time></trkpt><trkpt lat="36.94326298262762" lon="15.042394787227302"><ele>341.0</ele><time>2026-04-17T09:14:39.999Z</time></trkpt><trkpt lat="36.94339166582444" lon="15.042312582495388"><ele>342.0</ele><time>2026-04-17T09:14:40.999Z</time></trkpt><trkpt lat="36.943537246548125" lon="15.042222359935458"><ele>343.0</ele><time>2026-04-17T09:14:41.999Z</time></trkpt><trkpt lat="36.94366936729698" lon="15.042132945393746"><ele>344.0</ele><time>2026-04-17T09:14:42.999Z</time></trkpt><trkpt lat="36.94378945297983" lon="15.042044900007767"><ele>344.0</ele><time>2026-04-17T09:14:43.999Z</time></trkpt><trkpt lat="36.94389754471034" lon="15.041974166703493"><ele>344.0</ele><time>2026-04-17T09:14:44.999Z</time></trkpt><trkpt lat="36.94400207015774" lon="15.041909353875216"><ele>344.0</ele><time>2026-04-17T09:14:45.999Z</time></trkpt><trkpt lat="36.9440932417438" lon="15.041839157798227"><ele>344.0</ele><time>2026-04-17T09:14:46.999Z</time></trkpt><trkpt lat="36.944180048793676" lon="15.041760477297514"><ele>343.0</ele><time>2026-04-17T09:14:47.999Z</time></trkpt><trkpt lat="36.944265846810424" lon="15.0416681003623"><ele>342.0</ele><time>2026-04-17T09:14:48.999Z</time></trkpt><trkpt lat="36.9443441998175" lon="15.04157138571528"><ele>341.0</ele><time>2026-04-17T09:14:49.999Z</time></trkpt><trkpt lat="36.94441884669633" lon="15.041477513834325"><ele>340.0</ele><time>2026-04-17T09:14:50.999Z</time></trkpt><trkpt lat="36.9444968643168" lon="15.041379298656853"><ele>339.0</ele><time>2026-04-17T09:14:51.999Z</time></trkpt><trkpt lat="36.944585295254605" lon="15.041261253603231"><ele>341.5</ele><time>2026-04-17T09:14:52.999Z</time></trkpt><trkpt lat="36.94469055897106" lon="15.041159811975204"><ele>344.0</ele><time>2026-04-17T09:14:53.999Z</time></trkpt><trkpt lat="36.94477362869717" lon="15.041041354304229"><ele>346.5</ele><time>2026-04-17T09:14:54.999Z</time></trkpt><trkpt lat="36.9448688062595" lon="15.040931574183356"><ele>349.0</ele><time>2026-04-17T09:14:55.999Z</time></trkpt><trkpt lat="36.94496590195044" lon="15.04082841529733"><ele>349.5</ele><time>2026-04-17T09:14:56.999Z</time></trkpt><trkpt lat="36.945066177151624" lon="15.040727910491409"><ele>350.0</ele><time>2026-04-17T09:14:57.999Z</time></trkpt><trkpt lat="36.94516811496234" lon="15.040625899757707"><ele>350.5</ele><time>2026-04-17T09:14:58.999Z</time></trkpt><trkpt lat="36.94527344323112" lon="15.040541049068992"><ele>351.0</ele><time>2026-04-17T09:14:59.999Z</time></trkpt><trkpt lat="36.945383334644404" lon="15.040463517890117"><ele>351.0</ele><time>2026-04-17T09:15:00.999Z</time></trkpt><trkpt lat="36.94548663681853" lon="15.040383916961456"><ele>351.0</ele><time>2026-04-17T09:15:01.999Z</time></trkpt><trkpt lat="36.94558565575745" lon="15.040299958669989"><ele>351.0</ele><time>2026-04-17T09:15:02.999Z</time></trkpt><trkpt lat="36.94568047721423" lon="15.04021115669904"><ele>351.0</ele><time>2026-04-17T09:15:03.999Z</time></trkpt><trkpt lat="36.94577070968115" lon="15.040123032769843"><ele>351.0</ele><time>2026-04-17T09:15:04.999Z</time></trkpt><trkpt lat="36.9458512624556" lon="15.040052260795989"><ele>351.0</ele><time>2026-04-17T09:15:05.999Z</time></trkpt><trkpt lat="36.94592982261414" lon="15.039985462514895"><ele>351.0</ele><time>2026-04-17T09:15:06.999Z</time></trkpt><trkpt lat="36.94600547653713" lon="15.03992773024475"><ele>351.0</ele><time>2026-04-17T09:15:07.999Z</time></trkpt><trkpt lat="36.946097593472615" lon="15.039867618073913"><ele>351.0</ele><time>2026-04-17T09:15:08.999Z</time></trkpt><trkpt lat="36.946211753452715" lon="15.039789965701473"><ele>350.8</ele><time>2026-04-17T09:15:09.999Z</time></trkpt><trkpt lat="36.94631575001037" lon="15.039731004722368"><ele>350.6</ele><time>2026-04-17T09:15:10.999Z</time></trkpt><trkpt lat="36.94640853256012" lon="15.03966708437952"><ele>350.4</ele><time>2026-04-17T09:15:11.999Z</time></trkpt><trkpt lat="36.94649621123415" lon="15.039597962025548"><ele>350.2</ele><time>2026-04-17T09:15:12.999Z</time></trkpt><trkpt lat="36.94659691346044" lon="15.039543159383742"><ele>350.0</ele><time>2026-04-17T09:15:13.999Z</time></trkpt><trkpt lat="36.946717725548616" lon="15.0394881312308"><ele>347.25</ele><time>2026-04-17T09:15:14.999Z</time></trkpt><trkpt lat="36.94683588203175" lon="15.03942422300165"><ele>344.5</ele><time>2026-04-17T09:15:15.999Z</time></trkpt><trkpt lat="36.94694798345725" lon="15.039364843392224"><ele>341.75</ele><time>2026-04-17T09:15:16.999Z</time></trkpt><trkpt lat="36.94705395322872" lon="15.039309145755071"><ele>339.0</ele><time>2026-04-17T09:15:17.999Z</time></trkpt><trkpt lat="36.94715564884571" lon="15.03925391439435"><ele>339.0</ele><time>2026-04-17T09:15:18.999Z</time></trkpt><trkpt lat="36.94725166308601" lon="15.03920848081087"><ele>339.0</ele><time>2026-04-17T09:15:19.999Z</time></trkpt><trkpt lat="36.9473369120955" lon="15.039137122324375"><ele>339.0</ele><time>2026-04-17T09:15:20.999Z</time></trkpt><trkpt lat="36.94740621526502" lon="15.039038645542625"><ele>339.0</ele><time>2026-04-17T09:15:21.999Z</time></trkpt><trkpt lat="36.94747317044784" lon="15.038955322287046"><ele>339.0</ele><time>2026-04-17T09:15:22.999Z</time></trkpt><trkpt lat="36.94756775322481" lon="15.038922976885107"><ele>340.25</ele><time>2026-04-17T09:15:23.999Z</time></trkpt><trkpt lat="36.94767224557732" lon="15.038878078871376"><ele>341.5</ele><time>2026-04-17T09:15:24.999Z</time></trkpt><trkpt lat="36.94778255470992" lon="15.038817438186959"><ele>342.75</ele><time>2026-04-17T09:15:25.999Z</time></trkpt><trkpt lat="36.94789576155449" lon="15.038759030136319"><ele>344.0</ele><time>2026-04-17T09:15:26.999Z</time></trkpt><trkpt lat="36.947994227181" lon="15.038708904677879"><ele>344.0</ele><time>2026-04-17T09:15:27.999Z</time></trkpt><trkpt lat="36.94809423707758" lon="15.03867429055424"><ele>344.0</ele><time>2026-04-17T09:15:28.999Z</time></trkpt><trkpt lat="36.948192298371126" lon="15.03865762737563"><ele>344.0</ele><time>2026-04-17T09:15:29.999Z</time></trkpt><trkpt lat="36.948294609426654" lon="15.038659619605447"><ele>344.0</ele><time>2026-04-17T09:15:30.999Z</time></trkpt><trkpt lat="36.94839389651902" lon="15.038671936760165"><ele>344.0</ele><time>2026-04-17T09:15:31.999Z</time></trkpt><trkpt lat="36.948502106207684" lon="15.038675536812974"><ele>344.0</ele><time>2026-04-17T09:15:32.999Z</time></trkpt><trkpt lat="36.948634803657356" lon="15.038702746114303"><ele>344.0</ele><time>2026-04-17T09:15:33.999Z</time></trkpt><trkpt lat="36.9487619743465" lon="15.03876627862282"><ele>344.0</ele><time>2026-04-17T09:15:34.999Z</time></trkpt><trkpt lat="36.94890649888366" lon="15.03878552342363"><ele>344.0</ele><time>2026-04-17T09:15:35.999Z</time></trkpt><trkpt lat="36.949047362415854" lon="15.038838785054633"><ele>344.0</ele><time>2026-04-17T09:15:36.999Z</time></trkpt><trkpt lat="36.949166936268334" lon="15.038878367873794"><ele>344.0</ele><time>2026-04-17T09:15:37.999Z</time></trkpt><trkpt lat="36.94927149165083" lon="15.038917252760925"><ele>344.0</ele><time>2026-04-17T09:15:38.999Z</time></trkpt><trkpt lat="36.94937261748297" lon="15.038929824529822"><ele>344.0</ele><time>2026-04-17T09:15:39.999Z</time></trkpt><trkpt lat="36.94946569443418" lon="15.038913181261922"><ele>344.0</ele><time>2026-04-17T09:15:40.999Z</time></trkpt><trkpt lat="36.94954685493743" lon="15.03890964997936"><ele>344.33333333333337</ele><time>2026-04-17T09:15:41.999Z</time></trkpt><trkpt lat="36.949612118834466" lon="15.038910321954983"><ele>344.6666666666667</ele><time>2026-04-17T09:15:43.999Z</time></trkpt><trkpt lat="36.949609634760364" lon="15.03900606741381"><ele>345.0</ele><time>2026-04-17T09:15:46.999Z</time></trkpt><trkpt lat="36.94962180655523" lon="15.039115437837339"><ele>345.3333333333333</ele><time>2026-04-17T09:15:48.999Z</time></trkpt><trkpt lat="36.94961560723254" lon="15.03927095746348"><ele>345.66666666666663</ele><time>2026-04-17T09:15:50.999Z</time></trkpt><trkpt lat="36.949590308301175" lon="15.039354354402544"><ele>346.0</ele><time>2026-04-17T09:15:51.999Z</time></trkpt><trkpt lat="36.94956691721806" lon="15.039428474783113"><ele>346.0</ele><time>2026-04-17T09:15:52.999Z</time></trkpt><trkpt lat="36.94953830618223" lon="15.039567361493642"><ele>346.0</ele><time>2026-04-17T09:15:54.999Z</time></trkpt><trkpt lat="36.94960969621749" lon="15.039669107127546"><ele>346.0</ele><time>2026-04-17T09:15:56.999Z</time></trkpt><trkpt lat="36.949667417269374" lon="15.039790929776753"><ele>346.0</ele><time>2026-04-17T09:15:58.999Z</time></trkpt><trkpt lat="36.949706516461646" lon="15.039868717523454"><ele>346.0</ele><time>2026-04-17T09:15:59.999Z</time></trkpt><trkpt lat="36.94974787213431" lon="15.039958671749451"><ele>346.75</ele><time>2026-04-17T09:16:00.999Z</time></trkpt><trkpt lat="36.94978658345765" lon="15.040084631215258"><ele>347.5</ele><time>2026-04-17T09:16:01.999Z</time></trkpt><trkpt lat="36.949858612006764" lon="15.040256512830242"><ele>348.25</ele><time>2026-04-17T09:16:02.999Z</time></trkpt><trkpt lat="36.94991863868687" lon="15.040377855128549"><ele>349.0</ele><time>2026-04-17T09:16:03.999Z</time></trkpt><trkpt lat="36.94996796628275" lon="15.040481241702954"><ele>349.0</ele><time>2026-04-17T09:16:05Z</time></trkpt><trkpt lat="36.950003597190864" lon="15.040581469101289"><ele>349.0</ele><time>2026-04-17T09:16:06Z</time></trkpt><trkpt lat="36.95003615897184" lon="15.040673036324108"><ele>349.0</ele><time>2026-04-17T09:16:07Z</time></trkpt><trkpt lat="36.9500368539485" lon="15.040785318198031"><ele>349.0</ele><time>2026-04-17T09:16:08Z</time></trkpt><trkpt lat="36.95006022175422" lon="15.040921730201788"><ele>349.0</ele><time>2026-04-17T09:16:09Z</time></trkpt><trkpt lat="36.950059421431014" lon="15.041046928880737"><ele>349.3333333333333</ele><time>2026-04-17T09:16:10Z</time></trkpt><trkpt lat="36.95005861902035" lon="15.041156986807499"><ele>349.66666666666663</ele><time>2026-04-17T09:16:11Z</time></trkpt><trkpt lat="36.95005827691369" lon="15.041246641012133"><ele>350.0</ele><time>2026-04-17T09:16:12Z</time></trkpt><trkpt lat="36.95007418340622" lon="15.041342966810182"><ele>350.3333333333333</ele><time>2026-04-17T09:16:13Z</time></trkpt><trkpt lat="36.95007844360259" lon="15.041441503244632"><ele>350.6666666666667</ele><time>2026-04-17T09:16:14Z</time></trkpt><trkpt lat="36.950086656649894" lon="15.04155370058796"><ele>351.0</ele><time>2026-04-17T09:16:15Z</time></trkpt><trkpt lat="36.950089626274334" lon="15.041670142155606"><ele>351.0</ele><time>2026-04-17T09:16:16Z</time></trkpt><trkpt lat="36.95008136270921" lon="15.041811038286822"><ele>351.0</ele><time>2026-04-17T09:16:17Z</time></trkpt><trkpt lat="36.95006857205383" lon="15.04197090975783"><ele>351.0</ele><time>2026-04-17T09:16:18Z</time></trkpt><trkpt lat="36.950053553811706" lon="15.042175688331286"><ele>351.0</ele><time>2026-04-17T09:16:19Z</time></trkpt><trkpt lat="36.95003786901015" lon="15.04240461260938"><ele>349.3333333333333</ele><time>2026-04-17T09:16:20Z</time></trkpt><trkpt lat="36.95002366243507" lon="15.042654777627524"><ele>347.66666666666663</ele><time>2026-04-17T09:16:21Z</time></trkpt><trkpt lat="36.95000268932795" lon="15.042909628466525"><ele>346.0</ele><time>2026-04-17T09:16:22Z</time></trkpt><trkpt lat="36.949984986876906" lon="15.04313834405619"><ele>345.3333333333333</ele><time>2026-04-17T09:16:23Z</time></trkpt><trkpt lat="36.94996576036821" lon="15.043395512608779"><ele>344.6666666666667</ele><time>2026-04-17T09:16:24Z</time></trkpt><trkpt lat="36.94995787069531" lon="15.043670390723447"><ele>344.0</ele><time>2026-04-17T09:16:25Z</time></trkpt><trkpt lat="36.94995951243306" lon="15.044005331404811"><ele>345.0</ele><time>2026-04-17T09:16:26Z</time></trkpt><trkpt lat="36.94996450730012" lon="15.044360071270015"><ele>346.0</ele><time>2026-04-17T09:16:27Z</time></trkpt><trkpt lat="36.949980514559854" lon="15.044547690098335"><ele>347.0</ele><time>2026-04-17T09:16:29Z</time></trkpt><trkpt lat="36.94997143196754" lon="15.044720149768228"><ele>347.0</ele><time>2026-04-17T09:16:30Z</time></trkpt><trkpt lat="36.94993835582851" lon="15.04482496720833"><ele>347.0</ele><time>2026-04-17T09:16:31Z</time></trkpt><trkpt lat="36.949898666748325" lon="15.044900420190618"><ele>347.0</ele><time>2026-04-17T09:16:32Z</time></trkpt><trkpt lat="36.949845615648705" lon="15.045009753322839"><ele>347.0</ele><time>2026-04-17T09:16:33Z</time></trkpt><trkpt lat="36.949770027486046" lon="15.04515215474984"><ele>347.0</ele><time>2026-04-17T09:16:34Z</time></trkpt><trkpt lat="36.949680991356466" lon="15.045273835504887"><ele>347.6666666666667</ele><time>2026-04-17T09:16:35Z</time></trkpt><trkpt lat="36.94957706417572" lon="15.045419711472626"><ele>348.3333333333333</ele><time>2026-04-17T09:16:36Z</time></trkpt><trkpt lat="36.94944418796242" lon="15.045559736743243"><ele>349.0</ele><time>2026-04-17T09:16:37Z</time></trkpt><trkpt lat="36.94932055003654" lon="15.04573090018927"><ele>348.3333333333333</ele><time>2026-04-17T09:16:38Z</time></trkpt><trkpt lat="36.94918507371915" lon="15.045889467558478"><ele>347.6666666666667</ele><time>2026-04-17T09:16:39Z</time></trkpt><trkpt lat="36.94904976420059" lon="15.046020044030513"><ele>347.0</ele><time>2026-04-17T09:16:40Z</time></trkpt><trkpt lat="36.948928444830614" lon="15.046144485806137"><ele>347.0</ele><time>2026-04-17T09:16:41Z</time></trkpt><trkpt lat="36.94881157195459" lon="15.04625054821649"><ele>347.0</ele><time>2026-04-17T09:16:42Z</time></trkpt><trkpt lat="36.94869147045639" lon="15.046342521631555"><ele>347.0</ele><time>2026-04-17T09:16:43Z</time></trkpt><trkpt lat="36.948584544636574" lon="15.046450506657598"><ele>347.0</ele><time>2026-04-17T09:16:44Z</time></trkpt><trkpt lat="36.94847336220439" lon="15.046534622677786"><ele>346.0</ele><time>2026-04-17T09:16:45Z</time></trkpt><trkpt lat="36.94838532103546" lon="15.046644432492956"><ele>345.0</ele><time>2026-04-17T09:16:46Z</time></trkpt><trkpt lat="36.94831600868178" lon="15.046780562307147"><ele>344.0</ele><time>2026-04-17T09:16:47Z</time></trkpt><trkpt lat="36.948258739544876" lon="15.04693950438888"><ele>343.0</ele><time>2026-04-17T09:16:48Z</time></trkpt><trkpt lat="36.948205096123594" lon="15.047106628584526"><ele>343.0</ele><time>2026-04-17T09:16:49Z</time></trkpt><trkpt lat="36.94814361928489" lon="15.047272260604998"><ele>343.0</ele><time>2026-04-17T09:16:50Z</time></trkpt><trkpt lat="36.94808308046217" lon="15.047464074012092"><ele>343.0</ele><time>2026-04-17T09:16:51Z</time></trkpt><trkpt lat="36.94801318862496" lon="15.0476213736804"><ele>343.75</ele><time>2026-04-17T09:16:52Z</time></trkpt><trkpt lat="36.947947580472935" lon="15.04777407617449"><ele>344.5</ele><time>2026-04-17T09:16:53Z</time></trkpt><trkpt lat="36.94788875169062" lon="15.04790869442259"><ele>345.25</ele><time>2026-04-17T09:16:54Z</time></trkpt><trkpt lat="36.94783669306068" lon="15.048033096167103"><ele>346.0</ele><time>2026-04-17T09:16:55Z</time></trkpt><trkpt lat="36.94776031944077" lon="15.048137855895664"><ele>346.0</ele><time>2026-04-17T09:16:56Z</time></trkpt><trkpt lat="36.947680525702765" lon="15.048223743763682"><ele>346.0</ele><time>2026-04-17T09:16:57Z</time></trkpt><trkpt lat="36.9476037115812" lon="15.048303434371464"><ele>346.0</ele><time>2026-04-17T09:16:58Z</time></trkpt><trkpt lat="36.94752935085684" lon="15.048381927770132"><ele>346.0</ele><time>2026-04-17T09:16:59Z</time></trkpt><trkpt lat="36.947444489770156" lon="15.04846952582681"><ele>346.0</ele><time>2026-04-17T09:17:00Z</time></trkpt><trkpt lat="36.94736335028187" lon="15.048568461515199"><ele>345.0</ele><time>2026-04-17T09:17:01Z</time></trkpt><trkpt lat="36.94727541738818" lon="15.048673926762685"><ele>344.0</ele><time>2026-04-17T09:17:02Z</time></trkpt><trkpt lat="36.94719051798625" lon="15.048764730231033"><ele>343.0</ele><time>2026-04-17T09:17:03Z</time></trkpt><trkpt lat="36.94711090831908" lon="15.048845210433935"><ele>342.0</ele><time>2026-04-17T09:17:04Z</time></trkpt><trkpt lat="36.947042706111986" lon="15.048920201958374"><ele>341.0</ele><time>2026-04-17T09:17:05Z</time></trkpt><trkpt lat="36.94697911435648" lon="15.048997348044335"><ele>341.0</ele><time>2026-04-17T09:17:06Z</time></trkpt><trkpt lat="36.94691312307261" lon="15.04907938109706"><ele>341.0</ele><time>2026-04-17T09:17:07Z</time></trkpt><trkpt lat="36.946851330258895" lon="15.049172295856092"><ele>341.0</ele><time>2026-04-17T09:17:08Z</time></trkpt><trkpt lat="36.94678309512885" lon="15.049267948895618"><ele>341.0</ele><time>2026-04-17T09:17:09Z</time></trkpt><trkpt lat="36.94670573673611" lon="15.049355123525231"><ele>341.0</ele><time>2026-04-17T09:17:10Z</time></trkpt><trkpt lat="36.94663596513294" lon="15.049421491925868"><ele>340.33333333333337</ele><time>2026-04-17T09:17:11Z</time></trkpt><trkpt lat="36.9465770766497" lon="15.04948393234139"><ele>339.6666666666667</ele><time>2026-04-17T09:17:12Z</time></trkpt><trkpt lat="36.946521368286" lon="15.04953847343713"><ele>339.0</ele><time>2026-04-17T09:17:13Z</time></trkpt><trkpt lat="36.94646789242004" lon="15.049589557003562"><ele>338.3333333333333</ele><time>2026-04-17T09:17:14Z</time></trkpt><trkpt lat="36.94641220016669" lon="15.049638043697602"><ele>337.66666666666663</ele><time>2026-04-17T09:17:15Z</time></trkpt><trkpt lat="36.94633832155387" lon="15.049693734542988"><ele>337.0</ele><time>2026-04-17T09:17:16Z</time></trkpt><trkpt lat="36.946251685301114" lon="15.049755535116068"><ele>337.0</ele><time>2026-04-17T09:17:17Z</time></trkpt><trkpt lat="36.946149839336876" lon="15.049816826270499"><ele>337.0</ele><time>2026-04-17T09:17:18Z</time></trkpt><trkpt lat="36.94603885309123" lon="15.049883944313937"><ele>337.0</ele><time>2026-04-17T09:17:19Z</time></trkpt><trkpt lat="36.94592303645431" lon="15.04995772069442"><ele>337.0</ele><time>2026-04-17T09:17:20Z</time></trkpt><trkpt lat="36.945796962059156" lon="15.050042898343811"><ele>337.66666666666663</ele><time>2026-04-17T09:17:20.999Z</time></trkpt><trkpt lat="36.9456680447026" lon="15.050134957569169"><ele>338.3333333333333</ele><time>2026-04-17T09:17:21.999Z</time></trkpt><trkpt lat="36.94554173850187" lon="15.05025166020191"><ele>339.0</ele><time>2026-04-17T09:17:22.999Z</time></trkpt><trkpt lat="36.94542231971217" lon="15.050392847147123"><ele>339.0</ele><time>2026-04-17T09:17:23.999Z</time></trkpt><trkpt lat="36.945312347350594" lon="15.050536702298299"><ele>339.0</ele><time>2026-04-17T09:17:24.999Z</time></trkpt><trkpt lat="36.94520712084449" lon="15.05067395948699"><ele>339.0</ele><time>2026-04-17T09:17:25.999Z</time></trkpt><trkpt lat="36.94509119472374" lon="15.05078245890394"><ele>336.25</ele><time>2026-04-17T09:17:26.999Z</time></trkpt><trkpt lat="36.9449754918902" lon="15.050876050326586"><ele>333.5</ele><time>2026-04-17T09:17:27.999Z</time></trkpt><trkpt lat="36.944861520813156" lon="15.050960637537791"><ele>330.75</ele><time>2026-04-17T09:17:28.999Z</time></trkpt><trkpt lat="36.94474717554995" lon="15.051025226128427"><ele>328.0</ele><time>2026-04-17T09:17:29.999Z</time></trkpt><trkpt lat="36.94462645031031" lon="15.051038510155218"><ele>328.0</ele><time>2026-04-17T09:17:30.999Z</time></trkpt><trkpt lat="36.94450912821961" lon="15.051056897861727"><ele>328.0</ele><time>2026-04-17T09:17:31.999Z</time></trkpt><trkpt lat="36.94438051385382" lon="15.051041438083406"><ele>328.0</ele><time>2026-04-17T09:17:32.999Z</time></trkpt><trkpt lat="36.94424795596453" lon="15.051037195980738"><ele>328.0</ele><time>2026-04-17T09:17:33.999Z</time></trkpt><trkpt lat="36.94410303912302" lon="15.051036310288291"><ele>327.75</ele><time>2026-04-17T09:17:34.999Z</time></trkpt><trkpt lat="36.94395849049869" lon="15.051037568842405"><ele>327.5</ele><time>2026-04-17T09:17:35.999Z</time></trkpt><trkpt lat="36.94381044865753" lon="15.05103990828651"><ele>327.25</ele><time>2026-04-17T09:17:36.999Z</time></trkpt><trkpt lat="36.94366973118972" lon="15.051030746657409"><ele>327.0</ele><time>2026-04-17T09:17:37.999Z</time></trkpt><trkpt lat="36.94353312294323" lon="15.051010963502554"><ele>327.0</ele><time>2026-04-17T09:17:38.999Z</time></trkpt><trkpt lat="36.94342366709129" lon="15.050978740738723"><ele>327.0</ele><time>2026-04-17T09:17:39.999Z</time></trkpt><trkpt lat="36.94334344223427" lon="15.050923104140766"><ele>327.0</ele><time>2026-04-17T09:17:40.999Z</time></trkpt><trkpt lat="36.94331727267802" lon="15.050825417730449"><ele>327.0</ele><time>2026-04-17T09:17:41.999Z</time></trkpt><trkpt lat="36.94336159089418" lon="15.050712010484322"><ele>327.0</ele><time>2026-04-17T09:17:42.999Z</time></trkpt><trkpt lat="36.94339480685374" lon="15.050599558222979"><ele>327.75</ele><time>2026-04-17T09:17:43.999Z</time></trkpt><trkpt lat="36.94345863942064" lon="15.050454008391387"><ele>328.5</ele><time>2026-04-17T09:17:44.999Z</time></trkpt><trkpt lat="36.943530770802425" lon="15.050292216000768"><ele>329.25</ele><time>2026-04-17T09:17:45.999Z</time></trkpt><trkpt lat="36.94358614819123" lon="15.050140732571094"><ele>330.0</ele><time>2026-04-17T09:17:46.999Z</time></trkpt><trkpt lat="36.943617182273165" lon="15.050002663158985"><ele>329.6</ele><time>2026-04-17T09:17:47.999Z</time></trkpt><trkpt lat="36.94360565734375" lon="15.049879225182185"><ele>329.2</ele><time>2026-04-17T09:17:48.999Z</time></trkpt><trkpt lat="36.94354779310248" lon="15.049785225338617"><ele>328.79999999999995</ele><time>2026-04-17T09:17:49.999Z</time></trkpt><trkpt lat="36.943460304599114" lon="15.049744495868367"><ele>328.4</ele><time>2026-04-17T09:17:50.999Z</time></trkpt><trkpt lat="36.943375883150374" lon="15.049767505295215"><ele>328.0</ele><time>2026-04-17T09:17:51.999Z</time></trkpt><trkpt lat="36.94332648327264" lon="15.049866497854156"><ele>323.75</ele><time>2026-04-17T09:17:52.999Z</time></trkpt><trkpt lat="36.943307041728985" lon="15.049987202325603"><ele>319.5</ele><time>2026-04-17T09:17:53.999Z</time></trkpt><trkpt lat="36.943282027296846" lon="15.050134469729828"><ele>315.25</ele><time>2026-04-17T09:17:54.999Z</time></trkpt><trkpt lat="36.94323260798469" lon="15.050308838461508"><ele>311.0</ele><time>2026-04-17T09:17:55.999Z</time></trkpt><trkpt lat="36.94317791618481" lon="15.050500411335937"><ele>311.0</ele><time>2026-04-17T09:17:56.999Z</time></trkpt><trkpt lat="36.943132168577186" lon="15.050682365410282"><ele>311.0</ele><time>2026-04-17T09:17:57.999Z</time></trkpt><trkpt lat="36.94308273494248" lon="15.050839368141135"><ele>311.0</ele><time>2026-04-17T09:17:58.999Z</time></trkpt><trkpt lat="36.94299864575699" lon="15.05095291770484"><ele>311.0</ele><time>2026-04-17T09:17:59.999Z</time></trkpt><trkpt lat="36.94287406059549" lon="15.050987492785179"><ele>311.75</ele><time>2026-04-17T09:18:00.999Z</time></trkpt><trkpt lat="36.94275948415551" lon="15.051054573914811"><ele>312.5</ele><time>2026-04-17T09:18:01.999Z</time></trkpt><trkpt lat="36.942635009800675" lon="15.051108016289774"><ele>313.25</ele><time>2026-04-17T09:18:02.999Z</time></trkpt><trkpt lat="36.94249521997134" lon="15.05118957895126"><ele>314.0</ele><time>2026-04-17T09:18:03.999Z</time></trkpt><trkpt lat="36.9423564596428" lon="15.051267347705581"><ele>310.59999999999997</ele><time>2026-04-17T09:18:04.999Z</time></trkpt><trkpt lat="36.94223883432126" lon="15.051330273030338"><ele>307.2</ele><time>2026-04-17T09:18:05.999Z</time></trkpt><trkpt lat="36.94213633575855" lon="15.051384291249773"><ele>303.79999999999995</ele><time>2026-04-17T09:18:07Z</time></trkpt><trkpt lat="36.94203760250014" lon="15.051422421183267"><ele>300.4</ele><time>2026-04-17T09:18:08Z</time></trkpt><trkpt lat="36.9419490568128" lon="15.051407975424029"><ele>297.0</ele><time>2026-04-17T09:18:09Z</time></trkpt><trkpt lat="36.94187639332025" lon="15.05134722275452"><ele>297.0</ele><time>2026-04-17T09:18:10Z</time></trkpt><trkpt lat="36.94183587120551" lon="15.051260414860332"><ele>297.0</ele><time>2026-04-17T09:18:11Z</time></trkpt><trkpt lat="36.94184356929916" lon="15.051146601968131"><ele>297.0</ele><time>2026-04-17T09:18:12Z</time></trkpt><trkpt lat="36.941891188173706" lon="15.051010912441596"><ele>297.0</ele><time>2026-04-17T09:18:13Z</time></trkpt><trkpt lat="36.94194740220357" lon="15.050852575869895"><ele>297.0</ele><time>2026-04-17T09:18:14Z</time></trkpt><trkpt lat="36.9419797027098" lon="15.050693742914255"><ele>296.2</ele><time>2026-04-17T09:18:15Z</time></trkpt><trkpt lat="36.9419935097763" lon="15.050552839466278"><ele>295.4</ele><time>2026-04-17T09:18:16Z</time></trkpt><trkpt lat="36.94196132074958" lon="15.050442257354092"><ele>294.6</ele><time>2026-04-17T09:18:17Z</time></trkpt><trkpt lat="36.94186659011245" lon="15.050370100440539"><ele>293.8</ele><time>2026-04-17T09:18:18Z</time></trkpt><trkpt lat="36.941751265772915" lon="15.050361685924559"><ele>293.0</ele><time>2026-04-17T09:18:19Z</time></trkpt><trkpt lat="36.94162277589318" lon="15.05037292148623"><ele>297.33333333333337</ele><time>2026-04-17T09:18:20Z</time></trkpt><trkpt lat="36.941476202678466" lon="15.050359806288894"><ele>301.6666666666667</ele><time>2026-04-17T09:18:21Z</time></trkpt><trkpt lat="36.94131960449039" lon="15.05033685453839"><ele>306.0</ele><time>2026-04-17T09:18:22Z</time></trkpt><trkpt lat="36.941154118368324" lon="15.0503157606376"><ele>306.0</ele><time>2026-04-17T09:18:23Z</time></trkpt><trkpt lat="36.94100757498295" lon="15.050290888906982"><ele>306.0</ele><time>2026-04-17T09:18:24Z</time></trkpt><trkpt lat="36.94088561098359" lon="15.050271728139355"><ele>306.0</ele><time>2026-04-17T09:18:25Z</time></trkpt><trkpt lat="36.94077470449202" lon="15.050253940426863"><ele>306.0</ele><time>2026-04-17T09:18:26Z</time></trkpt><trkpt lat="36.94067774184222" lon="15.050240514754499"><ele>308.2</ele><time>2026-04-17T09:18:27Z</time></trkpt><trkpt lat="36.940586755833905" lon="15.050233964809607"><ele>310.40000000000003</ele><time>2026-04-17T09:18:28Z</time></trkpt><trkpt lat="36.940497434347684" lon="15.050241095995576"><ele>312.6</ele><time>2026-04-17T09:18:29Z</time></trkpt><trkpt lat="36.94040914709536" lon="15.050273818398948"><ele>314.8</ele><time>2026-04-17T09:18:30Z</time></trkpt><trkpt lat="36.94033286141691" lon="15.050348452523364"><ele>317.0</ele><time>2026-04-17T09:18:31Z</time></trkpt><trkpt lat="36.94027518651754" lon="15.050449027783197"><ele>317.0</ele><time>2026-04-17T09:18:32Z</time></trkpt><trkpt lat="36.94024775026358" lon="15.050576176299417"><ele>317.0</ele><time>2026-04-17T09:18:33Z</time></trkpt><trkpt lat="36.940245190393625" lon="15.050711427455381"><ele>317.0</ele><time>2026-04-17T09:18:34Z</time></trkpt><trkpt lat="36.94024739339291" lon="15.05084677807906"><ele>317.0</ele><time>2026-04-17T09:18:35Z</time></trkpt><trkpt lat="36.94024517180287" lon="15.0509831606954"><ele>317.0</ele><time>2026-04-17T09:18:36Z</time></trkpt><trkpt lat="36.940242225431675" lon="15.051123757785234"><ele>319.5</ele><time>2026-04-17T09:18:37Z</time></trkpt><trkpt lat="36.94024766801188" lon="15.051258859116318"><ele>322.0</ele><time>2026-04-17T09:18:38Z</time></trkpt><trkpt lat="36.940267616704645" lon="15.051402011414904"><ele>324.5</ele><time>2026-04-17T09:18:39Z</time></trkpt><trkpt lat="36.94030475671676" lon="15.051538217702161"><ele>327.0</ele><time>2026-04-17T09:18:40Z</time></trkpt><trkpt lat="36.94036328486055" lon="15.051655610084499"><ele>328.0</ele><time>2026-04-17T09:18:41Z</time></trkpt><trkpt lat="36.940433145034895" lon="15.051757942001947"><ele>329.0</ele><time>2026-04-17T09:18:42Z</time></trkpt><trkpt lat="36.94049374800677" lon="15.051864913798772"><ele>330.0</ele><time>2026-04-17T09:18:43Z</time></trkpt><trkpt lat="36.94053458399034" lon="15.05198198078902"><ele>331.0</ele><time>2026-04-17T09:18:44Z</time></trkpt><trkpt lat="36.940527852108886" lon="15.05209331580095"><ele>332.0</ele><time>2026-04-17T09:18:45Z</time></trkpt><trkpt lat="36.94046915580774" lon="15.052188378431326"><ele>332.0</ele><time>2026-04-17T09:18:46Z</time></trkpt><trkpt lat="36.94035950400989" lon="15.052247955940382"><ele>332.0</ele><time>2026-04-17T09:18:47Z</time></trkpt><trkpt lat="36.940247647515605" lon="15.05234961414809"><ele>332.0</ele><time>2026-04-17T09:18:48Z</time></trkpt><trkpt lat="36.94013714201688" lon="15.052438282510622"><ele>332.0</ele><time>2026-04-17T09:18:49Z</time></trkpt><trkpt lat="36.94003885400961" lon="15.052553891285116"><ele>330.75</ele><time>2026-04-17T09:18:50Z</time></trkpt><trkpt lat="36.939947226323724" lon="15.052676969840245"><ele>329.5</ele><time>2026-04-17T09:18:51Z</time></trkpt><trkpt lat="36.93985734421154" lon="15.052798661038397"><ele>328.25</ele><time>2026-04-17T09:18:52Z</time></trkpt><trkpt lat="36.939770933215165" lon="15.052912671453301"><ele>327.0</ele><time>2026-04-17T09:18:53Z</time></trkpt><trkpt lat="36.93968905659958" lon="15.05302718518364"><ele>327.0</ele><time>2026-04-17T09:18:54Z</time></trkpt><trkpt lat="36.93960798769375" lon="15.053136172047495"><ele>327.0</ele><time>2026-04-17T09:18:55Z</time></trkpt><trkpt lat="36.93952826673975" lon="15.053240530218211"><ele>327.0</ele><time>2026-04-17T09:18:56Z</time></trkpt><trkpt lat="36.939449254156344" lon="15.053354075029903"><ele>327.0</ele><time>2026-04-17T09:18:57Z</time></trkpt><trkpt lat="36.939370399568375" lon="15.053465725095421"><ele>326.6</ele><time>2026-04-17T09:18:58Z</time></trkpt><trkpt lat="36.939303837163955" lon="15.053568736879736"><ele>326.20000000000005</ele><time>2026-04-17T09:18:59Z</time></trkpt><trkpt lat="36.93923680396569" lon="15.053667176359006"><ele>325.8</ele><time>2026-04-17T09:19:00Z</time></trkpt><trkpt lat="36.93917333205217" lon="15.053765075381577"><ele>325.4</ele><time>2026-04-17T09:19:01Z</time></trkpt><trkpt lat="36.939107039919236" lon="15.053862755534867"><ele>325.0</ele><time>2026-04-17T09:19:02Z</time></trkpt><trkpt lat="36.9390434395546" lon="15.053960478394478"><ele>325.0</ele><time>2026-04-17T09:19:03Z</time></trkpt><trkpt lat="36.93898143080353" lon="15.054054066257361"><ele>325.0</ele><time>2026-04-17T09:19:04Z</time></trkpt><trkpt lat="36.93891588208228" lon="15.054136575640827"><ele>325.0</ele><time>2026-04-17T09:19:05Z</time></trkpt><trkpt lat="36.93884776237791" lon="15.054222532671039"><ele>325.0</ele><time>2026-04-17T09:19:06Z</time></trkpt><trkpt lat="36.93877349012112" lon="15.054311295715971"><ele>325.0</ele><time>2026-04-17T09:19:07Z</time></trkpt><trkpt lat="36.938695262962504" lon="15.054386048679095"><ele>323.4</ele><time>2026-04-17T09:19:08Z</time></trkpt><trkpt lat="36.93861467997858" lon="15.054458158031094"><ele>321.8</ele><time>2026-04-17T09:19:09Z</time></trkpt><trkpt lat="36.93852841002609" lon="15.054526577276322"><ele>320.2</ele><time>2026-04-17T09:19:10Z</time></trkpt><trkpt lat="36.93843532737528" lon="15.054597964544751"><ele>318.6</ele><time>2026-04-17T09:19:11Z</time></trkpt><trkpt lat="36.93834467752607" lon="15.05467248280322"><ele>317.0</ele><time>2026-04-17T09:19:12Z</time></trkpt><trkpt lat="36.93826526611102" lon="15.05474806976721"><ele>317.0</ele><time>2026-04-17T09:19:13Z</time></trkpt><trkpt lat="36.93819328637837" lon="15.05481840389458"><ele>317.0</ele><time>2026-04-17T09:19:14Z</time></trkpt><trkpt lat="36.93812151007146" lon="15.05487881838538"><ele>317.0</ele><time>2026-04-17T09:19:15Z</time></trkpt><trkpt lat="36.93805085419706" lon="15.054937382278561"><ele>317.0</ele><time>2026-04-17T09:19:16Z</time></trkpt><trkpt lat="36.937981726941395" lon="15.054992245339475"><ele>317.0</ele><time>2026-04-17T09:19:17Z</time></trkpt><trkpt lat="36.937918607590454" lon="15.055049509759831"><ele>317.0</ele><time>2026-04-17T09:19:18Z</time></trkpt><trkpt lat="36.9378651103696" lon="15.055103632229764"><ele>320.6</ele><time>2026-04-17T09:19:19Z</time></trkpt><trkpt lat="36.937792717132474" lon="15.055179113687068"><ele>324.2</ele><time>2026-04-17T09:19:21Z</time></trkpt><trkpt lat="36.93774354872756" lon="15.055258800424797"><ele>327.8</ele><time>2026-04-17T09:19:43Z</time></trkpt><trkpt lat="36.93769497038807" lon="15.055340582180483"><ele>331.4</ele><time>2026-04-17T09:19:44Z</time></trkpt><trkpt lat="36.93764317188961" lon="15.055428657698938"><ele>335.0</ele><time>2026-04-17T09:19:45Z</time></trkpt><trkpt lat="36.93757631172136" lon="15.055545298348342"><ele>333.6666666666667</ele><time>2026-04-17T09:19:46Z</time></trkpt><trkpt lat="36.93748334509554" lon="15.055703100435743"><ele>332.3333333333333</ele><time>2026-04-17T09:19:47Z</time></trkpt><trkpt lat="36.937389920893956" lon="15.055861074439795"><ele>331.0</ele><time>2026-04-17T09:19:48Z</time></trkpt><trkpt lat="36.937282128938165" lon="15.056042187763156"><ele>331.0</ele><time>2026-04-17T09:19:49Z</time></trkpt><trkpt lat="36.93716234495658" lon="15.056244924153095"><ele>331.0</ele><time>2026-04-17T09:19:50Z</time></trkpt><trkpt lat="36.937045666064755" lon="15.056442926379457"><ele>331.0</ele><time>2026-04-17T09:19:51Z</time></trkpt><trkpt lat="36.936927479279184" lon="15.056645895103038"><ele>332.0</ele><time>2026-04-17T09:19:52Z</time></trkpt><trkpt lat="36.9368023536577" lon="15.056862788795264"><ele>333.0</ele><time>2026-04-17T09:19:53Z</time></trkpt><trkpt lat="36.936677318999166" lon="15.057076694501154"><ele>334.0</ele><time>2026-04-17T09:19:54Z</time></trkpt><trkpt lat="36.936560122033974" lon="15.057282598383418"><ele>331.66666666666663</ele><time>2026-04-17T09:19:55Z</time></trkpt><trkpt lat="36.93644750674382" lon="15.057476100707973"><ele>329.3333333333333</ele><time>2026-04-17T09:19:56Z</time></trkpt><trkpt lat="36.93634401927192" lon="15.057659279577734"><ele>327.0</ele><time>2026-04-17T09:19:57Z</time></trkpt><trkpt lat="36.93624491441472" lon="15.057830955781306"><ele>327.0</ele><time>2026-04-17T09:19:58Z</time></trkpt><trkpt lat="36.936132746880986" lon="15.058018568424915"><ele>327.0</ele><time>2026-04-17T09:19:59Z</time></trkpt><trkpt lat="36.93599331880297" lon="15.058223247320722"><ele>327.0</ele><time>2026-04-17T09:20:00Z</time></trkpt><trkpt lat="36.935845124994096" lon="15.058422292082419"><ele>325.6666666666667</ele><time>2026-04-17T09:20:01Z</time></trkpt><trkpt lat="36.93570652707961" lon="15.058606078413053"><ele>324.33333333333337</ele><time>2026-04-17T09:20:02Z</time></trkpt><trkpt lat="36.935578957806534" lon="15.058785491573797"><ele>323.0</ele><time>2026-04-17T09:20:03Z</time></trkpt><trkpt lat="36.935449581023974" lon="15.058960022019495"><ele>323.0</ele><time>2026-04-17T09:20:04Z</time></trkpt><trkpt lat="36.93533698820995" lon="15.05910913959755"><ele>323.0</ele><time>2026-04-17T09:20:05Z</time></trkpt><trkpt lat="36.93522459614329" lon="15.05919830621485"><ele>323.0</ele><time>2026-04-17T09:20:06Z</time></trkpt><trkpt lat="36.93508930907321" lon="15.059272597632583"><ele>323.0</ele><time>2026-04-17T09:20:07Z</time></trkpt><trkpt lat="36.93493833733747" lon="15.059355466960701"><ele>321.6666666666667</ele><time>2026-04-17T09:20:08Z</time></trkpt><trkpt lat="36.934790776280224" lon="15.059429258058845"><ele>320.3333333333333</ele><time>2026-04-17T09:20:09Z</time></trkpt><trkpt lat="36.934636019091954" lon="15.059503848696671"><ele>319.0</ele><time>2026-04-17T09:20:10Z</time></trkpt><trkpt lat="36.93447401483636" lon="15.059578764326346"><ele>319.0</ele><time>2026-04-17T09:20:10.999Z</time></trkpt><trkpt lat="36.93430587215999" lon="15.059633690156938"><ele>319.0</ele><time>2026-04-17T09:20:11.999Z</time></trkpt><trkpt lat="36.934138745326756" lon="15.059711415326417"><ele>319.0</ele><time>2026-04-17T09:20:13.001Z</time></trkpt><trkpt lat="36.933978911045585" lon="15.059787488524913"><ele>318.66666666666663</ele><time>2026-04-17T09:20:14.001Z</time></trkpt><trkpt lat="36.93382210644268" lon="15.059862119695897"><ele>318.3333333333333</ele><time>2026-04-17T09:20:15.001Z</time></trkpt><trkpt lat="36.933676035934745" lon="15.059931167592879"><ele>318.0</ele><time>2026-04-17T09:20:16.001Z</time></trkpt><trkpt lat="36.933548477408415" lon="15.060005669942209"><ele>316.5</ele><time>2026-04-17T09:20:17.001Z</time></trkpt><trkpt lat="36.9334281554391" lon="15.060037196209096"><ele>315.0</ele><time>2026-04-17T09:20:18.001Z</time></trkpt><trkpt lat="36.933304966985425" lon="15.060040579906643"><ele>313.5</ele><time>2026-04-17T09:20:19.001Z</time></trkpt><trkpt lat="36.933176593029614" lon="15.060020987393747"><ele>312.0</ele><time>2026-04-17T09:20:20.001Z</time></trkpt><trkpt lat="36.93304259268749" lon="15.060017390014274"><ele>310.6666666666667</ele><time>2026-04-17T09:20:21.001Z</time></trkpt><trkpt lat="36.932889354596234" lon="15.06003798781438"><ele>309.33333333333337</ele><time>2026-04-17T09:20:22.001Z</time></trkpt><trkpt lat="36.932732713487695" lon="15.060093863039336"><ele>308.0</ele><time>2026-04-17T09:20:23.001Z</time></trkpt><trkpt lat="36.93257766934018" lon="15.060150103852916"><ele>308.0</ele><time>2026-04-17T09:20:24Z</time></trkpt><trkpt lat="36.93243139399692" lon="15.060207759465133"><ele>308.0</ele><time>2026-04-17T09:20:25Z</time></trkpt><trkpt lat="36.93230503514288" lon="15.060285107313346"><ele>308.0</ele><time>2026-04-17T09:20:26Z</time></trkpt><trkpt lat="36.932198930783734" lon="15.06040693201761"><ele>308.0</ele><time>2026-04-17T09:20:27Z</time></trkpt><trkpt lat="36.93210074049306" lon="15.060542238212038"><ele>308.0</ele><time>2026-04-17T09:20:28Z</time></trkpt><trkpt lat="36.93200924670949" lon="15.060659567291848"><ele>308.0</ele><time>2026-04-17T09:20:29Z</time></trkpt><trkpt lat="36.931917950083644" lon="15.060739804484527"><ele>308.0</ele><time>2026-04-17T09:20:30Z</time></trkpt><trkpt lat="36.93181956442984" lon="15.060795136990768"><ele>308.0</ele><time>2026-04-17T09:20:31Z</time></trkpt><trkpt lat="36.93171141923402" lon="15.060806396655932"><ele>305.25</ele><time>2026-04-17T09:20:32Z</time></trkpt><trkpt lat="36.931598180108786" lon="15.060799281810331"><ele>302.5</ele><time>2026-04-17T09:20:33Z</time></trkpt><trkpt lat="36.931478119237454" lon="15.06080534637281"><ele>299.75</ele><time>2026-04-17T09:20:34Z</time></trkpt><trkpt lat="36.93135583604372" lon="15.06082749011763"><ele>297.0</ele><time>2026-04-17T09:20:35Z</time></trkpt><trkpt lat="36.93122928186102" lon="15.0608640430178"><ele>297.0</ele><time>2026-04-17T09:20:36Z</time></trkpt><trkpt lat="36.93110125074926" lon="15.06092078874174"><ele>297.0</ele><time>2026-04-17T09:20:37Z</time></trkpt><trkpt lat="36.930974656132214" lon="15.060964612601204"><ele>297.0</ele><time>2026-04-17T09:20:38Z</time></trkpt><trkpt lat="36.930854043482675" lon="15.061018139664252"><ele>297.0</ele><time>2026-04-17T09:20:39Z</time></trkpt><trkpt lat="36.93073800971025" lon="15.061057944319202"><ele>296.4</ele><time>2026-04-17T09:20:40Z</time></trkpt><trkpt lat="36.93062394369231" lon="15.06108579054264"><ele>295.79999999999995</ele><time>2026-04-17T09:20:41Z</time></trkpt><trkpt lat="36.93051961336533" lon="15.061100623771987"><ele>295.2</ele><time>2026-04-17T09:20:42Z</time></trkpt><trkpt lat="36.93041494251662" lon="15.061091172122687"><ele>294.59999999999997</ele><time>2026-04-17T09:20:43Z</time></trkpt><trkpt lat="36.930316254952366" lon="15.06106485808521"><ele>294.0</ele><time>2026-04-17T09:20:44Z</time></trkpt><trkpt lat="36.93023292110032" lon="15.061024803208591"><ele>294.0</ele><time>2026-04-17T09:20:45Z</time></trkpt><trkpt lat="36.93017281219923" lon="15.0609939845016"><ele>294.0</ele><time>2026-04-17T09:20:46Z</time></trkpt><trkpt lat="36.93010677311215" lon="15.060986150897445"><ele>294.0</ele><time>2026-04-17T09:20:48Z</time></trkpt><trkpt lat="36.929955616897765" lon="15.06134760194174"><ele>294.0</ele><time>2026-04-17T09:20:53Z</time></trkpt><trkpt lat="36.92989638817516" lon="15.06140495577739"><ele>294.0</ele><time>2026-04-17T09:20:54Z</time></trkpt><trkpt lat="36.92984654406522" lon="15.06147339171921"><ele>294.0</ele><time>2026-04-17T09:20:55Z</time></trkpt><trkpt lat="36.929818140881636" lon="15.061567285244648"><ele>294.0</ele><time>2026-04-17T09:20:56Z</time></trkpt><trkpt lat="36.92980356945115" lon="15.061665366457058"><ele>294.0</ele><time>2026-04-17T09:20:57Z</time></trkpt><trkpt lat="36.92979667032807" lon="15.061758401999256"><ele>294.0</ele><time>2026-04-17T09:20:58Z</time></trkpt><trkpt lat="36.92975777148483" lon="15.061883969587203"><ele>294.0</ele><time>2026-04-17T09:21:00Z</time></trkpt><trkpt lat="36.92966687263018" lon="15.06189105648206"><ele>294.0</ele><time>2026-04-17T09:21:02Z</time></trkpt><trkpt lat="36.92960105522958" lon="15.061784572101326"><ele>294.0</ele><time>2026-04-17T09:21:04Z</time></trkpt><trkpt lat="36.92960575174438" lon="15.061695492147205"><ele>294.0</ele><time>2026-04-17T09:21:05Z</time></trkpt><trkpt lat="36.92961942357928" lon="15.061611398784908"><ele>294.0</ele><time>2026-04-17T09:21:06Z</time></trkpt><trkpt lat="36.92961995516026" lon="15.061530470351007"><ele>294.0</ele><time>2026-04-17T09:21:07Z</time></trkpt><trkpt lat="36.9295346261215" lon="15.061477319062774"><ele>294.0</ele><time>2026-04-17T09:21:09Z</time></trkpt><trkpt lat="36.92949420341267" lon="15.06160387162773"><ele>294.0</ele><time>2026-04-17T09:21:11Z</time></trkpt><trkpt lat="36.92953253698531" lon="15.061677914641859"><ele>294.0</ele><time>2026-04-17T09:21:12Z</time></trkpt><trkpt lat="36.92956860923659" lon="15.06176033726494"><ele>294.0</ele><time>2026-04-17T09:21:13Z</time></trkpt><trkpt lat="36.92956592351866" lon="15.061868058234197"><ele>294.0</ele><time>2026-04-17T09:21:14Z</time></trkpt><trkpt lat="36.929555503185796" lon="15.061971845929056"><ele>294.0</ele><time>2026-04-17T09:21:15Z</time></trkpt><trkpt lat="36.92955232597317" lon="15.062064018897235"><ele>294.0</ele><time>2026-04-17T09:21:16Z</time></trkpt><trkpt lat="36.92955828549879" lon="15.06214846399335"><ele>294.0</ele><time>2026-04-17T09:21:17Z</time></trkpt><trkpt lat="36.92950583622091" lon="15.062239843858531"><ele>294.0</ele><time>2026-04-17T09:21:19Z</time></trkpt><trkpt lat="36.92944727556527" lon="15.062149393700597"><ele>294.0</ele><time>2026-04-17T09:21:21Z</time></trkpt><trkpt lat="36.929483310557835" lon="15.062018192282453"><ele>294.0</ele><time>2026-04-17T09:21:23Z</time></trkpt><trkpt lat="36.92944345690622" lon="15.061931419240922"><ele>294.0</ele><time>2026-04-17T09:21:25Z</time></trkpt><trkpt lat="36.929378263817576" lon="15.06200760901487"><ele>294.0</ele><time>2026-04-17T09:21:27Z</time></trkpt><trkpt lat="36.929383993445875" lon="15.062093447738656"><ele>294.0</ele><time>2026-04-17T09:21:28Z</time></trkpt><trkpt lat="36.92940588170538" lon="15.062196880987008"><ele>294.0</ele><time>2026-04-17T09:21:29Z</time></trkpt><trkpt lat="36.92942402713481" lon="15.062290003322508"><ele>294.0</ele><time>2026-04-17T09:21:30Z</time></trkpt><trkpt lat="36.92945927414491" lon="15.062371430784879"><ele>294.0</ele><time>2026-04-17T09:21:31Z</time></trkpt><trkpt lat="36.929517710312794" lon="15.062419732559828"><ele>294.0</ele><time>2026-04-17T09:21:32Z</time></trkpt><trkpt lat="36.929554332574575" lon="15.06252689223007"><ele>294.0</ele><time>2026-04-17T09:21:34Z</time></trkpt><trkpt lat="36.929472410272574" lon="15.062543113270127"><ele>294.0</ele><time>2026-04-17T09:21:36Z</time></trkpt><trkpt lat="36.929400187954265" lon="15.062418270066596"><ele>294.0</ele><time>2026-04-17T09:21:38Z</time></trkpt><trkpt lat="36.92937434349993" lon="15.06232257780305"><ele>294.0</ele><time>2026-04-17T09:21:39Z</time></trkpt><trkpt lat="36.92934028334947" lon="15.062217928278988"><ele>294.0</ele><time>2026-04-17T09:21:40Z</time></trkpt><trkpt lat="36.929301436178584" lon="15.062126648239948"><ele>294.0</ele><time>2026-04-17T09:21:41Z</time></trkpt><trkpt lat="36.929256706256" lon="15.062045766139297"><ele>294.0</ele><time>2026-04-17T09:21:42Z</time></trkpt><trkpt lat="36.92921107047545" lon="15.061955532005115"><ele>294.0</ele><time>2026-04-17T09:21:43Z</time></trkpt><trkpt lat="36.92915265716358" lon="15.061868858070854"><ele>294.0</ele><time>2026-04-17T09:21:44Z</time></trkpt><trkpt lat="36.92908460065781" lon="15.061811183723542"><ele>294.0</ele><time>2026-04-17T09:21:45Z</time></trkpt><trkpt lat="36.92900406819044" lon="15.061763878885367"><ele>294.0</ele><time>2026-04-17T09:21:46Z</time></trkpt><trkpt lat="36.928914569167276" lon="15.061729411538586"><ele>296.6666666666667</ele><time>2026-04-17T09:21:47Z</time></trkpt><trkpt lat="36.92883337130065" lon="15.06170040400556"><ele>299.3333333333333</ele><time>2026-04-17T09:21:48Z</time></trkpt><trkpt lat="36.92874966220014" lon="15.061659105494568"><ele>302.0</ele><time>2026-04-17T09:21:49Z</time></trkpt><trkpt lat="36.92866082206535" lon="15.061655320124888"><ele>304.66666666666663</ele><time>2026-04-17T09:21:50Z</time></trkpt><trkpt lat="36.92859456913876" lon="15.06162764129315"><ele>307.3333333333333</ele><time>2026-04-17T09:21:51Z</time></trkpt><trkpt lat="36.92851298658036" lon="15.061647599279581"><ele>310.0</ele><time>2026-04-17T09:21:53Z</time></trkpt><trkpt lat="36.92845158840601" lon="15.061720608192573"><ele>310.0</ele><time>2026-04-17T09:21:56Z</time></trkpt><trkpt lat="36.92850150812417" lon="15.061838665001117"><ele>310.0</ele><time>2026-04-17T09:21:58Z</time></trkpt><trkpt lat="36.92848649695455" lon="15.062005706149236"><ele>310.0</ele><time>2026-04-17T09:22:00Z</time></trkpt><trkpt lat="36.92847037364141" lon="15.06210502017991"><ele>310.0</ele><time>2026-04-17T09:22:01Z</time></trkpt><trkpt lat="36.928437008755964" lon="15.062247222656913"><ele>310.0</ele><time>2026-04-17T09:22:03Z</time></trkpt><trkpt lat="36.92839668097373" lon="15.06237949218411"><ele>315.0</ele><time>2026-04-17T09:22:05Z</time></trkpt><trkpt lat="36.92797826969463" lon="15.062361244079865"><ele>320.0</ele><time>2026-04-17T09:22:06Z</time></trkpt><trkpt lat="36.92792895819938" lon="15.062454272805747"><ele>321.6</ele><time>2026-04-17T09:22:08Z</time></trkpt><trkpt lat="36.92788737819394" lon="15.062535947994494"><ele>323.2</ele><time>2026-04-17T09:22:09Z</time></trkpt><trkpt lat="36.92783735061296" lon="15.062616201673059"><ele>324.79999999999995</ele><time>2026-04-17T09:22:10Z</time></trkpt><trkpt lat="36.927779595279624" lon="15.06274079029536"><ele>326.4</ele><time>2026-04-17T09:22:12Z</time></trkpt><trkpt lat="36.92773454135469" lon="15.062841551082107"><ele>328.0</ele><time>2026-04-17T09:22:14Z</time></trkpt><trkpt lat="36.92768722398359" lon="15.062929679930884"><ele>328.0</ele><time>2026-04-17T09:22:16Z</time></trkpt><trkpt lat="36.9276366062167" lon="15.063032075142335"><ele>328.0</ele><time>2026-04-17T09:22:17.999Z</time></trkpt><trkpt lat="36.92759314575763" lon="15.063131891191816"><ele>328.0</ele><time>2026-04-17T09:22:20Z</time></trkpt><trkpt lat="36.9274869799175" lon="15.063145353070558"><ele>328.0</ele><time>2026-04-17T09:22:23Z</time></trkpt><trkpt lat="36.92742076601494" lon="15.063110415947644"><ele>328.0</ele><time>2026-04-17T09:22:24Z</time></trkpt><trkpt lat="36.92734758285086" lon="15.063071418118703"><ele>328.0</ele><time>2026-04-17T09:22:25Z</time></trkpt><trkpt lat="36.92725092713929" lon="15.063031708388241"><ele>328.3333333333333</ele><time>2026-04-17T09:22:26Z</time></trkpt><trkpt lat="36.927110497416024" lon="15.062961194994351"><ele>328.6666666666667</ele><time>2026-04-17T09:22:27Z</time></trkpt><trkpt lat="36.926946806707576" lon="15.062894037598202"><ele>329.0</ele><time>2026-04-17T09:22:28Z</time></trkpt><trkpt lat="36.9267674429937" lon="15.062824974497127"><ele>327.25</ele><time>2026-04-17T09:22:29Z</time></trkpt><trkpt lat="36.92660962434234" lon="15.062739535488165"><ele>325.5</ele><time>2026-04-17T09:22:30Z</time></trkpt><trkpt lat="36.926475736296254" lon="15.062698036583289"><ele>323.75</ele><time>2026-04-17T09:22:31Z</time></trkpt><trkpt lat="36.926347490195276" lon="15.06264141275745"><ele>322.0</ele><time>2026-04-17T09:22:32Z</time></trkpt><trkpt lat="36.92622708761334" lon="15.062596803280057"><ele>322.0</ele><time>2026-04-17T09:22:33Z</time></trkpt><trkpt lat="36.92611323544011" lon="15.062546347367864"><ele>322.0</ele><time>2026-04-17T09:22:34Z</time></trkpt><trkpt lat="36.92600017681348" lon="15.062494407439983"><ele>322.0</ele><time>2026-04-17T09:22:35Z</time></trkpt><trkpt lat="36.925893321523425" lon="15.062449179298277"><ele>322.0</ele><time>2026-04-17T09:22:36Z</time></trkpt><trkpt lat="36.925780060321266" lon="15.06240408628874"><ele>319.25</ele><time>2026-04-17T09:22:37Z</time></trkpt><trkpt lat="36.925658118497" lon="15.062360031027382"><ele>316.5</ele><time>2026-04-17T09:22:38Z</time></trkpt><trkpt lat="36.925537733557874" lon="15.062302819408862"><ele>313.75</ele><time>2026-04-17T09:22:39Z</time></trkpt><trkpt lat="36.92541105728517" lon="15.062255010500687"><ele>311.0</ele><time>2026-04-17T09:22:40Z</time></trkpt><trkpt lat="36.925286713326194" lon="15.062206844074916"><ele>311.0</ele><time>2026-04-17T09:22:41Z</time></trkpt><trkpt lat="36.92516453041575" lon="15.062148966035515"><ele>311.0</ele><time>2026-04-17T09:22:42Z</time></trkpt><trkpt lat="36.92503193131191" lon="15.062097934599358"><ele>311.0</ele><time>2026-04-17T09:22:43Z</time></trkpt><trkpt lat="36.92490626799045" lon="15.062044749991353"><ele>311.0</ele><time>2026-04-17T09:22:44Z</time></trkpt><trkpt lat="36.92478853374259" lon="15.061996580267918"><ele>308.5</ele><time>2026-04-17T09:22:45Z</time></trkpt><trkpt lat="36.92467500764908" lon="15.061955127550405"><ele>306.0</ele><time>2026-04-17T09:22:46Z</time></trkpt><trkpt lat="36.92455719314788" lon="15.061906770358908"><ele>303.5</ele><time>2026-04-17T09:22:47Z</time></trkpt><trkpt lat="36.92444774237829" lon="15.061858741181878"><ele>301.0</ele><time>2026-04-17T09:22:48Z</time></trkpt><trkpt lat="36.924332610267506" lon="15.061811810697183"><ele>299.40000000000003</ele><time>2026-04-17T09:22:49Z</time></trkpt><trkpt lat="36.924224608062595" lon="15.061769124073752"><ele>297.8</ele><time>2026-04-17T09:22:50Z</time></trkpt><trkpt lat="36.92413285445432" lon="15.061728989516325"><ele>296.20000000000005</ele><time>2026-04-17T09:22:51Z</time></trkpt><trkpt lat="36.92405885647046" lon="15.061692964024308"><ele>294.6</ele><time>2026-04-17T09:22:52Z</time></trkpt><trkpt lat="36.92398956479477" lon="15.061642600409824"><ele>293.0</ele><time>2026-04-17T09:22:54Z</time></trkpt><trkpt lat="36.92398436589673" lon="15.06176591612731"><ele>293.0</ele><time>2026-04-17T09:22:57Z</time></trkpt><trkpt lat="36.92398498953094" lon="15.061865567347791"><ele>293.0</ele><time>2026-04-17T09:22:59Z</time></trkpt><trkpt lat="36.923997328393355" lon="15.061951651212839"><ele>293.0</ele><time>2026-04-17T09:23:00Z</time></trkpt><trkpt lat="36.92401427508846" lon="15.062069882277779"><ele>293.0</ele><time>2026-04-17T09:23:01Z</time></trkpt><trkpt lat="36.92403233050108" lon="15.062210954108362"><ele>293.0</ele><time>2026-04-17T09:23:02Z</time></trkpt><trkpt lat="36.924047361626116" lon="15.062338978450116"><ele>294.8</ele><time>2026-04-17T09:23:03Z</time></trkpt><trkpt lat="36.92407407404101" lon="15.06247916225987"><ele>296.6</ele><time>2026-04-17T09:23:04Z</time></trkpt><trkpt lat="36.92409012044462" lon="15.062618123484176"><ele>298.4</ele><time>2026-04-17T09:23:05Z</time></trkpt><trkpt lat="36.92410263428647" lon="15.062723590344486"><ele>300.2</ele><time>2026-04-17T09:23:06Z</time></trkpt><trkpt lat="36.924099432322066" lon="15.062836075722812"><ele>302.0</ele><time>2026-04-17T09:23:07Z</time></trkpt><trkpt lat="36.924110941352986" lon="15.062950347420278"><ele>302.0</ele><time>2026-04-17T09:23:08Z</time></trkpt><trkpt lat="36.924092568418814" lon="15.063067652569067"><ele>302.0</ele><time>2026-04-17T09:23:10Z</time></trkpt><trkpt lat="36.92396954279854" lon="15.063078500758134"><ele>302.0</ele><time>2026-04-17T09:23:12Z</time></trkpt><trkpt lat="36.923874806285895" lon="15.063083848990443"><ele>302.0</ele><time>2026-04-17T09:23:13Z</time></trkpt><trkpt lat="36.92379541368271" lon="15.063087526658231"><ele>302.0</ele><time>2026-04-17T09:23:14Z</time></trkpt><trkpt lat="36.92372305510346" lon="15.063091413645038"><ele>302.00000000000006</ele><time>2026-04-17T09:23:15Z</time></trkpt><trkpt lat="36.923658835878925" lon="15.063115035506778"><ele>302.0</ele><time>2026-04-17T09:23:16Z</time></trkpt><trkpt lat="36.9236012991044" lon="15.063153692875355"><ele>302.0</ele><time>2026-04-17T09:23:17Z</time></trkpt><trkpt lat="36.92353489408307" lon="15.063185839352172"><ele>302.0</ele><time>2026-04-17T09:23:18Z</time></trkpt><trkpt lat="36.923465051019704" lon="15.063232873642287"><ele>302.0</ele><time>2026-04-17T09:23:19Z</time></trkpt><trkpt lat="36.92339603540414" lon="15.063291866033634"><ele>302.00000000000006</ele><time>2026-04-17T09:23:20Z</time></trkpt><trkpt lat="36.923331578778296" lon="15.063348274072412"><ele>302.0</ele><time>2026-04-17T09:23:21Z</time></trkpt><trkpt lat="36.923264890708346" lon="15.063409725788754"><ele>300.33333333333337</ele><time>2026-04-17T09:23:22Z</time></trkpt><trkpt lat="36.923195754278666" lon="15.063458161738643"><ele>298.6666666666667</ele><time>2026-04-17T09:23:23Z</time></trkpt><trkpt lat="36.92313359260419" lon="15.063497140233702"><ele>297.0</ele><time>2026-04-17T09:23:24Z</time></trkpt><trkpt lat="36.92306370687584" lon="15.063535182249725"><ele>295.3333333333333</ele><time>2026-04-17T09:23:25Z</time></trkpt><trkpt lat="36.9229904002128" lon="15.063579473585653"><ele>293.66666666666663</ele><time>2026-04-17T09:23:26Z</time></trkpt><trkpt lat="36.92292666031749" lon="15.063614761625415"><ele>292.0</ele><time>2026-04-17T09:23:27Z</time></trkpt><trkpt lat="36.922854892501796" lon="15.063664647397538"><ele>292.0</ele><time>2026-04-17T09:23:28Z</time></trkpt><trkpt lat="36.92278508627202" lon="15.06370728698143"><ele>292.0</ele><time>2026-04-17T09:23:29Z</time></trkpt><trkpt lat="36.92272203691031" lon="15.063747274210364"><ele>292.0</ele><time>2026-04-17T09:23:30Z</time></trkpt><trkpt lat="36.922592505525614" lon="15.063749276406226"><ele>292.0</ele><time>2026-04-17T09:23:32Z</time></trkpt><trkpt lat="36.922503036556805" lon="15.063733912370546"><ele>292.0</ele><time>2026-04-17T09:23:34Z</time></trkpt><trkpt lat="36.92253324071795" lon="15.063829490519902"><ele>292.0</ele><time>2026-04-17T09:23:36Z</time></trkpt><trkpt lat="36.92264133237635" lon="15.063839268946973"><ele>292.0</ele><time>2026-04-17T09:23:38Z</time></trkpt><trkpt lat="36.92271363424221" lon="15.06386452634833"><ele>292.0</ele><time>2026-04-17T09:23:39Z</time></trkpt><trkpt lat="36.92280158126023" lon="15.063857741901908"><ele>292.0</ele><time>2026-04-17T09:23:40Z</time></trkpt><trkpt lat="36.92287508218389" lon="15.063838143438296"><ele>292.0</ele><time>2026-04-17T09:23:41Z</time></trkpt><trkpt lat="36.92297545832527" lon="15.063850629997772"><ele>292.0</ele><time>2026-04-17T09:23:43Z</time></trkpt><trkpt lat="36.92295378218046" lon="15.063931279525187"><ele>292.0</ele><time>2026-04-17T09:23:46Z</time></trkpt><trkpt lat="36.92288653662231" lon="15.063931836895598"><ele>292.0</ele><time>2026-04-17T09:23:48Z</time></trkpt><trkpt lat="36.92276935331325" lon="15.0639599764324"><ele>292.0</ele><time>2026-04-17T09:23:50Z</time></trkpt><trkpt lat="36.92270123582289" lon="15.063965730894207"><ele>292.0</ele><time>2026-04-17T09:23:51Z</time></trkpt><trkpt lat="36.922634828694456" lon="15.063961082372119"><ele>292.0</ele><time>2026-04-17T09:23:52Z</time></trkpt><trkpt lat="36.92255070112474" lon="15.063925993114914"><ele>292.0</ele><time>2026-04-17T09:23:54Z</time></trkpt><trkpt lat="36.92246694010462" lon="15.063916133529812"><ele>291.66666666666663</ele><time>2026-04-17T09:23:56Z</time></trkpt><trkpt lat="36.9223555715896" lon="15.06389500404362"><ele>291.3333333333333</ele><time>2026-04-17T09:23:58Z</time></trkpt><trkpt lat="36.922232296932314" lon="15.06390298970462"><ele>291.0</ele><time>2026-04-17T09:24:00Z</time></trkpt><trkpt lat="36.922167360560344" lon="15.06391935537676"><ele>290.6666666666667</ele><time>2026-04-17T09:24:01Z</time></trkpt><trkpt lat="36.92210408185355" lon="15.063934625507956"><ele>290.33333333333337</ele><time>2026-04-17T09:24:02Z</time></trkpt><trkpt lat="36.92203479501392" lon="15.063951090779256"><ele>290.0</ele><time>2026-04-17T09:24:02.999Z</time></trkpt><trkpt lat="36.92196563071822" lon="15.063959734797079"><ele>290.0</ele><time>2026-04-17T09:24:03.999Z</time></trkpt><trkpt lat="36.921900332733365" lon="15.063964443687663"><ele>290.0</ele><time>2026-04-17T09:24:04.999Z</time></trkpt><trkpt lat="36.92177120798787" lon="15.063990870532347"><ele>290.0</ele><time>2026-04-17T09:24:06.999Z</time></trkpt><trkpt lat="36.92170645034064" lon="15.064008459336627"><ele>290.0</ele><time>2026-04-17T09:24:07.999Z</time></trkpt><trkpt lat="36.92164056614576" lon="15.064013441843882"><ele>290.0</ele><time>2026-04-17T09:24:08.999Z</time></trkpt><trkpt lat="36.92159490332553" lon="15.063907053316719"><ele>290.0</ele><time>2026-04-17T09:24:10.999Z</time></trkpt><trkpt lat="36.92172306318346" lon="15.06386852073204"><ele>290.0</ele><time>2026-04-17T09:24:12.999Z</time></trkpt><trkpt lat="36.92181102652528" lon="15.063840430698276"><ele>290.0</ele><time>2026-04-17T09:24:13.999Z</time></trkpt><trkpt lat="36.92189509850744" lon="15.063813583323917"><ele>290.0</ele><time>2026-04-17T09:24:14.999Z</time></trkpt><trkpt lat="36.92197354734228" lon="15.063783674224409"><ele>290.0</ele><time>2026-04-17T09:24:15.999Z</time></trkpt><trkpt lat="36.92201146119928" lon="15.063715112850797"><ele>290.0</ele><time>2026-04-17T09:24:16.999Z</time></trkpt><trkpt lat="36.92198802673269" lon="15.063602544490207"><ele>290.0</ele><time>2026-04-17T09:24:18.999Z</time></trkpt><trkpt lat="36.921862269434286" lon="15.063576286615609"><ele>290.0</ele><time>2026-04-17T09:24:20.999Z</time></trkpt><trkpt lat="36.92177715194331" lon="15.063585366877769"><ele>290.0</ele><time>2026-04-17T09:24:21.999Z</time></trkpt><trkpt lat="36.92169918708098" lon="15.06358157725552"><ele>290.0</ele><time>2026-04-17T09:24:22.999Z</time></trkpt><trkpt lat="36.92161895746939" lon="15.063579309058039"><ele>290.0</ele><time>2026-04-17T09:24:23.999Z</time></trkpt><trkpt lat="36.92155333568562" lon="15.063575073564953"><ele>290.0</ele><time>2026-04-17T09:24:25Z</time></trkpt><trkpt lat="36.92144106215156" lon="15.063548977650829"><ele>290.0</ele><time>2026-04-17T09:24:27Z</time></trkpt><trkpt lat="36.921379363560234" lon="15.063408498737427"><ele>290.0</ele><time>2026-04-17T09:24:29Z</time></trkpt><trkpt lat="36.921373289763736" lon="15.06330601037677"><ele>290.0</ele><time>2026-04-17T09:24:30Z</time></trkpt><trkpt lat="36.92135652486281" lon="15.063201622812489"><ele>290.0</ele><time>2026-04-17T09:24:31Z</time></trkpt><trkpt lat="36.921336128329834" lon="15.063091062720385"><ele>290.0</ele><time>2026-04-17T09:24:32Z</time></trkpt><trkpt lat="36.92130145535045" lon="15.062992059058375"><ele>290.0</ele><time>2026-04-17T09:24:33Z</time></trkpt><trkpt lat="36.92125200538473" lon="15.062889058298294"><ele>290.0</ele><time>2026-04-17T09:24:34Z</time></trkpt><trkpt lat="36.9212000315526" lon="15.062783676062253"><ele>290.0</ele><time>2026-04-17T09:24:35Z</time></trkpt><trkpt lat="36.92114898561615" lon="15.062674587890028"><ele>290.0</ele><time>2026-04-17T09:24:36Z</time></trkpt><trkpt lat="36.92109318419369" lon="15.06256000643829"><ele>290.0</ele><time>2026-04-17T09:24:37Z</time></trkpt><trkpt lat="36.92105085028121" lon="15.062433017204743"><ele>290.0</ele><time>2026-04-17T09:24:38Z</time></trkpt><trkpt lat="36.92099708284083" lon="15.062317025605223"><ele>290.0</ele><time>2026-04-17T09:24:39Z</time></trkpt><trkpt lat="36.92093408670932" lon="15.062211100860612"><ele>291.0</ele><time>2026-04-17T09:24:40Z</time></trkpt><trkpt lat="36.92087605043008" lon="15.062099051688987"><ele>292.0</ele><time>2026-04-17T09:24:41Z</time></trkpt><trkpt lat="36.920819966364064" lon="15.061980396952846"><ele>293.0</ele><time>2026-04-17T09:24:42Z</time></trkpt><trkpt lat="36.9207763754039" lon="15.061856309122973"><ele>294.0</ele><time>2026-04-17T09:24:43Z</time></trkpt><trkpt lat="36.92073183737289" lon="15.061763961617087"><ele>295.0</ele><time>2026-04-17T09:24:44Z</time></trkpt><trkpt lat="36.92067673189857" lon="15.061711186216414"><ele>295.0</ele><time>2026-04-17T09:24:45Z</time></trkpt><trkpt lat="36.92060692229655" lon="15.061707263173421"><ele>295.0</ele><time>2026-04-17T09:24:46Z</time></trkpt><trkpt lat="36.920569108256764" lon="15.061777183684033"><ele>295.0</ele><time>2026-04-17T09:24:47Z</time></trkpt><trkpt lat="36.92054569445261" lon="15.061924159494934"><ele>295.0</ele><time>2026-04-17T09:24:49Z</time></trkpt><trkpt lat="36.920576414213386" lon="15.062013671085289"><ele>295.0</ele><time>2026-04-17T09:24:50Z</time></trkpt><trkpt lat="36.92061302016559" lon="15.06211904956916"><ele>295.0</ele><time>2026-04-17T09:24:51Z</time></trkpt><trkpt lat="36.92063143714123" lon="15.062242724899857"><ele>295.0</ele><time>2026-04-17T09:24:52Z</time></trkpt><trkpt lat="36.920664762295566" lon="15.06236233601573"><ele>295.0</ele><time>2026-04-17T09:24:53Z</time></trkpt><trkpt lat="36.92069510867032" lon="15.06249601436591"><ele>295.0</ele><time>2026-04-17T09:24:54Z</time></trkpt><trkpt lat="36.920720789613995" lon="15.062639805628898"><ele>295.0</ele><time>2026-04-17T09:24:55Z</time></trkpt><trkpt lat="36.92074573805555" lon="15.062776943398916"><ele>295.0</ele><time>2026-04-17T09:24:56Z</time></trkpt><trkpt lat="36.92077838685872" lon="15.062887221432185"><ele>296.3333333333333</ele><time>2026-04-17T09:24:57Z</time></trkpt><trkpt lat="36.92079452493854" lon="15.062985639569797"><ele>297.66666666666663</ele><time>2026-04-17T09:24:58Z</time></trkpt><trkpt lat="36.92080812917696" lon="15.063066062474942"><ele>299.0</ele><time>2026-04-17T09:24:59Z</time></trkpt><trkpt lat="36.92075411415132" lon="15.063156310202475"><ele>300.3333333333333</ele><time>2026-04-17T09:25:01Z</time></trkpt><trkpt lat="36.92067184934695" lon="15.063095822922604"><ele>301.6666666666667</ele><time>2026-04-17T09:25:03Z</time></trkpt><trkpt lat="36.920679978923346" lon="15.063004507210854"><ele>303.0</ele><time>2026-04-17T09:25:04Z</time></trkpt><trkpt lat="36.920626306033306" lon="15.062852213169295"><ele>303.0</ele><time>2026-04-17T09:25:06Z</time></trkpt><trkpt lat="36.92058988969591" lon="15.06274877847208"><ele>303.0</ele><time>2026-04-17T09:25:07Z</time></trkpt><trkpt lat="36.92053092951673" lon="15.062641431528293"><ele>303.0</ele><time>2026-04-17T09:25:08Z</time></trkpt><trkpt lat="36.920475694565276" lon="15.062543334054734"><ele>303.0</ele><time>2026-04-17T09:25:09Z</time></trkpt><trkpt lat="36.92039857736795" lon="15.062458847467946"><ele>303.0</ele><time>2026-04-17T09:25:10Z</time></trkpt><trkpt lat="36.92032446728665" lon="15.062359732317951"><ele>301.4</ele><time>2026-04-17T09:25:11Z</time></trkpt><trkpt lat="36.92024892587905" lon="15.062249367501279"><ele>299.8</ele><time>2026-04-17T09:25:12Z</time></trkpt><trkpt lat="36.92016072883139" lon="15.0621545157904"><ele>298.2</ele><time>2026-04-17T09:25:13Z</time></trkpt><trkpt lat="36.92007928410153" lon="15.062085458803846"><ele>296.6</ele><time>2026-04-17T09:25:14Z</time></trkpt><trkpt lat="36.920013449632265" lon="15.062013885825447"><ele>295.0</ele><time>2026-04-17T09:25:15Z</time></trkpt><trkpt lat="36.91996447629113" lon="15.061944626573883"><ele>298.28571428571433</ele><time>2026-04-17T09:25:16Z</time></trkpt><trkpt lat="36.919901085284515" lon="15.061936043446053"><ele>301.57142857142856</ele><time>2026-04-17T09:25:17Z</time></trkpt><trkpt lat="36.91982151705967" lon="15.061965358210694"><ele>304.8571428571429</ele><time>2026-04-17T09:25:19Z</time></trkpt><trkpt lat="36.91977719232018" lon="15.061902842107335"><ele>308.14285714285717</ele><time>2026-04-17T09:25:22Z</time></trkpt><trkpt lat="36.91976437622111" lon="15.061999054541602"><ele>311.42857142857144</ele><time>2026-04-17T09:25:26Z</time></trkpt><trkpt lat="36.919702253847106" lon="15.06202992275266"><ele>314.7142857142857</ele><time>2026-04-17T09:25:27Z</time></trkpt><trkpt lat="36.91963596983136" lon="15.062062858856558"><ele>318.0</ele><time>2026-04-17T09:25:28Z</time></trkpt><trkpt lat="36.9194277447643" lon="15.061762636510773"><ele>318.0</ele><time>2026-04-17T09:25:29Z</time></trkpt><trkpt lat="36.91931264722639" lon="15.061739259301724"><ele>318.0</ele><time>2026-04-17T09:25:30Z</time></trkpt><trkpt lat="36.91921580182149" lon="15.061720715057108"><ele>318.0</ele><time>2026-04-17T09:25:31Z</time></trkpt><trkpt lat="36.91912121003457" lon="15.061706728074123"><ele>318.0</ele><time>2026-04-17T09:25:32Z</time></trkpt><trkpt lat="36.91902406716717" lon="15.061696431775285"><ele>318.0</ele><time>2026-04-17T09:25:33Z</time></trkpt><trkpt lat="36.91893869433887" lon="15.061705462795532"><ele>317.8</ele><time>2026-04-17T09:25:34Z</time></trkpt><trkpt lat="36.91884349097323" lon="15.061702544025"><ele>317.6</ele><time>2026-04-17T09:25:35Z</time></trkpt><trkpt lat="36.918761326177496" lon="15.061708181191534"><ele>317.4</ele><time>2026-04-17T09:25:36Z</time></trkpt><trkpt lat="36.918671806076276" lon="15.061709241958065"><ele>317.2</ele><time>2026-04-17T09:25:37Z</time></trkpt><trkpt lat="36.91856559718856" lon="15.061720807316984"><ele>317.0</ele><time>2026-04-17T09:25:38Z</time></trkpt><trkpt lat="36.91845334742658" lon="15.061737360160414"><ele>315.25</ele><time>2026-04-17T09:25:39Z</time></trkpt><trkpt lat="36.91832553851005" lon="15.06174783908254"><ele>313.5</ele><time>2026-04-17T09:25:40Z</time></trkpt><trkpt lat="36.918187733522814" lon="15.06175084944365"><ele>311.75</ele><time>2026-04-17T09:25:41Z</time></trkpt><trkpt lat="36.918047603161966" lon="15.061756538936708"><ele>310.0</ele><time>2026-04-17T09:25:42Z</time></trkpt><trkpt lat="36.91788599143735" lon="15.061767511596454"><ele>310.0</ele><time>2026-04-17T09:25:43Z</time></trkpt><trkpt lat="36.91768347427562" lon="15.061772992246189"><ele>310.0</ele><time>2026-04-17T09:25:44Z</time></trkpt><trkpt lat="36.91748742653689" lon="15.061781825685655"><ele>310.0</ele><time>2026-04-17T09:25:45Z</time></trkpt><trkpt lat="36.91734641290097" lon="15.061793310614895"><ele>309.6</ele><time>2026-04-17T09:25:46Z</time></trkpt><trkpt lat="36.91721616387078" lon="15.061801319576192"><ele>309.2</ele><time>2026-04-17T09:25:47Z</time></trkpt><trkpt lat="36.91709936901633" lon="15.061808316028804"><ele>308.8</ele><time>2026-04-17T09:25:48Z</time></trkpt><trkpt lat="36.916995733658496" lon="15.061813391081468"><ele>308.4</ele><time>2026-04-17T09:25:48.999Z</time></trkpt><trkpt lat="36.91690608122178" lon="15.061799415887053"><ele>308.0</ele><time>2026-04-17T09:25:49.999Z</time></trkpt><trkpt lat="36.91678448985478" lon="15.061756715210544"><ele>307.4</ele><time>2026-04-17T09:25:50.999Z</time></trkpt><trkpt lat="36.91667618240603" lon="15.0617119912482"><ele>306.8</ele><time>2026-04-17T09:25:51.999Z</time></trkpt><trkpt lat="36.916600325758075" lon="15.061672424696061"><ele>306.2</ele><time>2026-04-17T09:25:52.999Z</time></trkpt><trkpt lat="36.91653556945558" lon="15.061629084587793"><ele>305.6</ele><time>2026-04-17T09:25:53.999Z</time></trkpt><trkpt lat="36.916483646938104" lon="15.06156921777492"><ele>305.0</ele><time>2026-04-17T09:25:54.999Z</time></trkpt><trkpt lat="36.916406954155015" lon="15.06145797688246"><ele>306.8</ele><time>2026-04-17T09:25:56.999Z</time></trkpt><trkpt lat="36.916362989362085" lon="15.061387699289366"><ele>308.6</ele><time>2026-04-17T09:25:58.999Z</time></trkpt><trkpt lat="36.916314883687406" lon="15.0612606369964"><ele>310.4</ele><time>2026-04-17T09:26:37Z</time></trkpt><trkpt lat="36.916266852741636" lon="15.061182834254957"><ele>312.2</ele><time>2026-04-17T09:26:38Z</time></trkpt><trkpt lat="36.916206179241954" lon="15.061093663469645"><ele>314.0</ele><time>2026-04-17T09:26:39Z</time></trkpt><trkpt lat="36.91612621421939" lon="15.060985914886954"><ele>314.0</ele><time>2026-04-17T09:26:40Z</time></trkpt><trkpt lat="36.91603905114627" lon="15.060885644433279"><ele>314.0</ele><time>2026-04-17T09:26:41Z</time></trkpt><trkpt lat="36.915943109053195" lon="15.060809576032314"><ele>314.0</ele><time>2026-04-17T09:26:42Z</time></trkpt><trkpt lat="36.91584855710108" lon="15.060737997843546"><ele>314.0</ele><time>2026-04-17T09:26:43Z</time></trkpt><trkpt lat="36.91575867270957" lon="15.060710679544963"><ele>314.0</ele><time>2026-04-17T09:26:44Z</time></trkpt><trkpt lat="36.91566226004469" lon="15.06070873906403"><ele>313.59999999999997</ele><time>2026-04-17T09:26:45Z</time></trkpt><trkpt lat="36.91554538561149" lon="15.06071935986332"><ele>313.2</ele><time>2026-04-17T09:26:46Z</time></trkpt><trkpt lat="36.915431125216855" lon="15.060760010252636"><ele>312.79999999999995</ele><time>2026-04-17T09:26:47Z</time></trkpt><trkpt lat="36.91532052000925" lon="15.06075843535369"><ele>312.4</ele><time>2026-04-17T09:26:48Z</time></trkpt><trkpt lat="36.9152218661043" lon="15.060770776674296"><ele>312.0</ele><time>2026-04-17T09:26:49Z</time></trkpt><trkpt lat="36.91512834712118" lon="15.06078247689707"><ele>310.8333333333333</ele><time>2026-04-17T09:26:50Z</time></trkpt><trkpt lat="36.91503643224563" lon="15.060790540332222"><ele>309.6666666666667</ele><time>2026-04-17T09:26:51Z</time></trkpt><trkpt lat="36.91495210214401" lon="15.060778390947586"><ele>308.5</ele><time>2026-04-17T09:26:52Z</time></trkpt><trkpt lat="36.914873440461236" lon="15.060777705064874"><ele>307.33333333333337</ele><time>2026-04-17T09:26:53Z</time></trkpt><trkpt lat="36.91479111107517" lon="15.060732274873798"><ele>306.1666666666667</ele><time>2026-04-17T09:26:54Z</time></trkpt><trkpt lat="36.91470432154905" lon="15.060673789454867"><ele>305.0</ele><time>2026-04-17T09:26:55Z</time></trkpt><trkpt lat="36.91460877642864" lon="15.060623630859354"><ele>305.0</ele><time>2026-04-17T09:26:56Z</time></trkpt><trkpt lat="36.914516112197454" lon="15.060558245799783"><ele>305.0</ele><time>2026-04-17T09:26:57Z</time></trkpt><trkpt lat="36.91441279269829" lon="15.060533468444463"><ele>305.0</ele><time>2026-04-17T09:26:58Z</time></trkpt><trkpt lat="36.914318556854184" lon="15.060488668587167"><ele>305.0</ele><time>2026-04-17T09:26:59Z</time></trkpt><trkpt lat="36.91421819677008" lon="15.060446824653951"><ele>305.0</ele><time>2026-04-17T09:27:00Z</time></trkpt><trkpt lat="36.91412005177125" lon="15.060398246127136"><ele>301.2</ele><time>2026-04-17T09:27:01Z</time></trkpt><trkpt lat="36.91402429939493" lon="15.060335547079196"><ele>297.4</ele><time>2026-04-17T09:27:02Z</time></trkpt><trkpt lat="36.913940760384676" lon="15.060252592531878"><ele>293.6</ele><time>2026-04-17T09:27:03Z</time></trkpt><trkpt lat="36.91385715967343" lon="15.060159155044039"><ele>289.8</ele><time>2026-04-17T09:27:04Z</time></trkpt><trkpt lat="36.91377048247675" lon="15.06006997096789"><ele>286.0</ele><time>2026-04-17T09:27:05Z</time></trkpt><trkpt lat="36.91368440967232" lon="15.05998267568216"><ele>285.0</ele><time>2026-04-17T09:27:06Z</time></trkpt><trkpt lat="36.91359760663976" lon="15.059900442256287"><ele>284.0</ele><time>2026-04-17T09:27:07Z</time></trkpt><trkpt lat="36.91350773617674" lon="15.059818968024782"><ele>283.0</ele><time>2026-04-17T09:27:08Z</time></trkpt><trkpt lat="36.9134168638409" lon="15.05974281673451"><ele>282.0</ele><time>2026-04-17T09:27:09Z</time></trkpt><trkpt lat="36.91333574736812" lon="15.059669342831299"><ele>281.0</ele><time>2026-04-17T09:27:10Z</time></trkpt><trkpt lat="36.91325477141584" lon="15.059593007756739"><ele>277.8</ele><time>2026-04-17T09:27:11Z</time></trkpt><trkpt lat="36.91317300785582" lon="15.059519854671061"><ele>274.6</ele><time>2026-04-17T09:27:12Z</time></trkpt><trkpt lat="36.91308930768874" lon="15.059452010725193"><ele>271.4</ele><time>2026-04-17T09:27:13Z</time></trkpt><trkpt lat="36.913011236432986" lon="15.059394035730348"><ele>268.2</ele><time>2026-04-17T09:27:14Z</time></trkpt><trkpt lat="36.91293434628457" lon="15.059342880727124"><ele>265.0</ele><time>2026-04-17T09:27:15Z</time></trkpt><trkpt lat="36.91286251494243" lon="15.059299480975632"><ele>264.99999999999994</ele><time>2026-04-17T09:27:16Z</time></trkpt><trkpt lat="36.912789651763184" lon="15.059256499454436"><ele>265.0</ele><time>2026-04-17T09:27:17Z</time></trkpt><trkpt lat="36.91271930070027" lon="15.059223431405837"><ele>265.0</ele><time>2026-04-17T09:27:18Z</time></trkpt><trkpt lat="36.9126491348594" lon="15.05919556199307"><ele>265.0</ele><time>2026-04-17T09:27:19Z</time></trkpt><trkpt lat="36.91258050140247" lon="15.059169749273114"><ele>265.0</ele><time>2026-04-17T09:27:20Z</time></trkpt><trkpt lat="36.91252252169053" lon="15.059137870159672"><ele>264.99999999999994</ele><time>2026-04-17T09:27:21Z</time></trkpt><trkpt lat="36.912473714341836" lon="15.059074840252975"><ele>265.0</ele><time>2026-04-17T09:27:22Z</time></trkpt><trkpt lat="36.912431379161426" lon="15.05900493097898"><ele>261.4</ele><time>2026-04-17T09:27:23Z</time></trkpt><trkpt lat="36.9123379126204" lon="15.05892209943538"><ele>257.8</ele><time>2026-04-17T09:27:25Z</time></trkpt><trkpt lat="36.91224310628463" lon="15.058828988190355"><ele>254.2</ele><time>2026-04-17T09:27:27Z</time></trkpt><trkpt lat="36.912184352321184" lon="15.058772435744439"><ele>250.6</ele><time>2026-04-17T09:27:28Z</time></trkpt><trkpt lat="36.912121252534625" lon="15.058709679944345"><ele>247.0</ele><time>2026-04-17T09:27:29Z</time></trkpt><trkpt lat="36.91204801320942" lon="15.058644288583777"><ele>247.0</ele><time>2026-04-17T09:27:30Z</time></trkpt><trkpt lat="36.91196734019369" lon="15.058573554915029"><ele>247.0</ele><time>2026-04-17T09:27:31Z</time></trkpt><trkpt lat="36.91188013116812" lon="15.058500816293757"><ele>247.0</ele><time>2026-04-17T09:27:32Z</time></trkpt><trkpt lat="36.911788140620686" lon="15.05843246076482"><ele>247.0</ele><time>2026-04-17T09:27:33Z</time></trkpt><trkpt lat="36.91170608417445" lon="15.058371806640256"><ele>247.0</ele><time>2026-04-17T09:27:34Z</time></trkpt><trkpt lat="36.91163471684381" lon="15.058309658547394"><ele>246.16666666666666</ele><time>2026-04-17T09:27:35Z</time></trkpt><trkpt lat="36.91157539036941" lon="15.058248336040098"><ele>245.33333333333331</ele><time>2026-04-17T09:27:36Z</time></trkpt><trkpt lat="36.91151889394571" lon="15.058171960232942"><ele>244.5</ele><time>2026-04-17T09:27:37Z</time></trkpt><trkpt lat="36.911464269406494" lon="15.058076965054125"><ele>243.66666666666669</ele><time>2026-04-17T09:27:38Z</time></trkpt><trkpt lat="36.911407025341184" lon="15.057989313718313"><ele>242.83333333333334</ele><time>2026-04-17T09:27:39Z</time></trkpt><trkpt lat="36.911351447162595" lon="15.057902747066445"><ele>242.0</ele><time>2026-04-17T09:27:40Z</time></trkpt><trkpt lat="36.9112924789376" lon="15.057825572805449"><ele>242.0</ele><time>2026-04-17T09:27:41Z</time></trkpt><trkpt lat="36.91121972867121" lon="15.057775091998312"><ele>242.0</ele><time>2026-04-17T09:27:42Z</time></trkpt><trkpt lat="36.911133114947866" lon="15.057756030886932"><ele>242.0</ele><time>2026-04-17T09:27:43Z</time></trkpt><trkpt lat="36.91104638364784" lon="15.057736492039052"><ele>242.0</ele><time>2026-04-17T09:27:43.999Z</time></trkpt><trkpt lat="36.910956761025744" lon="15.057700888250526"><ele>242.0</ele><time>2026-04-17T09:27:44.999Z</time></trkpt><trkpt lat="36.91086122407727" lon="15.057665322432467"><ele>239.8</ele><time>2026-04-17T09:27:45.999Z</time></trkpt><trkpt lat="36.91076357730395" lon="15.057626974646048"><ele>237.6</ele><time>2026-04-17T09:27:46.999Z</time></trkpt><trkpt lat="36.91066763413108" lon="15.057589731462182"><ele>235.40000000000003</ele><time>2026-04-17T09:27:47.999Z</time></trkpt><trkpt lat="36.91056921347906" lon="15.057557401825877"><ele>233.20000000000002</ele><time>2026-04-17T09:27:48.999Z</time></trkpt><trkpt lat="36.91046989075612" lon="15.057521672196055"><ele>231.0</ele><time>2026-04-17T09:27:49.999Z</time></trkpt><trkpt lat="36.91036949706448" lon="15.057485561716632"><ele>227.25</ele><time>2026-04-17T09:27:50.999Z</time></trkpt><trkpt lat="36.910264162873375" lon="15.057444542165877"><ele>223.5</ele><time>2026-04-17T09:27:51.999Z</time></trkpt><trkpt lat="36.91016242306125" lon="15.057370884897257"><ele>219.75</ele><time>2026-04-17T09:27:52.999Z</time></trkpt><trkpt lat="36.91006020878341" lon="15.057293222838691"><ele>216.0</ele><time>2026-04-17T09:27:53.999Z</time></trkpt><trkpt lat="36.90995285032575" lon="15.057225418787183"><ele>214.25</ele><time>2026-04-17T09:27:54.999Z</time></trkpt><trkpt lat="36.90984278232488" lon="15.05716804960248"><ele>212.5</ele><time>2026-04-17T09:27:55.999Z</time></trkpt><trkpt lat="36.909731234768344" lon="15.057119827246497"><ele>210.75</ele><time>2026-04-17T09:27:56.999Z</time></trkpt><trkpt lat="36.90961585130647" lon="15.057093009357843"><ele>209.0</ele><time>2026-04-17T09:27:57.999Z</time></trkpt><trkpt lat="36.90950243230348" lon="15.057089858075768"><ele>209.0</ele><time>2026-04-17T09:27:58.999Z</time></trkpt><trkpt lat="36.90938929125974" lon="15.057100568733578"><ele>209.0</ele><time>2026-04-17T09:27:59.999Z</time></trkpt><trkpt lat="36.909278189670076" lon="15.057105877168857"><ele>209.0</ele><time>2026-04-17T09:28:00.999Z</time></trkpt><trkpt lat="36.90915958635315" lon="15.057101939165536"><ele>209.0</ele><time>2026-04-17T09:28:01.999Z</time></trkpt><trkpt lat="36.90903946427964" lon="15.057113566182018"><ele>209.0</ele><time>2026-04-17T09:28:02.999Z</time></trkpt><trkpt lat="36.90891961019376" lon="15.057147935643178"><ele>209.0</ele><time>2026-04-17T09:28:03.999Z</time></trkpt><trkpt lat="36.90880045351964" lon="15.057195496628761"><ele>209.0</ele><time>2026-04-17T09:28:04.999Z</time></trkpt><trkpt lat="36.90868504598291" lon="15.057248536550883"><ele>209.0</ele><time>2026-04-17T09:28:05.999Z</time></trkpt><trkpt lat="36.90856812138899" lon="15.057305002787633"><ele>209.0</ele><time>2026-04-17T09:28:06.999Z</time></trkpt><trkpt lat="36.90845144177205" lon="15.057371343039929"><ele>209.0</ele><time>2026-04-17T09:28:07.999Z</time></trkpt><trkpt lat="36.90833283319201" lon="15.057437567702289"><ele>209.0</ele><time>2026-04-17T09:28:08.999Z</time></trkpt><trkpt lat="36.90821186123381" lon="15.057498771573307"><ele>209.0</ele><time>2026-04-17T09:28:09.999Z</time></trkpt><trkpt lat="36.90809027114358" lon="15.057552559997585"><ele>209.25</ele><time>2026-04-17T09:28:10.999Z</time></trkpt><trkpt lat="36.907965663254465" lon="15.057612324015086"><ele>209.5</ele><time>2026-04-17T09:28:11.999Z</time></trkpt><trkpt lat="36.907838420098344" lon="15.057667426826937"><ele>209.75</ele><time>2026-04-17T09:28:12.999Z</time></trkpt><trkpt lat="36.90770616391091" lon="15.057726314288205"><ele>210.0</ele><time>2026-04-17T09:28:13.999Z</time></trkpt><trkpt lat="36.907570450623844" lon="15.05779759393589"><ele>207.33333333333331</ele><time>2026-04-17T09:28:14.999Z</time></trkpt><trkpt lat="36.907434312771045" lon="15.057873204678128"><ele>204.66666666666666</ele><time>2026-04-17T09:28:15.999Z</time></trkpt><trkpt lat="36.90729406720401" lon="15.057944355167193"><ele>202.0</ele><time>2026-04-17T09:28:16.999Z</time></trkpt><trkpt lat="36.907151711476644" lon="15.058010078976995"><ele>202.0</ele><time>2026-04-17T09:28:17.999Z</time></trkpt><trkpt lat="36.90701126468912" lon="15.058066212450532"><ele>202.0</ele><time>2026-04-17T09:28:18.999Z</time></trkpt><trkpt lat="36.90685726249749" lon="15.058099135791057"><ele>202.0</ele><time>2026-04-17T09:28:19.999Z</time></trkpt><trkpt lat="36.90670584390734" lon="15.058134899172456"><ele>196.33333333333331</ele><time>2026-04-17T09:28:20.999Z</time></trkpt><trkpt lat="36.906555583367144" lon="15.05818139767021"><ele>190.66666666666666</ele><time>2026-04-17T09:28:21.999Z</time></trkpt><trkpt lat="36.90641076337361" lon="15.05823176254804"><ele>185.0</ele><time>2026-04-17T09:28:22.999Z</time></trkpt><trkpt lat="36.90626691550547" lon="15.058282502966883"><ele>183.5</ele><time>2026-04-17T09:28:23.999Z</time></trkpt><trkpt lat="36.90612429843878" lon="15.058339434673611"><ele>182.0</ele><time>2026-04-17T09:28:24.999Z</time></trkpt><trkpt lat="36.90598232449592" lon="15.058392133992264"><ele>180.5</ele><time>2026-04-17T09:28:25.999Z</time></trkpt><trkpt lat="36.90585248544721" lon="15.058439724068641"><ele>179.0</ele><time>2026-04-17T09:28:26.999Z</time></trkpt><trkpt lat="36.90575085981391" lon="15.058517992752414"><ele>179.0</ele><time>2026-04-17T09:28:27.999Z</time></trkpt><trkpt lat="36.905637081659386" lon="15.058592708180807"><ele>179.0</ele><time>2026-04-17T09:28:28.999Z</time></trkpt><trkpt lat="36.90554334365524" lon="15.058694781208194"><ele>179.0</ele><time>2026-04-17T09:28:29.999Z</time></trkpt><trkpt lat="36.9054354658936" lon="15.058759583995931"><ele>179.0</ele><time>2026-04-17T09:28:30.999Z</time></trkpt><trkpt lat="36.905333186271726" lon="15.058841504151843"><ele>179.0</ele><time>2026-04-17T09:28:31.999Z</time></trkpt><trkpt lat="36.90524684551819" lon="15.05893368176096"><ele>179.0</ele><time>2026-04-17T09:28:32.999Z</time></trkpt><trkpt lat="36.90515916181778" lon="15.059019303042525"><ele>179.0</ele><time>2026-04-17T09:28:33.999Z</time></trkpt><trkpt lat="36.90507240939267" lon="15.059101773421459"><ele>179.0</ele><time>2026-04-17T09:28:34.999Z</time></trkpt><trkpt lat="36.90498969033563" lon="15.059181216206882"><ele>179.0</ele><time>2026-04-17T09:28:35.999Z</time></trkpt><trkpt lat="36.90490949964496" lon="15.059265160203442"><ele>178.6</ele><time>2026-04-17T09:28:37Z</time></trkpt><trkpt lat="36.90483408588422" lon="15.059343848455162"><ele>178.2</ele><time>2026-04-17T09:28:38Z</time></trkpt><trkpt lat="36.9047526654016" lon="15.0594148628778"><ele>177.79999999999998</ele><time>2026-04-17T09:28:39Z</time></trkpt><trkpt lat="36.90467319386322" lon="15.05948151627596"><ele>177.39999999999998</ele><time>2026-04-17T09:28:40Z</time></trkpt><trkpt lat="36.90458336984869" lon="15.059526279686148"><ele>177.0</ele><time>2026-04-17T09:28:41Z</time></trkpt><trkpt lat="36.90449734625074" lon="15.059585689853256"><ele>177.0</ele><time>2026-04-17T09:28:42Z</time></trkpt><trkpt lat="36.9044026257634" lon="15.059663603489938"><ele>177.0</ele><time>2026-04-17T09:28:43Z</time></trkpt><trkpt lat="36.90429782018025" lon="15.05973893208994"><ele>177.0</ele><time>2026-04-17T09:28:44Z</time></trkpt><trkpt lat="36.90418390448702" lon="15.059824065255738"><ele>177.0</ele><time>2026-04-17T09:28:45Z</time></trkpt><trkpt lat="36.904064630147154" lon="15.059892851375327"><ele>176.75</ele><time>2026-04-17T09:28:46Z</time></trkpt><trkpt lat="36.90394236843571" lon="15.059952511502528"><ele>176.5</ele><time>2026-04-17T09:28:47Z</time></trkpt><trkpt lat="36.903819259327356" lon="15.060019843067591"><ele>176.25</ele><time>2026-04-17T09:28:48Z</time></trkpt><trkpt lat="36.90369364914223" lon="15.060091931198212"><ele>176.0</ele><time>2026-04-17T09:28:49Z</time></trkpt><trkpt lat="36.903568039592514" lon="15.06014499784681"><ele>176.0</ele><time>2026-04-17T09:28:50Z</time></trkpt><trkpt lat="36.903437273769434" lon="15.06015427176135"><ele>176.0</ele><time>2026-04-17T09:28:51Z</time></trkpt><trkpt lat="36.90330802216438" lon="15.060143997956601"><ele>176.0</ele><time>2026-04-17T09:28:52Z</time></trkpt><trkpt lat="36.90318507008226" lon="15.060150722861215"><ele>176.0</ele><time>2026-04-17T09:28:53Z</time></trkpt><trkpt lat="36.90306697620775" lon="15.060199194004456"><ele>173.0</ele><time>2026-04-17T09:28:54Z</time></trkpt><trkpt lat="36.902971267601764" lon="15.060281981260365"><ele>170.0</ele><time>2026-04-17T09:28:55Z</time></trkpt><trkpt lat="36.9028763595994" lon="15.060363174130696"><ele>167.0</ele><time>2026-04-17T09:28:56Z</time></trkpt><trkpt lat="36.90277076391317" lon="15.060422121509394"><ele>164.0</ele><time>2026-04-17T09:28:57Z</time></trkpt><trkpt lat="36.90267308655709" lon="15.060483173231729"><ele>161.66666666666666</ele><time>2026-04-17T09:28:58Z</time></trkpt><trkpt lat="36.90257253963059" lon="15.060488074923965"><ele>159.33333333333331</ele><time>2026-04-17T09:28:59Z</time></trkpt><trkpt lat="36.90247448733162" lon="15.060477204445812"><ele>157.0</ele><time>2026-04-17T09:29:00Z</time></trkpt><trkpt lat="36.90239398176373" lon="15.060455557600195"><ele>154.66666666666666</ele><time>2026-04-17T09:29:01Z</time></trkpt><trkpt lat="36.902324260071545" lon="15.060463725325505"><ele>152.33333333333334</ele><time>2026-04-17T09:29:02Z</time></trkpt><trkpt lat="36.90226086980319" lon="15.060489566005447"><ele>150.0</ele><time>2026-04-17T09:29:03Z</time></trkpt><trkpt lat="36.90213833623954" lon="15.06054256071953"><ele>150.0</ele><time>2026-04-17T09:29:05Z</time></trkpt><trkpt lat="36.902072140864874" lon="15.060572856020764"><ele>150.0</ele><time>2026-04-17T09:29:06Z</time></trkpt><trkpt lat="36.902006399155255" lon="15.060613491659213"><ele>150.0</ele><time>2026-04-17T09:29:07Z</time></trkpt><trkpt lat="36.901936560266435" lon="15.060666301547876"><ele>150.0</ele><time>2026-04-17T09:29:08Z</time></trkpt><trkpt lat="36.90185837477303" lon="15.060714398603004"><ele>150.0</ele><time>2026-04-17T09:29:09Z</time></trkpt><trkpt lat="36.90176815829077" lon="15.06075217784378"><ele>150.0</ele><time>2026-04-17T09:29:10Z</time></trkpt><trkpt lat="36.90167449709579" lon="15.060788655827245"><ele>151.8</ele><time>2026-04-17T09:29:11Z</time></trkpt><trkpt lat="36.901573973421215" lon="15.06081191412772"><ele>153.6</ele><time>2026-04-17T09:29:12Z</time></trkpt><trkpt lat="36.90147000570307" lon="15.06083021055456"><ele>155.4</ele><time>2026-04-17T09:29:13Z</time></trkpt><trkpt lat="36.90136240615124" lon="15.060844776679296"><ele>157.2</ele><time>2026-04-17T09:29:14Z</time></trkpt><trkpt lat="36.90124952017906" lon="15.060859633381853"><ele>159.0</ele><time>2026-04-17T09:29:15Z</time></trkpt><trkpt lat="36.90113238311359" lon="15.060885540731208"><ele>159.0</ele><time>2026-04-17T09:29:16Z</time></trkpt><trkpt lat="36.90101115739351" lon="15.060912276865011"><ele>159.0</ele><time>2026-04-17T09:29:17Z</time></trkpt><trkpt lat="36.90088243623621" lon="15.060918721059668"><ele>159.0</ele><time>2026-04-17T09:29:18Z</time></trkpt><trkpt lat="36.900761702467655" lon="15.060914842617544"><ele>159.0</ele><time>2026-04-17T09:29:19Z</time></trkpt><trkpt lat="36.90064700444741" lon="15.06091327909267"><ele>157.0</ele><time>2026-04-17T09:29:20Z</time></trkpt><trkpt lat="36.90054316764065" lon="15.060908692179186"><ele>155.0</ele><time>2026-04-17T09:29:21Z</time></trkpt><trkpt lat="36.90046437667753" lon="15.060903672738945"><ele>153.0</ele><time>2026-04-17T09:29:22Z</time></trkpt><trkpt lat="36.900390000103776" lon="15.06087175739257"><ele>151.0</ele><time>2026-04-17T09:29:24Z</time></trkpt><trkpt lat="36.90042731659964" lon="15.06080223083946"><ele>149.0</ele><time>2026-04-17T09:29:29Z</time></trkpt><trkpt lat="36.90051205046309" lon="15.060727293638335"><ele>147.0</ele><time>2026-04-17T09:29:31Z</time></trkpt><trkpt lat="36.90060667651056" lon="15.06064742985221"><ele>144.79999999999998</ele><time>2026-04-17T09:29:33Z</time></trkpt><trkpt lat="36.90069143452266" lon="15.060576303083367"><ele>142.6</ele><time>2026-04-17T09:29:35Z</time></trkpt><trkpt lat="36.90076414971997" lon="15.060532091329039"><ele>140.39999999999998</ele><time>2026-04-17T09:29:36.999Z</time></trkpt><trkpt lat="36.90083323368967" lon="15.060460472866593"><ele>138.2</ele><time>2026-04-17T09:29:39.999Z</time></trkpt><trkpt lat="36.90090061612816" lon="15.060402553002426"><ele>136.0</ele><time>2026-04-17T09:29:41.999Z</time></trkpt><trkpt lat="36.90098142180609" lon="15.060336706243763"><ele>136.0</ele><time>2026-04-17T09:29:43.999Z</time></trkpt><trkpt lat="36.90103869126814" lon="15.060282914637284"><ele>136.0</ele><time>2026-04-17T09:29:45.999Z</time></trkpt><trkpt lat="36.9009851554589" lon="15.060345027733463"><ele>136.0</ele><time>2026-04-17T09:29:48.999Z</time></trkpt><trkpt lat="36.900918518480424" lon="15.060405070279883"><ele>136.0</ele><time>2026-04-17T09:29:55.999Z</time></trkpt><trkpt lat="36.9008489314574" lon="15.06046777073428"><ele>136.0</ele><time>2026-04-17T09:29:59.999Z</time></trkpt><trkpt lat="36.90077183695125" lon="15.060532301725777"><ele>136.0</ele><time>2026-04-17T09:30:02.999Z</time></trkpt><trkpt lat="36.90071059701085" lon="15.060581886952296"><ele>134.8</ele><time>2026-04-17T09:30:04.999Z</time></trkpt><trkpt lat="36.90064352849631" lon="15.06063405456986"><ele>133.6</ele><time>2026-04-17T09:30:06.999Z</time></trkpt><trkpt lat="36.90057749719379" lon="15.060685415666073"><ele>132.4</ele><time>2026-04-17T09:30:08.999Z</time></trkpt><trkpt lat="36.90049584609252" lon="15.060732023602723"><ele>131.2</ele><time>2026-04-17T09:30:10.999Z</time></trkpt><trkpt lat="36.90040744635655" lon="15.060802562152288"><ele>130.0</ele><time>2026-04-17T09:30:12.999Z</time></trkpt><trkpt lat="36.90031013465831" lon="15.060881280639327"><ele>131.33333333333334</ele><time>2026-04-17T09:30:14.999Z</time></trkpt><trkpt lat="36.90020953689996" lon="15.060958881195214"><ele>132.66666666666669</ele><time>2026-04-17T09:30:16.999Z</time></trkpt><trkpt lat="36.900149458286045" lon="15.061006759998367"><ele>134.0</ele><time>2026-04-17T09:30:17.999Z</time></trkpt><trkpt lat="36.90007218628535" lon="15.061036008137187"><ele>135.33333333333334</ele><time>2026-04-17T09:30:18.999Z</time></trkpt><trkpt lat="36.90000306253801" lon="15.06109433608642"><ele>136.66666666666666</ele><time>2026-04-17T09:30:19.999Z</time></trkpt><trkpt lat="36.899927646598634" lon="15.061166542972703"><ele>138.0</ele><time>2026-04-17T09:30:20.999Z</time></trkpt><trkpt lat="36.89987097650667" lon="15.061226777425421"><ele>138.0</ele><time>2026-04-17T09:30:21.999Z</time></trkpt><trkpt lat="36.89980146509059" lon="15.061311427193644"><ele>138.0</ele><time>2026-04-17T09:30:22.999Z</time></trkpt><trkpt lat="36.89973558581346" lon="15.061392106485043"><ele>138.0</ele><time>2026-04-17T09:30:23.999Z</time></trkpt><trkpt lat="36.89967135748821" lon="15.061472391861237"><ele>138.0</ele><time>2026-04-17T09:30:24.999Z</time></trkpt><trkpt lat="36.89960050537802" lon="15.061556546426317"><ele>138.0</ele><time>2026-04-17T09:30:25.999Z</time></trkpt><trkpt lat="36.89951723002096" lon="15.061640247708947"><ele>137.6</ele><time>2026-04-17T09:30:26.999Z</time></trkpt><trkpt lat="36.899429325099575" lon="15.061715941617738"><ele>137.20000000000002</ele><time>2026-04-17T09:30:27.999Z</time></trkpt><trkpt lat="36.899337399922985" lon="15.061777941300031"><ele>136.8</ele><time>2026-04-17T09:30:28.999Z</time></trkpt><trkpt lat="36.89923425250855" lon="15.061835637879978"><ele>136.4</ele><time>2026-04-17T09:30:29.999Z</time></trkpt><trkpt lat="36.89912462440348" lon="15.061885705883522"><ele>136.0</ele><time>2026-04-17T09:30:30.999Z</time></trkpt><trkpt lat="36.89900922243602" lon="15.061926614130517"><ele>135.25</ele><time>2026-04-17T09:30:31.999Z</time></trkpt><trkpt lat="36.89888875378952" lon="15.06194619405107"><ele>134.5</ele><time>2026-04-17T09:30:32.999Z</time></trkpt><trkpt lat="36.898763854499194" lon="15.06195171171187"><ele>133.75</ele><time>2026-04-17T09:30:33.999Z</time></trkpt><trkpt lat="36.89864050070943" lon="15.061969596018885"><ele>133.0</ele><time>2026-04-17T09:30:34.999Z</time></trkpt><trkpt lat="36.898506645037685" lon="15.061960320622399"><ele>132.0</ele><time>2026-04-17T09:30:35.999Z</time></trkpt><trkpt lat="36.89837494566074" lon="15.061944907256734"><ele>131.0</ele><time>2026-04-17T09:30:36.999Z</time></trkpt><trkpt lat="36.898245235797305" lon="15.061900904439998"><ele>130.0</ele><time>2026-04-17T09:30:37.999Z</time></trkpt><trkpt lat="36.89810438238016" lon="15.061880153527687"><ele>129.0</ele><time>2026-04-17T09:30:38.999Z</time></trkpt><trkpt lat="36.8979665827149" lon="15.061886685985726"><ele>129.0</ele><time>2026-04-17T09:30:39.999Z</time></trkpt><trkpt lat="36.89782846881285" lon="15.061888243215012"><ele>129.0</ele><time>2026-04-17T09:30:40.999Z</time></trkpt><trkpt lat="36.89768906599412" lon="15.061894638447356"><ele>129.0</ele><time>2026-04-17T09:30:41.999Z</time></trkpt><trkpt lat="36.89755084431381" lon="15.061890377710109"><ele>129.0</ele><time>2026-04-17T09:30:43Z</time></trkpt><trkpt lat="36.897415784543924" lon="15.061867836014107"><ele>126.5</ele><time>2026-04-17T09:30:44Z</time></trkpt><trkpt lat="36.89728009396299" lon="15.061847628290803"><ele>124.0</ele><time>2026-04-17T09:30:45Z</time></trkpt><trkpt lat="36.89715512725348" lon="15.061833055034251"><ele>121.5</ele><time>2026-04-17T09:30:46Z</time></trkpt><trkpt lat="36.897030915865784" lon="15.061815110165496"><ele>119.0</ele><time>2026-04-17T09:30:47Z</time></trkpt><trkpt lat="36.89690720252659" lon="15.061800820070063"><ele>119.0</ele><time>2026-04-17T09:30:48Z</time></trkpt><trkpt lat="36.89678407911176" lon="15.061789579537843"><ele>119.0</ele><time>2026-04-17T09:30:49Z</time></trkpt><trkpt lat="36.89666849501159" lon="15.061778885278741"><ele>119.0</ele><time>2026-04-17T09:30:50Z</time></trkpt><trkpt lat="36.89655594181765" lon="15.061766276228171"><ele>119.0</ele><time>2026-04-17T09:30:51Z</time></trkpt><trkpt lat="36.89644466722375" lon="15.06176093776793"><ele>116.80000000000001</ele><time>2026-04-17T09:30:52Z</time></trkpt><trkpt lat="36.896340556764386" lon="15.061746432401279"><ele>114.60000000000001</ele><time>2026-04-17T09:30:53Z</time></trkpt><trkpt lat="36.896236375895484" lon="15.061732726305937"><ele>112.4</ele><time>2026-04-17T09:30:54Z</time></trkpt><trkpt lat="36.89614154398279" lon="15.061722633812165"><ele>110.2</ele><time>2026-04-17T09:30:55Z</time></trkpt><trkpt lat="36.89605258296358" lon="15.061713621152677"><ele>108.0</ele><time>2026-04-17T09:30:56Z</time></trkpt><trkpt lat="36.89596962506868" lon="15.061706578809968"><ele>108.33333333333333</ele><time>2026-04-17T09:30:57Z</time></trkpt><trkpt lat="36.89588816478873" lon="15.061708158331355"><ele>108.66666666666666</ele><time>2026-04-17T09:30:58Z</time></trkpt><trkpt lat="36.895803330645336" lon="15.0617172337039"><ele>109.0</ele><time>2026-04-17T09:30:59Z</time></trkpt><trkpt lat="36.89572087940806" lon="15.061741972094396"><ele>109.33333333333333</ele><time>2026-04-17T09:31:00Z</time></trkpt><trkpt lat="36.89563572784369" lon="15.061772536287956"><ele>109.66666666666666</ele><time>2026-04-17T09:31:01Z</time></trkpt><trkpt lat="36.89554863285053" lon="15.061804184169196"><ele>110.0</ele><time>2026-04-17T09:31:02Z</time></trkpt><trkpt lat="36.89546250137335" lon="15.061824283395485"><ele>109.99999999999999</ele><time>2026-04-17T09:31:03Z</time></trkpt><trkpt lat="36.895384536896145" lon="15.061841713121437"><ele>110.0</ele><time>2026-04-17T09:31:04Z</time></trkpt><trkpt lat="36.895314335367246" lon="15.06185285616335"><ele>110.0</ele><time>2026-04-17T09:31:05Z</time></trkpt><trkpt lat="36.89520927782551" lon="15.06186243331851"><ele>110.0</ele><time>2026-04-17T09:31:07Z</time></trkpt><trkpt lat="36.89513926154837" lon="15.06186477806487"><ele>109.99999999999999</ele><time>2026-04-17T09:31:09Z</time></trkpt><trkpt lat="36.89506289536872" lon="15.061865309520453"><ele>110.0</ele><time>2026-04-17T09:31:13Z</time></trkpt><trkpt lat="36.89499657102584" lon="15.061853493993125"><ele>109.99999999999999</ele><time>2026-04-17T09:31:16Z</time></trkpt><trkpt lat="36.894932671919165" lon="15.061889786167661"><ele>110.0</ele><time>2026-04-17T09:31:20Z</time></trkpt><trkpt lat="36.894993030270605" lon="15.061863564988421"><ele>110.0</ele><time>2026-04-17T09:31:24Z</time></trkpt><trkpt lat="36.895094582155906" lon="15.06187950222652"><ele>110.0</ele><time>2026-04-17T09:31:26Z</time></trkpt><trkpt lat="36.895206250271706" lon="15.061883743516233"><ele>109.99999999999999</ele><time>2026-04-17T09:31:28Z</time></trkpt><trkpt lat="36.895298010308395" lon="15.061878980234571"><ele>110.0</ele><time>2026-04-17T09:31:30Z</time></trkpt><trkpt lat="36.89540112892845" lon="15.061849441791075"><ele>110.0</ele><time>2026-04-17T09:31:32Z</time></trkpt><trkpt lat="36.89550276414517" lon="15.061823677084078"><ele>110.0</ele><time>2026-04-17T09:31:34Z</time></trkpt><trkpt lat="36.89562539687998" lon="15.06179726222708"><ele>110.0</ele><time>2026-04-17T09:31:36Z</time></trkpt><trkpt lat="36.89576467216824" lon="15.06176040106037"><ele>110.0</ele><time>2026-04-17T09:31:38Z</time></trkpt><trkpt lat="36.895875603702756" lon="15.061738233547523"><ele>109.33333333333333</ele><time>2026-04-17T09:31:39Z</time></trkpt><trkpt lat="36.89600875960223" lon="15.061748432309644"><ele>108.66666666666666</ele><time>2026-04-17T09:31:40Z</time></trkpt><trkpt lat="36.89619096093979" lon="15.061768350108723"><ele>108.0</ele><time>2026-04-17T09:31:41Z</time></trkpt><trkpt lat="36.89641120725467" lon="15.061794801933734"><ele>108.0</ele><time>2026-04-17T09:31:42Z</time></trkpt><trkpt lat="36.89666889052853" lon="15.061797003340802"><ele>108.0</ele><time>2026-04-17T09:31:43Z</time></trkpt><trkpt lat="36.89692918528976" lon="15.061825349679578"><ele>113.5</ele><time>2026-04-17T09:31:44Z</time></trkpt><trkpt lat="36.897202916083245" lon="15.061853630025453"><ele>119.0</ele><time>2026-04-17T09:31:45Z</time></trkpt><trkpt lat="36.8974851576034" lon="15.061877522047697"><ele>124.0</ele><time>2026-04-17T09:31:46Z</time></trkpt><trkpt lat="36.89776796027492" lon="15.061900183656787"><ele>129.0</ele><time>2026-04-17T09:31:47Z</time></trkpt><trkpt lat="36.89805703673258" lon="15.061910634283414"><ele>129.0</ele><time>2026-04-17T09:31:48Z</time></trkpt><trkpt lat="36.898335056313776" lon="15.061962047615602"><ele>129.0</ele><time>2026-04-17T09:31:49Z</time></trkpt><trkpt lat="36.89860261993894" lon="15.061994217662797"><ele>131.0</ele><time>2026-04-17T09:31:50Z</time></trkpt><trkpt lat="36.89883808638058" lon="15.061990864005432"><ele>133.0</ele><time>2026-04-17T09:31:51Z</time></trkpt><trkpt lat="36.89905870973693" lon="15.061961183681703"><ele>134.0</ele><time>2026-04-17T09:31:52Z</time></trkpt><trkpt lat="36.899258009912415" lon="15.061889535443216"><ele>135.0</ele><time>2026-04-17T09:31:53Z</time></trkpt><trkpt lat="36.89943840087981" lon="15.06178362423047"><ele>136.0</ele><time>2026-04-17T09:31:53.999Z</time></trkpt><trkpt lat="36.89958671111876" lon="15.061656465069538"><ele>136.66666666666669</ele><time>2026-04-17T09:31:54.999Z</time></trkpt><trkpt lat="36.89971666294021" lon="15.06150174074285"><ele>137.33333333333334</ele><time>2026-04-17T09:31:55.999Z</time></trkpt><trkpt lat="36.89983651666387" lon="15.061323106665888"><ele>138.0</ele><time>2026-04-17T09:31:56.999Z</time></trkpt><trkpt lat="36.89997212936021" lon="15.061156303012048"><ele>141.0</ele><time>2026-04-17T09:31:57.999Z</time></trkpt><trkpt lat="36.90011507769967" lon="15.061029664390366"><ele>144.0</ele><time>2026-04-17T09:31:58.999Z</time></trkpt><trkpt lat="36.900257415172604" lon="15.060924202976077"><ele>147.0</ele><time>2026-04-17T09:31:59.999Z</time></trkpt><trkpt lat="36.900395240561984" lon="15.060820403802726"><ele>141.33333333333334</ele><time>2026-04-17T09:32:00.999Z</time></trkpt><trkpt lat="36.9005256808381" lon="15.060713383041406"><ele>135.66666666666669</ele><time>2026-04-17T09:32:01.999Z</time></trkpt><trkpt lat="36.90065764144792" lon="15.060605985700791"><ele>130.0</ele><time>2026-04-17T09:32:02.999Z</time></trkpt><trkpt lat="36.900787552376514" lon="15.06049969531285"><ele>130.0</ele><time>2026-04-17T09:32:03.999Z</time></trkpt><trkpt lat="36.90091046762586" lon="15.060410859612496"><ele>130.0</ele><time>2026-04-17T09:32:04.999Z</time></trkpt><trkpt lat="36.90102582295002" lon="15.060316708908895"><ele>130.0</ele><time>2026-04-17T09:32:05.999Z</time></trkpt><trkpt lat="36.901138545119466" lon="15.060225435302025"><ele>130.0</ele><time>2026-04-17T09:32:06.999Z</time></trkpt><trkpt lat="36.901249166744186" lon="15.060140829335277"><ele>131.5</ele><time>2026-04-17T09:32:07.999Z</time></trkpt><trkpt lat="36.90135371584626" lon="15.060058725954242"><ele>133.0</ele><time>2026-04-17T09:32:08.999Z</time></trkpt><trkpt lat="36.90145936364457" lon="15.059974258677604"><ele>134.5</ele><time>2026-04-17T09:32:09.999Z</time></trkpt><trkpt lat="36.90156998655645" lon="15.05988946919983"><ele>136.0</ele><time>2026-04-17T09:32:10.999Z</time></trkpt><trkpt lat="36.90168369304017" lon="15.059791113183769"><ele>135.0</ele><time>2026-04-17T09:32:11.999Z</time></trkpt><trkpt lat="36.90179636059576" lon="15.059690487720005"><ele>134.0</ele><time>2026-04-17T09:32:12.999Z</time></trkpt><trkpt lat="36.90191530884104" lon="15.05958089509631"><ele>133.0</ele><time>2026-04-17T09:32:13.999Z</time></trkpt><trkpt lat="36.90203806955398" lon="15.059466192428461"><ele>132.0</ele><time>2026-04-17T09:32:14.999Z</time></trkpt><trkpt lat="36.9021575083476" lon="15.059349620580727"><ele>132.0</ele><time>2026-04-17T09:32:15.999Z</time></trkpt><trkpt lat="36.90227475373233" lon="15.059230401133055"><ele>132.0</ele><time>2026-04-17T09:32:16.999Z</time></trkpt><trkpt lat="36.902394553709264" lon="15.059113120753953"><ele>132.0</ele><time>2026-04-17T09:32:17.999Z</time></trkpt><trkpt lat="36.90250610136039" lon="15.058999717973503"><ele>132.0</ele><time>2026-04-17T09:32:18.999Z</time></trkpt><trkpt lat="36.902610374125814" lon="15.058887825526478"><ele>131.0</ele><time>2026-04-17T09:32:19.999Z</time></trkpt><trkpt lat="36.90270742989487" lon="15.05878460340933"><ele>130.0</ele><time>2026-04-17T09:32:20.999Z</time></trkpt><trkpt lat="36.90279842724981" lon="15.05867944450118"><ele>129.0</ele><time>2026-04-17T09:32:21.999Z</time></trkpt><trkpt lat="36.90288312788205" lon="15.058570762180665"><ele>128.0</ele><time>2026-04-17T09:32:22.999Z</time></trkpt><trkpt lat="36.90295214258196" lon="15.058454882575036"><ele>128.0</ele><time>2026-04-17T09:32:23.999Z</time></trkpt><trkpt lat="36.90300684035955" lon="15.058339805651448"><ele>128.0</ele><time>2026-04-17T09:32:24.999Z</time></trkpt><trkpt lat="36.903054228488266" lon="15.058232694599967"><ele>128.0</ele><time>2026-04-17T09:32:25.999Z</time></trkpt><trkpt lat="36.90309617079683" lon="15.058125410691224"><ele>128.0</ele><time>2026-04-17T09:32:26.999Z</time></trkpt><trkpt lat="36.90313827111855" lon="15.0580230062985"><ele>128.0</ele><time>2026-04-17T09:32:27.999Z</time></trkpt><trkpt lat="36.90317870738146" lon="15.057919695049705"><ele>126.33333333333333</ele><time>2026-04-17T09:32:28.999Z</time></trkpt><trkpt lat="36.90321698600489" lon="15.057821137873784"><ele>124.66666666666666</ele><time>2026-04-17T09:32:29.999Z</time></trkpt><trkpt lat="36.903258627433864" lon="15.057721704907296"><ele>123.0</ele><time>2026-04-17T09:32:30.999Z</time></trkpt><trkpt lat="36.903298389308205" lon="15.057624638691784"><ele>121.33333333333334</ele><time>2026-04-17T09:32:31.999Z</time></trkpt><trkpt lat="36.903334894848044" lon="15.05752862333603"><ele>119.66666666666667</ele><time>2026-04-17T09:32:32.999Z</time></trkpt><trkpt lat="36.90337327240748" lon="15.057424782998957"><ele>118.0</ele><time>2026-04-17T09:32:33.999Z</time></trkpt><trkpt lat="36.9034140309848" lon="15.057314855935267"><ele>118.0</ele><time>2026-04-17T09:32:34.999Z</time></trkpt><trkpt lat="36.9034564180742" lon="15.057198458328566"><ele>118.00000000000001</ele><time>2026-04-17T09:32:35.999Z</time></trkpt><trkpt lat="36.903502493096354" lon="15.057080510736986"><ele>118.00000000000001</ele><time>2026-04-17T09:32:36.999Z</time></trkpt><trkpt lat="36.90355317121852" lon="15.056959662845022"><ele>118.0</ele><time>2026-04-17T09:32:37.999Z</time></trkpt><trkpt lat="36.903601203279266" lon="15.056841687326774"><ele>118.0</ele><time>2026-04-17T09:32:38.999Z</time></trkpt><trkpt lat="36.90364425095851" lon="15.056731554314268"><ele>117.0</ele><time>2026-04-17T09:32:39.999Z</time></trkpt><trkpt lat="36.90368549305938" lon="15.056619394264292"><ele>116.00000000000001</ele><time>2026-04-17T09:32:40.999Z</time></trkpt><trkpt lat="36.90373381452332" lon="15.0565082081118"><ele>115.00000000000001</ele><time>2026-04-17T09:32:41.999Z</time></trkpt><trkpt lat="36.90378788082615" lon="15.05639093851861"><ele>114.0</ele><time>2026-04-17T09:32:42.999Z</time></trkpt><trkpt lat="36.903840989969225" lon="15.056271386810199"><ele>113.0</ele><time>2026-04-17T09:32:43.999Z</time></trkpt><trkpt lat="36.90388926964101" lon="15.05614318478833"><ele>113.0</ele><time>2026-04-17T09:32:44.999Z</time></trkpt><trkpt lat="36.90392722180448" lon="15.056005830066093"><ele>113.0</ele><time>2026-04-17T09:32:45.999Z</time></trkpt><trkpt lat="36.90395818563588" lon="15.055868078906583"><ele>113.0</ele><time>2026-04-17T09:32:46.999Z</time></trkpt><trkpt lat="36.903992411539356" lon="15.055728570412045"><ele>113.0</ele><time>2026-04-17T09:32:47.999Z</time></trkpt><trkpt lat="36.90402813035143" lon="15.055593813997426"><ele>112.5</ele><time>2026-04-17T09:32:49Z</time></trkpt><trkpt lat="36.90406451429111" lon="15.055454194604948"><ele>112.0</ele><time>2026-04-17T09:32:50Z</time></trkpt><trkpt lat="36.90410459429655" lon="15.055309271622859"><ele>111.5</ele><time>2026-04-17T09:32:51Z</time></trkpt><trkpt lat="36.904147425438566" lon="15.055170341042523"><ele>111.0</ele><time>2026-04-17T09:32:52Z</time></trkpt><trkpt lat="36.904198232441885" lon="15.05503670130595"><ele>110.0</ele><time>2026-04-17T09:32:53Z</time></trkpt><trkpt lat="36.904245293007165" lon="15.054907238289049"><ele>109.0</ele><time>2026-04-17T09:32:54Z</time></trkpt><trkpt lat="36.904286556194" lon="15.054769165193354"><ele>108.0</ele><time>2026-04-17T09:32:55Z</time></trkpt><trkpt lat="36.904332974088454" lon="15.0546343175662"><ele>107.0</ele><time>2026-04-17T09:32:56Z</time></trkpt><trkpt lat="36.90439875940015" lon="15.054504372215028"><ele>108.25</ele><time>2026-04-17T09:32:57Z</time></trkpt><trkpt lat="36.90447667790797" lon="15.05438544352639"><ele>109.5</ele><time>2026-04-17T09:32:58Z</time></trkpt><trkpt lat="36.90456188344737" lon="15.054279392439877"><ele>110.75</ele><time>2026-04-17T09:32:59Z</time></trkpt><trkpt lat="36.90464491977394" lon="15.054176517899647"><ele>112.0</ele><time>2026-04-17T09:33:00Z</time></trkpt><trkpt lat="36.904719355997855" lon="15.054080824866812"><ele>112.0</ele><time>2026-04-17T09:33:01Z</time></trkpt><trkpt lat="36.90478592153216" lon="15.053998497666143"><ele>111.99999999999999</ele><time>2026-04-17T09:33:02Z</time></trkpt><trkpt lat="36.9048455466033" lon="15.05391769074267"><ele>111.99999999999999</ele><time>2026-04-17T09:33:03Z</time></trkpt><trkpt lat="36.9049068817329" lon="15.053836215942859"><ele>112.0</ele><time>2026-04-17T09:33:04Z</time></trkpt><trkpt lat="36.9049787226711" lon="15.053737890994572"><ele>112.0</ele><time>2026-04-17T09:33:05Z</time></trkpt><trkpt lat="36.905046735165335" lon="15.05364661983137"><ele>112.39999999999999</ele><time>2026-04-17T09:33:06Z</time></trkpt><trkpt lat="36.90511581341489" lon="15.053549731827495"><ele>112.79999999999998</ele><time>2026-04-17T09:33:07Z</time></trkpt><trkpt lat="36.90518892839387" lon="15.053451287284066"><ele>113.2</ele><time>2026-04-17T09:33:08Z</time></trkpt><trkpt lat="36.90526411279658" lon="15.053350245415782"><ele>113.6</ele><time>2026-04-17T09:33:09Z</time></trkpt><trkpt lat="36.90534138099527" lon="15.053248734508534"><ele>114.0</ele><time>2026-04-17T09:33:10Z</time></trkpt><trkpt lat="36.9054205350882" lon="15.053148547797932"><ele>114.25</ele><time>2026-04-17T09:33:11Z</time></trkpt><trkpt lat="36.90550514686737" lon="15.053039498095615"><ele>114.5</ele><time>2026-04-17T09:33:12Z</time></trkpt><trkpt lat="36.90559409020869" lon="15.052920501040592"><ele>114.75</ele><time>2026-04-17T09:33:13Z</time></trkpt><trkpt lat="36.90568332334187" lon="15.052798352785608"><ele>115.0</ele><time>2026-04-17T09:33:14Z</time></trkpt><trkpt lat="36.905773641470795" lon="15.05268150462099"><ele>115.0</ele><time>2026-04-17T09:33:15Z</time></trkpt><trkpt lat="36.905861603704956" lon="15.052560253124085"><ele>115.0</ele><time>2026-04-17T09:33:16Z</time></trkpt><trkpt lat="36.90595298260985" lon="15.052437036855258"><ele>115.0</ele><time>2026-04-17T09:33:17Z</time></trkpt><trkpt lat="36.906043361866864" lon="15.052315092452321"><ele>115.0</ele><time>2026-04-17T09:33:18Z</time></trkpt><trkpt lat="36.90613830346613" lon="15.052195912370383"><ele>117.25</ele><time>2026-04-17T09:33:19Z</time></trkpt><trkpt lat="36.9062365184816" lon="15.052074683694649"><ele>119.5</ele><time>2026-04-17T09:33:20Z</time></trkpt><trkpt lat="36.9063348942784" lon="15.051949587189815"><ele>121.75</ele><time>2026-04-17T09:33:21Z</time></trkpt><trkpt lat="36.90642391962131" lon="15.051822422499155"><ele>124.0</ele><time>2026-04-17T09:33:22Z</time></trkpt><trkpt lat="36.906513396951695" lon="15.051697947724568"><ele>125.0</ele><time>2026-04-17T09:33:23Z</time></trkpt><trkpt lat="36.90659796443246" lon="15.051581172245609"><ele>126.0</ele><time>2026-04-17T09:33:24Z</time></trkpt><trkpt lat="36.906679294184904" lon="15.051474859064786"><ele>127.0</ele><time>2026-04-17T09:33:25Z</time></trkpt><trkpt lat="36.90675829754485" lon="15.051372401051356"><ele>128.0</ele><time>2026-04-17T09:33:26Z</time></trkpt><trkpt lat="36.906831709240755" lon="15.051269938265008"><ele>130.8</ele><time>2026-04-17T09:33:27Z</time></trkpt><trkpt lat="36.90689739909586" lon="15.051165609839764"><ele>133.60000000000002</ele><time>2026-04-17T09:33:28Z</time></trkpt><trkpt lat="36.90695590187966" lon="15.051055646093598"><ele>136.39999999999998</ele><time>2026-04-17T09:33:29Z</time></trkpt><trkpt lat="36.9069896863634" lon="15.050926584111135"><ele>139.2</ele><time>2026-04-17T09:33:30Z</time></trkpt><trkpt lat="36.90701514410668" lon="15.05077490143422"><ele>142.0</ele><time>2026-04-17T09:33:31Z</time></trkpt><trkpt lat="36.90703771945959" lon="15.050607827575826"><ele>143.0</ele><time>2026-04-17T09:33:32Z</time></trkpt><trkpt lat="36.90707546750958" lon="15.05045417168269"><ele>144.0</ele><time>2026-04-17T09:33:33Z</time></trkpt><trkpt lat="36.90709927596911" lon="15.050326186703215"><ele>145.0</ele><time>2026-04-17T09:33:34Z</time></trkpt><trkpt lat="36.90710933447666" lon="15.05021401866504"><ele>146.0</ele><time>2026-04-17T09:33:35Z</time></trkpt><trkpt lat="36.9071228833004" lon="15.05011723002856"><ele>147.0</ele><time>2026-04-17T09:33:36Z</time></trkpt><trkpt lat="36.90714847775131" lon="15.05003253643103"><ele>147.0</ele><time>2026-04-17T09:33:37Z</time></trkpt><trkpt lat="36.907151551122716" lon="15.04991323423365"><ele>147.0</ele><time>2026-04-17T09:33:39Z</time></trkpt><trkpt lat="36.907235763679864" lon="15.050043498936285"><ele>147.0</ele><time>2026-04-17T09:33:42Z</time></trkpt><trkpt lat="36.90734924046107" lon="15.050114949067247"><ele>147.0</ele><time>2026-04-17T09:33:44Z</time></trkpt><trkpt lat="36.90741995855334" lon="15.050068562310399"><ele>147.0</ele><time>2026-04-17T09:33:45Z</time></trkpt><trkpt lat="36.90746411158782" lon="15.050010100095612"><ele>146.75</ele><time>2026-04-17T09:33:46Z</time></trkpt><trkpt lat="36.90752475716198" lon="15.049897599193743"><ele>146.5</ele><time>2026-04-17T09:33:48Z</time></trkpt><trkpt lat="36.907594908915556" lon="15.049798099371287"><ele>146.25</ele><time>2026-04-17T09:33:50Z</time></trkpt><trkpt lat="36.90770613340416" lon="15.04965641430246"><ele>146.0</ele><time>2026-04-17T09:33:52Z</time></trkpt><trkpt lat="36.90779130900423" lon="15.049530441277813"><ele>150.0</ele><time>2026-04-17T09:33:53Z</time></trkpt><trkpt lat="36.90786901880438" lon="15.04942104017157"><ele>154.0</ele><time>2026-04-17T09:33:54Z</time></trkpt><trkpt lat="36.90796358682616" lon="15.049297997902608"><ele>158.0</ele><time>2026-04-17T09:33:55Z</time></trkpt><trkpt lat="36.90807639476577" lon="15.04920288851084"><ele>162.0</ele><time>2026-04-17T09:33:56Z</time></trkpt><trkpt lat="36.90816494052068" lon="15.049079338156856"><ele>162.0</ele><time>2026-04-17T09:33:57Z</time></trkpt><trkpt lat="36.90825496526666" lon="15.048934226116744"><ele>162.0</ele><time>2026-04-17T09:33:58Z</time></trkpt><trkpt lat="36.90833190446563" lon="15.048776071954986"><ele>162.0</ele><time>2026-04-17T09:33:59Z</time></trkpt><trkpt lat="36.908409261427884" lon="15.048631851217621"><ele>162.0</ele><time>2026-04-17T09:34:00Z</time></trkpt><trkpt lat="36.90849168209265" lon="15.048525008467987"><ele>164.8</ele><time>2026-04-17T09:34:01Z</time></trkpt><trkpt lat="36.90856109793895" lon="15.04844995380016"><ele>167.6</ele><time>2026-04-17T09:34:02Z</time></trkpt><trkpt lat="36.90863771871606" lon="15.04839898630147"><ele>170.4</ele><time>2026-04-17T09:34:03Z</time></trkpt><trkpt lat="36.90872461704748" lon="15.048339980086105"><ele>173.20000000000002</ele><time>2026-04-17T09:34:04Z</time></trkpt><trkpt lat="36.90882727171898" lon="15.048272268926592"><ele>176.0</ele><time>2026-04-17T09:34:05Z</time></trkpt><trkpt lat="36.90892317704248" lon="15.048209009611995"><ele>176.0</ele><time>2026-04-17T09:34:05.999Z</time></trkpt><trkpt lat="36.909030212039085" lon="15.0481419281295"><ele>176.0</ele><time>2026-04-17T09:34:06.999Z</time></trkpt><trkpt lat="36.90914012091084" lon="15.048066403443588"><ele>176.0</ele><time>2026-04-17T09:34:07.999Z</time></trkpt><trkpt lat="36.90924090053817" lon="15.047995843900724"><ele>176.0</ele><time>2026-04-17T09:34:08.999Z</time></trkpt><trkpt lat="36.90935052532908" lon="15.047941274307037"><ele>180.0</ele><time>2026-04-17T09:34:09.999Z</time></trkpt><trkpt lat="36.909476457434565" lon="15.047882226177"><ele>184.0</ele><time>2026-04-17T09:34:10.999Z</time></trkpt><trkpt lat="36.90960472708237" lon="15.047840804578875"><ele>188.0</ele><time>2026-04-17T09:34:11.999Z</time></trkpt><trkpt lat="36.9097150253918" lon="15.047821999571433"><ele>192.0</ele><time>2026-04-17T09:34:12.999Z</time></trkpt><trkpt lat="36.90980892052567" lon="15.047828811550488"><ele>192.0</ele><time>2026-04-17T09:34:13.999Z</time></trkpt><trkpt lat="36.90992310225582" lon="15.047835785947624"><ele>192.0</ele><time>2026-04-17T09:34:14.999Z</time></trkpt><trkpt lat="36.91004463269836" lon="15.047828283921485"><ele>192.0</ele><time>2026-04-17T09:34:15.999Z</time></trkpt><trkpt lat="36.910173818818095" lon="15.047803151742698"><ele>192.0</ele><time>2026-04-17T09:34:16.999Z</time></trkpt><trkpt lat="36.910312312613044" lon="15.047776642042919"><ele>194.75</ele><time>2026-04-17T09:34:17.999Z</time></trkpt><trkpt lat="36.910446080718174" lon="15.047754710403792"><ele>197.5</ele><time>2026-04-17T09:34:18.999Z</time></trkpt><trkpt lat="36.91057447008791" lon="15.04773366062369"><ele>200.25</ele><time>2026-04-17T09:34:19.999Z</time></trkpt><trkpt lat="36.91069244610685" lon="15.047731565668"><ele>203.0</ele><time>2026-04-17T09:34:20.999Z</time></trkpt><trkpt lat="36.91080013204495" lon="15.047744137713444"><ele>206.0</ele><time>2026-04-17T09:34:21.999Z</time></trkpt><trkpt lat="36.910910290760256" lon="15.047770129060867"><ele>209.0</ele><time>2026-04-17T09:34:22.999Z</time></trkpt><trkpt lat="36.911022330079206" lon="15.047812905201853"><ele>212.0</ele><time>2026-04-17T09:34:23.999Z</time></trkpt><trkpt lat="36.91113356965185" lon="15.047874138677011"><ele>215.0</ele><time>2026-04-17T09:34:24.999Z</time></trkpt><trkpt lat="36.91125533991279" lon="15.047937842472566"><ele>215.0</ele><time>2026-04-17T09:34:25.999Z</time></trkpt><trkpt lat="36.91135708825508" lon="15.04800976698317"><ele>215.0</ele><time>2026-04-17T09:34:26.999Z</time></trkpt><trkpt lat="36.91146174190121" lon="15.048056893216122"><ele>215.0</ele><time>2026-04-17T09:34:27.999Z</time></trkpt><trkpt lat="36.911557801882076" lon="15.048066561142642"><ele>215.0</ele><time>2026-04-17T09:34:28.999Z</time></trkpt><trkpt lat="36.911651319771515" lon="15.048074062772045"><ele>215.0</ele><time>2026-04-17T09:34:29.999Z</time></trkpt><trkpt lat="36.911754222330465" lon="15.048094494343625"><ele>220.2</ele><time>2026-04-17T09:34:30.999Z</time></trkpt><trkpt lat="36.91184671501046" lon="15.04808796687394"><ele>225.4</ele><time>2026-04-17T09:34:31.999Z</time></trkpt><trkpt lat="36.91193272761008" lon="15.04805791908544"><ele>230.60000000000002</ele><time>2026-04-17T09:34:32.999Z</time></trkpt><trkpt lat="36.91201057319997" lon="15.04794857882115"><ele>235.8</ele><time>2026-04-17T09:34:33.999Z</time></trkpt><trkpt lat="36.91210771570227" lon="15.047896185418168"><ele>241.0</ele><time>2026-04-17T09:34:34.999Z</time></trkpt><trkpt lat="36.912182937118395" lon="15.047846144931452"><ele>241.0</ele><time>2026-04-17T09:34:35.999Z</time></trkpt><trkpt lat="36.91223190194097" lon="15.047788640799274"><ele>241.00000000000003</ele><time>2026-04-17T09:34:36.999Z</time></trkpt><trkpt lat="36.912287833080015" lon="15.047660702131134"><ele>241.00000000000003</ele><time>2026-04-17T09:34:38.999Z</time></trkpt><trkpt lat="36.91228029608818" lon="15.04752112132854"><ele>241.0</ele><time>2026-04-17T09:34:40.999Z</time></trkpt><trkpt lat="36.912277567879116" lon="15.047426709147835"><ele>241.0</ele><time>2026-04-17T09:34:42.999Z</time></trkpt><trkpt lat="36.91227055434803" lon="15.047300313581227"><ele>238.5</ele><time>2026-04-17T09:34:45.999Z</time></trkpt><trkpt lat="36.912257317190324" lon="15.047165497383093"><ele>236.0</ele><time>2026-04-17T09:34:47.999Z</time></trkpt><trkpt lat="36.91227746731934" lon="15.047030859832935"><ele>233.5</ele><time>2026-04-17T09:34:49.999Z</time></trkpt><trkpt lat="36.91237149183245" lon="15.046957984561269"><ele>231.0</ele><time>2026-04-17T09:34:51.999Z</time></trkpt><trkpt lat="36.91245873947066" lon="15.046850961267097"><ele>231.0</ele><time>2026-04-17T09:34:53.999Z</time></trkpt><trkpt lat="36.91251394812953" lon="15.046791440767898"><ele>231.0</ele><time>2026-04-17T09:34:55Z</time></trkpt><trkpt lat="36.91257288520665" lon="15.046725250665116"><ele>231.0</ele><time>2026-04-17T09:34:56Z</time></trkpt><trkpt lat="36.91262998429258" lon="15.046654267989192"><ele>231.0</ele><time>2026-04-17T09:34:57Z</time></trkpt><trkpt lat="36.91267907755906" lon="15.0465789522401"><ele>231.0</ele><time>2026-04-17T09:34:58Z</time></trkpt><trkpt lat="36.91270633033746" lon="15.046492960573058"><ele>231.0</ele><time>2026-04-17T09:34:59Z</time></trkpt><trkpt lat="36.9127065071932" lon="15.046408364365313"><ele>237.8</ele><time>2026-04-17T09:35:00Z</time></trkpt><trkpt lat="36.91270767790539" lon="15.04626031834827"><ele>244.60000000000002</ele><time>2026-04-17T09:35:02Z</time></trkpt><trkpt lat="36.91274606981048" lon="15.046116904764663"><ele>251.4</ele><time>2026-04-17T09:35:04Z</time></trkpt><trkpt lat="36.912841232034964" lon="15.046067498719816"><ele>258.2</ele><time>2026-04-17T09:35:06Z</time></trkpt><trkpt lat="36.91288728480334" lon="15.046128941617216"><ele>265.0</ele><time>2026-04-17T09:35:07Z</time></trkpt><trkpt lat="36.912962608260834" lon="15.04613261790367"><ele>265.0</ele><time>2026-04-17T09:35:08Z</time></trkpt><trkpt lat="36.91304156003123" lon="15.046156285725852"><ele>265.0</ele><time>2026-04-17T09:35:09Z</time></trkpt><trkpt lat="36.91314174530012" lon="15.04618283638081"><ele>265.0</ele><time>2026-04-17T09:35:10Z</time></trkpt><trkpt lat="36.913285573462204" lon="15.04622770602085"><ele>265.0</ele><time>2026-04-17T09:35:11Z</time></trkpt><trkpt lat="36.9134323853851" lon="15.046241112261182"><ele>264.0</ele><time>2026-04-17T09:35:12Z</time></trkpt><trkpt lat="36.91357274510646" lon="15.046280149338305"><ele>263.0</ele><time>2026-04-17T09:35:13Z</time></trkpt><trkpt lat="36.913722807533965" lon="15.046316846371035"><ele>262.0</ele><time>2026-04-17T09:35:14Z</time></trkpt><trkpt lat="36.91388928250099" lon="15.046388381416044"><ele>262.0</ele><time>2026-04-17T09:35:15Z</time></trkpt><trkpt lat="36.91406804609671" lon="15.04646503794314"><ele>262.0</ele><time>2026-04-17T09:35:16Z</time></trkpt><trkpt lat="36.914230494817545" lon="15.04655988930312"><ele>262.0</ele><time>2026-04-17T09:35:17Z</time></trkpt><trkpt lat="36.914378468803186" lon="15.04661459134303"><ele>266.3333333333333</ele><time>2026-04-17T09:35:18Z</time></trkpt><trkpt lat="36.91452649157229" lon="15.046634807981626"><ele>270.6666666666667</ele><time>2026-04-17T09:35:19Z</time></trkpt><trkpt lat="36.91467227582361" lon="15.046686049740888"><ele>275.0</ele><time>2026-04-17T09:35:20Z</time></trkpt><trkpt lat="36.91481759356813" lon="15.046739235995595"><ele>275.0</ele><time>2026-04-17T09:35:21Z</time></trkpt><trkpt lat="36.91495833152284" lon="15.046795193396576"><ele>275.0</ele><time>2026-04-17T09:35:22Z</time></trkpt><trkpt lat="36.91510002852118" lon="15.046859605924514"><ele>275.0</ele><time>2026-04-17T09:35:23Z</time></trkpt><trkpt lat="36.91524125404305" lon="15.04690957238824"><ele>275.0</ele><time>2026-04-17T09:35:24Z</time></trkpt><trkpt lat="36.91535968857222" lon="15.046950289531175"><ele>276.0</ele><time>2026-04-17T09:35:25Z</time></trkpt><trkpt lat="36.91546562649088" lon="15.04699412209996"><ele>277.0</ele><time>2026-04-17T09:35:26Z</time></trkpt><trkpt lat="36.91556677555686" lon="15.047050513103056"><ele>278.0</ele><time>2026-04-17T09:35:27Z</time></trkpt><trkpt lat="36.9156634580654" lon="15.047092050256646"><ele>279.0</ele><time>2026-04-17T09:35:28Z</time></trkpt><trkpt lat="36.91577219050892" lon="15.047134147691718"><ele>280.0</ele><time>2026-04-17T09:35:29Z</time></trkpt><trkpt lat="36.915888848918364" lon="15.04717748256799"><ele>276.8</ele><time>2026-04-17T09:35:30Z</time></trkpt><trkpt lat="36.91600304582819" lon="15.047233368159311"><ele>273.6</ele><time>2026-04-17T09:35:31Z</time></trkpt><trkpt lat="36.91611043337887" lon="15.04730686633189"><ele>270.4</ele><time>2026-04-17T09:35:32Z</time></trkpt><trkpt lat="36.91620429751933" lon="15.04736533507122"><ele>267.2</ele><time>2026-04-17T09:35:33Z</time></trkpt><trkpt lat="36.916289996024474" lon="15.047379495519941"><ele>264.0</ele><time>2026-04-17T09:35:34Z</time></trkpt><trkpt lat="36.916373873613665" lon="15.047380741612953"><ele>264.0</ele><time>2026-04-17T09:35:35Z</time></trkpt><trkpt lat="36.91645421942858" lon="15.047388699600136"><ele>264.0</ele><time>2026-04-17T09:35:36Z</time></trkpt><trkpt lat="36.916529722917964" lon="15.047413195892794"><ele>264.0</ele><time>2026-04-17T09:35:37Z</time></trkpt><trkpt lat="36.91660688890663" lon="15.047440210805291"><ele>264.0</ele><time>2026-04-17T09:35:38Z</time></trkpt><trkpt lat="36.91668936729966" lon="15.047463300081056"><ele>264.0</ele><time>2026-04-17T09:35:39Z</time></trkpt><trkpt lat="36.91677023232491" lon="15.047482864509107"><ele>264.0</ele><time>2026-04-17T09:35:40Z</time></trkpt><trkpt lat="36.91684619852278" lon="15.047507459744118"><ele>265.4</ele><time>2026-04-17T09:35:41Z</time></trkpt><trkpt lat="36.91691053074764" lon="15.047532198787884"><ele>266.79999999999995</ele><time>2026-04-17T09:35:42Z</time></trkpt><trkpt lat="36.917014865762575" lon="15.047612636661924"><ele>268.20000000000005</ele><time>2026-04-17T09:35:44Z</time></trkpt><trkpt lat="36.91713371634841" lon="15.047680431348745"><ele>269.6</ele><time>2026-04-17T09:35:46Z</time></trkpt><trkpt lat="36.91720075074645" lon="15.047708129957634"><ele>271.0</ele><time>2026-04-17T09:35:47Z</time></trkpt><trkpt lat="36.91726481402669" lon="15.047754888884723"><ele>271.0</ele><time>2026-04-17T09:35:48Z</time></trkpt><trkpt lat="36.917328564803704" lon="15.047808899726054"><ele>271.0</ele><time>2026-04-17T09:35:49Z</time></trkpt><trkpt lat="36.917392657861306" lon="15.047865485124024"><ele>271.0</ele><time>2026-04-17T09:35:50Z</time></trkpt><trkpt lat="36.9174701712266" lon="15.047909404949758"><ele>271.0</ele><time>2026-04-17T09:35:51Z</time></trkpt><trkpt lat="36.917530780777646" lon="15.047977668415225"><ele>271.0</ele><time>2026-04-17T09:35:52Z</time></trkpt><trkpt lat="36.91757951004944" lon="15.048061488152936"><ele>271.0</ele><time>2026-04-17T09:35:53Z</time></trkpt><trkpt lat="36.917656939045216" lon="15.048115561161985"><ele>272.3333333333333</ele><time>2026-04-17T09:35:54Z</time></trkpt><trkpt lat="36.91772840695966" lon="15.048177865895234"><ele>273.66666666666663</ele><time>2026-04-17T09:35:55Z</time></trkpt><trkpt lat="36.91780096191236" lon="15.048224218216548"><ele>275.0</ele><time>2026-04-17T09:35:56Z</time></trkpt><trkpt lat="36.917880093461186" lon="15.048270989020006"><ele>276.3333333333333</ele><time>2026-04-17T09:35:57Z</time></trkpt><trkpt lat="36.917956141815026" lon="15.048302934794574"><ele>277.6666666666667</ele><time>2026-04-17T09:35:58Z</time></trkpt><trkpt lat="36.91805333606664" lon="15.048344860207802"><ele>279.0</ele><time>2026-04-17T09:35:59Z</time></trkpt><trkpt lat="36.918132561622826" lon="15.048381373623595"><ele>279.0</ele><time>2026-04-17T09:36:00Z</time></trkpt><trkpt lat="36.918205489027415" lon="15.048418527530707"><ele>279.0</ele><time>2026-04-17T09:36:01Z</time></trkpt><trkpt lat="36.9182733830077" lon="15.048456928274202"><ele>279.0</ele><time>2026-04-17T09:36:02Z</time></trkpt><trkpt lat="36.918352385692074" lon="15.048486196168652"><ele>279.0</ele><time>2026-04-17T09:36:03Z</time></trkpt><trkpt lat="36.91843563075681" lon="15.04852021215807"><ele>279.0</ele><time>2026-04-17T09:36:04Z</time></trkpt><trkpt lat="36.91851749514335" lon="15.048564746801237"><ele>279.0</ele><time>2026-04-17T09:36:05Z</time></trkpt><trkpt lat="36.918588261696875" lon="15.048602939397252"><ele>279.0</ele><time>2026-04-17T09:36:06Z</time></trkpt><trkpt lat="36.918689292899685" lon="15.048655024536655"><ele>279.0</ele><time>2026-04-17T09:36:08Z</time></trkpt><trkpt lat="36.91876598260757" lon="15.048685894475506"><ele>279.0</ele><time>2026-04-17T09:36:09Z</time></trkpt><trkpt lat="36.918878210926344" lon="15.048721131734807"><ele>279.0</ele><time>2026-04-17T09:36:10Z</time></trkpt><trkpt lat="36.919026441029835" lon="15.048766968792954"><ele>279.0</ele><time>2026-04-17T09:36:11Z</time></trkpt><trkpt lat="36.91917284073032" lon="15.048828432771648"><ele>279.0</ele><time>2026-04-17T09:36:12Z</time></trkpt><trkpt lat="36.919315771848005" lon="15.048874569889136"><ele>279.0</ele><time>2026-04-17T09:36:13Z</time></trkpt><trkpt lat="36.919477155804" lon="15.048901826983524"><ele>278.25</ele><time>2026-04-17T09:36:14Z</time></trkpt><trkpt lat="36.91962898984043" lon="15.048920894519975"><ele>277.5</ele><time>2026-04-17T09:36:15Z</time></trkpt><trkpt lat="36.91976128042183" lon="15.048957014717304"><ele>276.75</ele><time>2026-04-17T09:36:16Z</time></trkpt><trkpt lat="36.9198669636579" lon="15.049049847566808"><ele>276.0</ele><time>2026-04-17T09:36:17Z</time></trkpt><trkpt lat="36.91997427685519" lon="15.049084790965976"><ele>276.0</ele><time>2026-04-17T09:36:18Z</time></trkpt><trkpt lat="36.92005194860538" lon="15.049124581954993"><ele>276.0</ele><time>2026-04-17T09:36:19Z</time></trkpt><trkpt lat="36.920144825583236" lon="15.049176918019528"><ele>276.0</ele><time>2026-04-17T09:36:21Z</time></trkpt><trkpt lat="36.92012761495148" lon="15.049404874240718"><ele>276.0</ele><time>2026-04-17T09:36:22Z</time></trkpt><trkpt lat="36.920218885958114" lon="15.049445160537676"><ele>278.3333333333333</ele><time>2026-04-17T09:36:23Z</time></trkpt><trkpt lat="36.92031472569161" lon="15.049480555466838"><ele>280.6666666666667</ele><time>2026-04-17T09:36:24Z</time></trkpt><trkpt lat="36.920393947577935" lon="15.04951340597691"><ele>283.0</ele><time>2026-04-17T09:36:25Z</time></trkpt><trkpt lat="36.92045677090521" lon="15.049543940264027"><ele>285.33333333333337</ele><time>2026-04-17T09:36:26Z</time></trkpt><trkpt lat="36.9205620129366" lon="15.049586840076934"><ele>287.6666666666667</ele><time>2026-04-17T09:36:28Z</time></trkpt><trkpt lat="36.92063312741616" lon="15.049584589414305"><ele>290.0</ele><time>2026-04-17T09:36:29Z</time></trkpt><trkpt lat="36.92071471666703" lon="15.04958374394294"><ele>290.0</ele><time>2026-04-17T09:36:30Z</time></trkpt><trkpt lat="36.920808902813356" lon="15.049586884419837"><ele>290.0</ele><time>2026-04-17T09:36:31Z</time></trkpt><trkpt lat="36.920922316188395" lon="15.049592668952595"><ele>290.0</ele><time>2026-04-17T09:36:32Z</time></trkpt><trkpt lat="36.92101927502983" lon="15.049596498997792"><ele>290.0</ele><time>2026-04-17T09:36:33Z</time></trkpt><trkpt lat="36.92112074476949" lon="15.04961508327709"><ele>290.0</ele><time>2026-04-17T09:36:33.999Z</time></trkpt><trkpt lat="36.92125766489715" lon="15.049662568470294"><ele>289.6666666666667</ele><time>2026-04-17T09:36:34.999Z</time></trkpt><trkpt lat="36.921420573117416" lon="15.049712960689918"><ele>289.3333333333333</ele><time>2026-04-17T09:36:35.999Z</time></trkpt><trkpt lat="36.921573794816986" lon="15.049752211106666"><ele>289.0</ele><time>2026-04-17T09:36:36.999Z</time></trkpt><trkpt lat="36.92171390155899" lon="15.049790706995452"><ele>289.59999999999997</ele><time>2026-04-17T09:36:37.999Z</time></trkpt><trkpt lat="36.92182749095129" lon="15.04983022317479"><ele>290.2</ele><time>2026-04-17T09:36:38.999Z</time></trkpt><trkpt lat="36.9219279903879" lon="15.04986099516751"><ele>290.79999999999995</ele><time>2026-04-17T09:36:39.999Z</time></trkpt><trkpt lat="36.92202252294888" lon="15.049882974422218"><ele>291.4</ele><time>2026-04-17T09:36:40.999Z</time></trkpt><trkpt lat="36.92211533941768" lon="15.049907393503412"><ele>292.0</ele><time>2026-04-17T09:36:41.999Z</time></trkpt><trkpt lat="36.922218000344515" lon="15.049931444650266"><ele>292.0</ele><time>2026-04-17T09:36:42.999Z</time></trkpt><trkpt lat="36.92233828762525" lon="15.04994068842144"><ele>292.0</ele><time>2026-04-17T09:36:43.999Z</time></trkpt><trkpt lat="36.92246384205801" lon="15.049934744267398"><ele>292.0</ele><time>2026-04-17T09:36:44.999Z</time></trkpt><trkpt lat="36.922596847916346" lon="15.049932700973127"><ele>292.0</ele><time>2026-04-17T09:36:45.999Z</time></trkpt><trkpt lat="36.9227209490165" lon="15.049936301609705"><ele>293.0</ele><time>2026-04-17T09:36:46.999Z</time></trkpt><trkpt lat="36.922832929106015" lon="15.049933958219718"><ele>294.0</ele><time>2026-04-17T09:36:47.999Z</time></trkpt><trkpt lat="36.92293365933576" lon="15.049924006087693"><ele>295.0</ele><time>2026-04-17T09:36:48.999Z</time></trkpt><trkpt lat="36.92303666540733" lon="15.049931372246846"><ele>296.0</ele><time>2026-04-17T09:36:49.999Z</time></trkpt><trkpt lat="36.923135022661086" lon="15.04994383726554"><ele>297.0</ele><time>2026-04-17T09:36:50.999Z</time></trkpt><trkpt lat="36.923200443830744" lon="15.049922390111325"><ele>297.0</ele><time>2026-04-17T09:36:51.999Z</time></trkpt><trkpt lat="36.9232735948831" lon="15.049885317415956"><ele>297.0</ele><time>2026-04-17T09:36:52.999Z</time></trkpt><trkpt lat="36.92336165123607" lon="15.049817083899114"><ele>297.0</ele><time>2026-04-17T09:36:53.999Z</time></trkpt><trkpt lat="36.923435117426095" lon="15.049738884382009"><ele>297.0</ele><time>2026-04-17T09:36:54.999Z</time></trkpt><trkpt lat="36.923499855573716" lon="15.049643955063909"><ele>297.0</ele><time>2026-04-17T09:36:55.999Z</time></trkpt><trkpt lat="36.92355091490843" lon="15.049515734400964"><ele>295.5</ele><time>2026-04-17T09:36:56.999Z</time></trkpt><trkpt lat="36.923607229617296" lon="15.049368573359601"><ele>294.0</ele><time>2026-04-17T09:36:57.999Z</time></trkpt><trkpt lat="36.92366626881781" lon="15.049247276361799"><ele>292.5</ele><time>2026-04-17T09:36:58.999Z</time></trkpt><trkpt lat="36.9237374114057" lon="15.049138414701702"><ele>291.0</ele><time>2026-04-17T09:36:59.999Z</time></trkpt><trkpt lat="36.92381784420277" lon="15.049045746854782"><ele>289.8333333333333</ele><time>2026-04-17T09:37:01Z</time></trkpt><trkpt lat="36.92388325773293" lon="15.048962501215293"><ele>288.6666666666667</ele><time>2026-04-17T09:37:02Z</time></trkpt><trkpt lat="36.92393411819136" lon="15.048893942841023"><ele>287.5</ele><time>2026-04-17T09:37:03Z</time></trkpt><trkpt lat="36.923991727093146" lon="15.048844098219503"><ele>286.33333333333337</ele><time>2026-04-17T09:37:04Z</time></trkpt><trkpt lat="36.92405598182971" lon="15.048822593845376"><ele>285.1666666666667</ele><time>2026-04-17T09:37:05Z</time></trkpt><trkpt lat="36.92413653333719" lon="15.048821272547181"><ele>284.0</ele><time>2026-04-17T09:37:06Z</time></trkpt><trkpt lat="36.92421371920046" lon="15.048810698356867"><ele>284.8</ele><time>2026-04-17T09:37:07Z</time></trkpt><trkpt lat="36.92431136932462" lon="15.048791709936994"><ele>285.59999999999997</ele><time>2026-04-17T09:37:08Z</time></trkpt><trkpt lat="36.92440851829824" lon="15.048772362901264"><ele>286.4</ele><time>2026-04-17T09:37:09Z</time></trkpt><trkpt lat="36.9245050586415" lon="15.048748011881774"><ele>287.2</ele><time>2026-04-17T09:37:10Z</time></trkpt><trkpt lat="36.924580960294406" lon="15.048718473082792"><ele>288.0</ele><time>2026-04-17T09:37:11Z</time></trkpt><trkpt lat="36.924660880084616" lon="15.048700423781487"><ele>288.0</ele><time>2026-04-17T09:37:12Z</time></trkpt><trkpt lat="36.92474979406185" lon="15.048690852177819"><ele>288.0</ele><time>2026-04-17T09:37:13Z</time></trkpt><trkpt lat="36.924846710148785" lon="15.048678284568926"><ele>288.0</ele><time>2026-04-17T09:37:14Z</time></trkpt><trkpt lat="36.92494444136993" lon="15.04867023028756"><ele>288.0</ele><time>2026-04-17T09:37:15Z</time></trkpt><trkpt lat="36.925025289041166" lon="15.048676890757116"><ele>288.0</ele><time>2026-04-17T09:37:16Z</time></trkpt><trkpt lat="36.9251026724404" lon="15.048699563762291"><ele>288.0</ele><time>2026-04-17T09:37:17Z</time></trkpt><trkpt lat="36.92519058205767" lon="15.048732978163178"><ele>289.2</ele><time>2026-04-17T09:37:18Z</time></trkpt><trkpt lat="36.92528355630568" lon="15.048758612791268"><ele>290.4</ele><time>2026-04-17T09:37:19Z</time></trkpt><trkpt lat="36.92538256311715" lon="15.048774912636715"><ele>291.59999999999997</ele><time>2026-04-17T09:37:20Z</time></trkpt><trkpt lat="36.925469535306554" lon="15.048753127463433"><ele>292.8</ele><time>2026-04-17T09:37:21Z</time></trkpt><trkpt lat="36.925565020864035" lon="15.048712097889412"><ele>294.0</ele><time>2026-04-17T09:37:22Z</time></trkpt><trkpt lat="36.925658274420684" lon="15.048673755567036"><ele>294.0</ele><time>2026-04-17T09:37:23Z</time></trkpt><trkpt lat="36.9257342557239" lon="15.048633874877575"><ele>294.0</ele><time>2026-04-17T09:37:24Z</time></trkpt><trkpt lat="36.92579037882956" lon="15.048595314410651"><ele>294.0</ele><time>2026-04-17T09:37:25Z</time></trkpt><trkpt lat="36.925858303399295" lon="15.048613190543918"><ele>294.0</ele><time>2026-04-17T09:37:28Z</time></trkpt><trkpt lat="36.9257806593167" lon="15.04859545595762"><ele>294.0</ele><time>2026-04-17T09:40:30Z</time></trkpt><trkpt lat="36.925709058781635" lon="15.048610992007898"><ele>294.0</ele><time>2026-04-17T09:40:32Z</time></trkpt><trkpt lat="36.925629903669474" lon="15.048656989397001"><ele>294.0</ele><time>2026-04-17T09:40:35Z</time></trkpt><trkpt lat="36.92553209106576" lon="15.048702387333478"><ele>294.0</ele><time>2026-04-17T09:40:38Z</time></trkpt><trkpt lat="36.925394310040815" lon="15.048734912115894"><ele>294.0</ele><time>2026-04-17T09:40:40Z</time></trkpt><trkpt lat="36.925312361374104" lon="15.048743116998704"><ele>294.0</ele><time>2026-04-17T09:40:41Z</time></trkpt><trkpt lat="36.92521954133009" lon="15.04873482165947"><ele>294.0</ele><time>2026-04-17T09:40:42Z</time></trkpt><trkpt lat="36.92513614119913" lon="15.048707449246534"><ele>292.8</ele><time>2026-04-17T09:40:43Z</time></trkpt><trkpt lat="36.92504144902811" lon="15.04867370050588"><ele>291.59999999999997</ele><time>2026-04-17T09:40:43.999Z</time></trkpt><trkpt lat="36.92494254629653" lon="15.04865096662622"><ele>290.4</ele><time>2026-04-17T09:40:44.999Z</time></trkpt><trkpt lat="36.92487530045066" lon="15.048652354243453"><ele>289.2</ele><time>2026-04-17T09:40:45.999Z</time></trkpt><trkpt lat="36.92474831251788" lon="15.048682666037145"><ele>288.0</ele><time>2026-04-17T09:40:47.999Z</time></trkpt><trkpt lat="36.924669507771924" lon="15.0486901422818"><ele>288.0</ele><time>2026-04-17T09:40:48.999Z</time></trkpt><trkpt lat="36.92458572545035" lon="15.048703141868906"><ele>288.0</ele><time>2026-04-17T09:40:49.999Z</time></trkpt><trkpt lat="36.92450205200693" lon="15.048726611036887"><ele>288.0</ele><time>2026-04-17T09:40:50.999Z</time></trkpt><trkpt lat="36.924421703574986" lon="15.048759524206046"><ele>288.0</ele><time>2026-04-17T09:40:51.999Z</time></trkpt><trkpt lat="36.92432903459435" lon="15.04879365730222"><ele>288.0</ele><time>2026-04-17T09:40:52.999Z</time></trkpt><trkpt lat="36.9242336462712" lon="15.04881004216723"><ele>288.0</ele><time>2026-04-17T09:40:53.999Z</time></trkpt><trkpt lat="36.92413442958943" lon="15.0488227605692"><ele>288.5</ele><time>2026-04-17T09:40:54.999Z</time></trkpt><trkpt lat="36.924038627153706" lon="15.048845266700326"><ele>289.0</ele><time>2026-04-17T09:40:55.999Z</time></trkpt><trkpt lat="36.923945150741076" lon="15.048871816245324"><ele>289.5</ele><time>2026-04-17T09:40:56.999Z</time></trkpt><trkpt lat="36.92388456408244" lon="15.048915217997507"><ele>290.0</ele><time>2026-04-17T09:40:57.999Z</time></trkpt><trkpt lat="36.92383643387776" lon="15.048986935782802"><ele>290.5</ele><time>2026-04-17T09:40:58.999Z</time></trkpt><trkpt lat="36.92378969174367" lon="15.049072942731843"><ele>291.0</ele><time>2026-04-17T09:40:59.999Z</time></trkpt><trkpt lat="36.923732855896084" lon="15.049153610997253"><ele>291.0</ele><time>2026-04-17T09:41:00.999Z</time></trkpt><trkpt lat="36.923668182819654" lon="15.049242519608171"><ele>291.0</ele><time>2026-04-17T09:41:01.999Z</time></trkpt><trkpt lat="36.92361205049569" lon="15.049330201866471"><ele>291.0</ele><time>2026-04-17T09:41:02.999Z</time></trkpt><trkpt lat="36.92355484762741" lon="15.049447034971077"><ele>291.0</ele><time>2026-04-17T09:41:03.999Z</time></trkpt><trkpt lat="36.92350492560172" lon="15.049560238831502"><ele>291.0</ele><time>2026-04-17T09:41:04.999Z</time></trkpt><trkpt lat="36.923450322859075" lon="15.049655616361848"><ele>291.0</ele><time>2026-04-17T09:41:05.999Z</time></trkpt><trkpt lat="36.923402887127494" lon="15.049739309695305"><ele>291.0</ele><time>2026-04-17T09:41:06.999Z</time></trkpt><trkpt lat="36.92334587040986" lon="15.049799119607242"><ele>291.0</ele><time>2026-04-17T09:41:07.999Z</time></trkpt><trkpt lat="36.92328306384206" lon="15.049842380810531"><ele>291.0</ele><time>2026-04-17T09:41:08.999Z</time></trkpt><trkpt lat="36.923224366317946" lon="15.049874390465455"><ele>291.0</ele><time>2026-04-17T09:41:09.999Z</time></trkpt><trkpt lat="36.92311562982499" lon="15.049913567898997"><ele>291.0</ele><time>2026-04-17T09:41:11.999Z</time></trkpt><trkpt lat="36.9230088461322" lon="15.0499171043125"><ele>291.2</ele><time>2026-04-17T09:41:14Z</time></trkpt><trkpt lat="36.92294300355351" lon="15.049922976084865"><ele>291.40000000000003</ele><time>2026-04-17T09:41:15Z</time></trkpt><trkpt lat="36.92285860362885" lon="15.049925145119344"><ele>291.6</ele><time>2026-04-17T09:41:16Z</time></trkpt><trkpt lat="36.92276408468597" lon="15.049924305678417"><ele>291.8</ele><time>2026-04-17T09:41:17Z</time></trkpt><trkpt lat="36.92265450207489" lon="15.049929938638929"><ele>292.0</ele><time>2026-04-17T09:41:18Z</time></trkpt><trkpt lat="36.92254844345159" lon="15.049932303359528"><ele>292.0</ele><time>2026-04-17T09:41:19Z</time></trkpt><trkpt lat="36.92245599129026" lon="15.049924730223477"><ele>292.0</ele><time>2026-04-17T09:41:20Z</time></trkpt><trkpt lat="36.92237751011752" lon="15.049921177863757"><ele>292.0</ele><time>2026-04-17T09:41:21Z</time></trkpt><trkpt lat="36.922297977331915" lon="15.049923406276546"><ele>292.0</ele><time>2026-04-17T09:41:22Z</time></trkpt><trkpt lat="36.922214303526786" lon="15.049925433679515"><ele>292.0</ele><time>2026-04-17T09:41:23Z</time></trkpt><trkpt lat="36.92212622724634" lon="15.049917040940239"><ele>292.0</ele><time>2026-04-17T09:41:24Z</time></trkpt><trkpt lat="36.92204405857055" lon="15.04989743770662"><ele>292.0</ele><time>2026-04-17T09:41:25Z</time></trkpt><trkpt lat="36.921977691642184" lon="15.049868986307485"><ele>292.0</ele><time>2026-04-17T09:41:26Z</time></trkpt><trkpt lat="36.921914041098304" lon="15.049843311608901"><ele>292.0</ele><time>2026-04-17T09:41:27Z</time></trkpt><trkpt lat="36.92184812386519" lon="15.049823842605642"><ele>292.0</ele><time>2026-04-17T09:41:28Z</time></trkpt><trkpt lat="36.921775982445375" lon="15.049811128915017"><ele>292.0</ele><time>2026-04-17T09:41:29Z</time></trkpt><trkpt lat="36.9216996507772" lon="15.049797010760065"><ele>292.0</ele><time>2026-04-17T09:41:30Z</time></trkpt><trkpt lat="36.92162189444205" lon="15.049770963704203"><ele>292.0</ele><time>2026-04-17T09:41:31Z</time></trkpt><trkpt lat="36.92153927453931" lon="15.049741561114496"><ele>291.5</ele><time>2026-04-17T09:41:32Z</time></trkpt><trkpt lat="36.92146047224074" lon="15.049717957944935"><ele>291.0</ele><time>2026-04-17T09:41:33Z</time></trkpt><trkpt lat="36.92139075885408" lon="15.04970132577003"><ele>290.5</ele><time>2026-04-17T09:41:34Z</time></trkpt><trkpt lat="36.9212718005474" lon="15.04966107339817"><ele>290.0</ele><time>2026-04-17T09:41:36Z</time></trkpt><trkpt lat="36.9212063190982" lon="15.049644413019099"><ele>289.5</ele><time>2026-04-17T09:41:37Z</time></trkpt><trkpt lat="36.921132949745434" lon="15.049630878128669"><ele>289.0</ele><time>2026-04-17T09:41:38Z</time></trkpt><trkpt lat="36.92105297658881" lon="15.049609471561201"><ele>289.0</ele><time>2026-04-17T09:41:39Z</time></trkpt><trkpt lat="36.920969628655016" lon="15.0495860585784"><ele>289.0</ele><time>2026-04-17T09:41:40Z</time></trkpt><trkpt lat="36.92087953283524" lon="15.049574383733187"><ele>289.0</ele><time>2026-04-17T09:41:41Z</time></trkpt><trkpt lat="36.92078807805892" lon="15.049572625065432"><ele>289.0</ele><time>2026-04-17T09:41:42Z</time></trkpt><trkpt lat="36.920690399233436" lon="15.049574325876637"><ele>289.0</ele><time>2026-04-17T09:41:43Z</time></trkpt><trkpt lat="36.92060184191692" lon="15.049568936217462"><ele>289.16666666666663</ele><time>2026-04-17T09:41:44Z</time></trkpt><trkpt lat="36.920511617539304" lon="15.04955951129033"><ele>289.3333333333333</ele><time>2026-04-17T09:41:45Z</time></trkpt><trkpt lat="36.92043889826719" lon="15.0495403674015"><ele>289.5</ele><time>2026-04-17T09:41:46Z</time></trkpt><trkpt lat="36.920371164296185" lon="15.049504154942127"><ele>289.6666666666667</ele><time>2026-04-17T09:41:47Z</time></trkpt><trkpt lat="36.920312558062015" lon="15.049462631578903"><ele>289.83333333333337</ele><time>2026-04-17T09:41:48Z</time></trkpt><trkpt lat="36.92025031225971" lon="15.049428198020122"><ele>290.0</ele><time>2026-04-17T09:41:49Z</time></trkpt><trkpt lat="36.92017553532591" lon="15.04939201542775"><ele>290.0</ele><time>2026-04-17T09:41:50Z</time></trkpt><trkpt lat="36.92010052415304" lon="15.049356308082194"><ele>290.0</ele><time>2026-04-17T09:41:51Z</time></trkpt><trkpt lat="36.920023513865466" lon="15.04924836362494"><ele>290.0</ele><time>2026-04-17T09:41:53Z</time></trkpt><trkpt lat="36.919989298432796" lon="15.049110855699158"><ele>290.0</ele><time>2026-04-17T09:41:55Z</time></trkpt><trkpt lat="36.91992923061954" lon="15.049080273629286"><ele>290.0</ele><time>2026-04-17T09:41:56Z</time></trkpt><trkpt lat="36.919858771651484" lon="15.049060985866822"><ele>290.0</ele><time>2026-04-17T09:41:57Z</time></trkpt><trkpt lat="36.91980354018956" lon="15.048952426940218"><ele>287.2</ele><time>2026-04-17T09:41:58Z</time></trkpt><trkpt lat="36.919722019254465" lon="15.048910664402563"><ele>284.4</ele><time>2026-04-17T09:41:59Z</time></trkpt><trkpt lat="36.91962676847332" lon="15.048876505753048"><ele>281.6</ele><time>2026-04-17T09:42:00Z</time></trkpt><trkpt lat="36.919517214221045" lon="15.048865545558106"><ele>278.8</ele><time>2026-04-17T09:42:01Z</time></trkpt><trkpt lat="36.91939137955624" lon="15.048846322743495"><ele>276.0</ele><time>2026-04-17T09:42:02Z</time></trkpt><trkpt lat="36.91925941579671" lon="15.048818724112994"><ele>276.75</ele><time>2026-04-17T09:42:03Z</time></trkpt><trkpt lat="36.919143997935514" lon="15.048768673888533"><ele>277.5</ele><time>2026-04-17T09:42:04Z</time></trkpt><trkpt lat="36.91901952836174" lon="15.048720863585116"><ele>278.25</ele><time>2026-04-17T09:42:05Z</time></trkpt><trkpt lat="36.918881298046" lon="15.048679481218473"><ele>279.0</ele><time>2026-04-17T09:42:06Z</time></trkpt><trkpt lat="36.918770925008104" lon="15.048644515932343"><ele>279.0</ele><time>2026-04-17T09:42:07Z</time></trkpt><trkpt lat="36.91867703098704" lon="15.048605732889657"><ele>279.0</ele><time>2026-04-17T09:42:08Z</time></trkpt><trkpt lat="36.91859688180231" lon="15.04856234310696"><ele>279.0</ele><time>2026-04-17T09:42:09Z</time></trkpt><trkpt lat="36.9185228779137" lon="15.048522252526638"><ele>279.0</ele><time>2026-04-17T09:42:10Z</time></trkpt><trkpt lat="36.918443395624166" lon="15.048479451559935"><ele>279.0</ele><time>2026-04-17T09:42:11Z</time></trkpt><trkpt lat="36.91836574595583" lon="15.048447827723612"><ele>279.0</ele><time>2026-04-17T09:42:12Z</time></trkpt><trkpt lat="36.918300815685015" lon="15.048423706131073"><ele>278.99999999999994</ele><time>2026-04-17T09:42:13Z</time></trkpt><trkpt lat="36.9182359161119" lon="15.048389483798388"><ele>279.0</ele><time>2026-04-17T09:42:14Z</time></trkpt><trkpt lat="36.918171048197706" lon="15.048355278127714"><ele>279.0</ele><time>2026-04-17T09:42:15Z</time></trkpt><trkpt lat="36.91810488453151" lon="15.04832434603889"><ele>279.0</ele><time>2026-04-17T09:42:16Z</time></trkpt><trkpt lat="36.918043675547025" lon="15.048296885381676"><ele>279.0</ele><time>2026-04-17T09:42:17Z</time></trkpt><trkpt lat="36.91798255748691" lon="15.048270416218173"><ele>278.99999999999994</ele><time>2026-04-17T09:42:18Z</time></trkpt><trkpt lat="36.91788186245247" lon="15.048223195444427"><ele>279.0</ele><time>2026-04-17T09:42:20Z</time></trkpt><trkpt lat="36.917810107461364" lon="15.048183284000563"><ele>277.6666666666667</ele><time>2026-04-17T09:42:22Z</time></trkpt><trkpt lat="36.91775328382742" lon="15.048145308437517"><ele>276.3333333333333</ele><time>2026-04-17T09:42:25Z</time></trkpt><trkpt lat="36.91766676566905" lon="15.048073435564541"><ele>275.0</ele><time>2026-04-17T09:42:57.999Z</time></trkpt><trkpt lat="36.917608381107414" lon="15.04801087471807"><ele>273.66666666666663</ele><time>2026-04-17T09:42:58.999Z</time></trkpt><trkpt lat="36.91755621705941" lon="15.047950505187142"><ele>272.3333333333333</ele><time>2026-04-17T09:42:59.999Z</time></trkpt><trkpt lat="36.917484008903095" lon="15.04787017162522"><ele>271.0</ele><time>2026-04-17T09:43:00.999Z</time></trkpt><trkpt lat="36.91737207291583" lon="15.047790161812786"><ele>271.0</ele><time>2026-04-17T09:43:01.999Z</time></trkpt><trkpt lat="36.91725384411065" lon="15.047709765687042"><ele>271.0</ele><time>2026-04-17T09:43:02.999Z</time></trkpt><trkpt lat="36.91713420697858" lon="15.047634796669483"><ele>271.0</ele><time>2026-04-17T09:43:03.999Z</time></trkpt><trkpt lat="36.91701327600068" lon="15.047584487542743"><ele>271.0</ele><time>2026-04-17T09:43:04.999Z</time></trkpt><trkpt lat="36.91690900761682" lon="15.047527882265399"><ele>271.0</ele><time>2026-04-17T09:43:05.999Z</time></trkpt><trkpt lat="36.91679985133667" lon="15.04747687762083"><ele>271.0</ele><time>2026-04-17T09:43:06.999Z</time></trkpt><trkpt lat="36.91667780316535" lon="15.047446772369847"><ele>271.0</ele><time>2026-04-17T09:43:07.999Z</time></trkpt><trkpt lat="36.91654532249414" lon="15.047417761149248"><ele>271.0</ele><time>2026-04-17T09:43:08.999Z</time></trkpt><trkpt lat="36.91641793977634" lon="15.047382955889963"><ele>269.25</ele><time>2026-04-17T09:43:09.999Z</time></trkpt><trkpt lat="36.91630683028563" lon="15.047370649969851"><ele>267.5</ele><time>2026-04-17T09:43:10.999Z</time></trkpt><trkpt lat="36.91620384936785" lon="15.047351887279778"><ele>265.75</ele><time>2026-04-17T09:43:11.999Z</time></trkpt><trkpt lat="36.91609342774663" lon="15.047318809304532"><ele>264.0</ele><time>2026-04-17T09:43:12.999Z</time></trkpt><trkpt lat="36.91598180532279" lon="15.047251104615139"><ele>268.0</ele><time>2026-04-17T09:43:13.999Z</time></trkpt><trkpt lat="36.91587641591252" lon="15.047178408813036"><ele>272.0</ele><time>2026-04-17T09:43:14.999Z</time></trkpt><trkpt lat="36.915772028142285" lon="15.047129268746795"><ele>276.0</ele><time>2026-04-17T09:43:15.999Z</time></trkpt><trkpt lat="36.915651769076774" lon="15.047079907760917"><ele>280.0</ele><time>2026-04-17T09:43:16.999Z</time></trkpt><trkpt lat="36.91553779436274" lon="15.047034440985612"><ele>280.0</ele><time>2026-04-17T09:43:17.999Z</time></trkpt><trkpt lat="36.91543039926248" lon="15.046989789884453"><ele>280.0</ele><time>2026-04-17T09:43:19Z</time></trkpt><trkpt lat="36.91532050269451" lon="15.046945614893513"><ele>280.0</ele><time>2026-04-17T09:43:20Z</time></trkpt><trkpt lat="36.915223196606135" lon="15.046905676168379"><ele>280.0</ele><time>2026-04-17T09:43:21Z</time></trkpt><trkpt lat="36.91511872571216" lon="15.046861527055661"><ele>280.0</ele><time>2026-04-17T09:43:22Z</time></trkpt><trkpt lat="36.915022225774486" lon="15.046824536771993"><ele>279.0</ele><time>2026-04-17T09:43:23Z</time></trkpt><trkpt lat="36.91491077052354" lon="15.046782429477952"><ele>278.0</ele><time>2026-04-17T09:43:24Z</time></trkpt><trkpt lat="36.91480297160975" lon="15.04673861707272"><ele>277.0</ele><time>2026-04-17T09:43:25Z</time></trkpt><trkpt lat="36.91469972947914" lon="15.04669709646675"><ele>276.0</ele><time>2026-04-17T09:43:26Z</time></trkpt><trkpt lat="36.914597720169766" lon="15.046659475424734"><ele>275.0</ele><time>2026-04-17T09:43:27Z</time></trkpt><trkpt lat="36.91449094690139" lon="15.046619442258493"><ele>272.4</ele><time>2026-04-17T09:43:28Z</time></trkpt><trkpt lat="36.91437881444679" lon="15.046592427027814"><ele>269.8</ele><time>2026-04-17T09:43:29Z</time></trkpt><trkpt lat="36.914278854466524" lon="15.046535522341804"><ele>267.2</ele><time>2026-04-17T09:43:30Z</time></trkpt><trkpt lat="36.91417308249577" lon="15.046490999400364"><ele>264.6</ele><time>2026-04-17T09:43:31Z</time></trkpt><trkpt lat="36.91407205067932" lon="15.04644361805166"><ele>262.0</ele><time>2026-04-17T09:43:32Z</time></trkpt><trkpt lat="36.91397320167181" lon="15.046397050745355"><ele>262.0</ele><time>2026-04-17T09:43:33Z</time></trkpt><trkpt lat="36.91388334745263" lon="15.046354720807843"><ele>262.0</ele><time>2026-04-17T09:43:34Z</time></trkpt><trkpt lat="36.91377921650525" lon="15.04633011408847"><ele>262.0</ele><time>2026-04-17T09:43:35Z</time></trkpt><trkpt lat="36.91368786030954" lon="15.046285649345633"><ele>262.0</ele><time>2026-04-17T09:43:36Z</time></trkpt><trkpt lat="36.91358067471002" lon="15.046252321746241"><ele>262.0</ele><time>2026-04-17T09:43:37Z</time></trkpt><trkpt lat="36.91346389771525" lon="15.0462384677006"><ele>262.6</ele><time>2026-04-17T09:43:38Z</time></trkpt><trkpt lat="36.91335882359317" lon="15.04621158023371"><ele>263.2</ele><time>2026-04-17T09:43:39Z</time></trkpt><trkpt lat="36.913255708432075" lon="15.046193586144552"><ele>263.8</ele><time>2026-04-17T09:43:40Z</time></trkpt><trkpt lat="36.91315991277379" lon="15.046177171531255"><ele>264.4</ele><time>2026-04-17T09:43:41Z</time></trkpt><trkpt lat="36.91305747207386" lon="15.04615634889481"><ele>265.0</ele><time>2026-04-17T09:43:42Z</time></trkpt><trkpt lat="36.91296224444612" lon="15.046122803486949"><ele>265.0</ele><time>2026-04-17T09:43:43Z</time></trkpt><trkpt lat="36.912877760173075" lon="15.046101199515729"><ele>265.0</ele><time>2026-04-17T09:43:44Z</time></trkpt><trkpt lat="36.912772156127346" lon="15.046071380070792"><ele>265.0</ele><time>2026-04-17T09:43:46Z</time></trkpt><trkpt lat="36.91270532792601" lon="15.046179895912731"><ele>265.0</ele><time>2026-04-17T09:43:48Z</time></trkpt><trkpt lat="36.91268695706494" lon="15.046268432872443"><ele>265.0</ele><time>2026-04-17T09:43:49Z</time></trkpt><trkpt lat="36.91266823038708" lon="15.046371722925981"><ele>265.0</ele><time>2026-04-17T09:43:50Z</time></trkpt><trkpt lat="36.91268231922424" lon="15.046473240537651"><ele>265.0</ele><time>2026-04-17T09:43:51Z</time></trkpt><trkpt lat="36.91264750998121" lon="15.046567463256357"><ele>265.0</ele><time>2026-04-17T09:43:52Z</time></trkpt><trkpt lat="36.91261616545234" lon="15.046654587281349"><ele>265.0</ele><time>2026-04-17T09:43:53Z</time></trkpt><trkpt lat="36.912547125680504" lon="15.046716802019859"><ele>265.0</ele><time>2026-04-17T09:43:54Z</time></trkpt><trkpt lat="36.91248001185218" lon="15.04679289114832"><ele>265.0</ele><time>2026-04-17T09:43:55Z</time></trkpt><trkpt lat="36.91240891073286" lon="15.046885381270195"><ele>258.2</ele><time>2026-04-17T09:43:56Z</time></trkpt><trkpt lat="36.9123428942755" lon="15.046960161541639"><ele>251.4</ele><time>2026-04-17T09:43:57Z</time></trkpt><trkpt lat="36.91228618863627" lon="15.047027735466893"><ele>244.60000000000002</ele><time>2026-04-17T09:43:58Z</time></trkpt><trkpt lat="36.912223281465" lon="15.047138087936451"><ele>237.8</ele><time>2026-04-17T09:44:00Z</time></trkpt><trkpt lat="36.91225554567434" lon="15.047325065042171"><ele>231.0</ele><time>2026-04-17T09:44:02Z</time></trkpt><trkpt lat="36.912249112391" lon="15.047457425503461"><ele>233.0</ele><time>2026-04-17T09:44:03Z</time></trkpt><trkpt lat="36.912253443883976" lon="15.047579317356753"><ele>235.00000000000003</ele><time>2026-04-17T09:44:04Z</time></trkpt><trkpt lat="36.91225321066845" lon="15.047677289583035"><ele>237.00000000000003</ele><time>2026-04-17T09:44:05Z</time></trkpt><trkpt lat="36.91221564868314" lon="15.047792307439023"><ele>239.0</ele><time>2026-04-17T09:44:07Z</time></trkpt><trkpt lat="36.912196789287705" lon="15.047869854196778"><ele>241.0</ele><time>2026-04-17T09:44:08Z</time></trkpt><trkpt lat="36.91205654644142" lon="15.04790187546531"><ele>240.99999999999997</ele><time>2026-04-17T09:44:09Z</time></trkpt><trkpt lat="36.911966623068885" lon="15.047952988676194"><ele>241.0</ele><time>2026-04-17T09:44:10Z</time></trkpt><trkpt lat="36.91188143957173" lon="15.048005396963994"><ele>241.0</ele><time>2026-04-17T09:44:11Z</time></trkpt><trkpt lat="36.911805993703254" lon="15.048051863358097"><ele>241.0</ele><time>2026-04-17T09:44:12Z</time></trkpt><trkpt lat="36.91173151656958" lon="15.048060879952454"><ele>240.99999999999997</ele><time>2026-04-17T09:44:13Z</time></trkpt><trkpt lat="36.91165170580396" lon="15.04804307452989"><ele>241.0</ele><time>2026-04-17T09:44:14Z</time></trkpt><trkpt lat="36.911553505155965" lon="15.048026172756765"><ele>234.5</ele><time>2026-04-17T09:44:15Z</time></trkpt><trkpt lat="36.91144751070531" lon="15.048008700737569"><ele>228.0</ele><time>2026-04-17T09:44:16Z</time></trkpt><trkpt lat="36.91133761746114" lon="15.047961378272728"><ele>221.5</ele><time>2026-04-17T09:44:17Z</time></trkpt><trkpt lat="36.911220934440436" lon="15.047883521086366"><ele>215.0</ele><time>2026-04-17T09:44:18Z</time></trkpt><trkpt lat="36.91109417023056" lon="15.047799806126388"><ele>215.0</ele><time>2026-04-17T09:44:19Z</time></trkpt><trkpt lat="36.910956154578564" lon="15.047728868352221"><ele>215.0</ele><time>2026-04-17T09:44:20Z</time></trkpt><trkpt lat="36.91080302701576" lon="15.047684815472193"><ele>215.0</ele><time>2026-04-17T09:44:20.999Z</time></trkpt><trkpt lat="36.910654550956856" lon="15.047664647206956"><ele>212.0</ele><time>2026-04-17T09:44:21.999Z</time></trkpt><trkpt lat="36.910511115535535" lon="15.047675199570008"><ele>209.0</ele><time>2026-04-17T09:44:22.999Z</time></trkpt><trkpt lat="36.910370360930614" lon="15.047707755412246"><ele>206.0</ele><time>2026-04-17T09:44:23.999Z</time></trkpt><trkpt lat="36.91023731345695" lon="15.047741981534045"><ele>203.0</ele><time>2026-04-17T09:44:24.999Z</time></trkpt><trkpt lat="36.9101075467191" lon="15.047772546861344"><ele>200.8</ele><time>2026-04-17T09:44:25.999Z</time></trkpt><trkpt lat="36.90998947108336" lon="15.04779588377431"><ele>198.60000000000002</ele><time>2026-04-17T09:44:26.999Z</time></trkpt><trkpt lat="36.90989147656626" lon="15.04780069274879"><ele>196.39999999999998</ele><time>2026-04-17T09:44:27.999Z</time></trkpt><trkpt lat="36.90979390022815" lon="15.04779680705706"><ele>194.2</ele><time>2026-04-17T09:44:28.999Z</time></trkpt><trkpt lat="36.90970969109913" lon="15.047782316804176"><ele>192.0</ele><time>2026-04-17T09:44:29.999Z</time></trkpt><trkpt lat="36.90961969729626" lon="15.047784909369526"><ele>192.0</ele><time>2026-04-17T09:44:30.999Z</time></trkpt><trkpt lat="36.90952096736666" lon="15.047808504291037"><ele>192.0</ele><time>2026-04-17T09:44:31.999Z</time></trkpt><trkpt lat="36.90942106656543" lon="15.047856386493777"><ele>192.0</ele><time>2026-04-17T09:44:32.999Z</time></trkpt><trkpt lat="36.90932630800967" lon="15.047906421225568"><ele>192.0</ele><time>2026-04-17T09:44:33.999Z</time></trkpt><trkpt lat="36.9092367412433" lon="15.047953798704144"><ele>192.0</ele><time>2026-04-17T09:44:34.999Z</time></trkpt><trkpt lat="36.90917022299781" lon="15.048000311887655"><ele>192.0</ele><time>2026-04-17T09:44:35.999Z</time></trkpt><trkpt lat="36.90906556758377" lon="15.048058778252352"><ele>192.0</ele><time>2026-04-17T09:44:37.999Z</time></trkpt><trkpt lat="36.90896164392834" lon="15.048116187344885"><ele>192.0</ele><time>2026-04-17T09:44:39.999Z</time></trkpt><trkpt lat="36.90884536907098" lon="15.04820098098717"><ele>192.0</ele><time>2026-04-17T09:44:41.999Z</time></trkpt><trkpt lat="36.908783990179685" lon="15.048255846481732"><ele>192.0</ele><time>2026-04-17T09:44:42.999Z</time></trkpt><trkpt lat="36.90872349126898" lon="15.048308627960747"><ele>192.0</ele><time>2026-04-17T09:44:43.999Z</time></trkpt><trkpt lat="36.908663447199196" lon="15.04834864967965"><ele>192.0</ele><time>2026-04-17T09:44:44.999Z</time></trkpt><trkpt lat="36.908593515978254" lon="15.048394399287153"><ele>192.0</ele><time>2026-04-17T09:44:45.999Z</time></trkpt><trkpt lat="36.90852489895203" lon="15.048440565957605"><ele>192.0</ele><time>2026-04-17T09:44:46.999Z</time></trkpt><trkpt lat="36.908443041520385" lon="15.048535438023935"><ele>192.0</ele><time>2026-04-17T09:44:48.999Z</time></trkpt><trkpt lat="36.90840471981019" lon="15.048608499931802"><ele>192.0</ele><time>2026-04-17T09:44:49.999Z</time></trkpt><trkpt lat="36.908346245053906" lon="15.048687200722137"><ele>187.0</ele><time>2026-04-17T09:44:50.999Z</time></trkpt><trkpt lat="36.90830404673302" lon="15.048794875475924"><ele>182.0</ele><time>2026-04-17T09:44:51.999Z</time></trkpt><trkpt lat="36.908230181837126" lon="15.048888617889641"><ele>177.0</ele><time>2026-04-17T09:44:52.999Z</time></trkpt><trkpt lat="36.90817258187818" lon="15.04901100738672"><ele>172.0</ele><time>2026-04-17T09:44:53.999Z</time></trkpt><trkpt lat="36.90809716161309" lon="15.0491126931186"><ele>167.0</ele><time>2026-04-17T09:44:54.999Z</time></trkpt><trkpt lat="36.908015052245815" lon="15.049207657306983"><ele>167.0</ele><time>2026-04-17T09:44:55.999Z</time></trkpt><trkpt lat="36.907933083748084" lon="15.049309417761942"><ele>167.0</ele><time>2026-04-17T09:44:56.999Z</time></trkpt><trkpt lat="36.90784420796792" lon="15.049418410633178"><ele>167.0</ele><time>2026-04-17T09:44:57.999Z</time></trkpt><trkpt lat="36.90775734072071" lon="15.049539604871377"><ele>167.0</ele><time>2026-04-17T09:44:58.999Z</time></trkpt><trkpt lat="36.90767689883835" lon="15.049655746030746"><ele>167.0</ele><time>2026-04-17T09:44:59.999Z</time></trkpt><trkpt lat="36.90760436753227" lon="15.049753665371735"><ele>167.0</ele><time>2026-04-17T09:45:00.999Z</time></trkpt><trkpt lat="36.907550244798166" lon="15.049837254624109"><ele>167.0</ele><time>2026-04-17T09:45:01.999Z</time></trkpt><trkpt lat="36.90750197241522" lon="15.049903167505226"><ele>167.0</ele><time>2026-04-17T09:45:02.999Z</time></trkpt><trkpt lat="36.90743185008918" lon="15.049982685449473"><ele>167.0</ele><time>2026-04-17T09:45:04.999Z</time></trkpt><trkpt lat="36.90737920787172" lon="15.050033789383752"><ele>167.0</ele><time>2026-04-17T09:45:06.999Z</time></trkpt><trkpt lat="36.9072775157971" lon="15.050030624824782"><ele>163.0</ele><time>2026-04-17T09:45:09.999Z</time></trkpt><trkpt lat="36.90720054041211" lon="15.049923357760921"><ele>159.0</ele><time>2026-04-17T09:45:11.999Z</time></trkpt><trkpt lat="36.90716920685541" lon="15.049849776457316"><ele>155.0</ele><time>2026-04-17T09:45:13.999Z</time></trkpt><trkpt lat="36.90711459553592" lon="15.049976718224439"><ele>151.0</ele><time>2026-04-17T09:45:17.999Z</time></trkpt><trkpt lat="36.90710642631977" lon="15.050079892374585"><ele>147.0</ele><time>2026-04-17T09:45:19.999Z</time></trkpt><trkpt lat="36.90708709214251" lon="15.050190784853688"><ele>147.0</ele><time>2026-04-17T09:45:21.999Z</time></trkpt><trkpt lat="36.90705942097309" lon="15.050329171792031"><ele>147.0</ele><time>2026-04-17T09:45:23.999Z</time></trkpt><trkpt lat="36.90704511202755" lon="15.050410230488596"><ele>147.0</ele><time>2026-04-17T09:45:24.999Z</time></trkpt><trkpt lat="36.90703231048332" lon="15.050495022826277"><ele>147.0</ele><time>2026-04-17T09:45:25.999Z</time></trkpt><trkpt lat="36.90701510606287" lon="15.050582609081044"><ele>147.0</ele><time>2026-04-17T09:45:26.999Z</time></trkpt><trkpt lat="36.906991132055744" lon="15.050681343882797"><ele>147.0</ele><time>2026-04-17T09:45:27.999Z</time></trkpt><trkpt lat="36.906971911907156" lon="15.050780085204492"><ele>146.28571428571428</ele><time>2026-04-17T09:45:28.999Z</time></trkpt><trkpt lat="36.906953857116974" lon="15.05087185130204"><ele>145.57142857142856</ele><time>2026-04-17T09:45:29.999Z</time></trkpt><trkpt lat="36.906930385774444" lon="15.05095754857615"><ele>144.85714285714286</ele><time>2026-04-17T09:45:30.999Z</time></trkpt><trkpt lat="36.90691036380736" lon="15.05104302285251"><ele>144.14285714285714</ele><time>2026-04-17T09:45:31.999Z</time></trkpt><trkpt lat="36.90688071245747" lon="15.05113266838656"><ele>143.42857142857142</ele><time>2026-04-17T09:45:32.999Z</time></trkpt><trkpt lat="36.906843505712416" lon="15.051209351454824"><ele>142.71428571428572</ele><time>2026-04-17T09:45:33.999Z</time></trkpt><trkpt lat="36.90679658571598" lon="15.051284167104345"><ele>142.0</ele><time>2026-04-17T09:45:35Z</time></trkpt><trkpt lat="36.906730988131486" lon="15.051358632400953"><ele>139.2</ele><time>2026-04-17T09:45:36Z</time></trkpt><trkpt lat="36.90667240606551" lon="15.051435456911182"><ele>136.39999999999998</ele><time>2026-04-17T09:45:37Z</time></trkpt><trkpt lat="36.906608580598956" lon="15.051520963971754"><ele>133.60000000000002</ele><time>2026-04-17T09:45:38Z</time></trkpt><trkpt lat="36.90653806766279" lon="15.051602951193413"><ele>130.8</ele><time>2026-04-17T09:45:39Z</time></trkpt><trkpt lat="36.90647112792743" lon="15.05169682429477"><ele>128.0</ele><time>2026-04-17T09:45:40Z</time></trkpt><trkpt lat="36.90639972398542" lon="15.05179241456348"><ele>127.2</ele><time>2026-04-17T09:45:41Z</time></trkpt><trkpt lat="36.9063249619956" lon="15.051891188951323"><ele>126.4</ele><time>2026-04-17T09:45:42Z</time></trkpt><trkpt lat="36.9062468794278" lon="15.05199163279718"><ele>125.60000000000001</ele><time>2026-04-17T09:45:43Z</time></trkpt><trkpt lat="36.90616922987318" lon="15.052093683020061"><ele>124.80000000000001</ele><time>2026-04-17T09:45:44Z</time></trkpt><trkpt lat="36.90609495857438" lon="15.05219800972386"><ele>124.0</ele><time>2026-04-17T09:45:45Z</time></trkpt><trkpt lat="36.90601764571675" lon="15.052302420777549"><ele>124.0</ele><time>2026-04-17T09:45:46Z</time></trkpt><trkpt lat="36.90594108161157" lon="15.052405351154684"><ele>124.0</ele><time>2026-04-17T09:45:47Z</time></trkpt><trkpt lat="36.905863430686196" lon="15.052508388455976"><ele>124.0</ele><time>2026-04-17T09:45:48Z</time></trkpt><trkpt lat="36.90578449697524" lon="15.052610487875338"><ele>124.0</ele><time>2026-04-17T09:45:49Z</time></trkpt><trkpt lat="36.90570491686211" lon="15.052710329292275"><ele>122.2</ele><time>2026-04-17T09:45:50Z</time></trkpt><trkpt lat="36.905628743076655" lon="15.052812202871484"><ele>120.4</ele><time>2026-04-17T09:45:51Z</time></trkpt><trkpt lat="36.90555269073717" lon="15.052914319728984"><ele>118.6</ele><time>2026-04-17T09:45:52Z</time></trkpt><trkpt lat="36.905477069002266" lon="15.053018518952856"><ele>116.8</ele><time>2026-04-17T09:45:53Z</time></trkpt><trkpt lat="36.9053994717837" lon="15.053121123531858"><ele>115.0</ele><time>2026-04-17T09:45:54Z</time></trkpt><trkpt lat="36.90531929466477" lon="15.053219074809357"><ele>114.8</ele><time>2026-04-17T09:45:55Z</time></trkpt><trkpt lat="36.90523974782447" lon="15.053315665843552"><ele>114.6</ele><time>2026-04-17T09:45:56Z</time></trkpt><trkpt lat="36.90516322799854" lon="15.053414579560117"><ele>114.4</ele><time>2026-04-17T09:45:57Z</time></trkpt><trkpt lat="36.905089747156765" lon="15.05351315425138"><ele>114.2</ele><time>2026-04-17T09:45:58Z</time></trkpt><trkpt lat="36.90501725402943" lon="15.053608392746886"><ele>114.0</ele><time>2026-04-17T09:45:59Z</time></trkpt><trkpt lat="36.90494762385954" lon="15.053702182657776"><ele>113.6</ele><time>2026-04-17T09:46:00Z</time></trkpt><trkpt lat="36.904882221902064" lon="15.053794825052535"><ele>113.2</ele><time>2026-04-17T09:46:01Z</time></trkpt><trkpt lat="36.90481777317283" lon="15.053882214260266"><ele>112.79999999999998</ele><time>2026-04-17T09:46:02Z</time></trkpt><trkpt lat="36.90475716113596" lon="15.053969191408557"><ele>112.39999999999999</ele><time>2026-04-17T09:46:03Z</time></trkpt><trkpt lat="36.90469705128082" lon="15.054053012775986"><ele>112.0</ele><time>2026-04-17T09:46:04Z</time></trkpt><trkpt lat="36.90463688046357" lon="15.054131763808197"><ele>112.66666666666667</ele><time>2026-04-17T09:46:05Z</time></trkpt><trkpt lat="36.90457567096336" lon="15.054206390107014"><ele>113.33333333333334</ele><time>2026-04-17T09:46:06Z</time></trkpt><trkpt lat="36.90451694244024" lon="15.054277108637029"><ele>114.0</ele><time>2026-04-17T09:46:07Z</time></trkpt><trkpt lat="36.90445887536916" lon="15.05434913472115"><ele>114.66666666666666</ele><time>2026-04-17T09:46:08Z</time></trkpt><trkpt lat="36.904401197839135" lon="15.05442339814864"><ele>115.33333333333333</ele><time>2026-04-17T09:46:09Z</time></trkpt><trkpt lat="36.90435046622644" lon="15.054496652208922"><ele>116.0</ele><time>2026-04-17T09:46:10Z</time></trkpt><trkpt lat="36.904306155282775" lon="15.054579806273512"><ele>116.00000000000001</ele><time>2026-04-17T09:46:11Z</time></trkpt><trkpt lat="36.90426479146575" lon="15.054658223514629"><ele>116.0</ele><time>2026-04-17T09:46:12Z</time></trkpt><trkpt lat="36.9042280845839" lon="15.054739099150947"><ele>116.00000000000001</ele><time>2026-04-17T09:46:13Z</time></trkpt><trkpt lat="36.90419989982765" lon="15.054813960399029"><ele>116.00000000000001</ele><time>2026-04-17T09:46:14Z</time></trkpt><trkpt lat="36.904162776877456" lon="15.054922086245396"><ele>116.0</ele><time>2026-04-17T09:46:16Z</time></trkpt><trkpt lat="36.90413811358269" lon="15.055000384522154"><ele>116.00000000000001</ele><time>2026-04-17T09:46:18Z</time></trkpt><trkpt lat="36.90414236075268" lon="15.055087467286183"><ele>116.00000000000001</ele><time>2026-04-17T09:46:20.999Z</time></trkpt><trkpt lat="36.904171106699636" lon="15.054933005728763"><ele>116.0</ele><time>2026-04-17T09:46:23.999Z</time></trkpt><trkpt lat="36.90420739045149" lon="15.05483137883498"><ele>116.0</ele><time>2026-04-17T09:46:24.999Z</time></trkpt><trkpt lat="36.90425326413237" lon="15.0547104861604"><ele>116.0</ele><time>2026-04-17T09:46:26.999Z</time></trkpt><trkpt lat="36.90428354257944" lon="15.054622782725914"><ele>116.0</ele><time>2026-04-17T09:46:28.999Z</time></trkpt><trkpt lat="36.90435609688025" lon="15.054550077696138"><ele>116.0</ele><time>2026-04-17T09:46:31.999Z</time></trkpt><trkpt lat="36.90443122024253" lon="15.054450812839624"><ele>116.0</ele><time>2026-04-17T09:46:33.999Z</time></trkpt><trkpt lat="36.90449825665978" lon="15.054353033636074"><ele>116.0</ele><time>2026-04-17T09:46:35.999Z</time></trkpt><trkpt lat="36.904563463758535" lon="15.054263059815732"><ele>116.0</ele><time>2026-04-17T09:46:37.999Z</time></trkpt><trkpt lat="36.904655956379685" lon="15.054136609057219"><ele>116.0</ele><time>2026-04-17T09:46:39.999Z</time></trkpt><trkpt lat="36.904707357531166" lon="15.054074818936492"><ele>116.0</ele><time>2026-04-17T09:46:40.999Z</time></trkpt><trkpt lat="36.9047515704288" lon="15.054016450712757"><ele>115.5</ele><time>2026-04-17T09:46:41.999Z</time></trkpt><trkpt lat="36.90482814293549" lon="15.053912831542256"><ele>115.0</ele><time>2026-04-17T09:46:43.999Z</time></trkpt><trkpt lat="36.90492063852721" lon="15.05380138649237"><ele>114.5</ele><time>2026-04-17T09:46:45.999Z</time></trkpt><trkpt lat="36.90499843851182" lon="15.05370615546606"><ele>114.0</ele><time>2026-04-17T09:46:47.999Z</time></trkpt><trkpt lat="36.905079716515225" lon="15.053597964054703"><ele>114.0</ele><time>2026-04-17T09:46:49.999Z</time></trkpt><trkpt lat="36.90514029691677" lon="15.053524741943965"><ele>114.0</ele><time>2026-04-17T09:46:51.999Z</time></trkpt><trkpt lat="36.905187757757844" lon="15.053454659890473"><ele>114.0</ele><time>2026-04-17T09:46:53.999Z</time></trkpt><trkpt lat="36.9052514107806" lon="15.053372938120756"><ele>114.0</ele><time>2026-04-17T09:46:56.999Z</time></trkpt><trkpt lat="36.90530513437989" lon="15.053304710875354"><ele>114.0</ele><time>2026-04-17T09:46:59.999Z</time></trkpt><trkpt lat="36.9053469538522" lon="15.053234262971719"><ele>114.0</ele><time>2026-04-17T09:47:04.999Z</time></trkpt><trkpt lat="36.90540170802754" lon="15.053160995661075"><ele>114.16666666666667</ele><time>2026-04-17T09:47:06.999Z</time></trkpt><trkpt lat="36.9054644440747" lon="15.053079315138064"><ele>114.33333333333334</ele><time>2026-04-17T09:47:09.999Z</time></trkpt><trkpt lat="36.90552892323514" lon="15.052993559578635"><ele>114.5</ele><time>2026-04-17T09:47:12.999Z</time></trkpt><trkpt lat="36.90558873663701" lon="15.052929777854263"><ele>114.66666666666667</ele><time>2026-04-17T09:47:15.999Z</time></trkpt><trkpt lat="36.90563279500937" lon="15.052869559038614"><ele>114.83333333333334</ele><time>2026-04-17T09:47:18.999Z</time></trkpt><trkpt lat="36.905703777744705" lon="15.052770744737643"><ele>115.0</ele><time>2026-04-17T09:47:21.999Z</time></trkpt><trkpt lat="36.9057713444054" lon="15.052673220957491"><ele>115.00000000000001</ele><time>2026-04-17T09:47:23.999Z</time></trkpt><trkpt lat="36.9058343364598" lon="15.052594466291708"><ele>115.0</ele><time>2026-04-17T09:47:25.999Z</time></trkpt><trkpt lat="36.90588294121493" lon="15.052533253757524"><ele>115.0</ele><time>2026-04-17T09:47:28.999Z</time></trkpt><trkpt lat="36.90593658999891" lon="15.052457715028536"><ele>115.0</ele><time>2026-04-17T09:47:32Z</time></trkpt><trkpt lat="36.90598394903906" lon="15.052392591749298"><ele>115.00000000000001</ele><time>2026-04-17T09:47:34Z</time></trkpt><trkpt lat="36.90603453567654" lon="15.05232464448574"><ele>115.0</ele><time>2026-04-17T09:47:36Z</time></trkpt><trkpt lat="36.9060893876797" lon="15.052256303099298"><ele>116.50000000000001</ele><time>2026-04-17T09:47:38Z</time></trkpt><trkpt lat="36.90615271322923" lon="15.052175851553113"><ele>118.0</ele><time>2026-04-17T09:47:40Z</time></trkpt><trkpt lat="36.90620775509123" lon="15.052108787163167"><ele>119.5</ele><time>2026-04-17T09:47:42Z</time></trkpt><trkpt lat="36.90626476983252" lon="15.052037054765368"><ele>121.0</ele><time>2026-04-17T09:47:45Z</time></trkpt><trkpt lat="36.90631536232868" lon="15.051961332516784"><ele>122.50000000000001</ele><time>2026-04-17T09:47:48Z</time></trkpt><trkpt lat="36.906218815714695" lon="15.051989088323149"><ele>124.0</ele><time>2026-04-17T09:47:53Z</time></trkpt><trkpt lat="36.906180885701794" lon="15.052087970851312"><ele>124.0</ele><time>2026-04-17T09:47:54Z</time></trkpt><trkpt lat="36.90611781717379" lon="15.052164948829901"><ele>124.0</ele><time>2026-04-17T09:47:55Z</time></trkpt><trkpt lat="36.90604868795271" lon="15.052251374406968"><ele>124.0</ele><time>2026-04-17T09:47:56Z</time></trkpt><trkpt lat="36.90597810117603" lon="15.052344209531723"><ele>124.0</ele><time>2026-04-17T09:47:57Z</time></trkpt><trkpt lat="36.90591036365104" lon="15.052435966227096"><ele>124.0</ele><time>2026-04-17T09:47:58Z</time></trkpt><trkpt lat="36.905839404395124" lon="15.052532346380673"><ele>121.75</ele><time>2026-04-17T09:47:59Z</time></trkpt><trkpt lat="36.90576420736135" lon="15.052635284751249"><ele>119.5</ele><time>2026-04-17T09:48:00Z</time></trkpt><trkpt lat="36.90567937734488" lon="15.052750205616023"><ele>117.25</ele><time>2026-04-17T09:48:01Z</time></trkpt><trkpt lat="36.90557055992713" lon="15.052898220581787"><ele>115.0</ele><time>2026-04-17T09:48:02Z</time></trkpt><trkpt lat="36.90546431620557" lon="15.05303894088225"><ele>115.0</ele><time>2026-04-17T09:48:03Z</time></trkpt><trkpt lat="36.90536622452186" lon="15.053165690479497"><ele>115.0</ele><time>2026-04-17T09:48:04Z</time></trkpt><trkpt lat="36.90525951753246" lon="15.053294523029084"><ele>115.0</ele><time>2026-04-17T09:48:05Z</time></trkpt><trkpt lat="36.90514902988522" lon="15.053429826974476"><ele>115.0</ele><time>2026-04-17T09:48:06Z</time></trkpt><trkpt lat="36.90503200470623" lon="15.053602509413988"><ele>115.33333333333334</ele><time>2026-04-17T09:48:07Z</time></trkpt><trkpt lat="36.90489085922637" lon="15.05379656848121"><ele>115.66666666666666</ele><time>2026-04-17T09:48:08Z</time></trkpt><trkpt lat="36.904740548784694" lon="15.054010955906454"><ele>116.0</ele><time>2026-04-17T09:48:09Z</time></trkpt><trkpt lat="36.90459630836646" lon="15.054205727800133"><ele>116.0</ele><time>2026-04-17T09:48:10Z</time></trkpt><trkpt lat="36.90445994948935" lon="15.054366071620377"><ele>116.0</ele><time>2026-04-17T09:48:11Z</time></trkpt><trkpt lat="36.90432982356992" lon="15.054528548923173"><ele>116.0</ele><time>2026-04-17T09:48:12Z</time></trkpt><trkpt lat="36.904222692976894" lon="15.05472448474635"><ele>114.33333333333333</ele><time>2026-04-17T09:48:13Z</time></trkpt><trkpt lat="36.904142041485564" lon="15.054962583239988"><ele>112.66666666666666</ele><time>2026-04-17T09:48:14Z</time></trkpt><trkpt lat="36.904079894685516" lon="15.055205478443938"><ele>111.0</ele><time>2026-04-17T09:48:15Z</time></trkpt><trkpt lat="36.904022475232956" lon="15.055454980980906"><ele>111.0</ele><time>2026-04-17T09:48:16Z</time></trkpt><trkpt lat="36.90395396574666" lon="15.055699574952017"><ele>111.0</ele><time>2026-04-17T09:48:17Z</time></trkpt><trkpt lat="36.90388573253115" lon="15.055934770073156"><ele>111.0</ele><time>2026-04-17T09:48:18Z</time></trkpt><trkpt lat="36.903816379077675" lon="15.056185179218375"><ele>112.0</ele><time>2026-04-17T09:48:19Z</time></trkpt><trkpt lat="36.903728378161155" lon="15.056444646388075"><ele>113.0</ele><time>2026-04-17T09:48:20Z</time></trkpt><trkpt lat="36.90361504425886" lon="15.05670224182177"><ele>113.5</ele><time>2026-04-17T09:48:21Z</time></trkpt><trkpt lat="36.90350476295751" lon="15.056974499938084"><ele>114.0</ele><time>2026-04-17T09:48:22Z</time></trkpt><trkpt lat="36.903395218157186" lon="15.057258432232308"><ele>115.33333333333334</ele><time>2026-04-17T09:48:23Z</time></trkpt><trkpt lat="36.90329738627551" lon="15.057522356964494"><ele>116.66666666666667</ele><time>2026-04-17T09:48:24Z</time></trkpt><trkpt lat="36.903209730069506" lon="15.057760046381938"><ele>118.0</ele><time>2026-04-17T09:48:25Z</time></trkpt><trkpt lat="36.90312547063671" lon="15.05797882373344"><ele>118.0</ele><time>2026-04-17T09:48:26Z</time></trkpt><trkpt lat="36.903047148201495" lon="15.058177526064359"><ele>118.0</ele><time>2026-04-17T09:48:27Z</time></trkpt><trkpt lat="36.90296659845157" lon="15.058361475921549"><ele>118.0</ele><time>2026-04-17T09:48:28Z</time></trkpt><trkpt lat="36.90287297339279" lon="15.058533229709594"><ele>118.0</ele><time>2026-04-17T09:48:29Z</time></trkpt><trkpt lat="36.90275831745848" lon="15.0586924535135"><ele>118.0</ele><time>2026-04-17T09:48:30Z</time></trkpt><trkpt lat="36.90262083988173" lon="15.058825954920122"><ele>118.0</ele><time>2026-04-17T09:48:31Z</time></trkpt><trkpt lat="36.90247904960806" lon="15.058964282105018"><ele>118.0</ele><time>2026-04-17T09:48:32Z</time></trkpt><trkpt lat="36.90234623150812" lon="15.059107357192007"><ele>118.0</ele><time>2026-04-17T09:48:33Z</time></trkpt><trkpt lat="36.90221360530237" lon="15.059249837196658"><ele>118.0</ele><time>2026-04-17T09:48:34Z</time></trkpt><trkpt lat="36.90207914116404" lon="15.059383440918987"><ele>119.0</ele><time>2026-04-17T09:48:35Z</time></trkpt><trkpt lat="36.90194027039582" lon="15.059513501557818"><ele>120.0</ele><time>2026-04-17T09:48:36Z</time></trkpt><trkpt lat="36.90180243758213" lon="15.059640568731734"><ele>121.0</ele><time>2026-04-17T09:48:37Z</time></trkpt><trkpt lat="36.901659449503555" lon="15.059761989152307"><ele>121.0</ele><time>2026-04-17T09:48:38Z</time></trkpt><trkpt lat="36.901513617574786" lon="15.059874785001005"><ele>121.0</ele><time>2026-04-17T09:48:39Z</time></trkpt><trkpt lat="36.90136887840318" lon="15.059988460622009"><ele>121.0</ele><time>2026-04-17T09:48:40Z</time></trkpt><trkpt lat="36.90122417932123" lon="15.060104444032667"><ele>124.0</ele><time>2026-04-17T09:48:41Z</time></trkpt><trkpt lat="36.90107830168906" lon="15.060218234290003"><ele>127.0</ele><time>2026-04-17T09:48:42Z</time></trkpt><trkpt lat="36.90093397972335" lon="15.060331535577518"><ele>130.0</ele><time>2026-04-17T09:48:43Z</time></trkpt><trkpt lat="36.90079249266648" lon="15.060447541882265"><ele>130.0</ele><time>2026-04-17T09:48:44Z</time></trkpt><trkpt lat="36.900651943731404" lon="15.060565921719473"><ele>130.0</ele><time>2026-04-17T09:48:45Z</time></trkpt><trkpt lat="36.900510785819456" lon="15.060682026454304"><ele>130.0</ele><time>2026-04-17T09:48:46Z</time></trkpt><trkpt lat="36.900371218275474" lon="15.060794753758637"><ele>132.66666666666669</ele><time>2026-04-17T09:48:47Z</time></trkpt><trkpt lat="36.90023130006351" lon="15.06090433082563"><ele>135.33333333333334</ele><time>2026-04-17T09:48:48Z</time></trkpt><trkpt lat="36.90009387605109" lon="15.061014907660262"><ele>138.0</ele><time>2026-04-17T09:48:49Z</time></trkpt><trkpt lat="36.89995157884398" lon="15.061141685584333"><ele>138.0</ele><time>2026-04-17T09:48:50Z</time></trkpt><trkpt lat="36.89982165414595" lon="15.06128491217874"><ele>138.0</ele><time>2026-04-17T09:48:51Z</time></trkpt><trkpt lat="36.89970283731188" lon="15.061440053199668"><ele>138.0</ele><time>2026-04-17T09:48:51.999Z</time></trkpt><trkpt lat="36.89958397214289" lon="15.06157991558084"><ele>137.33333333333334</ele><time>2026-04-17T09:48:52.999Z</time></trkpt><trkpt lat="36.89945421856763" lon="15.061694806225363"><ele>136.66666666666669</ele><time>2026-04-17T09:48:53.999Z</time></trkpt><trkpt lat="36.899313984665014" lon="15.061785942002734"><ele>136.0</ele><time>2026-04-17T09:48:54.999Z</time></trkpt><trkpt lat="36.89916475421235" lon="15.061856141148736"><ele>135.0</ele><time>2026-04-17T09:48:55.999Z</time></trkpt><trkpt lat="36.899014515361074" lon="15.06191704809447"><ele>134.0</ele><time>2026-04-17T09:48:56.999Z</time></trkpt><trkpt lat="36.898861499458704" lon="15.061946206963626"><ele>133.0</ele><time>2026-04-17T09:48:57.999Z</time></trkpt><trkpt lat="36.8987058077203" lon="15.06194969764861"><ele>133.0</ele><time>2026-04-17T09:48:58.999Z</time></trkpt><trkpt lat="36.898554258102095" lon="15.06193874232071"><ele>133.0</ele><time>2026-04-17T09:48:59.999Z</time></trkpt><trkpt lat="36.8984019280436" lon="15.06192240836214"><ele>133.0</ele><time>2026-04-17T09:49:00.999Z</time></trkpt><trkpt lat="36.89825270523893" lon="15.061901204657062"><ele>132.0</ele><time>2026-04-17T09:49:01.999Z</time></trkpt><trkpt lat="36.89810551396059" lon="15.061882014468823"><ele>131.0</ele><time>2026-04-17T09:49:02.999Z</time></trkpt><trkpt lat="36.897958766759295" lon="15.061871042777746"><ele>130.0</ele><time>2026-04-17T09:49:03.999Z</time></trkpt><trkpt lat="36.897817599982076" lon="15.061870748729104"><ele>129.0</ele><time>2026-04-17T09:49:04.999Z</time></trkpt><trkpt lat="36.897689989219586" lon="15.06186312057586"><ele>127.0</ele><time>2026-04-17T09:49:05.999Z</time></trkpt><trkpt lat="36.89757126081115" lon="15.06185567036146"><ele>125.0</ele><time>2026-04-17T09:49:06.999Z</time></trkpt><trkpt lat="36.897468663340135" lon="15.061848170013636"><ele>123.0</ele><time>2026-04-17T09:49:07.999Z</time></trkpt><trkpt lat="36.89736677670443" lon="15.061843271260939"><ele>121.0</ele><time>2026-04-17T09:49:08.999Z</time></trkpt><trkpt lat="36.897259647103716" lon="15.061843066811802"><ele>119.0</ele><time>2026-04-17T09:49:09.999Z</time></trkpt><trkpt lat="36.8971383491986" lon="15.061846516822246"><ele>119.0</ele><time>2026-04-17T09:49:10.999Z</time></trkpt><trkpt lat="36.89698927001441" lon="15.06183124711116"><ele>119.0</ele><time>2026-04-17T09:49:11.999Z</time></trkpt><trkpt lat="36.89683433043366" lon="15.061812597210873"><ele>119.0</ele><time>2026-04-17T09:49:12.999Z</time></trkpt><trkpt lat="36.89666268498735" lon="15.061779159900473"><ele>115.33333333333333</ele><time>2026-04-17T09:49:13.999Z</time></trkpt><trkpt lat="36.89648082317159" lon="15.061751445986284"><ele>111.66666666666666</ele><time>2026-04-17T09:49:14.999Z</time></trkpt><trkpt lat="36.89628998859672" lon="15.061729654403804"><ele>108.0</ele><time>2026-04-17T09:49:15.999Z</time></trkpt><trkpt lat="36.89609617436395" lon="15.061711453875724"><ele>108.66666666666666</ele><time>2026-04-17T09:49:16.999Z</time></trkpt><trkpt lat="36.89590394984911" lon="15.06170014033624"><ele>109.33333333333333</ele><time>2026-04-17T09:49:17.999Z</time></trkpt><trkpt lat="36.89571304215252" lon="15.061719943703103"><ele>110.0</ele><time>2026-04-17T09:49:18.999Z</time></trkpt><trkpt lat="36.89553197475316" lon="15.06177774461209"><ele>110.0</ele><time>2026-04-17T09:49:19.999Z</time></trkpt><trkpt lat="36.89537567499731" lon="15.061830927910068"><ele>110.0</ele><time>2026-04-17T09:49:20.999Z</time></trkpt><trkpt lat="36.89523944472378" lon="15.061861692369087"><ele>110.0</ele><time>2026-04-17T09:49:21.999Z</time></trkpt><trkpt lat="36.89512587612613" lon="15.061874970731761"><ele>110.0</ele><time>2026-04-17T09:49:22.999Z</time></trkpt><trkpt lat="36.89501661595152" lon="15.061874521782505"><ele>109.99999999999999</ele><time>2026-04-17T09:49:23.999Z</time></trkpt><trkpt lat="36.894914332097244" lon="15.061881614221855"><ele>110.0</ele><time>2026-04-17T09:49:24.999Z</time></trkpt><trkpt lat="36.89481827149278" lon="15.0619004760775"><ele>110.0</ele><time>2026-04-17T09:49:25.999Z</time></trkpt><trkpt lat="36.894725941295306" lon="15.061912334167664"><ele>110.0</ele><time>2026-04-17T09:49:26.999Z</time></trkpt><trkpt lat="36.89464195435711" lon="15.06191943001659"><ele>109.99999999999999</ele><time>2026-04-17T09:49:27.999Z</time></trkpt><trkpt lat="36.89457748816311" lon="15.06192405338154"><ele>110.0</ele><time>2026-04-17T09:49:28.999Z</time></trkpt><trkpt lat="36.89447124105673" lon="15.061912180224816"><ele>110.0</ele><time>2026-04-17T09:49:30.999Z</time></trkpt><trkpt lat="36.89437101844659" lon="15.061909152539876"><ele>110.0</ele><time>2026-04-17T09:49:32.999Z</time></trkpt><trkpt lat="36.89424590889195" lon="15.06190740233153"><ele>110.0</ele><time>2026-04-17T09:49:34.999Z</time></trkpt><trkpt lat="36.89412432450762" lon="15.061899962243503"><ele>110.0</ele><time>2026-04-17T09:49:37Z</time></trkpt><trkpt lat="36.894051061301774" lon="15.06188917835509"><ele>110.0</ele><time>2026-04-17T09:49:38Z</time></trkpt><trkpt lat="36.893949175440675" lon="15.061876373385942"><ele>110.25</ele><time>2026-04-17T09:49:39Z</time></trkpt><trkpt lat="36.89381591557485" lon="15.061856617893158"><ele>110.5</ele><time>2026-04-17T09:49:40Z</time></trkpt><trkpt lat="36.893687763338285" lon="15.061823465108308"><ele>110.75</ele><time>2026-04-17T09:49:41Z</time></trkpt><trkpt lat="36.893568228026055" lon="15.061775359092184"><ele>111.0</ele><time>2026-04-17T09:49:42Z</time></trkpt><trkpt lat="36.89345404977462" lon="15.061723220706442"><ele>111.4</ele><time>2026-04-17T09:49:43Z</time></trkpt><trkpt lat="36.89334327494589" lon="15.061680890465345"><ele>111.8</ele><time>2026-04-17T09:49:44Z</time></trkpt><trkpt lat="36.8932365814133" lon="15.061641444525026"><ele>112.20000000000002</ele><time>2026-04-17T09:49:45Z</time></trkpt><trkpt lat="36.893135313790005" lon="15.06159850071917"><ele>112.60000000000001</ele><time>2026-04-17T09:49:46Z</time></trkpt><trkpt lat="36.8930375194142" lon="15.06155205762874"><ele>113.0</ele><time>2026-04-17T09:49:47Z</time></trkpt><trkpt lat="36.89294103980944" lon="15.061510980690295"><ele>110.4</ele><time>2026-04-17T09:49:48Z</time></trkpt><trkpt lat="36.892844737022884" lon="15.061479903683203"><ele>107.80000000000001</ele><time>2026-04-17T09:49:49Z</time></trkpt><trkpt lat="36.89274429918937" lon="15.06146502935435"><ele>105.2</ele><time>2026-04-17T09:49:50Z</time></trkpt><trkpt lat="36.89264159071823" lon="15.061464213991913"><ele>102.6</ele><time>2026-04-17T09:49:51Z</time></trkpt><trkpt lat="36.89253929548369" lon="15.0614788612891"><ele>100.0</ele><time>2026-04-17T09:49:52Z</time></trkpt><trkpt lat="36.89243677186" lon="15.061499655870724"><ele>99.2</ele><time>2026-04-17T09:49:53Z</time></trkpt><trkpt lat="36.892333938603656" lon="15.061537412097543"><ele>98.4</ele><time>2026-04-17T09:49:54Z</time></trkpt><trkpt lat="36.89223790464909" lon="15.061586189585372"><ele>97.6</ele><time>2026-04-17T09:49:55Z</time></trkpt><trkpt lat="36.89214555465718" lon="15.061632737381268"><ele>96.8</ele><time>2026-04-17T09:49:56Z</time></trkpt><trkpt lat="36.89205775827693" lon="15.061685165208283"><ele>96.0</ele><time>2026-04-17T09:49:57Z</time></trkpt><trkpt lat="36.89196840051843" lon="15.061737308121025"><ele>96.0</ele><time>2026-04-17T09:49:58Z</time></trkpt><trkpt lat="36.891865381322155" lon="15.061796884785505"><ele>96.0</ele><time>2026-04-17T09:49:59Z</time></trkpt><trkpt lat="36.89175682711432" lon="15.061873468104713"><ele>96.0</ele><time>2026-04-17T09:50:00Z</time></trkpt><trkpt lat="36.89164603612794" lon="15.061954918158584"><ele>96.0</ele><time>2026-04-17T09:50:01Z</time></trkpt><trkpt lat="36.891529394036176" lon="15.062028649661809"><ele>96.0</ele><time>2026-04-17T09:50:02Z</time></trkpt><trkpt lat="36.891409725556834" lon="15.062098243397015"><ele>96.0</ele><time>2026-04-17T09:50:03Z</time></trkpt><trkpt lat="36.89129364141326" lon="15.062166068281398"><ele>96.0</ele><time>2026-04-17T09:50:04Z</time></trkpt><trkpt lat="36.89118651988898" lon="15.062248434807394"><ele>96.0</ele><time>2026-04-17T09:50:05Z</time></trkpt><trkpt lat="36.89108069372534" lon="15.062323257257725"><ele>96.0</ele><time>2026-04-17T09:50:06Z</time></trkpt><trkpt lat="36.89097978921135" lon="15.06239856819006"><ele>96.0</ele><time>2026-04-17T09:50:07Z</time></trkpt><trkpt lat="36.890881157190826" lon="15.062467723723628"><ele>96.0</ele><time>2026-04-17T09:50:08Z</time></trkpt><trkpt lat="36.890790489255664" lon="15.062524941653239"><ele>96.0</ele><time>2026-04-17T09:50:09Z</time></trkpt><trkpt lat="36.890712521228515" lon="15.062565661561239"><ele>96.0</ele><time>2026-04-17T09:50:10Z</time></trkpt><trkpt lat="36.89063208826738" lon="15.062618831540313"><ele>95.4</ele><time>2026-04-17T09:50:12Z</time></trkpt><trkpt lat="36.89057909091426" lon="15.062662705504275"><ele>94.8</ele><time>2026-04-17T09:50:14Z</time></trkpt><trkpt lat="36.89050776579007" lon="15.062748144310504"><ele>94.2</ele><time>2026-04-17T09:50:17Z</time></trkpt><trkpt lat="36.89050580231944" lon="15.062943541208567"><ele>93.60000000000001</ele><time>2026-04-17T09:50:19Z</time></trkpt><trkpt lat="36.890481462215845" lon="15.063059284618278"><ele>93.0</ele><time>2026-04-17T09:50:20Z</time></trkpt><trkpt lat="36.89043662801004" lon="15.063183691003868"><ele>94.2</ele><time>2026-04-17T09:50:21Z</time></trkpt><trkpt lat="36.89040633410573" lon="15.06331210911889"><ele>95.4</ele><time>2026-04-17T09:50:22Z</time></trkpt><trkpt lat="36.89038438574953" lon="15.063440350593964"><ele>96.60000000000001</ele><time>2026-04-17T09:50:23Z</time></trkpt><trkpt lat="36.890358386653006" lon="15.063566320425444"><ele>97.80000000000001</ele><time>2026-04-17T09:50:24Z</time></trkpt><trkpt lat="36.890332940187754" lon="15.063671497056355"><ele>99.0</ele><time>2026-04-17T09:50:25Z</time></trkpt><trkpt lat="36.89030803349301" lon="15.063764484446418"><ele>99.0</ele><time>2026-04-17T09:50:26Z</time></trkpt><trkpt lat="36.890299468220995" lon="15.063851842848816"><ele>99.0</ele><time>2026-04-17T09:50:27Z</time></trkpt><trkpt lat="36.89027683610859" lon="15.063981832411834"><ele>99.0</ele><time>2026-04-17T09:50:29Z</time></trkpt><trkpt lat="36.89025080127474" lon="15.06409267330199"><ele>99.0</ele><time>2026-04-17T09:50:31Z</time></trkpt><trkpt lat="36.89021633587044" lon="15.064221082863574"><ele>99.0</ele><time>2026-04-17T09:50:33Z</time></trkpt><trkpt lat="36.89018495163192" lon="15.064327194841214"><ele>99.83333333333333</ele><time>2026-04-17T09:50:34Z</time></trkpt><trkpt lat="36.89017056696919" lon="15.064447683955027"><ele>100.66666666666666</ele><time>2026-04-17T09:50:35Z</time></trkpt><trkpt lat="36.89016496569752" lon="15.064528584148121"><ele>101.5</ele><time>2026-04-17T09:50:36Z</time></trkpt><trkpt lat="36.89014839853738" lon="15.064631231678156"><ele>102.33333333333333</ele><time>2026-04-17T09:50:38Z</time></trkpt><trkpt lat="36.89013202001358" lon="15.064749724401395"><ele>103.16666666666666</ele><time>2026-04-17T09:50:40Z</time></trkpt><trkpt lat="36.89009624887225" lon="15.064876047079087"><ele>104.0</ele><time>2026-04-17T09:50:42Z</time></trkpt><trkpt lat="36.89007556686464" lon="15.065046596943635"><ele>103.99999999999999</ele><time>2026-04-17T09:50:44Z</time></trkpt><trkpt lat="36.890054502314264" lon="15.065165317071209"><ele>104.0</ele><time>2026-04-17T09:50:45Z</time></trkpt><trkpt lat="36.8900290939478" lon="15.065265461654315"><ele>104.0</ele><time>2026-04-17T09:50:46Z</time></trkpt><trkpt lat="36.89000716600936" lon="15.065348994006952"><ele>104.0</ele><time>2026-04-17T09:50:47Z</time></trkpt><trkpt lat="36.88998984552018" lon="15.065426771697487"><ele>103.99999999999999</ele><time>2026-04-17T09:50:48Z</time></trkpt><trkpt lat="36.889951844981304" lon="15.065562767790738"><ele>104.0</ele><time>2026-04-17T09:50:50Z</time></trkpt><trkpt lat="36.88993058800027" lon="15.065668352889228"><ele>103.99999999999999</ele><time>2026-04-17T09:50:52Z</time></trkpt><trkpt lat="36.8899026516105" lon="15.065772462905928"><ele>104.0</ele><time>2026-04-17T09:50:54Z</time></trkpt><trkpt lat="36.889881671892745" lon="15.065860302969895"><ele>104.0</ele><time>2026-04-17T09:50:55Z</time></trkpt><trkpt lat="36.88986752457428" lon="15.065951638146691"><ele>104.0</ele><time>2026-04-17T09:50:56Z</time></trkpt><trkpt lat="36.88985259736341" lon="15.066028368175436"><ele>103.99999999999999</ele><time>2026-04-17T09:50:57Z</time></trkpt><trkpt lat="36.88981348240007" lon="15.066183612759472"><ele>104.0</ele><time>2026-04-17T09:50:59Z</time></trkpt><trkpt lat="36.88979481758902" lon="15.066261860374299"><ele>104.16666666666666</ele><time>2026-04-17T09:51:00Z</time></trkpt><trkpt lat="36.88975989949216" lon="15.066405919804064"><ele>104.33333333333333</ele><time>2026-04-17T09:51:02Z</time></trkpt><trkpt lat="36.88974554407556" lon="15.0664825912211"><ele>104.5</ele><time>2026-04-17T09:51:03Z</time></trkpt><trkpt lat="36.889715487944116" lon="15.066623440038299"><ele>104.66666666666666</ele><time>2026-04-17T09:51:05Z</time></trkpt><trkpt lat="36.889694282068504" lon="15.066702198086103"><ele>104.83333333333333</ele><time>2026-04-17T09:51:06Z</time></trkpt><trkpt lat="36.88966333610074" lon="15.0667822428129"><ele>105.0</ele><time>2026-04-17T09:51:07Z</time></trkpt><trkpt lat="36.889628899903926" lon="15.06690217678537"><ele>105.2</ele><time>2026-04-17T09:51:09Z</time></trkpt><trkpt lat="36.88959681533253" lon="15.067005842337643"><ele>105.4</ele><time>2026-04-17T09:51:11Z</time></trkpt><trkpt lat="36.889581901521076" lon="15.067106237363348"><ele>105.6</ele><time>2026-04-17T09:51:14Z</time></trkpt><trkpt lat="36.88956247222762" lon="15.067273795943526"><ele>105.8</ele><time>2026-04-17T09:51:16Z</time></trkpt><trkpt lat="36.88952497652422" lon="15.067378028785068"><ele>106.0</ele><time>2026-04-17T09:51:16.999Z</time></trkpt><trkpt lat="36.889494359601045" lon="15.067464225336414"><ele>106.83333333333334</ele><time>2026-04-17T09:51:17.999Z</time></trkpt><trkpt lat="36.88947028630566" lon="15.067564966480294"><ele>107.66666666666667</ele><time>2026-04-17T09:51:19.999Z</time></trkpt><trkpt lat="36.88945412954122" lon="15.067642115261288"><ele>108.5</ele><time>2026-04-17T09:51:21.999Z</time></trkpt><trkpt lat="36.88943587489241" lon="15.0677422052588"><ele>109.33333333333334</ele><time>2026-04-17T09:51:24.999Z</time></trkpt><trkpt lat="36.88940325352209" lon="15.067836229586467"><ele>110.16666666666667</ele><time>2026-04-17T09:51:26.999Z</time></trkpt><trkpt lat="36.88938920905029" lon="15.067948306442625"><ele>111.0</ele><time>2026-04-17T09:51:28.999Z</time></trkpt><trkpt lat="36.88935461555248" lon="15.068059214295044"><ele>111.0</ele><time>2026-04-17T09:51:30.999Z</time></trkpt><trkpt lat="36.88932371580888" lon="15.068166078246518"><ele>111.0</ele><time>2026-04-17T09:51:32.999Z</time></trkpt><trkpt lat="36.88929484222672" lon="15.068255523050142"><ele>111.0</ele><time>2026-04-17T09:51:33.999Z</time></trkpt><trkpt lat="36.889263580556545" lon="15.068341661916659"><ele>111.0</ele><time>2026-04-17T09:51:34.999Z</time></trkpt><trkpt lat="36.88923788579407" lon="15.068444234873875"><ele>111.0</ele><time>2026-04-17T09:51:36.999Z</time></trkpt><trkpt lat="36.88919830660252" lon="15.068534591762665"><ele>111.0</ele><time>2026-04-17T09:51:38.999Z</time></trkpt><trkpt lat="36.88916054074992" lon="15.068677148770924"><ele>110.0</ele><time>2026-04-17T09:51:40.999Z</time></trkpt><trkpt lat="36.8891282643737" lon="15.068807713650843"><ele>109.0</ele><time>2026-04-17T09:51:43Z</time></trkpt><trkpt lat="36.88911019374836" lon="15.068924541638292"><ele>108.0</ele><time>2026-04-17T09:51:45Z</time></trkpt><trkpt lat="36.88906767166716" lon="15.06903672922101"><ele>107.0</ele><time>2026-04-17T09:51:47Z</time></trkpt><trkpt lat="36.88902608881745" lon="15.06917023778161"><ele>106.0</ele><time>2026-04-17T09:51:49Z</time></trkpt><trkpt lat="36.88900433305715" lon="15.069278035324585"><ele>105.19999999999999</ele><time>2026-04-17T09:51:50Z</time></trkpt><trkpt lat="36.888965011683496" lon="15.069378077317284"><ele>104.39999999999999</ele><time>2026-04-17T09:51:51Z</time></trkpt><trkpt lat="36.88892356129691" lon="15.069467480581554"><ele>103.6</ele><time>2026-04-17T09:51:52Z</time></trkpt><trkpt lat="36.88889587857262" lon="15.069548441829694"><ele>102.8</ele><time>2026-04-17T09:51:53Z</time></trkpt><trkpt lat="36.88885438267993" lon="15.069664512182825"><ele>102.0</ele><time>2026-04-17T09:51:55Z</time></trkpt><trkpt lat="36.888809621883205" lon="15.069785268739299"><ele>102.0</ele><time>2026-04-17T09:51:57Z</time></trkpt><trkpt lat="36.888769466913686" lon="15.069855085876242"><ele>102.0</ele><time>2026-04-17T09:51:58Z</time></trkpt><trkpt lat="36.88869538565485" lon="15.069919575143697"><ele>102.0</ele><time>2026-04-17T09:52:00Z</time></trkpt><trkpt lat="36.88862721498125" lon="15.070017272449443"><ele>102.0</ele><time>2026-04-17T09:52:02Z</time></trkpt><trkpt lat="36.88855019246442" lon="15.070118312930866"><ele>102.0</ele><time>2026-04-17T09:52:04Z</time></trkpt><trkpt lat="36.88848078464304" lon="15.070213981493021"><ele>100.0</ele><time>2026-04-17T09:52:06Z</time></trkpt><trkpt lat="36.88839644399908" lon="15.070329780214701"><ele>98.0</ele><time>2026-04-17T09:52:08Z</time></trkpt><trkpt lat="36.88833679413109" lon="15.07042715552572"><ele>96.0</ele><time>2026-04-17T09:52:09Z</time></trkpt><trkpt lat="36.88824427458554" lon="15.070560535057162"><ele>94.0</ele><time>2026-04-17T09:52:10Z</time></trkpt><trkpt lat="36.8881568476955" lon="15.070688527199382"><ele>94.0</ele><time>2026-04-17T09:52:11Z</time></trkpt><trkpt lat="36.88806118846692" lon="15.070811283036253"><ele>94.0</ele><time>2026-04-17T09:52:12Z</time></trkpt><trkpt lat="36.88796340315293" lon="15.07091619398605"><ele>94.0</ele><time>2026-04-17T09:52:13Z</time></trkpt><trkpt lat="36.88786991952621" lon="15.071017170722165"><ele>94.0</ele><time>2026-04-17T09:52:14Z</time></trkpt><trkpt lat="36.88778333993014" lon="15.07111861865119"><ele>94.0</ele><time>2026-04-17T09:52:15Z</time></trkpt><trkpt lat="36.887695948018475" lon="15.0712184169363"><ele>94.0</ele><time>2026-04-17T09:52:16Z</time></trkpt><trkpt lat="36.887617943682905" lon="15.071306717486257"><ele>94.0</ele><time>2026-04-17T09:52:17Z</time></trkpt><trkpt lat="36.88754154080095" lon="15.071380839162881"><ele>94.0</ele><time>2026-04-17T09:52:18Z</time></trkpt><trkpt lat="36.88748821522115" lon="15.071464852947354"><ele>94.0</ele><time>2026-04-17T09:52:19Z</time></trkpt><trkpt lat="36.8874436584718" lon="15.071531809830466"><ele>93.66666666666666</ele><time>2026-04-17T09:52:20Z</time></trkpt><trkpt lat="36.887402350951014" lon="15.071616400863656"><ele>93.33333333333333</ele><time>2026-04-17T09:52:21Z</time></trkpt><trkpt lat="36.88736700921055" lon="15.071701443269049"><ele>93.0</ele><time>2026-04-17T09:52:22Z</time></trkpt><trkpt lat="36.887333512459115" lon="15.071803188117936"><ele>92.66666666666667</ele><time>2026-04-17T09:52:23Z</time></trkpt><trkpt lat="36.887295086933804" lon="15.071908692798885"><ele>92.33333333333334</ele><time>2026-04-17T09:52:24Z</time></trkpt><trkpt lat="36.88725975952873" lon="15.071994764678664"><ele>92.0</ele><time>2026-04-17T09:52:25Z</time></trkpt><trkpt lat="36.88723328716942" lon="15.072086351142561"><ele>92.0</ele><time>2026-04-17T09:52:26Z</time></trkpt><trkpt lat="36.88720430211335" lon="15.072172640563807"><ele>92.0</ele><time>2026-04-17T09:52:27Z</time></trkpt><trkpt lat="36.88717720399591" lon="15.072258625865992"><ele>92.0</ele><time>2026-04-17T09:52:28Z</time></trkpt><trkpt lat="36.88714850318856" lon="15.072330520388547"><ele>92.0</ele><time>2026-04-17T09:52:29Z</time></trkpt><trkpt lat="36.88710084611316" lon="15.072497174235549"><ele>92.0</ele><time>2026-04-17T09:52:31Z</time></trkpt><trkpt lat="36.88707157219302" lon="15.072602226090751"><ele>92.0</ele><time>2026-04-17T09:52:32Z</time></trkpt><trkpt lat="36.88703933222339" lon="15.07269968200175"><ele>91.6</ele><time>2026-04-17T09:52:33Z</time></trkpt><trkpt lat="36.88700697426928" lon="15.072783232184136"><ele>91.19999999999999</ele><time>2026-04-17T09:52:34Z</time></trkpt><trkpt lat="36.886974184321474" lon="15.072865651161207"><ele>90.8</ele><time>2026-04-17T09:52:35Z</time></trkpt><trkpt lat="36.88691446177587" lon="15.073002206497481"><ele>90.4</ele><time>2026-04-17T09:52:37Z</time></trkpt><trkpt lat="36.886852215596036" lon="15.073160265798323"><ele>90.0</ele><time>2026-04-17T09:52:39Z</time></trkpt><trkpt lat="36.8868057516255" lon="15.073271501426069"><ele>89.0</ele><time>2026-04-17T09:52:40Z</time></trkpt><trkpt lat="36.886729963172556" lon="15.073401860046271"><ele>88.0</ele><time>2026-04-17T09:52:41Z</time></trkpt><trkpt lat="36.886652268728774" lon="15.073517506993888"><ele>87.0</ele><time>2026-04-17T09:52:42Z</time></trkpt><trkpt lat="36.886571951823875" lon="15.073612691682285"><ele>86.0</ele><time>2026-04-17T09:52:43Z</time></trkpt><trkpt lat="36.886499537466825" lon="15.073683111201692"><ele>86.0</ele><time>2026-04-17T09:52:44Z</time></trkpt><trkpt lat="36.88644913663373" lon="15.073735611010255"><ele>86.0</ele><time>2026-04-17T09:52:45Z</time></trkpt><trkpt lat="36.88635427980729" lon="15.073822920764801"><ele>86.0</ele><time>2026-04-17T09:52:47Z</time></trkpt><trkpt lat="36.8862730481724" lon="15.073913137581915"><ele>86.0</ele><time>2026-04-17T09:52:49Z</time></trkpt><trkpt lat="36.88620543283413" lon="15.07401793988925"><ele>86.0</ele><time>2026-04-17T09:52:50Z</time></trkpt><trkpt lat="36.886138321492446" lon="15.074111722861943"><ele>86.25</ele><time>2026-04-17T09:52:51Z</time></trkpt><trkpt lat="36.8860733246022" lon="15.074189987443418"><ele>86.5</ele><time>2026-04-17T09:52:52Z</time></trkpt><trkpt lat="36.88598574563415" lon="15.074277220323188"><ele>86.75</ele><time>2026-04-17T09:52:53Z</time></trkpt><trkpt lat="36.885857936714075" lon="15.07436676943032"><ele>87.0</ele><time>2026-04-17T09:52:54Z</time></trkpt><trkpt lat="36.885748978032645" lon="15.074438350581122"><ele>87.0</ele><time>2026-04-17T09:52:55Z</time></trkpt><trkpt lat="36.885674232243325" lon="15.074496155485113"><ele>87.0</ele><time>2026-04-17T09:52:56Z</time></trkpt><trkpt lat="36.88561496651962" lon="15.074542865772534"><ele>87.0</ele><time>2026-04-17T09:52:57Z</time></trkpt><trkpt lat="36.88555592939578" lon="15.074594574064875"><ele>87.0</ele><time>2026-04-17T09:52:58Z</time></trkpt><trkpt lat="36.885473531483115" lon="15.074652886598454"><ele>87.0</ele><time>2026-04-17T09:52:59Z</time></trkpt><trkpt lat="36.885392523808086" lon="15.074734933838457"><ele>87.0</ele><time>2026-04-17T09:53:00Z</time></trkpt><trkpt lat="36.885318161750135" lon="15.074840769488295"><ele>87.0</ele><time>2026-04-17T09:53:01Z</time></trkpt><trkpt lat="36.8852511073179" lon="15.074921877575969"><ele>87.0</ele><time>2026-04-17T09:53:02Z</time></trkpt><trkpt lat="36.88520323686882" lon="15.075002645099033"><ele>87.0</ele><time>2026-04-17T09:53:03Z</time></trkpt><trkpt lat="36.8851600084272" lon="15.075078301013535"><ele>87.0</ele><time>2026-04-17T09:53:04Z</time></trkpt><trkpt lat="36.88512056178446" lon="15.075153499632341"><ele>87.0</ele><time>2026-04-17T09:53:05Z</time></trkpt><trkpt lat="36.88509310441009" lon="15.075235216722456"><ele>87.0</ele><time>2026-04-17T09:53:10Z</time></trkpt><trkpt lat="36.88504512599689" lon="15.075333258963893"><ele>86.8</ele><time>2026-04-17T09:53:13Z</time></trkpt><trkpt lat="36.88501255681935" lon="15.075405147472129"><ele>86.6</ele><time>2026-04-17T09:53:15Z</time></trkpt><trkpt lat="36.884973049702836" lon="15.075503007598805"><ele>86.39999999999999</ele><time>2026-04-17T09:53:17Z</time></trkpt><trkpt lat="36.88491692650127" lon="15.075641110784069"><ele>86.19999999999999</ele><time>2026-04-17T09:53:19Z</time></trkpt><trkpt lat="36.884862373250066" lon="15.075781541594015"><ele>86.0</ele><time>2026-04-17T09:53:21Z</time></trkpt><trkpt lat="36.88483032016045" lon="15.075858222356231"><ele>86.5</ele><time>2026-04-17T09:53:22Z</time></trkpt><trkpt lat="36.88479478182055" lon="15.075946918648468"><ele>87.0</ele><time>2026-04-17T09:53:23Z</time></trkpt><trkpt lat="36.88476230576406" lon="15.076030776201538"><ele>87.5</ele><time>2026-04-17T09:53:24Z</time></trkpt><trkpt lat="36.88472854790854" lon="15.076113196021563"><ele>88.0</ele><time>2026-04-17T09:53:25Z</time></trkpt><trkpt lat="36.88469963966117" lon="15.076183964573787"><ele>88.5</ele><time>2026-04-17T09:53:26Z</time></trkpt><trkpt lat="36.884652577194466" lon="15.076305067113942"><ele>89.0</ele><time>2026-04-17T09:53:28Z</time></trkpt><trkpt lat="36.8846130056598" lon="15.076414177191399"><ele>89.0</ele><time>2026-04-17T09:53:30Z</time></trkpt><trkpt lat="36.88455128726697" lon="15.076513824880706"><ele>89.0</ele><time>2026-04-17T09:53:32Z</time></trkpt><trkpt lat="36.88451261743027" lon="15.076614090852464"><ele>89.0</ele><time>2026-04-17T09:53:34Z</time></trkpt><trkpt lat="36.88448675364849" lon="15.076689388288314"><ele>89.0</ele><time>2026-04-17T09:53:35Z</time></trkpt><trkpt lat="36.88445773204607" lon="15.076768584881142"><ele>89.0</ele><time>2026-04-17T09:53:38Z</time></trkpt><trkpt lat="36.88442455251682" lon="15.07685285596122"><ele>89.0</ele><time>2026-04-17T09:53:41Z</time></trkpt><trkpt lat="36.88439410281075" lon="15.076954967341935"><ele>88.83333333333334</ele><time>2026-04-17T09:53:44Z</time></trkpt><trkpt lat="36.884343123780496" lon="15.077073261813863"><ele>88.66666666666667</ele><time>2026-04-17T09:53:47Z</time></trkpt><trkpt lat="36.8843037658553" lon="15.077137682547104"><ele>88.5</ele><time>2026-04-17T09:53:48Z</time></trkpt><trkpt lat="36.88425236340501" lon="15.077208575675792"><ele>88.33333333333333</ele><time>2026-04-17T09:53:49Z</time></trkpt><trkpt lat="36.88425151971813" lon="15.077296216723104"><ele>88.16666666666666</ele><time>2026-04-17T09:53:50Z</time></trkpt><trkpt lat="36.8841472443052" lon="15.07734881585766"><ele>88.0</ele><time>2026-04-17T09:53:51Z</time></trkpt><trkpt lat="36.88407498620698" lon="15.07742027353233"><ele>88.80000000000001</ele><time>2026-04-17T09:53:52Z</time></trkpt><trkpt lat="36.88398467809934" lon="15.077495798195228"><ele>89.6</ele><time>2026-04-17T09:53:53Z</time></trkpt><trkpt lat="36.88388949888295" lon="15.077567531895188"><ele>90.4</ele><time>2026-04-17T09:53:54Z</time></trkpt><trkpt lat="36.88379616273823" lon="15.077640354166201"><ele>91.19999999999999</ele><time>2026-04-17T09:53:55Z</time></trkpt><trkpt lat="36.88370330682815" lon="15.077721220075526"><ele>92.0</ele><time>2026-04-17T09:53:56Z</time></trkpt><trkpt lat="36.88360583498453" lon="15.077805324304231"><ele>92.0</ele><time>2026-04-17T09:53:57Z</time></trkpt><trkpt lat="36.88349691160787" lon="15.077913268364265"><ele>92.0</ele><time>2026-04-17T09:53:58Z</time></trkpt><trkpt lat="36.88336729669328" lon="15.07804441965618"><ele>92.0</ele><time>2026-04-17T09:53:59Z</time></trkpt><trkpt lat="36.883204008959844" lon="15.078183646650434"><ele>89.66666666666667</ele><time>2026-04-17T09:54:00Z</time></trkpt><trkpt lat="36.8830320762856" lon="15.07833374374958"><ele>87.33333333333333</ele><time>2026-04-17T09:54:01Z</time></trkpt><trkpt lat="36.882869396448115" lon="15.078493294621804"><ele>85.0</ele><time>2026-04-17T09:54:02Z</time></trkpt><trkpt lat="36.88271118826081" lon="15.078668627049122"><ele>84.33333333333333</ele><time>2026-04-17T09:54:03Z</time></trkpt><trkpt lat="36.88256405904192" lon="15.078850165629081"><ele>83.66666666666667</ele><time>2026-04-17T09:54:04Z</time></trkpt><trkpt lat="36.8824343276843" lon="15.079020299263822"><ele>83.0</ele><time>2026-04-17T09:54:05Z</time></trkpt><trkpt lat="36.88231253196976" lon="15.079185128211028"><ele>83.0</ele><time>2026-04-17T09:54:06Z</time></trkpt><trkpt lat="36.882188170267895" lon="15.07935661336529"><ele>83.0</ele><time>2026-04-17T09:54:07Z</time></trkpt><trkpt lat="36.88206125316312" lon="15.079537854625139"><ele>83.0</ele><time>2026-04-17T09:54:08Z</time></trkpt><trkpt lat="36.88194456221277" lon="15.079711816376031"><ele>83.0</ele><time>2026-04-17T09:54:09Z</time></trkpt><trkpt lat="36.8818324806096" lon="15.079870953779533"><ele>83.0</ele><time>2026-04-17T09:54:10Z</time></trkpt><trkpt lat="36.88172800021639" lon="15.080028424407946"><ele>83.0</ele><time>2026-04-17T09:54:11Z</time></trkpt><trkpt lat="36.881626219697374" lon="15.080173305530415"><ele>81.66666666666667</ele><time>2026-04-17T09:54:12Z</time></trkpt><trkpt lat="36.88151276078076" lon="15.080327071512716"><ele>80.33333333333333</ele><time>2026-04-17T09:54:13Z</time></trkpt><trkpt lat="36.88141054139361" lon="15.080496814464496"><ele>79.0</ele><time>2026-04-17T09:54:14Z</time></trkpt><trkpt lat="36.881316492822236" lon="15.080664381849678"><ele>79.5</ele><time>2026-04-17T09:54:15Z</time></trkpt><trkpt lat="36.88125192236997" lon="15.08084663935688"><ele>80.0</ele><time>2026-04-17T09:54:16Z</time></trkpt><trkpt lat="36.88116749117273" lon="15.08098713879155"><ele>80.5</ele><time>2026-04-17T09:54:17Z</time></trkpt><trkpt lat="36.8810846580426" lon="15.081093599017937"><ele>81.0</ele><time>2026-04-17T09:54:18Z</time></trkpt><trkpt lat="36.881041628155145" lon="15.081183701064042"><ele>81.0</ele><time>2026-04-17T09:54:19Z</time></trkpt><trkpt lat="36.88100180803685" lon="15.081297490045555"><ele>81.0</ele><time>2026-04-17T09:54:21Z</time></trkpt><trkpt lat="36.88111833289605" lon="15.081424807717607"><ele>81.0</ele><time>2026-04-17T09:54:23Z</time></trkpt><trkpt lat="36.88118055404015" lon="15.081459176628176"><ele>81.0</ele><time>2026-04-17T09:54:24Z</time></trkpt><trkpt lat="36.88122405382036" lon="15.081518288415053"><ele>81.0</ele><time>2026-04-17T09:54:25Z</time></trkpt><trkpt lat="36.8812918999491" lon="15.081566288129286"><ele>79.25</ele><time>2026-04-17T09:54:26Z</time></trkpt><trkpt lat="36.88130130514535" lon="15.081723343864022"><ele>77.5</ele><time>2026-04-17T09:54:27Z</time></trkpt><trkpt lat="36.88134212054319" lon="15.081852118657794"><ele>75.75</ele><time>2026-04-17T09:54:28Z</time></trkpt><trkpt lat="36.881396325008744" lon="15.08197971509037"><ele>74.0</ele><time>2026-04-17T09:54:29Z</time></trkpt><trkpt lat="36.88147562299298" lon="15.082097826095039"><ele>74.0</ele><time>2026-04-17T09:54:30Z</time></trkpt><trkpt lat="36.88157173895037" lon="15.082258319801246"><ele>74.0</ele><time>2026-04-17T09:54:31Z</time></trkpt><trkpt lat="36.88169522848402" lon="15.08238614029486"><ele>74.0</ele><time>2026-04-17T09:54:32Z</time></trkpt><trkpt lat="36.881821393575315" lon="15.082460694266254"><ele>71.8</ele><time>2026-04-17T09:54:33Z</time></trkpt><trkpt lat="36.8819087627992" lon="15.082563399904013"><ele>69.60000000000001</ele><time>2026-04-17T09:54:34Z</time></trkpt><trkpt lat="36.881954751698785" lon="15.082674067823355"><ele>67.4</ele><time>2026-04-17T09:54:35Z</time></trkpt><trkpt lat="36.88194303513765" lon="15.082768356336718"><ele>65.2</ele><time>2026-04-17T09:54:36Z</time></trkpt><trkpt lat="36.88206322793087" lon="15.08265431517746"><ele>63.0</ele><time>2026-04-17T09:54:37Z</time></trkpt><trkpt lat="36.8821562307977" lon="15.082678344433196"><ele>63.0</ele><time>2026-04-17T09:54:39Z</time></trkpt><trkpt lat="36.88225827937701" lon="15.08270640992011"><ele>63.0</ele><time>2026-04-17T09:54:41Z</time></trkpt><trkpt lat="36.88234042385379" lon="15.082654589865298"><ele>63.0</ele><time>2026-04-17T09:54:42Z</time></trkpt><trkpt lat="36.88243612448595" lon="15.082594735145925"><ele>63.0</ele><time>2026-04-17T09:54:43Z</time></trkpt><trkpt lat="36.882545585127566" lon="15.082569783571804"><ele>63.0</ele><time>2026-04-17T09:54:44Z</time></trkpt><trkpt lat="36.88266434278011" lon="15.082543061589764"><ele>61.25</ele><time>2026-04-17T09:54:45Z</time></trkpt><trkpt lat="36.88279259905081" lon="15.082513037984254"><ele>59.5</ele><time>2026-04-17T09:54:46Z</time></trkpt><trkpt lat="36.88292451911459" lon="15.082480587074018"><ele>57.75</ele><time>2026-04-17T09:54:47Z</time></trkpt><trkpt lat="36.88305995881066" lon="15.082450181406815"><ele>56.0</ele><time>2026-04-17T09:54:48Z</time></trkpt><trkpt lat="36.88320006830791" lon="15.082412686846673"><ele>54.66666666666667</ele><time>2026-04-17T09:54:49Z</time></trkpt><trkpt lat="36.88336149301099" lon="15.082431115225514"><ele>53.33333333333333</ele><time>2026-04-17T09:54:50Z</time></trkpt><trkpt lat="36.883521871522966" lon="15.082473396520099"><ele>52.0</ele><time>2026-04-17T09:54:51Z</time></trkpt><trkpt lat="36.883684447341956" lon="15.082526560024073"><ele>52.0</ele><time>2026-04-17T09:54:52Z</time></trkpt><trkpt lat="36.88383557996841" lon="15.082635083810057"><ele>52.0</ele><time>2026-04-17T09:54:53Z</time></trkpt><trkpt lat="36.8839633702073" lon="15.08279041520475"><ele>52.0</ele><time>2026-04-17T09:54:54Z</time></trkpt><trkpt lat="36.88407635769175" lon="15.082953728993802"><ele>52.0</ele><time>2026-04-17T09:54:55Z</time></trkpt><trkpt lat="36.88418505220803" lon="15.083124695939816"><ele>52.0</ele><time>2026-04-17T09:54:56Z</time></trkpt><trkpt lat="36.88430416150142" lon="15.083286876777281"><ele>52.0</ele><time>2026-04-17T09:54:57Z</time></trkpt><trkpt lat="36.88441659491901" lon="15.08346096301691"><ele>52.666666666666664</ele><time>2026-04-17T09:54:58Z</time></trkpt><trkpt lat="36.88453777562088" lon="15.083651412072285"><ele>53.33333333333333</ele><time>2026-04-17T09:54:59Z</time></trkpt><trkpt lat="36.884665735426005" lon="15.08385199131984"><ele>54.0</ele><time>2026-04-17T09:55:00Z</time></trkpt><trkpt lat="36.884793361034696" lon="15.084049679335557"><ele>53.33333333333333</ele><time>2026-04-17T09:55:01Z</time></trkpt><trkpt lat="36.8849272380475" lon="15.084258492418176"><ele>52.666666666666664</ele><time>2026-04-17T09:55:02Z</time></trkpt><trkpt lat="36.88506549190246" lon="15.084470101953196"><ele>52.0</ele><time>2026-04-17T09:55:03Z</time></trkpt><trkpt lat="36.885187879967745" lon="15.084696924166906"><ele>52.0</ele><time>2026-04-17T09:55:04Z</time></trkpt><trkpt lat="36.88532277610512" lon="15.08490854622775"><ele>52.0</ele><time>2026-04-17T09:55:05Z</time></trkpt><trkpt lat="36.88545278144404" lon="15.085113022994127"><ele>52.0</ele><time>2026-04-17T09:55:06Z</time></trkpt><trkpt lat="36.88558035335388" lon="15.085313954289502"><ele>52.0</ele><time>2026-04-17T09:55:07Z</time></trkpt><trkpt lat="36.88570746189099" lon="15.085514155701444"><ele>52.0</ele><time>2026-04-17T09:55:08Z</time></trkpt><trkpt lat="36.885845725498044" lon="15.085700137967176"><ele>52.0</ele><time>2026-04-17T09:55:09Z</time></trkpt><trkpt lat="36.885949939488505" lon="15.085902099037275"><ele>54.0</ele><time>2026-04-17T09:55:10Z</time></trkpt><trkpt lat="36.88606834681201" lon="15.086080418524244"><ele>56.0</ele><time>2026-04-17T09:55:11Z</time></trkpt><trkpt lat="36.886147251614176" lon="15.08628181790863"><ele>58.0</ele><time>2026-04-17T09:55:12Z</time></trkpt><trkpt lat="36.88620633683782" lon="15.086493840053636"><ele>57.33333333333333</ele><time>2026-04-17T09:55:13Z</time></trkpt><trkpt lat="36.88625186348152" lon="15.086713105011103"><ele>56.66666666666667</ele><time>2026-04-17T09:55:14Z</time></trkpt><trkpt lat="36.886279454380585" lon="15.08693873887839"><ele>56.0</ele><time>2026-04-17T09:55:15Z</time></trkpt><trkpt lat="36.88629257449505" lon="15.087168852900168"><ele>56.0</ele><time>2026-04-17T09:55:16Z</time></trkpt><trkpt lat="36.886306307235905" lon="15.087406014833459"><ele>56.0</ele><time>2026-04-17T09:55:17Z</time></trkpt><trkpt lat="36.886321838697185" lon="15.087648043539303"><ele>56.0</ele><time>2026-04-17T09:55:18Z</time></trkpt><trkpt lat="36.88634012529237" lon="15.087893537270647"><ele>57.333333333333336</ele><time>2026-04-17T09:55:19Z</time></trkpt><trkpt lat="36.88635094333625" lon="15.08814061001906"><ele>58.66666666666667</ele><time>2026-04-17T09:55:20Z</time></trkpt><trkpt lat="36.88636090663078" lon="15.088401360464193"><ele>60.0</ele><time>2026-04-17T09:55:21Z</time></trkpt><trkpt lat="36.88636574079666" lon="15.088686603858593"><ele>60.0</ele><time>2026-04-17T09:55:22Z</time></trkpt><trkpt lat="36.88636354659811" lon="15.088981283280944"><ele>60.0</ele><time>2026-04-17T09:55:23Z</time></trkpt><trkpt lat="36.886355963129354" lon="15.089274324672935"><ele>59.0</ele><time>2026-04-17T09:55:24Z</time></trkpt><trkpt lat="36.88634148865042" lon="15.08958306811162"><ele>58.0</ele><time>2026-04-17T09:55:25Z</time></trkpt><trkpt lat="36.88632386118747" lon="15.08990060517873"><ele>55.5</ele><time>2026-04-17T09:55:26Z</time></trkpt><trkpt lat="36.88630625517295" lon="15.090211885882638"><ele>53.0</ele><time>2026-04-17T09:55:27Z</time></trkpt><trkpt lat="36.88628813335476" lon="15.090506503757853"><ele>52.0</ele><time>2026-04-17T09:55:28Z</time></trkpt><trkpt lat="36.88625555453502" lon="15.090790096622626"><ele>51.0</ele><time>2026-04-17T09:55:29Z</time></trkpt><trkpt lat="36.88619172524857" lon="15.091052514249983"><ele>50.0</ele><time>2026-04-17T09:55:30Z</time></trkpt><trkpt lat="36.886109992104984" lon="15.091306207563159"><ele>50.0</ele><time>2026-04-17T09:55:31Z</time></trkpt><trkpt lat="36.886011607959226" lon="15.091562717497547"><ele>50.0</ele><time>2026-04-17T09:55:32Z</time></trkpt><trkpt lat="36.88590416899999" lon="15.091811039338946"><ele>49.0</ele><time>2026-04-17T09:55:33Z</time></trkpt><trkpt lat="36.88579852067813" lon="15.092063998637386"><ele>48.0</ele><time>2026-04-17T09:55:34Z</time></trkpt><trkpt lat="36.885711738758445" lon="15.092297186191027"><ele>47.0</ele><time>2026-04-17T09:55:35Z</time></trkpt><trkpt lat="36.88565093229853" lon="15.092529169941677"><ele>49.0</ele><time>2026-04-17T09:55:36Z</time></trkpt><trkpt lat="36.88561838548923" lon="15.092756553591643"><ele>51.0</ele><time>2026-04-17T09:55:37Z</time></trkpt><trkpt lat="36.88562423624677" lon="15.092982415461746"><ele>53.0</ele><time>2026-04-17T09:55:38Z</time></trkpt><trkpt lat="36.88565263405829" lon="15.093209183870494"><ele>54.333333333333336</ele><time>2026-04-17T09:55:39Z</time></trkpt><trkpt lat="36.88567996410005" lon="15.09345143110671"><ele>55.66666666666667</ele><time>2026-04-17T09:55:40Z</time></trkpt><trkpt lat="36.8856986134152" lon="15.093692142485507"><ele>57.0</ele><time>2026-04-17T09:55:41Z</time></trkpt><trkpt lat="36.88569402688108" lon="15.093934144540475"><ele>57.66666666666667</ele><time>2026-04-17T09:55:42Z</time></trkpt><trkpt lat="36.885667217913834" lon="15.0941755117901"><ele>58.333333333333336</ele><time>2026-04-17T09:55:43Z</time></trkpt><trkpt lat="36.88561283386667" lon="15.094417508294008"><ele>59.0</ele><time>2026-04-17T09:55:44Z</time></trkpt><trkpt lat="36.88554114606373" lon="15.094654716227485"><ele>59.0</ele><time>2026-04-17T09:55:45Z</time></trkpt><trkpt lat="36.885448281920404" lon="15.094884570272006"><ele>59.0</ele><time>2026-04-17T09:55:46Z</time></trkpt><trkpt lat="36.88534700986536" lon="15.09510987984779"><ele>59.0</ele><time>2026-04-17T09:55:47Z</time></trkpt><trkpt lat="36.88524514180131" lon="15.095341718568044"><ele>58.333333333333336</ele><time>2026-04-17T09:55:48Z</time></trkpt><trkpt lat="36.88514547262107" lon="15.095579243622199"><ele>57.66666666666667</ele><time>2026-04-17T09:55:49Z</time></trkpt><trkpt lat="36.88504315456705" lon="15.095816772744671"><ele>57.0</ele><time>2026-04-17T09:55:50Z</time></trkpt><trkpt lat="36.88494605947197" lon="15.096041211594256"><ele>56.66666666666667</ele><time>2026-04-17T09:55:51Z</time></trkpt><trkpt lat="36.884860219133714" lon="15.096251645060706"><ele>56.333333333333336</ele><time>2026-04-17T09:55:52Z</time></trkpt><trkpt lat="36.88478363967697" lon="15.096450767430614"><ele>56.0</ele><time>2026-04-17T09:55:53Z</time></trkpt><trkpt lat="36.88472565524588" lon="15.096640095006405"><ele>56.0</ele><time>2026-04-17T09:55:54Z</time></trkpt><trkpt lat="36.8846892833861" lon="15.096829143109519"><ele>56.0</ele><time>2026-04-17T09:55:55Z</time></trkpt><trkpt lat="36.884675004615815" lon="15.097024490522196"><ele>56.0</ele><time>2026-04-17T09:55:56Z</time></trkpt><trkpt lat="36.88468037467607" lon="15.09721920058776"><ele>56.0</ele><time>2026-04-17T09:55:57Z</time></trkpt><trkpt lat="36.88469487084551" lon="15.097413232751135"><ele>56.0</ele><time>2026-04-17T09:55:58Z</time></trkpt><trkpt lat="36.884705105202485" lon="15.097612188127474"><ele>56.0</ele><time>2026-04-17T09:55:59Z</time></trkpt><trkpt lat="36.88471250573936" lon="15.097816564620306"><ele>55.66666666666667</ele><time>2026-04-17T09:56:00Z</time></trkpt><trkpt lat="36.88472066302673" lon="15.098016818718591"><ele>55.33333333333333</ele><time>2026-04-17T09:56:01Z</time></trkpt><trkpt lat="36.884731045978434" lon="15.098219983310408"><ele>55.0</ele><time>2026-04-17T09:56:02Z</time></trkpt><trkpt lat="36.88474429676025" lon="15.098417238120028"><ele>54.33333333333333</ele><time>2026-04-17T09:56:03Z</time></trkpt><trkpt lat="36.88477585649318" lon="15.098607479256657"><ele>53.66666666666667</ele><time>2026-04-17T09:56:04Z</time></trkpt><trkpt lat="36.88484033913757" lon="15.098780317695246"><ele>53.0</ele><time>2026-04-17T09:56:05Z</time></trkpt><trkpt lat="36.88493869172749" lon="15.098925560697246"><ele>53.0</ele><time>2026-04-17T09:56:06Z</time></trkpt><trkpt lat="36.88506297939958" lon="15.099038619198033"><ele>53.0</ele><time>2026-04-17T09:56:07Z</time></trkpt><trkpt lat="36.88518197035319" lon="15.099124991643881"><ele>53.0</ele><time>2026-04-17T09:56:08Z</time></trkpt><trkpt lat="36.885294342479405" lon="15.099183710081027"><ele>53.0</ele><time>2026-04-17T09:56:09Z</time></trkpt><trkpt lat="36.88540414323296" lon="15.099231425581477"><ele>53.2</ele><time>2026-04-17T09:56:10Z</time></trkpt><trkpt lat="36.88550751295188" lon="15.099278165783502"><ele>53.4</ele><time>2026-04-17T09:56:11Z</time></trkpt><trkpt lat="36.88560308184741" lon="15.099326352213446"><ele>53.60000000000001</ele><time>2026-04-17T09:56:12Z</time></trkpt><trkpt lat="36.88569822934817" lon="15.099370335321032"><ele>53.800000000000004</ele><time>2026-04-17T09:56:13Z</time></trkpt><trkpt lat="36.88578353064755" lon="15.099413898656639"><ele>54.0</ele><time>2026-04-17T09:56:14Z</time></trkpt><trkpt lat="36.88586633060832" lon="15.09944781994041"><ele>54.0</ele><time>2026-04-17T09:56:15Z</time></trkpt><trkpt lat="36.88594745246102" lon="15.099471387563982"><ele>54.0</ele><time>2026-04-17T09:56:16Z</time></trkpt><trkpt lat="36.88603444706794" lon="15.09948676969774"><ele>54.0</ele><time>2026-04-17T09:56:17Z</time></trkpt><trkpt lat="36.88612763637182" lon="15.099491229255994"><ele>54.0</ele><time>2026-04-17T09:56:18Z</time></trkpt><trkpt lat="36.88621736042358" lon="15.099488747453496"><ele>54.0</ele><time>2026-04-17T09:56:19Z</time></trkpt><trkpt lat="36.88630371385441" lon="15.099478459503684"><ele>54.0</ele><time>2026-04-17T09:56:20Z</time></trkpt><trkpt lat="36.88638585962715" lon="15.099470102353026"><ele>54.0</ele><time>2026-04-17T09:56:21Z</time></trkpt><trkpt lat="36.88646967679695" lon="15.099458863388634"><ele>54.0</ele><time>2026-04-17T09:56:22Z</time></trkpt><trkpt lat="36.88655532780655" lon="15.099449121305295"><ele>54.0</ele><time>2026-04-17T09:56:23Z</time></trkpt><trkpt lat="36.88663925558882" lon="15.09944405708487"><ele>54.0</ele><time>2026-04-17T09:56:24Z</time></trkpt><trkpt lat="36.88672114503521" lon="15.099450980600936"><ele>54.0</ele><time>2026-04-17T09:56:25Z</time></trkpt><trkpt lat="36.88680357292901" lon="15.099461916106716"><ele>54.0</ele><time>2026-04-17T09:56:26Z</time></trkpt><trkpt lat="36.88688184244557" lon="15.099480445554917"><ele>54.0</ele><time>2026-04-17T09:56:27Z</time></trkpt><trkpt lat="36.88695403469106" lon="15.099502540847034"><ele>54.0</ele><time>2026-04-17T09:56:28Z</time></trkpt><trkpt lat="36.887021686270835" lon="15.099515219045404"><ele>54.0</ele><time>2026-04-17T09:56:29Z</time></trkpt><trkpt lat="36.88708755872469" lon="15.09952880121409"><ele>54.0</ele><time>2026-04-17T09:56:30Z</time></trkpt><trkpt lat="36.887158583597596" lon="15.099541805800794"><ele>54.0</ele><time>2026-04-17T09:56:31Z</time></trkpt><trkpt lat="36.88723150878892" lon="15.099558558836852"><ele>54.0</ele><time>2026-04-17T09:56:32Z</time></trkpt><trkpt lat="36.887301006595386" lon="15.099575708666066"><ele>54.0</ele><time>2026-04-17T09:56:33Z</time></trkpt><trkpt lat="36.88736620877331" lon="15.099595988151204"><ele>54.0</ele><time>2026-04-17T09:56:34Z</time></trkpt><trkpt lat="36.88747122475244" lon="15.099648840140476"><ele>54.0</ele><time>2026-04-17T09:56:36Z</time></trkpt><trkpt lat="36.88753420507509" lon="15.099706484525061"><ele>54.0</ele><time>2026-04-17T09:56:38Z</time></trkpt><trkpt lat="36.88749555606658" lon="15.099769465032058"><ele>54.0</ele><time>2026-04-17T10:13:18Z</time></trkpt></trkseg></trk></gpx>